<?xml version="1.0" encoding="UTF-8" standalone="no" ?>
<gpx xmlns="http://www.topografix.com/GPX/1/1" xmlns:xsi="http://www.w3.org/2001/XMLSchema-instance" xsi:schemaLocation="http://www.topografix.com/GPX/1/1 http://www.topografix.com/GPX/1/1/gpx.xsd" version="1.1" creator="VisuGPX - https://www.visugpx.com">
  <metadata>
    <name>Rando vtt Béruges 2019</name>
    <desc><![CDATA[Très boueux,limite praticable par endroit....]]></desc>
  </metadata>
  <trk>
    <name><![CDATA[Rando vtt Béruges 2019]]></name>
    <trkseg>
      <trkpt lat="46.56879" lon="0.19777">
        <ele>202.58</ele>
        <time>2019-12-01T07:47:26.774Z</time>
      </trkpt>
      <trkpt lat="46.56874" lon="0.19796">
        <ele>195.75</ele>
        <time>2019-12-01T07:47:27.774Z</time>
      </trkpt>
      <trkpt lat="46.56882" lon="0.19789">
        <ele>195.41</ele>
        <time>2019-12-01T07:47:29.741Z</time>
      </trkpt>
      <trkpt lat="46.56895" lon="0.19793">
        <ele>193.28</ele>
        <time>2019-12-01T07:47:42.741Z</time>
      </trkpt>
      <trkpt lat="46.56888" lon="0.19781">
        <ele>205.62</ele>
        <time>2019-12-01T07:47:53.741Z</time>
      </trkpt>
      <trkpt lat="46.56884" lon="0.19767">
        <ele>222.12</ele>
        <time>2019-12-01T07:47:56.764Z</time>
      </trkpt>
      <trkpt lat="46.5688" lon="0.19781">
        <ele>205.54</ele>
        <time>2019-12-01T07:49:21.999Z</time>
      </trkpt>
      <trkpt lat="46.5688" lon="0.19795">
        <ele>205.19</ele>
        <time>2019-12-01T07:49:30.999Z</time>
      </trkpt>
      <trkpt lat="46.5689" lon="0.19798">
        <ele>203.69</ele>
        <time>2019-12-01T07:50:11.999Z</time>
      </trkpt>
      <trkpt lat="46.56899" lon="0.19794">
        <ele>202.63</ele>
        <time>2019-12-01T07:50:19.999Z</time>
      </trkpt>
      <trkpt lat="46.56908" lon="0.19798">
        <ele>201.71</ele>
        <time>2019-12-01T07:50:26.999Z</time>
      </trkpt>
      <trkpt lat="46.56917" lon="0.19789">
        <ele>199.23</ele>
        <time>2019-12-01T07:51:25.999Z</time>
      </trkpt>
      <trkpt lat="46.56927" lon="0.19785">
        <ele>198.37</ele>
        <time>2019-12-01T07:51:32.999Z</time>
      </trkpt>
      <trkpt lat="46.56933" lon="0.19772">
        <ele>197.52</ele>
        <time>2019-12-01T07:51:37.999Z</time>
      </trkpt>
      <trkpt lat="46.56935" lon="0.19757">
        <ele>192.44</ele>
        <time>2019-12-01T07:51:40.999Z</time>
      </trkpt>
      <trkpt lat="46.56935" lon="0.19743">
        <ele>190.49</ele>
        <time>2019-12-01T07:51:42.999Z</time>
      </trkpt>
      <trkpt lat="46.56935" lon="0.19728">
        <ele>188.78</ele>
        <time>2019-12-01T07:51:45.999Z</time>
      </trkpt>
      <trkpt lat="46.56934" lon="0.19712">
        <ele>187.05</ele>
        <time>2019-12-01T07:51:48.999Z</time>
      </trkpt>
      <trkpt lat="46.56933" lon="0.19696">
        <ele>185.34</ele>
        <time>2019-12-01T07:51:51.999Z</time>
      </trkpt>
      <trkpt lat="46.56932" lon="0.19678">
        <ele>184.09</ele>
        <time>2019-12-01T07:51:54.999Z</time>
      </trkpt>
      <trkpt lat="46.56931" lon="0.19662">
        <ele>183.8</ele>
        <time>2019-12-01T07:51:57.999Z</time>
      </trkpt>
      <trkpt lat="46.5693" lon="0.19644">
        <ele>183.8</ele>
        <time>2019-12-01T07:52:00.999Z</time>
      </trkpt>
      <trkpt lat="46.56928" lon="0.19629">
        <ele>182.53</ele>
        <time>2019-12-01T07:52:03.999Z</time>
      </trkpt>
      <trkpt lat="46.56924" lon="0.19611">
        <ele>181.3</ele>
        <time>2019-12-01T07:52:06.999Z</time>
      </trkpt>
      <trkpt lat="46.56921" lon="0.19596">
        <ele>181.09</ele>
        <time>2019-12-01T07:52:08.999Z</time>
      </trkpt>
      <trkpt lat="46.5692" lon="0.19581">
        <ele>181.75</ele>
        <time>2019-12-01T07:52:10.999Z</time>
      </trkpt>
      <trkpt lat="46.56921" lon="0.19566">
        <ele>182.96</ele>
        <time>2019-12-01T07:52:12.999Z</time>
      </trkpt>
      <trkpt lat="46.56922" lon="0.19549">
        <ele>184.56</ele>
        <time>2019-12-01T07:52:14.999Z</time>
      </trkpt>
      <trkpt lat="46.56924" lon="0.19533">
        <ele>185.59</ele>
        <time>2019-12-01T07:52:16.999Z</time>
      </trkpt>
      <trkpt lat="46.56927" lon="0.1952">
        <ele>185.79</ele>
        <time>2019-12-01T07:52:18.999Z</time>
      </trkpt>
      <trkpt lat="46.56931" lon="0.19505">
        <ele>185.41</ele>
        <time>2019-12-01T07:52:20.999Z</time>
      </trkpt>
      <trkpt lat="46.56939" lon="0.19494">
        <ele>185.08</ele>
        <time>2019-12-01T07:52:22.999Z</time>
      </trkpt>
      <trkpt lat="46.56946" lon="0.19484">
        <ele>185.23</ele>
        <time>2019-12-01T07:52:24.999Z</time>
      </trkpt>
      <trkpt lat="46.56954" lon="0.19474">
        <ele>186.08</ele>
        <time>2019-12-01T07:52:26.999Z</time>
      </trkpt>
      <trkpt lat="46.56962" lon="0.19463">
        <ele>187.27</ele>
        <time>2019-12-01T07:52:28.999Z</time>
      </trkpt>
      <trkpt lat="46.5697" lon="0.19454">
        <ele>188.5</ele>
        <time>2019-12-01T07:52:30.999Z</time>
      </trkpt>
      <trkpt lat="46.56979" lon="0.19457">
        <ele>188.44</ele>
        <time>2019-12-01T07:52:34.999Z</time>
      </trkpt>
      <trkpt lat="46.56984" lon="0.19469">
        <ele>188.44</ele>
        <time>2019-12-01T07:52:36.999Z</time>
      </trkpt>
      <trkpt lat="46.56989" lon="0.19483">
        <ele>188.42</ele>
        <time>2019-12-01T07:52:39.999Z</time>
      </trkpt>
      <trkpt lat="46.56994" lon="0.19495">
        <ele>187.82</ele>
        <time>2019-12-01T07:52:41.999Z</time>
      </trkpt>
      <trkpt lat="46.57" lon="0.19506">
        <ele>187.27</ele>
        <time>2019-12-01T07:52:43.999Z</time>
      </trkpt>
      <trkpt lat="46.5701" lon="0.1952">
        <ele>185.8</ele>
        <time>2019-12-01T07:52:46.999Z</time>
      </trkpt>
      <trkpt lat="46.5702" lon="0.19523">
        <ele>184.14</ele>
        <time>2019-12-01T07:52:48.999Z</time>
      </trkpt>
      <trkpt lat="46.57032" lon="0.19523">
        <ele>183.88</ele>
        <time>2019-12-01T07:52:51.999Z</time>
      </trkpt>
      <trkpt lat="46.57044" lon="0.19525">
        <ele>182.16</ele>
        <time>2019-12-01T07:52:54.999Z</time>
      </trkpt>
      <trkpt lat="46.57053" lon="0.19524">
        <ele>179.55</ele>
        <time>2019-12-01T07:52:56.999Z</time>
      </trkpt>
      <trkpt lat="46.57063" lon="0.19524">
        <ele>177.34</ele>
        <time>2019-12-01T07:52:58.999Z</time>
      </trkpt>
      <trkpt lat="46.57074" lon="0.19522">
        <ele>175.87</ele>
        <time>2019-12-01T07:53:00.999Z</time>
      </trkpt>
      <trkpt lat="46.57085" lon="0.19517">
        <ele>174.43</ele>
        <time>2019-12-01T07:53:02.999Z</time>
      </trkpt>
      <trkpt lat="46.57095" lon="0.19514">
        <ele>173.78</ele>
        <time>2019-12-01T07:53:04.999Z</time>
      </trkpt>
      <trkpt lat="46.57108" lon="0.1951">
        <ele>173.78</ele>
        <time>2019-12-01T07:53:07.999Z</time>
      </trkpt>
      <trkpt lat="46.57117" lon="0.19508">
        <ele>173.88</ele>
        <time>2019-12-01T07:53:10.999Z</time>
      </trkpt>
      <trkpt lat="46.57126" lon="0.19511">
        <ele>173.95</ele>
        <time>2019-12-01T07:53:12.999Z</time>
      </trkpt>
      <trkpt lat="46.57138" lon="0.19512">
        <ele>174.11</ele>
        <time>2019-12-01T07:53:15.999Z</time>
      </trkpt>
      <trkpt lat="46.5715" lon="0.19518">
        <ele>175.03</ele>
        <time>2019-12-01T07:53:17.999Z</time>
      </trkpt>
      <trkpt lat="46.57159" lon="0.19521">
        <ele>175.11</ele>
        <time>2019-12-01T07:53:18.999Z</time>
      </trkpt>
      <trkpt lat="46.57171" lon="0.19529">
        <ele>175.93</ele>
        <time>2019-12-01T07:53:20.999Z</time>
      </trkpt>
      <trkpt lat="46.57183" lon="0.19533">
        <ele>175.67</ele>
        <time>2019-12-01T07:53:21.999Z</time>
      </trkpt>
      <trkpt lat="46.57195" lon="0.19542">
        <ele>174.64</ele>
        <time>2019-12-01T07:53:23.999Z</time>
      </trkpt>
      <trkpt lat="46.57203" lon="0.19548">
        <ele>173.87</ele>
        <time>2019-12-01T07:53:24.999Z</time>
      </trkpt>
      <trkpt lat="46.57213" lon="0.19552">
        <ele>172.51</ele>
        <time>2019-12-01T07:53:26.999Z</time>
      </trkpt>
      <trkpt lat="46.57223" lon="0.19557">
        <ele>172.39</ele>
        <time>2019-12-01T07:53:30.999Z</time>
      </trkpt>
      <trkpt lat="46.57231" lon="0.19563">
        <ele>172.55</ele>
        <time>2019-12-01T07:53:35.999Z</time>
      </trkpt>
      <trkpt lat="46.57241" lon="0.19572">
        <ele>172.71</ele>
        <time>2019-12-01T07:53:38.999Z</time>
      </trkpt>
      <trkpt lat="46.57251" lon="0.19585">
        <ele>172.87</ele>
        <time>2019-12-01T07:53:41.999Z</time>
      </trkpt>
      <trkpt lat="46.5726" lon="0.196">
        <ele>173.05</ele>
        <time>2019-12-01T07:53:45.999Z</time>
      </trkpt>
      <trkpt lat="46.57266" lon="0.19613">
        <ele>173.26</ele>
        <time>2019-12-01T07:53:48.999Z</time>
      </trkpt>
      <trkpt lat="46.57271" lon="0.19624">
        <ele>173.35</ele>
        <time>2019-12-01T07:53:50.999Z</time>
      </trkpt>
      <trkpt lat="46.57278" lon="0.19635">
        <ele>173.37</ele>
        <time>2019-12-01T07:53:53.999Z</time>
      </trkpt>
      <trkpt lat="46.57285" lon="0.19645">
        <ele>173.28</ele>
        <time>2019-12-01T07:53:56.999Z</time>
      </trkpt>
      <trkpt lat="46.5729" lon="0.19658">
        <ele>173.1</ele>
        <time>2019-12-01T07:53:59.999Z</time>
      </trkpt>
      <trkpt lat="46.57296" lon="0.19671">
        <ele>172.97</ele>
        <time>2019-12-01T07:54:01.999Z</time>
      </trkpt>
      <trkpt lat="46.57304" lon="0.19689">
        <ele>172.49</ele>
        <time>2019-12-01T07:54:05.999Z</time>
      </trkpt>
      <trkpt lat="46.5731" lon="0.197">
        <ele>172.23</ele>
        <time>2019-12-01T07:54:07.999Z</time>
      </trkpt>
      <trkpt lat="46.57316" lon="0.1971">
        <ele>171.07</ele>
        <time>2019-12-01T07:54:09.999Z</time>
      </trkpt>
      <trkpt lat="46.57321" lon="0.19723">
        <ele>170.9</ele>
        <time>2019-12-01T07:54:12.999Z</time>
      </trkpt>
      <trkpt lat="46.57329" lon="0.19735">
        <ele>170.78</ele>
        <time>2019-12-01T07:54:16.999Z</time>
      </trkpt>
      <trkpt lat="46.57336" lon="0.1975">
        <ele>170.81</ele>
        <time>2019-12-01T07:54:22.999Z</time>
      </trkpt>
      <trkpt lat="46.57341" lon="0.19764">
        <ele>170.66</ele>
        <time>2019-12-01T07:54:27.999Z</time>
      </trkpt>
      <trkpt lat="46.57343" lon="0.19782">
        <ele>170.49</ele>
        <time>2019-12-01T07:54:29.999Z</time>
      </trkpt>
      <trkpt lat="46.57343" lon="0.19795">
        <ele>170.38</ele>
        <time>2019-12-01T07:54:31.999Z</time>
      </trkpt>
      <trkpt lat="46.57343" lon="0.19811">
        <ele>170.23</ele>
        <time>2019-12-01T07:54:34.999Z</time>
      </trkpt>
      <trkpt lat="46.57344" lon="0.19826">
        <ele>170.06</ele>
        <time>2019-12-01T07:54:36.999Z</time>
      </trkpt>
      <trkpt lat="46.57343" lon="0.19841">
        <ele>168.7</ele>
        <time>2019-12-01T07:54:38.999Z</time>
      </trkpt>
      <trkpt lat="46.57346" lon="0.19859">
        <ele>167.63</ele>
        <time>2019-12-01T07:54:40.999Z</time>
      </trkpt>
      <trkpt lat="46.57344" lon="0.19874">
        <ele>166.22</ele>
        <time>2019-12-01T07:54:43.999Z</time>
      </trkpt>
      <trkpt lat="46.57344" lon="0.19892">
        <ele>163.88</ele>
        <time>2019-12-01T07:54:46.999Z</time>
      </trkpt>
      <trkpt lat="46.57345" lon="0.19911">
        <ele>163.56</ele>
        <time>2019-12-01T07:54:49.999Z</time>
      </trkpt>
      <trkpt lat="46.57344" lon="0.19927">
        <ele>163.28</ele>
        <time>2019-12-01T07:54:53.999Z</time>
      </trkpt>
      <trkpt lat="46.57346" lon="0.19939">
        <ele>163.2</ele>
        <time>2019-12-01T07:54:56.999Z</time>
      </trkpt>
      <trkpt lat="46.57348" lon="0.19952">
        <ele>163.31</ele>
        <time>2019-12-01T07:55:00.999Z</time>
      </trkpt>
      <trkpt lat="46.57354" lon="0.19964">
        <ele>163.52</ele>
        <time>2019-12-01T07:55:04.999Z</time>
      </trkpt>
      <trkpt lat="46.57364" lon="0.19974">
        <ele>164.06</ele>
        <time>2019-12-01T07:55:08.999Z</time>
      </trkpt>
      <trkpt lat="46.57373" lon="0.19979">
        <ele>164.68</ele>
        <time>2019-12-01T07:55:11.999Z</time>
      </trkpt>
      <trkpt lat="46.57384" lon="0.19986">
        <ele>165.47</ele>
        <time>2019-12-01T07:55:14.999Z</time>
      </trkpt>
      <trkpt lat="46.57393" lon="0.1999">
        <ele>166.43</ele>
        <time>2019-12-01T07:55:17.999Z</time>
      </trkpt>
      <trkpt lat="46.57403" lon="0.19998">
        <ele>167.7</ele>
        <time>2019-12-01T07:55:21.999Z</time>
      </trkpt>
      <trkpt lat="46.57414" lon="0.20008">
        <ele>169.04</ele>
        <time>2019-12-01T07:55:25.999Z</time>
      </trkpt>
      <trkpt lat="46.57424" lon="0.20015">
        <ele>170</ele>
        <time>2019-12-01T07:55:28.999Z</time>
      </trkpt>
      <trkpt lat="46.57432" lon="0.20021">
        <ele>171.11</ele>
        <time>2019-12-01T07:55:32.999Z</time>
      </trkpt>
      <trkpt lat="46.57441" lon="0.20034">
        <ele>171.84</ele>
        <time>2019-12-01T07:55:35.999Z</time>
      </trkpt>
      <trkpt lat="46.57448" lon="0.20045">
        <ele>172.79</ele>
        <time>2019-12-01T07:55:40.999Z</time>
      </trkpt>
      <trkpt lat="46.57456" lon="0.20056">
        <ele>173.27</ele>
        <time>2019-12-01T07:55:44.999Z</time>
      </trkpt>
      <trkpt lat="46.57464" lon="0.20064">
        <ele>173.65</ele>
        <time>2019-12-01T07:55:47.999Z</time>
      </trkpt>
      <trkpt lat="46.57471" lon="0.20073">
        <ele>174.23</ele>
        <time>2019-12-01T07:55:50.999Z</time>
      </trkpt>
      <trkpt lat="46.5748" lon="0.20083">
        <ele>175.37</ele>
        <time>2019-12-01T07:55:55.999Z</time>
      </trkpt>
      <trkpt lat="46.57487" lon="0.20093">
        <ele>176.7</ele>
        <time>2019-12-01T07:56:01.999Z</time>
      </trkpt>
      <trkpt lat="46.57494" lon="0.20102">
        <ele>177.67</ele>
        <time>2019-12-01T07:56:05.999Z</time>
      </trkpt>
      <trkpt lat="46.57505" lon="0.20108">
        <ele>178.8</ele>
        <time>2019-12-01T07:56:10.999Z</time>
      </trkpt>
      <trkpt lat="46.57516" lon="0.20112">
        <ele>180.06</ele>
        <time>2019-12-01T07:56:19.999Z</time>
      </trkpt>
      <trkpt lat="46.57528" lon="0.20113">
        <ele>180.2</ele>
        <time>2019-12-01T07:56:23.999Z</time>
      </trkpt>
      <trkpt lat="46.57538" lon="0.20111">
        <ele>180.22</ele>
        <time>2019-12-01T07:56:28.999Z</time>
      </trkpt>
      <trkpt lat="46.57547" lon="0.20113">
        <ele>180.12</ele>
        <time>2019-12-01T07:56:32.999Z</time>
      </trkpt>
      <trkpt lat="46.57557" lon="0.20114">
        <ele>179.67</ele>
        <time>2019-12-01T07:56:36.999Z</time>
      </trkpt>
      <trkpt lat="46.57567" lon="0.20112">
        <ele>177.73</ele>
        <time>2019-12-01T07:56:50.999Z</time>
      </trkpt>
      <trkpt lat="46.57578" lon="0.2011">
        <ele>177.48</ele>
        <time>2019-12-01T07:56:54.999Z</time>
      </trkpt>
      <trkpt lat="46.57589" lon="0.20112">
        <ele>177.27</ele>
        <time>2019-12-01T07:56:58.999Z</time>
      </trkpt>
      <trkpt lat="46.57598" lon="0.20109">
        <ele>176.9</ele>
        <time>2019-12-01T07:57:01.999Z</time>
      </trkpt>
      <trkpt lat="46.5761" lon="0.20108">
        <ele>176.47</ele>
        <time>2019-12-01T07:57:04.999Z</time>
      </trkpt>
      <trkpt lat="46.57622" lon="0.20108">
        <ele>175.83</ele>
        <time>2019-12-01T07:57:08.999Z</time>
      </trkpt>
      <trkpt lat="46.57636" lon="0.2011">
        <ele>175.21</ele>
        <time>2019-12-01T07:57:12.999Z</time>
      </trkpt>
      <trkpt lat="46.57647" lon="0.20114">
        <ele>174.88</ele>
        <time>2019-12-01T07:57:15.999Z</time>
      </trkpt>
      <trkpt lat="46.57659" lon="0.20117">
        <ele>174.6</ele>
        <time>2019-12-01T07:57:18.999Z</time>
      </trkpt>
      <trkpt lat="46.57668" lon="0.20113">
        <ele>174.35</ele>
        <time>2019-12-01T07:57:21.999Z</time>
      </trkpt>
      <trkpt lat="46.57679" lon="0.20111">
        <ele>174</ele>
        <time>2019-12-01T07:57:24.999Z</time>
      </trkpt>
      <trkpt lat="46.57689" lon="0.20107">
        <ele>173.71</ele>
        <time>2019-12-01T07:57:27.999Z</time>
      </trkpt>
      <trkpt lat="46.57696" lon="0.20097">
        <ele>173.25</ele>
        <time>2019-12-01T07:57:30.999Z</time>
      </trkpt>
      <trkpt lat="46.57704" lon="0.20085">
        <ele>172.48</ele>
        <time>2019-12-01T07:57:34.999Z</time>
      </trkpt>
      <trkpt lat="46.57709" lon="0.20072">
        <ele>171.8</ele>
        <time>2019-12-01T07:57:38.999Z</time>
      </trkpt>
      <trkpt lat="46.57713" lon="0.2006">
        <ele>171.48</ele>
        <time>2019-12-01T07:57:41.999Z</time>
      </trkpt>
      <trkpt lat="46.57718" lon="0.20047">
        <ele>171.56</ele>
        <time>2019-12-01T07:57:45.999Z</time>
      </trkpt>
      <trkpt lat="46.57726" lon="0.20035">
        <ele>171.87</ele>
        <time>2019-12-01T07:57:49.999Z</time>
      </trkpt>
      <trkpt lat="46.57732" lon="0.20024">
        <ele>172.3</ele>
        <time>2019-12-01T07:57:53.999Z</time>
      </trkpt>
      <trkpt lat="46.57742" lon="0.20026">
        <ele>172.86</ele>
        <time>2019-12-01T07:57:57.999Z</time>
      </trkpt>
      <trkpt lat="46.57752" lon="0.20021">
        <ele>173.32</ele>
        <time>2019-12-01T07:58:00.999Z</time>
      </trkpt>
      <trkpt lat="46.57762" lon="0.20016">
        <ele>173.92</ele>
        <time>2019-12-01T07:58:03.999Z</time>
      </trkpt>
      <trkpt lat="46.57771" lon="0.2001">
        <ele>174.91</ele>
        <time>2019-12-01T07:58:07.999Z</time>
      </trkpt>
      <trkpt lat="46.5778" lon="0.20006">
        <ele>175.92</ele>
        <time>2019-12-01T07:58:11.999Z</time>
      </trkpt>
      <trkpt lat="46.57792" lon="0.19996">
        <ele>176.47</ele>
        <time>2019-12-01T07:58:14.999Z</time>
      </trkpt>
      <trkpt lat="46.57803" lon="0.19992">
        <ele>176.85</ele>
        <time>2019-12-01T07:58:17.999Z</time>
      </trkpt>
      <trkpt lat="46.57812" lon="0.19991">
        <ele>177.19</ele>
        <time>2019-12-01T07:58:21.999Z</time>
      </trkpt>
      <trkpt lat="46.57824" lon="0.19987">
        <ele>177.34</ele>
        <time>2019-12-01T07:58:25.999Z</time>
      </trkpt>
      <trkpt lat="46.57833" lon="0.19983">
        <ele>177.25</ele>
        <time>2019-12-01T07:58:28.999Z</time>
      </trkpt>
      <trkpt lat="46.57842" lon="0.19979">
        <ele>177.33</ele>
        <time>2019-12-01T07:58:31.999Z</time>
      </trkpt>
      <trkpt lat="46.57852" lon="0.19975">
        <ele>177.54</ele>
        <time>2019-12-01T07:58:34.999Z</time>
      </trkpt>
      <trkpt lat="46.57861" lon="0.19974">
        <ele>178.19</ele>
        <time>2019-12-01T07:58:38.999Z</time>
      </trkpt>
      <trkpt lat="46.5787" lon="0.19963">
        <ele>179.1</ele>
        <time>2019-12-01T07:58:43.999Z</time>
      </trkpt>
      <trkpt lat="46.57882" lon="0.1996">
        <ele>179.57</ele>
        <time>2019-12-01T07:58:47.999Z</time>
      </trkpt>
      <trkpt lat="46.57892" lon="0.19963">
        <ele>179.87</ele>
        <time>2019-12-01T07:58:50.999Z</time>
      </trkpt>
      <trkpt lat="46.57901" lon="0.1996">
        <ele>180.42</ele>
        <time>2019-12-01T07:58:54.999Z</time>
      </trkpt>
      <trkpt lat="46.57911" lon="0.19953">
        <ele>180.6</ele>
        <time>2019-12-01T07:58:57.999Z</time>
      </trkpt>
      <trkpt lat="46.57924" lon="0.1995">
        <ele>180.64</ele>
        <time>2019-12-01T07:59:01.999Z</time>
      </trkpt>
      <trkpt lat="46.57939" lon="0.19947">
        <ele>180.55</ele>
        <time>2019-12-01T07:59:04.999Z</time>
      </trkpt>
      <trkpt lat="46.57949" lon="0.19946">
        <ele>180.61</ele>
        <time>2019-12-01T07:59:06.999Z</time>
      </trkpt>
      <trkpt lat="46.57961" lon="0.19944">
        <ele>180.85</ele>
        <time>2019-12-01T07:59:09.999Z</time>
      </trkpt>
      <trkpt lat="46.5797" lon="0.19942">
        <ele>181.1</ele>
        <time>2019-12-01T07:59:13.999Z</time>
      </trkpt>
      <trkpt lat="46.57979" lon="0.19936">
        <ele>181.17</ele>
        <time>2019-12-01T07:59:18.999Z</time>
      </trkpt>
      <trkpt lat="46.57982" lon="0.19922">
        <ele>181.2</ele>
        <time>2019-12-01T07:59:21.999Z</time>
      </trkpt>
      <trkpt lat="46.57985" lon="0.19907">
        <ele>180.75</ele>
        <time>2019-12-01T07:59:24.999Z</time>
      </trkpt>
      <trkpt lat="46.57986" lon="0.19888">
        <ele>180.08</ele>
        <time>2019-12-01T07:59:27.999Z</time>
      </trkpt>
      <trkpt lat="46.57995" lon="0.19885">
        <ele>180.04</ele>
        <time>2019-12-01T07:59:29.999Z</time>
      </trkpt>
      <trkpt lat="46.58004" lon="0.19882">
        <ele>180.05</ele>
        <time>2019-12-01T07:59:32.999Z</time>
      </trkpt>
      <trkpt lat="46.58015" lon="0.19876">
        <ele>180.14</ele>
        <time>2019-12-01T07:59:35.999Z</time>
      </trkpt>
      <trkpt lat="46.58025" lon="0.19871">
        <ele>180.18</ele>
        <time>2019-12-01T07:59:37.999Z</time>
      </trkpt>
      <trkpt lat="46.58033" lon="0.19864">
        <ele>180.24</ele>
        <time>2019-12-01T07:59:39.999Z</time>
      </trkpt>
      <trkpt lat="46.58044" lon="0.19857">
        <ele>180.43</ele>
        <time>2019-12-01T07:59:42.999Z</time>
      </trkpt>
      <trkpt lat="46.58053" lon="0.19844">
        <ele>180.63</ele>
        <time>2019-12-01T07:59:45.999Z</time>
      </trkpt>
      <trkpt lat="46.58064" lon="0.19831">
        <ele>180.68</ele>
        <time>2019-12-01T07:59:48.999Z</time>
      </trkpt>
      <trkpt lat="46.58072" lon="0.19822">
        <ele>180.75</ele>
        <time>2019-12-01T07:59:51.999Z</time>
      </trkpt>
      <trkpt lat="46.58082" lon="0.1981">
        <ele>181.29</ele>
        <time>2019-12-01T07:59:53.999Z</time>
      </trkpt>
      <trkpt lat="46.58091" lon="0.19799">
        <ele>181.36</ele>
        <time>2019-12-01T07:59:55.999Z</time>
      </trkpt>
      <trkpt lat="46.58102" lon="0.19787">
        <ele>182.75</ele>
        <time>2019-12-01T07:59:58.999Z</time>
      </trkpt>
      <trkpt lat="46.58109" lon="0.19777">
        <ele>182.64</ele>
        <time>2019-12-01T08:00:00.999Z</time>
      </trkpt>
      <trkpt lat="46.58116" lon="0.19763">
        <ele>181.51</ele>
        <time>2019-12-01T08:00:02.999Z</time>
      </trkpt>
      <trkpt lat="46.58121" lon="0.19752">
        <ele>179.85</ele>
        <time>2019-12-01T08:00:04.999Z</time>
      </trkpt>
      <trkpt lat="46.58127" lon="0.19735">
        <ele>179.6</ele>
        <time>2019-12-01T08:00:07.999Z</time>
      </trkpt>
      <trkpt lat="46.58132" lon="0.19718">
        <ele>178.83</ele>
        <time>2019-12-01T08:00:10.999Z</time>
      </trkpt>
      <trkpt lat="46.58134" lon="0.19705">
        <ele>178.54</ele>
        <time>2019-12-01T08:00:12.999Z</time>
      </trkpt>
      <trkpt lat="46.58136" lon="0.19689">
        <ele>178.2</ele>
        <time>2019-12-01T08:00:14.999Z</time>
      </trkpt>
      <trkpt lat="46.58142" lon="0.1967">
        <ele>177.32</ele>
        <time>2019-12-01T08:00:17.999Z</time>
      </trkpt>
      <trkpt lat="46.58147" lon="0.19657">
        <ele>175.75</ele>
        <time>2019-12-01T08:00:19.999Z</time>
      </trkpt>
      <trkpt lat="46.58154" lon="0.19647">
        <ele>174.56</ele>
        <time>2019-12-01T08:00:21.999Z</time>
      </trkpt>
      <trkpt lat="46.58162" lon="0.19636">
        <ele>174.09</ele>
        <time>2019-12-01T08:00:23.999Z</time>
      </trkpt>
      <trkpt lat="46.58173" lon="0.19624">
        <ele>173.64</ele>
        <time>2019-12-01T08:00:26.999Z</time>
      </trkpt>
      <trkpt lat="46.58185" lon="0.19615">
        <ele>173.62</ele>
        <time>2019-12-01T08:00:29.999Z</time>
      </trkpt>
      <trkpt lat="46.58196" lon="0.19606">
        <ele>173.52</ele>
        <time>2019-12-01T08:00:31.999Z</time>
      </trkpt>
      <trkpt lat="46.58204" lon="0.19597">
        <ele>173.06</ele>
        <time>2019-12-01T08:00:34.999Z</time>
      </trkpt>
      <trkpt lat="46.58209" lon="0.19585">
        <ele>173.13</ele>
        <time>2019-12-01T08:00:37.999Z</time>
      </trkpt>
      <trkpt lat="46.58217" lon="0.19576">
        <ele>173.34</ele>
        <time>2019-12-01T08:00:40.999Z</time>
      </trkpt>
      <trkpt lat="46.58227" lon="0.19563">
        <ele>174.79</ele>
        <time>2019-12-01T08:00:43.999Z</time>
      </trkpt>
      <trkpt lat="46.58236" lon="0.19557">
        <ele>176.25</ele>
        <time>2019-12-01T08:00:45.999Z</time>
      </trkpt>
      <trkpt lat="46.58244" lon="0.19552">
        <ele>177.94</ele>
        <time>2019-12-01T08:00:47.999Z</time>
      </trkpt>
      <trkpt lat="46.58252" lon="0.19543">
        <ele>179.56</ele>
        <time>2019-12-01T08:00:50.999Z</time>
      </trkpt>
      <trkpt lat="46.58262" lon="0.19534">
        <ele>179.88</ele>
        <time>2019-12-01T08:00:53.999Z</time>
      </trkpt>
      <trkpt lat="46.58277" lon="0.19529">
        <ele>180.03</ele>
        <time>2019-12-01T08:00:55.999Z</time>
      </trkpt>
      <trkpt lat="46.58286" lon="0.19526">
        <ele>180.24</ele>
        <time>2019-12-01T08:00:57.999Z</time>
      </trkpt>
      <trkpt lat="46.58293" lon="0.19518">
        <ele>180.43</ele>
        <time>2019-12-01T08:01:00.999Z</time>
      </trkpt>
      <trkpt lat="46.58297" lon="0.195">
        <ele>179.81</ele>
        <time>2019-12-01T08:01:03.999Z</time>
      </trkpt>
      <trkpt lat="46.58301" lon="0.19487">
        <ele>178.63</ele>
        <time>2019-12-01T08:01:05.999Z</time>
      </trkpt>
      <trkpt lat="46.5831" lon="0.19474">
        <ele>177.31</ele>
        <time>2019-12-01T08:01:08.999Z</time>
      </trkpt>
      <trkpt lat="46.58316" lon="0.19464">
        <ele>176.05</ele>
        <time>2019-12-01T08:01:10.999Z</time>
      </trkpt>
      <trkpt lat="46.58324" lon="0.19452">
        <ele>174.52</ele>
        <time>2019-12-01T08:01:12.999Z</time>
      </trkpt>
      <trkpt lat="46.58333" lon="0.19438">
        <ele>173.46</ele>
        <time>2019-12-01T08:01:14.999Z</time>
      </trkpt>
      <trkpt lat="46.58337" lon="0.19426">
        <ele>173.05</ele>
        <time>2019-12-01T08:01:16.999Z</time>
      </trkpt>
      <trkpt lat="46.58342" lon="0.19411">
        <ele>173.47</ele>
        <time>2019-12-01T08:01:18.999Z</time>
      </trkpt>
      <trkpt lat="46.58349" lon="0.19399">
        <ele>174.21</ele>
        <time>2019-12-01T08:01:20.999Z</time>
      </trkpt>
      <trkpt lat="46.58356" lon="0.19383">
        <ele>174.53</ele>
        <time>2019-12-01T08:01:22.999Z</time>
      </trkpt>
      <trkpt lat="46.58364" lon="0.19369">
        <ele>175.16</ele>
        <time>2019-12-01T08:01:24.999Z</time>
      </trkpt>
      <trkpt lat="46.58369" lon="0.19355">
        <ele>175.25</ele>
        <time>2019-12-01T08:01:26.999Z</time>
      </trkpt>
      <trkpt lat="46.58376" lon="0.19337">
        <ele>174.53</ele>
        <time>2019-12-01T08:01:29.999Z</time>
      </trkpt>
      <trkpt lat="46.58381" lon="0.19324">
        <ele>174.65</ele>
        <time>2019-12-01T08:01:31.999Z</time>
      </trkpt>
      <trkpt lat="46.58389" lon="0.19308">
        <ele>174.59</ele>
        <time>2019-12-01T08:01:34.999Z</time>
      </trkpt>
      <trkpt lat="46.58393" lon="0.19296">
        <ele>174.05</ele>
        <time>2019-12-01T08:01:36.999Z</time>
      </trkpt>
      <trkpt lat="46.58398" lon="0.19283">
        <ele>173.71</ele>
        <time>2019-12-01T08:01:38.999Z</time>
      </trkpt>
      <trkpt lat="46.58406" lon="0.19268">
        <ele>174.06</ele>
        <time>2019-12-01T08:01:41.999Z</time>
      </trkpt>
      <trkpt lat="46.58413" lon="0.19256">
        <ele>173.73</ele>
        <time>2019-12-01T08:01:43.999Z</time>
      </trkpt>
      <trkpt lat="46.58421" lon="0.19244">
        <ele>172.76</ele>
        <time>2019-12-01T08:01:45.999Z</time>
      </trkpt>
      <trkpt lat="46.58428" lon="0.19235">
        <ele>171.19</ele>
        <time>2019-12-01T08:01:47.999Z</time>
      </trkpt>
      <trkpt lat="46.58433" lon="0.19219">
        <ele>168.95</ele>
        <time>2019-12-01T08:01:50.999Z</time>
      </trkpt>
      <trkpt lat="46.58439" lon="0.19207">
        <ele>167.08</ele>
        <time>2019-12-01T08:01:52.999Z</time>
      </trkpt>
      <trkpt lat="46.58443" lon="0.19194">
        <ele>165.89</ele>
        <time>2019-12-01T08:01:54.999Z</time>
      </trkpt>
      <trkpt lat="46.58447" lon="0.1918">
        <ele>165.85</ele>
        <time>2019-12-01T08:01:56.999Z</time>
      </trkpt>
      <trkpt lat="46.58455" lon="0.19168">
        <ele>166.46</ele>
        <time>2019-12-01T08:01:58.999Z</time>
      </trkpt>
      <trkpt lat="46.58461" lon="0.19155">
        <ele>167.47</ele>
        <time>2019-12-01T08:02:01.999Z</time>
      </trkpt>
      <trkpt lat="46.58461" lon="0.1914">
        <ele>167.95</ele>
        <time>2019-12-01T08:02:03.999Z</time>
      </trkpt>
      <trkpt lat="46.58461" lon="0.19123">
        <ele>168.16</ele>
        <time>2019-12-01T08:02:06.999Z</time>
      </trkpt>
      <trkpt lat="46.58464" lon="0.19106">
        <ele>168.53</ele>
        <time>2019-12-01T08:02:09.999Z</time>
      </trkpt>
      <trkpt lat="46.58467" lon="0.19093">
        <ele>169.2</ele>
        <time>2019-12-01T08:02:13.999Z</time>
      </trkpt>
      <trkpt lat="46.58478" lon="0.19093">
        <ele>169.79</ele>
        <time>2019-12-01T08:02:18.999Z</time>
      </trkpt>
      <trkpt lat="46.58487" lon="0.19086">
        <ele>170.11</ele>
        <time>2019-12-01T08:02:23.999Z</time>
      </trkpt>
      <trkpt lat="46.58495" lon="0.19076">
        <ele>170.68</ele>
        <time>2019-12-01T08:02:30.999Z</time>
      </trkpt>
      <trkpt lat="46.58501" lon="0.19063">
        <ele>170.84</ele>
        <time>2019-12-01T08:02:33.999Z</time>
      </trkpt>
      <trkpt lat="46.5851" lon="0.19056">
        <ele>171.62</ele>
        <time>2019-12-01T08:02:47.999Z</time>
      </trkpt>
      <trkpt lat="46.58516" lon="0.19045">
        <ele>173.86</ele>
        <time>2019-12-01T08:02:56.999Z</time>
      </trkpt>
      <trkpt lat="46.58523" lon="0.19031">
        <ele>174.95</ele>
        <time>2019-12-01T08:03:00.999Z</time>
      </trkpt>
      <trkpt lat="46.58531" lon="0.19023">
        <ele>175.65</ele>
        <time>2019-12-01T08:03:03.999Z</time>
      </trkpt>
      <trkpt lat="46.58541" lon="0.19013">
        <ele>176.29</ele>
        <time>2019-12-01T08:03:06.999Z</time>
      </trkpt>
      <trkpt lat="46.58552" lon="0.19004">
        <ele>176.88</ele>
        <time>2019-12-01T08:03:09.999Z</time>
      </trkpt>
      <trkpt lat="46.58562" lon="0.19001">
        <ele>177.43</ele>
        <time>2019-12-01T08:03:12.999Z</time>
      </trkpt>
      <trkpt lat="46.58574" lon="0.19">
        <ele>177.73</ele>
        <time>2019-12-01T08:03:14.999Z</time>
      </trkpt>
      <trkpt lat="46.58583" lon="0.18999">
        <ele>178.01</ele>
        <time>2019-12-01T08:03:16.999Z</time>
      </trkpt>
      <trkpt lat="46.58596" lon="0.18994">
        <ele>178.44</ele>
        <time>2019-12-01T08:03:19.999Z</time>
      </trkpt>
      <trkpt lat="46.58606" lon="0.1899">
        <ele>178.8</ele>
        <time>2019-12-01T08:03:22.999Z</time>
      </trkpt>
      <trkpt lat="46.58615" lon="0.18988">
        <ele>179.99</ele>
        <time>2019-12-01T08:03:24.999Z</time>
      </trkpt>
      <trkpt lat="46.58624" lon="0.18988">
        <ele>180.93</ele>
        <time>2019-12-01T08:03:26.999Z</time>
      </trkpt>
      <trkpt lat="46.58636" lon="0.18984">
        <ele>181.13</ele>
        <time>2019-12-01T08:03:29.999Z</time>
      </trkpt>
      <trkpt lat="46.58646" lon="0.18974">
        <ele>181.25</ele>
        <time>2019-12-01T08:03:32.999Z</time>
      </trkpt>
      <trkpt lat="46.58653" lon="0.18962">
        <ele>181.04</ele>
        <time>2019-12-01T08:03:35.999Z</time>
      </trkpt>
      <trkpt lat="46.58658" lon="0.18946">
        <ele>179.71</ele>
        <time>2019-12-01T08:03:38.999Z</time>
      </trkpt>
      <trkpt lat="46.58663" lon="0.18929">
        <ele>178.13</ele>
        <time>2019-12-01T08:03:41.999Z</time>
      </trkpt>
      <trkpt lat="46.58667" lon="0.18914">
        <ele>177.7</ele>
        <time>2019-12-01T08:03:43.999Z</time>
      </trkpt>
      <trkpt lat="46.58671" lon="0.18901">
        <ele>177.84</ele>
        <time>2019-12-01T08:03:45.999Z</time>
      </trkpt>
      <trkpt lat="46.58677" lon="0.18885">
        <ele>179.33</ele>
        <time>2019-12-01T08:03:48.999Z</time>
      </trkpt>
      <trkpt lat="46.58683" lon="0.18866">
        <ele>180.93</ele>
        <time>2019-12-01T08:03:51.999Z</time>
      </trkpt>
      <trkpt lat="46.58689" lon="0.18851">
        <ele>182.62</ele>
        <time>2019-12-01T08:03:54.999Z</time>
      </trkpt>
      <trkpt lat="46.58692" lon="0.18838">
        <ele>183.68</ele>
        <time>2019-12-01T08:03:56.999Z</time>
      </trkpt>
      <trkpt lat="46.58696" lon="0.18823">
        <ele>184.09</ele>
        <time>2019-12-01T08:03:58.999Z</time>
      </trkpt>
      <trkpt lat="46.58701" lon="0.18807">
        <ele>184.08</ele>
        <time>2019-12-01T08:04:00.999Z</time>
      </trkpt>
      <trkpt lat="46.58704" lon="0.18795">
        <ele>183.51</ele>
        <time>2019-12-01T08:04:02.999Z</time>
      </trkpt>
      <trkpt lat="46.58708" lon="0.18782">
        <ele>182.81</ele>
        <time>2019-12-01T08:04:04.999Z</time>
      </trkpt>
      <trkpt lat="46.58713" lon="0.18769">
        <ele>182.57</ele>
        <time>2019-12-01T08:04:06.999Z</time>
      </trkpt>
      <trkpt lat="46.58718" lon="0.18753">
        <ele>183</ele>
        <time>2019-12-01T08:04:09.999Z</time>
      </trkpt>
      <trkpt lat="46.58722" lon="0.18737">
        <ele>182.57</ele>
        <time>2019-12-01T08:04:12.999Z</time>
      </trkpt>
      <trkpt lat="46.58726" lon="0.18719">
        <ele>181.29</ele>
        <time>2019-12-01T08:04:15.999Z</time>
      </trkpt>
      <trkpt lat="46.58731" lon="0.18701">
        <ele>180</ele>
        <time>2019-12-01T08:04:18.999Z</time>
      </trkpt>
      <trkpt lat="46.58735" lon="0.18688">
        <ele>179.45</ele>
        <time>2019-12-01T08:04:20.999Z</time>
      </trkpt>
      <trkpt lat="46.58738" lon="0.18675">
        <ele>179.13</ele>
        <time>2019-12-01T08:04:22.999Z</time>
      </trkpt>
      <trkpt lat="46.58745" lon="0.18656">
        <ele>179.09</ele>
        <time>2019-12-01T08:04:25.999Z</time>
      </trkpt>
      <trkpt lat="46.58751" lon="0.1864">
        <ele>178.97</ele>
        <time>2019-12-01T08:04:28.999Z</time>
      </trkpt>
      <trkpt lat="46.58757" lon="0.18625">
        <ele>178.67</ele>
        <time>2019-12-01T08:04:31.999Z</time>
      </trkpt>
      <trkpt lat="46.58761" lon="0.18613">
        <ele>178.91</ele>
        <time>2019-12-01T08:04:33.999Z</time>
      </trkpt>
      <trkpt lat="46.58766" lon="0.18599">
        <ele>179.3</ele>
        <time>2019-12-01T08:04:35.999Z</time>
      </trkpt>
      <trkpt lat="46.58771" lon="0.18584">
        <ele>179.75</ele>
        <time>2019-12-01T08:04:38.999Z</time>
      </trkpt>
      <trkpt lat="46.58776" lon="0.18569">
        <ele>179.95</ele>
        <time>2019-12-01T08:04:41.999Z</time>
      </trkpt>
      <trkpt lat="46.58785" lon="0.18567">
        <ele>180.47</ele>
        <time>2019-12-01T08:04:45.999Z</time>
      </trkpt>
      <trkpt lat="46.58794" lon="0.1858">
        <ele>181.15</ele>
        <time>2019-12-01T08:04:49.999Z</time>
      </trkpt>
      <trkpt lat="46.58801" lon="0.18588">
        <ele>181.51</ele>
        <time>2019-12-01T08:04:51.999Z</time>
      </trkpt>
      <trkpt lat="46.5881" lon="0.18598">
        <ele>182.04</ele>
        <time>2019-12-01T08:04:54.999Z</time>
      </trkpt>
      <trkpt lat="46.58821" lon="0.18612">
        <ele>183.7</ele>
        <time>2019-12-01T08:04:57.999Z</time>
      </trkpt>
      <trkpt lat="46.58829" lon="0.18628">
        <ele>186.4</ele>
        <time>2019-12-01T08:04:59.999Z</time>
      </trkpt>
      <trkpt lat="46.58836" lon="0.18641">
        <ele>187.8</ele>
        <time>2019-12-01T08:05:02.999Z</time>
      </trkpt>
      <trkpt lat="46.58844" lon="0.1865">
        <ele>188.59</ele>
        <time>2019-12-01T08:05:04.999Z</time>
      </trkpt>
      <trkpt lat="46.5885" lon="0.18662">
        <ele>188.99</ele>
        <time>2019-12-01T08:05:06.999Z</time>
      </trkpt>
      <trkpt lat="46.58857" lon="0.18673">
        <ele>189.14</ele>
        <time>2019-12-01T08:05:08.999Z</time>
      </trkpt>
      <trkpt lat="46.58864" lon="0.18685">
        <ele>189.55</ele>
        <time>2019-12-01T08:05:10.999Z</time>
      </trkpt>
      <trkpt lat="46.58873" lon="0.187">
        <ele>189.76</ele>
        <time>2019-12-01T08:05:13.999Z</time>
      </trkpt>
      <trkpt lat="46.58878" lon="0.18718">
        <ele>189.4</ele>
        <time>2019-12-01T08:05:16.999Z</time>
      </trkpt>
      <trkpt lat="46.58883" lon="0.18732">
        <ele>188.08</ele>
        <time>2019-12-01T08:05:19.999Z</time>
      </trkpt>
      <trkpt lat="46.58892" lon="0.18744">
        <ele>187.44</ele>
        <time>2019-12-01T08:05:22.999Z</time>
      </trkpt>
      <trkpt lat="46.58899" lon="0.18754">
        <ele>187.44</ele>
        <time>2019-12-01T08:05:25.999Z</time>
      </trkpt>
      <trkpt lat="46.58908" lon="0.18765">
        <ele>187.39</ele>
        <time>2019-12-01T08:05:28.999Z</time>
      </trkpt>
      <trkpt lat="46.58915" lon="0.18777">
        <ele>187.47</ele>
        <time>2019-12-01T08:05:31.999Z</time>
      </trkpt>
      <trkpt lat="46.58921" lon="0.18787">
        <ele>187.59</ele>
        <time>2019-12-01T08:05:33.999Z</time>
      </trkpt>
      <trkpt lat="46.58926" lon="0.18802">
        <ele>187.92</ele>
        <time>2019-12-01T08:05:38.999Z</time>
      </trkpt>
      <trkpt lat="46.58928" lon="0.18818">
        <ele>189.46</ele>
        <time>2019-12-01T08:05:48.999Z</time>
      </trkpt>
      <trkpt lat="46.58932" lon="0.1883">
        <ele>189.96</ele>
        <time>2019-12-01T08:05:52.999Z</time>
      </trkpt>
      <trkpt lat="46.58937" lon="0.18846">
        <ele>190.24</ele>
        <time>2019-12-01T08:05:55.999Z</time>
      </trkpt>
      <trkpt lat="46.58944" lon="0.18867">
        <ele>190.35</ele>
        <time>2019-12-01T08:05:57.999Z</time>
      </trkpt>
      <trkpt lat="46.58945" lon="0.18883">
        <ele>190.41</ele>
        <time>2019-12-01T08:05:59.999Z</time>
      </trkpt>
      <trkpt lat="46.58948" lon="0.18901">
        <ele>190.47</ele>
        <time>2019-12-01T08:06:02.999Z</time>
      </trkpt>
      <trkpt lat="46.58951" lon="0.18916">
        <ele>190.42</ele>
        <time>2019-12-01T08:06:04.999Z</time>
      </trkpt>
      <trkpt lat="46.58954" lon="0.18928">
        <ele>189.13</ele>
        <time>2019-12-01T08:06:06.999Z</time>
      </trkpt>
      <trkpt lat="46.5896" lon="0.18941">
        <ele>188.34</ele>
        <time>2019-12-01T08:06:08.999Z</time>
      </trkpt>
      <trkpt lat="46.58964" lon="0.18956">
        <ele>188.1</ele>
        <time>2019-12-01T08:06:11.999Z</time>
      </trkpt>
      <trkpt lat="46.58968" lon="0.1897">
        <ele>187.88</ele>
        <time>2019-12-01T08:06:13.999Z</time>
      </trkpt>
      <trkpt lat="46.58973" lon="0.18989">
        <ele>187.36</ele>
        <time>2019-12-01T08:06:17.999Z</time>
      </trkpt>
      <trkpt lat="46.58979" lon="0.19007">
        <ele>187.01</ele>
        <time>2019-12-01T08:06:20.999Z</time>
      </trkpt>
      <trkpt lat="46.58983" lon="0.19022">
        <ele>185.67</ele>
        <time>2019-12-01T08:06:23.999Z</time>
      </trkpt>
      <trkpt lat="46.58992" lon="0.19044">
        <ele>184.8</ele>
        <time>2019-12-01T08:06:26.999Z</time>
      </trkpt>
      <trkpt lat="46.58998" lon="0.19057">
        <ele>184.33</ele>
        <time>2019-12-01T08:06:28.999Z</time>
      </trkpt>
      <trkpt lat="46.59002" lon="0.19068">
        <ele>183.3</ele>
        <time>2019-12-01T08:06:30.999Z</time>
      </trkpt>
      <trkpt lat="46.59008" lon="0.1908">
        <ele>183.21</ele>
        <time>2019-12-01T08:06:32.999Z</time>
      </trkpt>
      <trkpt lat="46.59015" lon="0.19096">
        <ele>182.63</ele>
        <time>2019-12-01T08:06:34.999Z</time>
      </trkpt>
      <trkpt lat="46.59023" lon="0.19112">
        <ele>181.92</ele>
        <time>2019-12-01T08:06:37.999Z</time>
      </trkpt>
      <trkpt lat="46.59029" lon="0.19126">
        <ele>180.25</ele>
        <time>2019-12-01T08:06:40.999Z</time>
      </trkpt>
      <trkpt lat="46.59036" lon="0.1914">
        <ele>177.33</ele>
        <time>2019-12-01T08:06:43.999Z</time>
      </trkpt>
      <trkpt lat="46.59047" lon="0.19142">
        <ele>177.24</ele>
        <time>2019-12-01T08:06:48.999Z</time>
      </trkpt>
      <trkpt lat="46.59058" lon="0.19135">
        <ele>177.48</ele>
        <time>2019-12-01T08:06:51.999Z</time>
      </trkpt>
      <trkpt lat="46.59067" lon="0.1913">
        <ele>177.7</ele>
        <time>2019-12-01T08:06:53.999Z</time>
      </trkpt>
      <trkpt lat="46.59079" lon="0.19131">
        <ele>178.22</ele>
        <time>2019-12-01T08:06:56.999Z</time>
      </trkpt>
      <trkpt lat="46.59089" lon="0.1913">
        <ele>179.67</ele>
        <time>2019-12-01T08:07:01.999Z</time>
      </trkpt>
      <trkpt lat="46.59095" lon="0.19142">
        <ele>180.77</ele>
        <time>2019-12-01T08:07:05.999Z</time>
      </trkpt>
      <trkpt lat="46.59099" lon="0.19159">
        <ele>181.53</ele>
        <time>2019-12-01T08:07:08.999Z</time>
      </trkpt>
      <trkpt lat="46.59101" lon="0.19172">
        <ele>181.97</ele>
        <time>2019-12-01T08:07:10.999Z</time>
      </trkpt>
      <trkpt lat="46.59102" lon="0.19188">
        <ele>183.68</ele>
        <time>2019-12-01T08:07:12.999Z</time>
      </trkpt>
      <trkpt lat="46.59103" lon="0.19205">
        <ele>185.38</ele>
        <time>2019-12-01T08:07:14.999Z</time>
      </trkpt>
      <trkpt lat="46.59105" lon="0.19221">
        <ele>186.31</ele>
        <time>2019-12-01T08:07:16.999Z</time>
      </trkpt>
      <trkpt lat="46.59106" lon="0.19236">
        <ele>186.67</ele>
        <time>2019-12-01T08:07:18.999Z</time>
      </trkpt>
      <trkpt lat="46.59107" lon="0.19249">
        <ele>186.67</ele>
        <time>2019-12-01T08:07:20.999Z</time>
      </trkpt>
      <trkpt lat="46.59108" lon="0.19266">
        <ele>186.41</ele>
        <time>2019-12-01T08:07:23.999Z</time>
      </trkpt>
      <trkpt lat="46.5911" lon="0.1928">
        <ele>186.04</ele>
        <time>2019-12-01T08:07:25.999Z</time>
      </trkpt>
      <trkpt lat="46.59111" lon="0.19295">
        <ele>186.48</ele>
        <time>2019-12-01T08:07:27.999Z</time>
      </trkpt>
      <trkpt lat="46.59112" lon="0.19309">
        <ele>186.36</ele>
        <time>2019-12-01T08:07:29.999Z</time>
      </trkpt>
      <trkpt lat="46.59112" lon="0.19329">
        <ele>185.99</ele>
        <time>2019-12-01T08:07:32.999Z</time>
      </trkpt>
      <trkpt lat="46.59111" lon="0.19343">
        <ele>185.84</ele>
        <time>2019-12-01T08:07:34.999Z</time>
      </trkpt>
      <trkpt lat="46.59111" lon="0.19356">
        <ele>186</ele>
        <time>2019-12-01T08:07:36.999Z</time>
      </trkpt>
      <trkpt lat="46.59112" lon="0.19375">
        <ele>186.1</ele>
        <time>2019-12-01T08:07:39.999Z</time>
      </trkpt>
      <trkpt lat="46.59114" lon="0.19396">
        <ele>186.23</ele>
        <time>2019-12-01T08:07:42.999Z</time>
      </trkpt>
      <trkpt lat="46.59116" lon="0.19414">
        <ele>186.37</ele>
        <time>2019-12-01T08:07:45.999Z</time>
      </trkpt>
      <trkpt lat="46.59117" lon="0.1943">
        <ele>186.46</ele>
        <time>2019-12-01T08:07:47.999Z</time>
      </trkpt>
      <trkpt lat="46.59119" lon="0.19445">
        <ele>187.05</ele>
        <time>2019-12-01T08:07:50.999Z</time>
      </trkpt>
      <trkpt lat="46.59125" lon="0.19457">
        <ele>187.2</ele>
        <time>2019-12-01T08:07:52.999Z</time>
      </trkpt>
      <trkpt lat="46.59132" lon="0.19472">
        <ele>187.48</ele>
        <time>2019-12-01T08:07:55.999Z</time>
      </trkpt>
      <trkpt lat="46.59136" lon="0.19487">
        <ele>188.84</ele>
        <time>2019-12-01T08:08:07.999Z</time>
      </trkpt>
      <trkpt lat="46.59146" lon="0.19507">
        <ele>189.64</ele>
        <time>2019-12-01T08:08:10.999Z</time>
      </trkpt>
      <trkpt lat="46.59154" lon="0.19522">
        <ele>189.15</ele>
        <time>2019-12-01T08:08:12.999Z</time>
      </trkpt>
      <trkpt lat="46.59166" lon="0.19542">
        <ele>188.53</ele>
        <time>2019-12-01T08:08:14.999Z</time>
      </trkpt>
      <trkpt lat="46.59173" lon="0.19555">
        <ele>187.73</ele>
        <time>2019-12-01T08:08:16.999Z</time>
      </trkpt>
      <trkpt lat="46.5918" lon="0.19568">
        <ele>187.96</ele>
        <time>2019-12-01T08:08:18.999Z</time>
      </trkpt>
      <trkpt lat="46.59188" lon="0.19581">
        <ele>187.91</ele>
        <time>2019-12-01T08:08:20.999Z</time>
      </trkpt>
      <trkpt lat="46.59195" lon="0.19592">
        <ele>187.87</ele>
        <time>2019-12-01T08:08:22.999Z</time>
      </trkpt>
      <trkpt lat="46.59202" lon="0.19603">
        <ele>187.43</ele>
        <time>2019-12-01T08:08:24.999Z</time>
      </trkpt>
      <trkpt lat="46.59212" lon="0.19619">
        <ele>186.45</ele>
        <time>2019-12-01T08:08:27.999Z</time>
      </trkpt>
      <trkpt lat="46.5922" lon="0.19636">
        <ele>185.67</ele>
        <time>2019-12-01T08:08:29.999Z</time>
      </trkpt>
      <trkpt lat="46.59226" lon="0.19651">
        <ele>185.5</ele>
        <time>2019-12-01T08:08:31.999Z</time>
      </trkpt>
      <trkpt lat="46.5923" lon="0.19664">
        <ele>185.31</ele>
        <time>2019-12-01T08:08:33.999Z</time>
      </trkpt>
      <trkpt lat="46.59233" lon="0.19679">
        <ele>185.32</ele>
        <time>2019-12-01T08:08:36.999Z</time>
      </trkpt>
      <trkpt lat="46.59239" lon="0.19695">
        <ele>185.1</ele>
        <time>2019-12-01T08:08:39.999Z</time>
      </trkpt>
      <trkpt lat="46.59244" lon="0.19706">
        <ele>184.76</ele>
        <time>2019-12-01T08:08:41.999Z</time>
      </trkpt>
      <trkpt lat="46.5925" lon="0.19719">
        <ele>184.75</ele>
        <time>2019-12-01T08:08:44.999Z</time>
      </trkpt>
      <trkpt lat="46.59256" lon="0.19734">
        <ele>184.62</ele>
        <time>2019-12-01T08:08:47.999Z</time>
      </trkpt>
      <trkpt lat="46.59262" lon="0.19746">
        <ele>184.86</ele>
        <time>2019-12-01T08:08:49.999Z</time>
      </trkpt>
      <trkpt lat="46.59268" lon="0.19761">
        <ele>184.92</ele>
        <time>2019-12-01T08:08:51.999Z</time>
      </trkpt>
      <trkpt lat="46.59275" lon="0.19774">
        <ele>184.9</ele>
        <time>2019-12-01T08:08:53.999Z</time>
      </trkpt>
      <trkpt lat="46.59281" lon="0.19792">
        <ele>185.22</ele>
        <time>2019-12-01T08:08:55.999Z</time>
      </trkpt>
      <trkpt lat="46.59286" lon="0.19805">
        <ele>185.92</ele>
        <time>2019-12-01T08:08:57.999Z</time>
      </trkpt>
      <trkpt lat="46.59289" lon="0.19818">
        <ele>186.24</ele>
        <time>2019-12-01T08:08:59.999Z</time>
      </trkpt>
      <trkpt lat="46.59294" lon="0.19831">
        <ele>185.29</ele>
        <time>2019-12-01T08:09:01.999Z</time>
      </trkpt>
      <trkpt lat="46.59297" lon="0.19844">
        <ele>183.85</ele>
        <time>2019-12-01T08:09:03.999Z</time>
      </trkpt>
      <trkpt lat="46.59302" lon="0.19857">
        <ele>182.09</ele>
        <time>2019-12-01T08:09:05.999Z</time>
      </trkpt>
      <trkpt lat="46.59307" lon="0.19869">
        <ele>180.95</ele>
        <time>2019-12-01T08:09:07.999Z</time>
      </trkpt>
      <trkpt lat="46.59313" lon="0.19882">
        <ele>180.51</ele>
        <time>2019-12-01T08:09:09.999Z</time>
      </trkpt>
      <trkpt lat="46.59319" lon="0.19897">
        <ele>180.4</ele>
        <time>2019-12-01T08:09:11.999Z</time>
      </trkpt>
      <trkpt lat="46.59325" lon="0.19913">
        <ele>179.93</ele>
        <time>2019-12-01T08:09:13.999Z</time>
      </trkpt>
      <trkpt lat="46.59333" lon="0.19926">
        <ele>179.16</ele>
        <time>2019-12-01T08:09:15.999Z</time>
      </trkpt>
      <trkpt lat="46.59342" lon="0.19942">
        <ele>178.76</ele>
        <time>2019-12-01T08:09:17.999Z</time>
      </trkpt>
      <trkpt lat="46.59349" lon="0.19951">
        <ele>178.56</ele>
        <time>2019-12-01T08:09:18.999Z</time>
      </trkpt>
      <trkpt lat="46.59362" lon="0.19968">
        <ele>178.22</ele>
        <time>2019-12-01T08:09:20.999Z</time>
      </trkpt>
      <trkpt lat="46.59371" lon="0.19983">
        <ele>178.09</ele>
        <time>2019-12-01T08:09:22.999Z</time>
      </trkpt>
      <trkpt lat="46.5938" lon="0.20002">
        <ele>177.07</ele>
        <time>2019-12-01T08:09:24.999Z</time>
      </trkpt>
      <trkpt lat="46.59387" lon="0.20017">
        <ele>174.91</ele>
        <time>2019-12-01T08:09:26.999Z</time>
      </trkpt>
      <trkpt lat="46.59398" lon="0.20035">
        <ele>172.94</ele>
        <time>2019-12-01T08:09:28.999Z</time>
      </trkpt>
      <trkpt lat="46.59405" lon="0.2005">
        <ele>171.79</ele>
        <time>2019-12-01T08:09:30.999Z</time>
      </trkpt>
      <trkpt lat="46.59412" lon="0.20062">
        <ele>170.64</ele>
        <time>2019-12-01T08:09:32.999Z</time>
      </trkpt>
      <trkpt lat="46.59418" lon="0.20074">
        <ele>169.03</ele>
        <time>2019-12-01T08:09:34.999Z</time>
      </trkpt>
      <trkpt lat="46.59425" lon="0.20087">
        <ele>168.01</ele>
        <time>2019-12-01T08:09:36.999Z</time>
      </trkpt>
      <trkpt lat="46.59433" lon="0.20101">
        <ele>167.44</ele>
        <time>2019-12-01T08:09:38.999Z</time>
      </trkpt>
      <trkpt lat="46.59438" lon="0.20114">
        <ele>167.3</ele>
        <time>2019-12-01T08:09:40.999Z</time>
      </trkpt>
      <trkpt lat="46.59442" lon="0.20126">
        <ele>167.12</ele>
        <time>2019-12-01T08:09:42.999Z</time>
      </trkpt>
      <trkpt lat="46.59448" lon="0.20139">
        <ele>166.73</ele>
        <time>2019-12-01T08:09:44.999Z</time>
      </trkpt>
      <trkpt lat="46.59454" lon="0.20154">
        <ele>166.39</ele>
        <time>2019-12-01T08:09:46.999Z</time>
      </trkpt>
      <trkpt lat="46.5946" lon="0.20168">
        <ele>166.09</ele>
        <time>2019-12-01T08:09:48.999Z</time>
      </trkpt>
      <trkpt lat="46.59466" lon="0.20186">
        <ele>167.62</ele>
        <time>2019-12-01T08:09:51.999Z</time>
      </trkpt>
      <trkpt lat="46.59471" lon="0.20203">
        <ele>168.36</ele>
        <time>2019-12-01T08:09:54.999Z</time>
      </trkpt>
      <trkpt lat="46.59476" lon="0.20218">
        <ele>167.54</ele>
        <time>2019-12-01T08:09:56.999Z</time>
      </trkpt>
      <trkpt lat="46.5948" lon="0.2023">
        <ele>167.03</ele>
        <time>2019-12-01T08:09:58.999Z</time>
      </trkpt>
      <trkpt lat="46.59485" lon="0.20242">
        <ele>167.07</ele>
        <time>2019-12-01T08:10:00.999Z</time>
      </trkpt>
      <trkpt lat="46.59498" lon="0.20248">
        <ele>167.57</ele>
        <time>2019-12-01T08:10:03.999Z</time>
      </trkpt>
      <trkpt lat="46.59507" lon="0.20258">
        <ele>168.95</ele>
        <time>2019-12-01T08:10:05.999Z</time>
      </trkpt>
      <trkpt lat="46.59511" lon="0.20273">
        <ele>170.03</ele>
        <time>2019-12-01T08:10:07.999Z</time>
      </trkpt>
      <trkpt lat="46.59514" lon="0.20292">
        <ele>171.43</ele>
        <time>2019-12-01T08:10:09.999Z</time>
      </trkpt>
      <trkpt lat="46.59516" lon="0.20306">
        <ele>173.03</ele>
        <time>2019-12-01T08:10:11.999Z</time>
      </trkpt>
      <trkpt lat="46.5952" lon="0.20324">
        <ele>174.06</ele>
        <time>2019-12-01T08:10:13.999Z</time>
      </trkpt>
      <trkpt lat="46.59522" lon="0.20337">
        <ele>173.78</ele>
        <time>2019-12-01T08:10:15.999Z</time>
      </trkpt>
      <trkpt lat="46.59525" lon="0.2035">
        <ele>173.33</ele>
        <time>2019-12-01T08:10:17.999Z</time>
      </trkpt>
      <trkpt lat="46.59526" lon="0.20364">
        <ele>172.86</ele>
        <time>2019-12-01T08:10:19.999Z</time>
      </trkpt>
      <trkpt lat="46.59524" lon="0.20379">
        <ele>172.81</ele>
        <time>2019-12-01T08:10:23.999Z</time>
      </trkpt>
      <trkpt lat="46.5951" lon="0.20379">
        <ele>172.67</ele>
        <time>2019-12-01T08:10:25.999Z</time>
      </trkpt>
      <trkpt lat="46.59499" lon="0.20374">
        <ele>172.58</ele>
        <time>2019-12-01T08:10:27.999Z</time>
      </trkpt>
      <trkpt lat="46.5949" lon="0.2037">
        <ele>172.58</ele>
        <time>2019-12-01T08:10:29.999Z</time>
      </trkpt>
      <trkpt lat="46.59479" lon="0.20363">
        <ele>173.04</ele>
        <time>2019-12-01T08:10:32.999Z</time>
      </trkpt>
      <trkpt lat="46.59471" lon="0.20353">
        <ele>173.27</ele>
        <time>2019-12-01T08:10:36.999Z</time>
      </trkpt>
      <trkpt lat="46.59461" lon="0.20342">
        <ele>173.65</ele>
        <time>2019-12-01T08:10:39.999Z</time>
      </trkpt>
      <trkpt lat="46.59453" lon="0.20332">
        <ele>174.13</ele>
        <time>2019-12-01T08:10:43.999Z</time>
      </trkpt>
      <trkpt lat="46.59445" lon="0.20326">
        <ele>174.47</ele>
        <time>2019-12-01T08:10:46.999Z</time>
      </trkpt>
      <trkpt lat="46.59437" lon="0.20319">
        <ele>174.69</ele>
        <time>2019-12-01T08:10:48.999Z</time>
      </trkpt>
      <trkpt lat="46.59427" lon="0.20308">
        <ele>174.94</ele>
        <time>2019-12-01T08:10:51.999Z</time>
      </trkpt>
      <trkpt lat="46.59418" lon="0.20298">
        <ele>175.2</ele>
        <time>2019-12-01T08:10:54.999Z</time>
      </trkpt>
      <trkpt lat="46.59409" lon="0.20286">
        <ele>175.5</ele>
        <time>2019-12-01T08:10:57.999Z</time>
      </trkpt>
      <trkpt lat="46.59399" lon="0.20276">
        <ele>175.62</ele>
        <time>2019-12-01T08:11:00.999Z</time>
      </trkpt>
      <trkpt lat="46.59393" lon="0.20263">
        <ele>175.64</ele>
        <time>2019-12-01T08:11:02.999Z</time>
      </trkpt>
      <trkpt lat="46.59384" lon="0.20254">
        <ele>175.61</ele>
        <time>2019-12-01T08:11:04.999Z</time>
      </trkpt>
      <trkpt lat="46.59375" lon="0.20246">
        <ele>175.3</ele>
        <time>2019-12-01T08:11:06.999Z</time>
      </trkpt>
      <trkpt lat="46.59364" lon="0.20233">
        <ele>175.82</ele>
        <time>2019-12-01T08:11:08.999Z</time>
      </trkpt>
      <trkpt lat="46.59357" lon="0.2022">
        <ele>176.71</ele>
        <time>2019-12-01T08:11:10.999Z</time>
      </trkpt>
      <trkpt lat="46.5935" lon="0.20204">
        <ele>177.6</ele>
        <time>2019-12-01T08:11:12.999Z</time>
      </trkpt>
      <trkpt lat="46.59342" lon="0.20187">
        <ele>178.89</ele>
        <time>2019-12-01T08:11:14.999Z</time>
      </trkpt>
      <trkpt lat="46.59336" lon="0.2017">
        <ele>180.08</ele>
        <time>2019-12-01T08:11:16.999Z</time>
      </trkpt>
      <trkpt lat="46.59331" lon="0.20159">
        <ele>180.67</ele>
        <time>2019-12-01T08:11:17.999Z</time>
      </trkpt>
      <trkpt lat="46.59322" lon="0.20142">
        <ele>180.81</ele>
        <time>2019-12-01T08:11:19.999Z</time>
      </trkpt>
      <trkpt lat="46.59316" lon="0.20128">
        <ele>181.13</ele>
        <time>2019-12-01T08:11:21.999Z</time>
      </trkpt>
      <trkpt lat="46.59312" lon="0.20115">
        <ele>181.63</ele>
        <time>2019-12-01T08:11:23.999Z</time>
      </trkpt>
      <trkpt lat="46.59302" lon="0.20098">
        <ele>182.27</ele>
        <time>2019-12-01T08:11:25.999Z</time>
      </trkpt>
      <trkpt lat="46.59292" lon="0.20081">
        <ele>183.36</ele>
        <time>2019-12-01T08:11:27.999Z</time>
      </trkpt>
      <trkpt lat="46.59283" lon="0.20067">
        <ele>183.4</ele>
        <time>2019-12-01T08:11:29.999Z</time>
      </trkpt>
      <trkpt lat="46.59273" lon="0.20055">
        <ele>182.85</ele>
        <time>2019-12-01T08:11:31.999Z</time>
      </trkpt>
      <trkpt lat="46.59262" lon="0.20045">
        <ele>181.73</ele>
        <time>2019-12-01T08:11:33.999Z</time>
      </trkpt>
      <trkpt lat="46.59251" lon="0.20036">
        <ele>180.55</ele>
        <time>2019-12-01T08:11:35.999Z</time>
      </trkpt>
      <trkpt lat="46.59239" lon="0.20026">
        <ele>179.74</ele>
        <time>2019-12-01T08:11:37.999Z</time>
      </trkpt>
      <trkpt lat="46.59228" lon="0.20021">
        <ele>179.04</ele>
        <time>2019-12-01T08:11:39.999Z</time>
      </trkpt>
      <trkpt lat="46.59215" lon="0.20013">
        <ele>177.86</ele>
        <time>2019-12-01T08:11:42.999Z</time>
      </trkpt>
      <trkpt lat="46.59205" lon="0.20006">
        <ele>177.51</ele>
        <time>2019-12-01T08:11:44.999Z</time>
      </trkpt>
      <trkpt lat="46.59195" lon="0.19997">
        <ele>177.52</ele>
        <time>2019-12-01T08:11:46.999Z</time>
      </trkpt>
      <trkpt lat="46.59184" lon="0.19989">
        <ele>177.57</ele>
        <time>2019-12-01T08:11:48.999Z</time>
      </trkpt>
      <trkpt lat="46.59173" lon="0.1998">
        <ele>178.06</ele>
        <time>2019-12-01T08:11:50.999Z</time>
      </trkpt>
      <trkpt lat="46.5916" lon="0.19973">
        <ele>179.32</ele>
        <time>2019-12-01T08:11:53.999Z</time>
      </trkpt>
      <trkpt lat="46.59147" lon="0.19967">
        <ele>179.96</ele>
        <time>2019-12-01T08:11:55.999Z</time>
      </trkpt>
      <trkpt lat="46.59137" lon="0.19964">
        <ele>180.38</ele>
        <time>2019-12-01T08:11:57.999Z</time>
      </trkpt>
      <trkpt lat="46.59126" lon="0.19965">
        <ele>180.82</ele>
        <time>2019-12-01T08:11:59.999Z</time>
      </trkpt>
      <trkpt lat="46.59117" lon="0.19963">
        <ele>181.5</ele>
        <time>2019-12-01T08:12:01.999Z</time>
      </trkpt>
      <trkpt lat="46.59104" lon="0.1996">
        <ele>181.81</ele>
        <time>2019-12-01T08:12:03.999Z</time>
      </trkpt>
      <trkpt lat="46.5909" lon="0.19955">
        <ele>181.57</ele>
        <time>2019-12-01T08:12:05.999Z</time>
      </trkpt>
      <trkpt lat="46.59079" lon="0.19952">
        <ele>181.59</ele>
        <time>2019-12-01T08:12:07.999Z</time>
      </trkpt>
      <trkpt lat="46.59069" lon="0.19949">
        <ele>181.79</ele>
        <time>2019-12-01T08:12:09.999Z</time>
      </trkpt>
      <trkpt lat="46.5906" lon="0.19944">
        <ele>181.55</ele>
        <time>2019-12-01T08:12:11.999Z</time>
      </trkpt>
      <trkpt lat="46.59051" lon="0.19939">
        <ele>181.97</ele>
        <time>2019-12-01T08:12:13.999Z</time>
      </trkpt>
      <trkpt lat="46.5904" lon="0.19933">
        <ele>181.79</ele>
        <time>2019-12-01T08:12:15.999Z</time>
      </trkpt>
      <trkpt lat="46.59029" lon="0.19924">
        <ele>181.95</ele>
        <time>2019-12-01T08:12:17.999Z</time>
      </trkpt>
      <trkpt lat="46.5902" lon="0.19914">
        <ele>181.58</ele>
        <time>2019-12-01T08:12:19.999Z</time>
      </trkpt>
      <trkpt lat="46.59011" lon="0.19904">
        <ele>181.35</ele>
        <time>2019-12-01T08:12:21.999Z</time>
      </trkpt>
      <trkpt lat="46.59004" lon="0.19896">
        <ele>180.84</ele>
        <time>2019-12-01T08:12:23.999Z</time>
      </trkpt>
      <trkpt lat="46.58995" lon="0.19886">
        <ele>180.06</ele>
        <time>2019-12-01T08:12:25.999Z</time>
      </trkpt>
      <trkpt lat="46.58987" lon="0.19876">
        <ele>179.56</ele>
        <time>2019-12-01T08:12:27.999Z</time>
      </trkpt>
      <trkpt lat="46.58979" lon="0.19861">
        <ele>179.53</ele>
        <time>2019-12-01T08:12:30.999Z</time>
      </trkpt>
      <trkpt lat="46.5897" lon="0.19846">
        <ele>179.63</ele>
        <time>2019-12-01T08:12:33.999Z</time>
      </trkpt>
      <trkpt lat="46.58962" lon="0.19838">
        <ele>179.57</ele>
        <time>2019-12-01T08:12:35.999Z</time>
      </trkpt>
      <trkpt lat="46.58955" lon="0.19829">
        <ele>180.15</ele>
        <time>2019-12-01T08:12:37.999Z</time>
      </trkpt>
      <trkpt lat="46.58946" lon="0.19817">
        <ele>180.24</ele>
        <time>2019-12-01T08:12:40.999Z</time>
      </trkpt>
      <trkpt lat="46.58936" lon="0.1981">
        <ele>180.31</ele>
        <time>2019-12-01T08:12:43.999Z</time>
      </trkpt>
      <trkpt lat="46.58927" lon="0.19803">
        <ele>180.34</ele>
        <time>2019-12-01T08:12:46.999Z</time>
      </trkpt>
      <trkpt lat="46.58917" lon="0.19796">
        <ele>180.64</ele>
        <time>2019-12-01T08:12:52.999Z</time>
      </trkpt>
      <trkpt lat="46.58908" lon="0.19788">
        <ele>180.86</ele>
        <time>2019-12-01T08:12:55.999Z</time>
      </trkpt>
      <trkpt lat="46.58898" lon="0.19781">
        <ele>181.22</ele>
        <time>2019-12-01T08:12:58.999Z</time>
      </trkpt>
      <trkpt lat="46.58888" lon="0.19772">
        <ele>181.7</ele>
        <time>2019-12-01T08:13:01.999Z</time>
      </trkpt>
      <trkpt lat="46.58881" lon="0.19765">
        <ele>182.03</ele>
        <time>2019-12-01T08:13:03.999Z</time>
      </trkpt>
      <trkpt lat="46.5887" lon="0.19754">
        <ele>182.66</ele>
        <time>2019-12-01T08:13:07.999Z</time>
      </trkpt>
      <trkpt lat="46.58861" lon="0.19745">
        <ele>183.1</ele>
        <time>2019-12-01T08:13:10.999Z</time>
      </trkpt>
      <trkpt lat="46.58853" lon="0.19738">
        <ele>183.58</ele>
        <time>2019-12-01T08:13:13.999Z</time>
      </trkpt>
      <trkpt lat="46.58843" lon="0.1973">
        <ele>184.01</ele>
        <time>2019-12-01T08:13:17.999Z</time>
      </trkpt>
      <trkpt lat="46.58834" lon="0.19724">
        <ele>184.1</ele>
        <time>2019-12-01T08:13:19.999Z</time>
      </trkpt>
      <trkpt lat="46.58826" lon="0.19721">
        <ele>184.17</ele>
        <time>2019-12-01T08:13:21.999Z</time>
      </trkpt>
      <trkpt lat="46.58817" lon="0.19717">
        <ele>184.25</ele>
        <time>2019-12-01T08:13:23.999Z</time>
      </trkpt>
      <trkpt lat="46.58805" lon="0.19711">
        <ele>184.48</ele>
        <time>2019-12-01T08:13:26.999Z</time>
      </trkpt>
      <trkpt lat="46.58794" lon="0.19707">
        <ele>184.73</ele>
        <time>2019-12-01T08:13:29.999Z</time>
      </trkpt>
      <trkpt lat="46.58784" lon="0.19699">
        <ele>184.91</ele>
        <time>2019-12-01T08:13:32.999Z</time>
      </trkpt>
      <trkpt lat="46.58777" lon="0.19691">
        <ele>185.4</ele>
        <time>2019-12-01T08:13:34.999Z</time>
      </trkpt>
      <trkpt lat="46.58768" lon="0.1968">
        <ele>185.48</ele>
        <time>2019-12-01T08:13:37.999Z</time>
      </trkpt>
      <trkpt lat="46.58759" lon="0.19673">
        <ele>185.52</ele>
        <time>2019-12-01T08:13:40.999Z</time>
      </trkpt>
      <trkpt lat="46.5875" lon="0.19668">
        <ele>185.53</ele>
        <time>2019-12-01T08:13:43.999Z</time>
      </trkpt>
      <trkpt lat="46.58739" lon="0.19659">
        <ele>185.41</ele>
        <time>2019-12-01T08:13:46.999Z</time>
      </trkpt>
      <trkpt lat="46.5873" lon="0.19651">
        <ele>185.73</ele>
        <time>2019-12-01T08:13:48.999Z</time>
      </trkpt>
      <trkpt lat="46.58721" lon="0.19639">
        <ele>185.54</ele>
        <time>2019-12-01T08:13:50.999Z</time>
      </trkpt>
      <trkpt lat="46.5871" lon="0.19628">
        <ele>185.21</ele>
        <time>2019-12-01T08:13:53.999Z</time>
      </trkpt>
      <trkpt lat="46.58702" lon="0.19621">
        <ele>184.33</ele>
        <time>2019-12-01T08:13:55.999Z</time>
      </trkpt>
      <trkpt lat="46.58694" lon="0.1961">
        <ele>183.49</ele>
        <time>2019-12-01T08:13:57.999Z</time>
      </trkpt>
      <trkpt lat="46.58687" lon="0.19598">
        <ele>183.23</ele>
        <time>2019-12-01T08:13:59.999Z</time>
      </trkpt>
      <trkpt lat="46.58681" lon="0.19587">
        <ele>183.54</ele>
        <time>2019-12-01T08:14:01.999Z</time>
      </trkpt>
      <trkpt lat="46.58674" lon="0.19576">
        <ele>184.58</ele>
        <time>2019-12-01T08:14:03.999Z</time>
      </trkpt>
      <trkpt lat="46.58667" lon="0.19561">
        <ele>184.94</ele>
        <time>2019-12-01T08:14:06.999Z</time>
      </trkpt>
      <trkpt lat="46.58661" lon="0.1955">
        <ele>186.2</ele>
        <time>2019-12-01T08:14:08.999Z</time>
      </trkpt>
      <trkpt lat="46.58653" lon="0.1954">
        <ele>186.52</ele>
        <time>2019-12-01T08:14:10.999Z</time>
      </trkpt>
      <trkpt lat="46.58645" lon="0.19531">
        <ele>186.97</ele>
        <time>2019-12-01T08:14:12.999Z</time>
      </trkpt>
      <trkpt lat="46.58637" lon="0.19522">
        <ele>187.36</ele>
        <time>2019-12-01T08:14:14.999Z</time>
      </trkpt>
      <trkpt lat="46.58628" lon="0.19514">
        <ele>187.61</ele>
        <time>2019-12-01T08:14:16.999Z</time>
      </trkpt>
      <trkpt lat="46.5862" lon="0.19528">
        <ele>187.76</ele>
        <time>2019-12-01T08:14:22.999Z</time>
      </trkpt>
      <trkpt lat="46.5862" lon="0.19545">
        <ele>187.85</ele>
        <time>2019-12-01T08:14:25.999Z</time>
      </trkpt>
      <trkpt lat="46.58619" lon="0.19565">
        <ele>189.1</ele>
        <time>2019-12-01T08:14:28.999Z</time>
      </trkpt>
      <trkpt lat="46.58619" lon="0.1958">
        <ele>189.48</ele>
        <time>2019-12-01T08:14:30.999Z</time>
      </trkpt>
      <trkpt lat="46.58618" lon="0.19596">
        <ele>190.23</ele>
        <time>2019-12-01T08:14:32.999Z</time>
      </trkpt>
      <trkpt lat="46.58616" lon="0.1961">
        <ele>190.77</ele>
        <time>2019-12-01T08:14:34.999Z</time>
      </trkpt>
      <trkpt lat="46.5861" lon="0.19628">
        <ele>190.92</ele>
        <time>2019-12-01T08:14:37.999Z</time>
      </trkpt>
      <trkpt lat="46.58605" lon="0.19643">
        <ele>190.78</ele>
        <time>2019-12-01T08:14:39.999Z</time>
      </trkpt>
      <trkpt lat="46.58602" lon="0.19657">
        <ele>190.78</ele>
        <time>2019-12-01T08:14:41.999Z</time>
      </trkpt>
      <trkpt lat="46.586" lon="0.1967">
        <ele>190.48</ele>
        <time>2019-12-01T08:14:43.999Z</time>
      </trkpt>
      <trkpt lat="46.586" lon="0.19688">
        <ele>189.54</ele>
        <time>2019-12-01T08:14:45.999Z</time>
      </trkpt>
      <trkpt lat="46.586" lon="0.19707">
        <ele>188.63</ele>
        <time>2019-12-01T08:14:47.999Z</time>
      </trkpt>
      <trkpt lat="46.586" lon="0.19721">
        <ele>187.83</ele>
        <time>2019-12-01T08:14:49.999Z</time>
      </trkpt>
      <trkpt lat="46.58598" lon="0.19736">
        <ele>186.98</ele>
        <time>2019-12-01T08:14:51.999Z</time>
      </trkpt>
      <trkpt lat="46.58594" lon="0.19754">
        <ele>186.55</ele>
        <time>2019-12-01T08:14:53.999Z</time>
      </trkpt>
      <trkpt lat="46.58589" lon="0.19767">
        <ele>184.81</ele>
        <time>2019-12-01T08:14:55.999Z</time>
      </trkpt>
      <trkpt lat="46.5858" lon="0.1978">
        <ele>182.51</ele>
        <time>2019-12-01T08:14:57.999Z</time>
      </trkpt>
      <trkpt lat="46.58571" lon="0.19794">
        <ele>180.48</ele>
        <time>2019-12-01T08:15:00.999Z</time>
      </trkpt>
      <trkpt lat="46.58567" lon="0.19807">
        <ele>180.33</ele>
        <time>2019-12-01T08:15:02.999Z</time>
      </trkpt>
      <trkpt lat="46.58563" lon="0.19819">
        <ele>180.07</ele>
        <time>2019-12-01T08:15:04.999Z</time>
      </trkpt>
      <trkpt lat="46.58568" lon="0.19833">
        <ele>179.98</ele>
        <time>2019-12-01T08:15:08.999Z</time>
      </trkpt>
      <trkpt lat="46.58576" lon="0.1984">
        <ele>181.79</ele>
        <time>2019-12-01T08:15:10.999Z</time>
      </trkpt>
      <trkpt lat="46.58584" lon="0.1985">
        <ele>183.38</ele>
        <time>2019-12-01T08:15:12.999Z</time>
      </trkpt>
      <trkpt lat="46.58586" lon="0.19865">
        <ele>183.52</ele>
        <time>2019-12-01T08:15:14.999Z</time>
      </trkpt>
      <trkpt lat="46.58584" lon="0.19879">
        <ele>183.44</ele>
        <time>2019-12-01T08:15:16.999Z</time>
      </trkpt>
      <trkpt lat="46.58586" lon="0.19892">
        <ele>182.04</ele>
        <time>2019-12-01T08:15:18.999Z</time>
      </trkpt>
      <trkpt lat="46.58594" lon="0.1991">
        <ele>181.04</ele>
        <time>2019-12-01T08:15:20.999Z</time>
      </trkpt>
      <trkpt lat="46.58598" lon="0.19926">
        <ele>178.87</ele>
        <time>2019-12-01T08:15:22.999Z</time>
      </trkpt>
      <trkpt lat="46.58601" lon="0.1994">
        <ele>176.89</ele>
        <time>2019-12-01T08:15:24.999Z</time>
      </trkpt>
      <trkpt lat="46.58604" lon="0.19958">
        <ele>175.71</ele>
        <time>2019-12-01T08:15:26.999Z</time>
      </trkpt>
      <trkpt lat="46.5861" lon="0.19976">
        <ele>174.14</ele>
        <time>2019-12-01T08:15:28.999Z</time>
      </trkpt>
      <trkpt lat="46.58615" lon="0.19991">
        <ele>172.4</ele>
        <time>2019-12-01T08:15:30.999Z</time>
      </trkpt>
      <trkpt lat="46.58617" lon="0.20009">
        <ele>171.84</ele>
        <time>2019-12-01T08:15:32.999Z</time>
      </trkpt>
      <trkpt lat="46.58617" lon="0.20024">
        <ele>171.11</ele>
        <time>2019-12-01T08:15:34.999Z</time>
      </trkpt>
      <trkpt lat="46.58613" lon="0.20041">
        <ele>170.88</ele>
        <time>2019-12-01T08:15:37.999Z</time>
      </trkpt>
      <trkpt lat="46.58611" lon="0.20054">
        <ele>170.71</ele>
        <time>2019-12-01T08:15:39.999Z</time>
      </trkpt>
      <trkpt lat="46.5861" lon="0.20069">
        <ele>170.41</ele>
        <time>2019-12-01T08:15:42.999Z</time>
      </trkpt>
      <trkpt lat="46.58611" lon="0.20084">
        <ele>170.28</ele>
        <time>2019-12-01T08:15:44.999Z</time>
      </trkpt>
      <trkpt lat="46.58609" lon="0.20102">
        <ele>170.05</ele>
        <time>2019-12-01T08:15:47.999Z</time>
      </trkpt>
      <trkpt lat="46.58607" lon="0.20118">
        <ele>168.93</ele>
        <time>2019-12-01T08:15:49.999Z</time>
      </trkpt>
      <trkpt lat="46.58605" lon="0.20132">
        <ele>166.55</ele>
        <time>2019-12-01T08:15:51.999Z</time>
      </trkpt>
      <trkpt lat="46.58607" lon="0.20149">
        <ele>165.48</ele>
        <time>2019-12-01T08:15:54.999Z</time>
      </trkpt>
      <trkpt lat="46.5861" lon="0.20166">
        <ele>165.24</ele>
        <time>2019-12-01T08:15:58.999Z</time>
      </trkpt>
      <trkpt lat="46.58613" lon="0.20184">
        <ele>165.6</ele>
        <time>2019-12-01T08:16:01.999Z</time>
      </trkpt>
      <trkpt lat="46.58616" lon="0.20198">
        <ele>165.99</ele>
        <time>2019-12-01T08:16:03.999Z</time>
      </trkpt>
      <trkpt lat="46.58616" lon="0.20215">
        <ele>168.74</ele>
        <time>2019-12-01T08:16:05.999Z</time>
      </trkpt>
      <trkpt lat="46.58618" lon="0.2023">
        <ele>169.07</ele>
        <time>2019-12-01T08:16:07.999Z</time>
      </trkpt>
      <trkpt lat="46.58618" lon="0.20246">
        <ele>171.65</ele>
        <time>2019-12-01T08:16:09.999Z</time>
      </trkpt>
      <trkpt lat="46.58618" lon="0.20261">
        <ele>173.04</ele>
        <time>2019-12-01T08:16:11.999Z</time>
      </trkpt>
      <trkpt lat="46.58619" lon="0.20275">
        <ele>172.51</ele>
        <time>2019-12-01T08:16:13.999Z</time>
      </trkpt>
      <trkpt lat="46.58621" lon="0.20288">
        <ele>171.09</ele>
        <time>2019-12-01T08:16:15.999Z</time>
      </trkpt>
      <trkpt lat="46.58623" lon="0.20302">
        <ele>169.29</ele>
        <time>2019-12-01T08:16:17.999Z</time>
      </trkpt>
      <trkpt lat="46.58626" lon="0.20321">
        <ele>166.15</ele>
        <time>2019-12-01T08:16:20.999Z</time>
      </trkpt>
      <trkpt lat="46.58629" lon="0.20334">
        <ele>164.31</ele>
        <time>2019-12-01T08:16:22.999Z</time>
      </trkpt>
      <trkpt lat="46.58631" lon="0.20347">
        <ele>162.77</ele>
        <time>2019-12-01T08:16:24.999Z</time>
      </trkpt>
      <trkpt lat="46.58631" lon="0.20364">
        <ele>161.74</ele>
        <time>2019-12-01T08:16:27.999Z</time>
      </trkpt>
      <trkpt lat="46.58632" lon="0.20378">
        <ele>161.56</ele>
        <time>2019-12-01T08:16:30.999Z</time>
      </trkpt>
      <trkpt lat="46.58633" lon="0.20394">
        <ele>161.55</ele>
        <time>2019-12-01T08:16:33.999Z</time>
      </trkpt>
      <trkpt lat="46.58635" lon="0.20409">
        <ele>161.74</ele>
        <time>2019-12-01T08:16:37.999Z</time>
      </trkpt>
      <trkpt lat="46.58635" lon="0.20423">
        <ele>161.84</ele>
        <time>2019-12-01T08:16:40.999Z</time>
      </trkpt>
      <trkpt lat="46.58635" lon="0.20437">
        <ele>162.03</ele>
        <time>2019-12-01T08:16:43.999Z</time>
      </trkpt>
      <trkpt lat="46.58636" lon="0.20454">
        <ele>162.34</ele>
        <time>2019-12-01T08:16:47.999Z</time>
      </trkpt>
      <trkpt lat="46.58637" lon="0.20471">
        <ele>162.48</ele>
        <time>2019-12-01T08:16:50.999Z</time>
      </trkpt>
      <trkpt lat="46.58638" lon="0.20485">
        <ele>162.84</ele>
        <time>2019-12-01T08:16:52.999Z</time>
      </trkpt>
      <trkpt lat="46.58643" lon="0.20497">
        <ele>162.58</ele>
        <time>2019-12-01T08:16:53.999Z</time>
      </trkpt>
      <trkpt lat="46.58648" lon="0.2051">
        <ele>161.7</ele>
        <time>2019-12-01T08:16:55.999Z</time>
      </trkpt>
      <trkpt lat="46.58654" lon="0.20522">
        <ele>161.16</ele>
        <time>2019-12-01T08:16:57.999Z</time>
      </trkpt>
      <trkpt lat="46.58659" lon="0.20534">
        <ele>161.1</ele>
        <time>2019-12-01T08:16:59.999Z</time>
      </trkpt>
      <trkpt lat="46.58665" lon="0.20547">
        <ele>160.99</ele>
        <time>2019-12-01T08:17:01.999Z</time>
      </trkpt>
      <trkpt lat="46.58667" lon="0.20561">
        <ele>158.71</ele>
        <time>2019-12-01T08:17:03.999Z</time>
      </trkpt>
      <trkpt lat="46.5867" lon="0.20575">
        <ele>156.63</ele>
        <time>2019-12-01T08:17:05.999Z</time>
      </trkpt>
      <trkpt lat="46.58673" lon="0.2059">
        <ele>156.1</ele>
        <time>2019-12-01T08:17:07.999Z</time>
      </trkpt>
      <trkpt lat="46.58677" lon="0.20606">
        <ele>156.55</ele>
        <time>2019-12-01T08:17:10.999Z</time>
      </trkpt>
      <trkpt lat="46.58682" lon="0.20624">
        <ele>157.01</ele>
        <time>2019-12-01T08:17:13.999Z</time>
      </trkpt>
      <trkpt lat="46.58686" lon="0.20643">
        <ele>156.74</ele>
        <time>2019-12-01T08:17:16.999Z</time>
      </trkpt>
      <trkpt lat="46.58691" lon="0.20661">
        <ele>156.17</ele>
        <time>2019-12-01T08:17:19.999Z</time>
      </trkpt>
      <trkpt lat="46.58694" lon="0.20675">
        <ele>156.3</ele>
        <time>2019-12-01T08:17:21.999Z</time>
      </trkpt>
      <trkpt lat="46.58698" lon="0.2069">
        <ele>156.42</ele>
        <time>2019-12-01T08:17:23.999Z</time>
      </trkpt>
      <trkpt lat="46.58702" lon="0.20707">
        <ele>156.56</ele>
        <time>2019-12-01T08:17:26.999Z</time>
      </trkpt>
      <trkpt lat="46.58704" lon="0.20721">
        <ele>156.9</ele>
        <time>2019-12-01T08:17:28.999Z</time>
      </trkpt>
      <trkpt lat="46.58706" lon="0.20735">
        <ele>157.57</ele>
        <time>2019-12-01T08:17:30.999Z</time>
      </trkpt>
      <trkpt lat="46.5871" lon="0.20748">
        <ele>158.3</ele>
        <time>2019-12-01T08:17:32.999Z</time>
      </trkpt>
      <trkpt lat="46.58715" lon="0.20762">
        <ele>161.31</ele>
        <time>2019-12-01T08:17:34.999Z</time>
      </trkpt>
      <trkpt lat="46.58721" lon="0.20774">
        <ele>164.21</ele>
        <time>2019-12-01T08:17:36.999Z</time>
      </trkpt>
      <trkpt lat="46.58726" lon="0.20786">
        <ele>165.51</ele>
        <time>2019-12-01T08:17:38.999Z</time>
      </trkpt>
      <trkpt lat="46.58731" lon="0.20801">
        <ele>165.84</ele>
        <time>2019-12-01T08:17:41.999Z</time>
      </trkpt>
      <trkpt lat="46.58735" lon="0.20816">
        <ele>168.72</ele>
        <time>2019-12-01T08:17:44.999Z</time>
      </trkpt>
      <trkpt lat="46.5874" lon="0.20832">
        <ele>169.71</ele>
        <time>2019-12-01T08:17:47.999Z</time>
      </trkpt>
      <trkpt lat="46.58745" lon="0.20843">
        <ele>169.96</ele>
        <time>2019-12-01T08:17:49.999Z</time>
      </trkpt>
      <trkpt lat="46.58749" lon="0.2086">
        <ele>170.43</ele>
        <time>2019-12-01T08:17:52.999Z</time>
      </trkpt>
      <trkpt lat="46.58749" lon="0.20875">
        <ele>170.75</ele>
        <time>2019-12-01T08:17:55.999Z</time>
      </trkpt>
      <trkpt lat="46.58748" lon="0.20888">
        <ele>170.81</ele>
        <time>2019-12-01T08:17:58.999Z</time>
      </trkpt>
      <trkpt lat="46.58752" lon="0.20905">
        <ele>170.72</ele>
        <time>2019-12-01T08:18:02.999Z</time>
      </trkpt>
      <trkpt lat="46.58757" lon="0.20923">
        <ele>170.75</ele>
        <time>2019-12-01T08:18:05.999Z</time>
      </trkpt>
      <trkpt lat="46.58762" lon="0.20942">
        <ele>170.85</ele>
        <time>2019-12-01T08:18:08.999Z</time>
      </trkpt>
      <trkpt lat="46.58767" lon="0.20956">
        <ele>170.87</ele>
        <time>2019-12-01T08:18:10.999Z</time>
      </trkpt>
      <trkpt lat="46.58771" lon="0.20968">
        <ele>170.9</ele>
        <time>2019-12-01T08:18:12.999Z</time>
      </trkpt>
      <trkpt lat="46.58773" lon="0.20989">
        <ele>170.9</ele>
        <time>2019-12-01T08:18:15.999Z</time>
      </trkpt>
      <trkpt lat="46.58776" lon="0.21006">
        <ele>170.74</ele>
        <time>2019-12-01T08:18:18.999Z</time>
      </trkpt>
      <trkpt lat="46.5878" lon="0.21021">
        <ele>170.6</ele>
        <time>2019-12-01T08:18:21.999Z</time>
      </trkpt>
      <trkpt lat="46.58787" lon="0.21037">
        <ele>169.19</ele>
        <time>2019-12-01T08:18:24.999Z</time>
      </trkpt>
      <trkpt lat="46.58791" lon="0.21049">
        <ele>169.08</ele>
        <time>2019-12-01T08:18:26.999Z</time>
      </trkpt>
      <trkpt lat="46.58795" lon="0.21064">
        <ele>168.88</ele>
        <time>2019-12-01T08:18:29.999Z</time>
      </trkpt>
      <trkpt lat="46.588" lon="0.21077">
        <ele>167.81</ele>
        <time>2019-12-01T08:18:32.999Z</time>
      </trkpt>
      <trkpt lat="46.58801" lon="0.2109">
        <ele>167.63</ele>
        <time>2019-12-01T08:18:34.999Z</time>
      </trkpt>
      <trkpt lat="46.58804" lon="0.21105">
        <ele>167.51</ele>
        <time>2019-12-01T08:18:36.999Z</time>
      </trkpt>
      <trkpt lat="46.58806" lon="0.2112">
        <ele>167.35</ele>
        <time>2019-12-01T08:18:38.999Z</time>
      </trkpt>
      <trkpt lat="46.58809" lon="0.21135">
        <ele>165.96</ele>
        <time>2019-12-01T08:18:40.999Z</time>
      </trkpt>
      <trkpt lat="46.5881" lon="0.21153">
        <ele>163.91</ele>
        <time>2019-12-01T08:18:42.999Z</time>
      </trkpt>
      <trkpt lat="46.58811" lon="0.21169">
        <ele>163.91</ele>
        <time>2019-12-01T08:18:45.999Z</time>
      </trkpt>
      <trkpt lat="46.58809" lon="0.21183">
        <ele>164.02</ele>
        <time>2019-12-01T08:18:47.999Z</time>
      </trkpt>
      <trkpt lat="46.588" lon="0.21189">
        <ele>164.15</ele>
        <time>2019-12-01T08:18:49.999Z</time>
      </trkpt>
      <trkpt lat="46.58788" lon="0.21189">
        <ele>164.29</ele>
        <time>2019-12-01T08:18:51.999Z</time>
      </trkpt>
      <trkpt lat="46.58778" lon="0.21187">
        <ele>165.66</ele>
        <time>2019-12-01T08:18:53.999Z</time>
      </trkpt>
      <trkpt lat="46.58767" lon="0.21188">
        <ele>165.9</ele>
        <time>2019-12-01T08:18:55.999Z</time>
      </trkpt>
      <trkpt lat="46.58756" lon="0.21189">
        <ele>166.38</ele>
        <time>2019-12-01T08:18:58.999Z</time>
      </trkpt>
      <trkpt lat="46.58745" lon="0.21189">
        <ele>167.01</ele>
        <time>2019-12-01T08:19:01.999Z</time>
      </trkpt>
      <trkpt lat="46.58733" lon="0.21193">
        <ele>167.83</ele>
        <time>2019-12-01T08:19:04.999Z</time>
      </trkpt>
      <trkpt lat="46.58724" lon="0.21194">
        <ele>168.48</ele>
        <time>2019-12-01T08:19:06.999Z</time>
      </trkpt>
      <trkpt lat="46.58714" lon="0.21194">
        <ele>169.13</ele>
        <time>2019-12-01T08:19:08.999Z</time>
      </trkpt>
      <trkpt lat="46.58702" lon="0.21194">
        <ele>170.1</ele>
        <time>2019-12-01T08:19:11.999Z</time>
      </trkpt>
      <trkpt lat="46.58689" lon="0.21194">
        <ele>170.97</ele>
        <time>2019-12-01T08:19:14.999Z</time>
      </trkpt>
      <trkpt lat="46.58678" lon="0.21199">
        <ele>171.79</ele>
        <time>2019-12-01T08:19:17.999Z</time>
      </trkpt>
      <trkpt lat="46.58669" lon="0.21202">
        <ele>172.3</ele>
        <time>2019-12-01T08:19:19.999Z</time>
      </trkpt>
      <trkpt lat="46.58656" lon="0.21205">
        <ele>173.02</ele>
        <time>2019-12-01T08:19:22.999Z</time>
      </trkpt>
      <trkpt lat="46.58646" lon="0.21209">
        <ele>173.73</ele>
        <time>2019-12-01T08:19:25.999Z</time>
      </trkpt>
      <trkpt lat="46.58636" lon="0.21211">
        <ele>174.23</ele>
        <time>2019-12-01T08:19:27.999Z</time>
      </trkpt>
      <trkpt lat="46.58621" lon="0.21215">
        <ele>179.34</ele>
        <time>2019-12-01T08:19:30.999Z</time>
      </trkpt>
      <trkpt lat="46.58609" lon="0.21217">
        <ele>182.47</ele>
        <time>2019-12-01T08:19:32.999Z</time>
      </trkpt>
      <trkpt lat="46.58599" lon="0.21217">
        <ele>182.89</ele>
        <time>2019-12-01T08:19:35.999Z</time>
      </trkpt>
      <trkpt lat="46.58587" lon="0.21218">
        <ele>183.37</ele>
        <time>2019-12-01T08:19:38.999Z</time>
      </trkpt>
      <trkpt lat="46.58574" lon="0.21223">
        <ele>183.78</ele>
        <time>2019-12-01T08:19:41.999Z</time>
      </trkpt>
      <trkpt lat="46.58565" lon="0.21226">
        <ele>184.02</ele>
        <time>2019-12-01T08:19:43.999Z</time>
      </trkpt>
      <trkpt lat="46.58553" lon="0.21231">
        <ele>184.28</ele>
        <time>2019-12-01T08:19:46.999Z</time>
      </trkpt>
      <trkpt lat="46.58541" lon="0.21233">
        <ele>184.74</ele>
        <time>2019-12-01T08:19:49.999Z</time>
      </trkpt>
      <trkpt lat="46.58531" lon="0.21236">
        <ele>185.28</ele>
        <time>2019-12-01T08:19:52.999Z</time>
      </trkpt>
      <trkpt lat="46.58519" lon="0.2124">
        <ele>185.83</ele>
        <time>2019-12-01T08:19:55.999Z</time>
      </trkpt>
      <trkpt lat="46.58508" lon="0.21244">
        <ele>186.86</ele>
        <time>2019-12-01T08:19:57.999Z</time>
      </trkpt>
      <trkpt lat="46.58499" lon="0.21246">
        <ele>186.92</ele>
        <time>2019-12-01T08:19:59.999Z</time>
      </trkpt>
      <trkpt lat="46.5849" lon="0.2125">
        <ele>188.36</ele>
        <time>2019-12-01T08:20:03.999Z</time>
      </trkpt>
      <trkpt lat="46.58476" lon="0.21252">
        <ele>188.65</ele>
        <time>2019-12-01T08:20:06.999Z</time>
      </trkpt>
      <trkpt lat="46.58464" lon="0.21253">
        <ele>188.86</ele>
        <time>2019-12-01T08:20:09.999Z</time>
      </trkpt>
      <trkpt lat="46.58454" lon="0.21255">
        <ele>189</ele>
        <time>2019-12-01T08:20:12.999Z</time>
      </trkpt>
      <trkpt lat="46.58442" lon="0.21255">
        <ele>189.1</ele>
        <time>2019-12-01T08:20:14.999Z</time>
      </trkpt>
      <trkpt lat="46.58429" lon="0.21259">
        <ele>189.2</ele>
        <time>2019-12-01T08:20:17.999Z</time>
      </trkpt>
      <trkpt lat="46.58416" lon="0.21262">
        <ele>189.4</ele>
        <time>2019-12-01T08:20:20.999Z</time>
      </trkpt>
      <trkpt lat="46.58406" lon="0.21262">
        <ele>189.62</ele>
        <time>2019-12-01T08:20:23.999Z</time>
      </trkpt>
      <trkpt lat="46.58396" lon="0.21261">
        <ele>189.79</ele>
        <time>2019-12-01T08:20:27.999Z</time>
      </trkpt>
      <trkpt lat="46.58387" lon="0.21263">
        <ele>189.86</ele>
        <time>2019-12-01T08:20:29.999Z</time>
      </trkpt>
      <trkpt lat="46.58377" lon="0.21267">
        <ele>189.93</ele>
        <time>2019-12-01T08:20:31.999Z</time>
      </trkpt>
      <trkpt lat="46.58365" lon="0.21267">
        <ele>189.93</ele>
        <time>2019-12-01T08:20:34.999Z</time>
      </trkpt>
      <trkpt lat="46.58352" lon="0.21271">
        <ele>189.84</ele>
        <time>2019-12-01T08:20:37.999Z</time>
      </trkpt>
      <trkpt lat="46.58341" lon="0.21276">
        <ele>189.8</ele>
        <time>2019-12-01T08:20:39.999Z</time>
      </trkpt>
      <trkpt lat="46.58329" lon="0.21282">
        <ele>189.67</ele>
        <time>2019-12-01T08:20:42.999Z</time>
      </trkpt>
      <trkpt lat="46.58318" lon="0.21284">
        <ele>189.45</ele>
        <time>2019-12-01T08:20:45.999Z</time>
      </trkpt>
      <trkpt lat="46.58307" lon="0.21285">
        <ele>189.39</ele>
        <time>2019-12-01T08:20:48.999Z</time>
      </trkpt>
      <trkpt lat="46.58295" lon="0.2129">
        <ele>189.5</ele>
        <time>2019-12-01T08:20:50.999Z</time>
      </trkpt>
      <trkpt lat="46.58285" lon="0.21292">
        <ele>189.63</ele>
        <time>2019-12-01T08:20:52.999Z</time>
      </trkpt>
      <trkpt lat="46.58274" lon="0.21294">
        <ele>189.89</ele>
        <time>2019-12-01T08:20:55.999Z</time>
      </trkpt>
      <trkpt lat="46.58265" lon="0.21298">
        <ele>190.06</ele>
        <time>2019-12-01T08:20:57.999Z</time>
      </trkpt>
      <trkpt lat="46.58254" lon="0.21302">
        <ele>190.28</ele>
        <time>2019-12-01T08:20:59.999Z</time>
      </trkpt>
      <trkpt lat="46.58244" lon="0.21304">
        <ele>190.53</ele>
        <time>2019-12-01T08:21:01.999Z</time>
      </trkpt>
      <trkpt lat="46.58232" lon="0.21305">
        <ele>190.79</ele>
        <time>2019-12-01T08:21:04.999Z</time>
      </trkpt>
      <trkpt lat="46.5822" lon="0.21309">
        <ele>190.99</ele>
        <time>2019-12-01T08:21:07.999Z</time>
      </trkpt>
      <trkpt lat="46.58209" lon="0.2131">
        <ele>191.07</ele>
        <time>2019-12-01T08:21:10.999Z</time>
      </trkpt>
      <trkpt lat="46.582" lon="0.21316">
        <ele>191.23</ele>
        <time>2019-12-01T08:21:13.999Z</time>
      </trkpt>
      <trkpt lat="46.58188" lon="0.21318">
        <ele>191.4</ele>
        <time>2019-12-01T08:21:16.999Z</time>
      </trkpt>
      <trkpt lat="46.58179" lon="0.21317">
        <ele>191.55</ele>
        <time>2019-12-01T08:21:18.999Z</time>
      </trkpt>
      <trkpt lat="46.58167" lon="0.21318">
        <ele>191.74</ele>
        <time>2019-12-01T08:21:21.999Z</time>
      </trkpt>
      <trkpt lat="46.58155" lon="0.2132">
        <ele>191.83</ele>
        <time>2019-12-01T08:21:24.999Z</time>
      </trkpt>
      <trkpt lat="46.58143" lon="0.21321">
        <ele>192.01</ele>
        <time>2019-12-01T08:21:27.999Z</time>
      </trkpt>
      <trkpt lat="46.58134" lon="0.21323">
        <ele>192.21</ele>
        <time>2019-12-01T08:21:30.999Z</time>
      </trkpt>
      <trkpt lat="46.58138" lon="0.21341">
        <ele>192.44</ele>
        <time>2019-12-01T08:21:34.999Z</time>
      </trkpt>
      <trkpt lat="46.58139" lon="0.21355">
        <ele>192.58</ele>
        <time>2019-12-01T08:21:36.999Z</time>
      </trkpt>
      <trkpt lat="46.58143" lon="0.21378">
        <ele>192.55</ele>
        <time>2019-12-01T08:21:38.999Z</time>
      </trkpt>
      <trkpt lat="46.58148" lon="0.21394">
        <ele>191.89</ele>
        <time>2019-12-01T08:21:40.999Z</time>
      </trkpt>
      <trkpt lat="46.58151" lon="0.21409">
        <ele>190.54</ele>
        <time>2019-12-01T08:21:42.999Z</time>
      </trkpt>
      <trkpt lat="46.58154" lon="0.21422">
        <ele>189.01</ele>
        <time>2019-12-01T08:21:44.999Z</time>
      </trkpt>
      <trkpt lat="46.58158" lon="0.21438">
        <ele>187.63</ele>
        <time>2019-12-01T08:21:46.999Z</time>
      </trkpt>
      <trkpt lat="46.5816" lon="0.21455">
        <ele>187.32</ele>
        <time>2019-12-01T08:21:49.999Z</time>
      </trkpt>
      <trkpt lat="46.58164" lon="0.21473">
        <ele>187.37</ele>
        <time>2019-12-01T08:21:52.999Z</time>
      </trkpt>
      <trkpt lat="46.58166" lon="0.21489">
        <ele>187.11</ele>
        <time>2019-12-01T08:21:55.999Z</time>
      </trkpt>
      <trkpt lat="46.58169" lon="0.21503">
        <ele>187.62</ele>
        <time>2019-12-01T08:21:57.999Z</time>
      </trkpt>
      <trkpt lat="46.58172" lon="0.21521">
        <ele>187.33</ele>
        <time>2019-12-01T08:21:59.999Z</time>
      </trkpt>
      <trkpt lat="46.58173" lon="0.21537">
        <ele>187.19</ele>
        <time>2019-12-01T08:22:01.999Z</time>
      </trkpt>
      <trkpt lat="46.58175" lon="0.2155">
        <ele>186.91</ele>
        <time>2019-12-01T08:22:03.999Z</time>
      </trkpt>
      <trkpt lat="46.58174" lon="0.21565">
        <ele>186.11</ele>
        <time>2019-12-01T08:22:06.999Z</time>
      </trkpt>
      <trkpt lat="46.58178" lon="0.21579">
        <ele>185.26</ele>
        <time>2019-12-01T08:22:08.999Z</time>
      </trkpt>
      <trkpt lat="46.58179" lon="0.21596">
        <ele>185.01</ele>
        <time>2019-12-01T08:22:11.999Z</time>
      </trkpt>
      <trkpt lat="46.58181" lon="0.21612">
        <ele>184.84</ele>
        <time>2019-12-01T08:22:14.999Z</time>
      </trkpt>
      <trkpt lat="46.58182" lon="0.21626">
        <ele>184.79</ele>
        <time>2019-12-01T08:22:18.999Z</time>
      </trkpt>
      <trkpt lat="46.58181" lon="0.21642">
        <ele>184.73</ele>
        <time>2019-12-01T08:22:23.999Z</time>
      </trkpt>
      <trkpt lat="46.58174" lon="0.21651">
        <ele>184.58</ele>
        <time>2019-12-01T08:22:26.999Z</time>
      </trkpt>
      <trkpt lat="46.58161" lon="0.21651">
        <ele>184.4</ele>
        <time>2019-12-01T08:22:29.999Z</time>
      </trkpt>
      <trkpt lat="46.58152" lon="0.21647">
        <ele>184.38</ele>
        <time>2019-12-01T08:22:31.999Z</time>
      </trkpt>
      <trkpt lat="46.58141" lon="0.21646">
        <ele>184.64</ele>
        <time>2019-12-01T08:22:34.999Z</time>
      </trkpt>
      <trkpt lat="46.5813" lon="0.21642">
        <ele>186.63</ele>
        <time>2019-12-01T08:22:36.999Z</time>
      </trkpt>
      <trkpt lat="46.58119" lon="0.2164">
        <ele>187.91</ele>
        <time>2019-12-01T08:22:38.999Z</time>
      </trkpt>
      <trkpt lat="46.58108" lon="0.21639">
        <ele>188.92</ele>
        <time>2019-12-01T08:22:40.999Z</time>
      </trkpt>
      <trkpt lat="46.58097" lon="0.21637">
        <ele>190.13</ele>
        <time>2019-12-01T08:22:42.999Z</time>
      </trkpt>
      <trkpt lat="46.58086" lon="0.21635">
        <ele>191.28</ele>
        <time>2019-12-01T08:22:44.999Z</time>
      </trkpt>
      <trkpt lat="46.58073" lon="0.21635">
        <ele>191.73</ele>
        <time>2019-12-01T08:22:46.999Z</time>
      </trkpt>
      <trkpt lat="46.5806" lon="0.21636">
        <ele>191.72</ele>
        <time>2019-12-01T08:22:48.999Z</time>
      </trkpt>
      <trkpt lat="46.58046" lon="0.21638">
        <ele>191.27</ele>
        <time>2019-12-01T08:22:50.999Z</time>
      </trkpt>
      <trkpt lat="46.58032" lon="0.21639">
        <ele>190.89</ele>
        <time>2019-12-01T08:22:52.999Z</time>
      </trkpt>
      <trkpt lat="46.5802" lon="0.2164">
        <ele>189.96</ele>
        <time>2019-12-01T08:22:54.999Z</time>
      </trkpt>
      <trkpt lat="46.58006" lon="0.21642">
        <ele>189.81</ele>
        <time>2019-12-01T08:22:56.999Z</time>
      </trkpt>
      <trkpt lat="46.57993" lon="0.21641">
        <ele>190.02</ele>
        <time>2019-12-01T08:22:58.999Z</time>
      </trkpt>
      <trkpt lat="46.5798" lon="0.21641">
        <ele>190.22</ele>
        <time>2019-12-01T08:23:00.999Z</time>
      </trkpt>
      <trkpt lat="46.57968" lon="0.21641">
        <ele>190.25</ele>
        <time>2019-12-01T08:23:02.999Z</time>
      </trkpt>
      <trkpt lat="46.57957" lon="0.2164">
        <ele>190.79</ele>
        <time>2019-12-01T08:23:04.999Z</time>
      </trkpt>
      <trkpt lat="46.57945" lon="0.21638">
        <ele>191.47</ele>
        <time>2019-12-01T08:23:06.999Z</time>
      </trkpt>
      <trkpt lat="46.57934" lon="0.21637">
        <ele>191.93</ele>
        <time>2019-12-01T08:23:08.999Z</time>
      </trkpt>
      <trkpt lat="46.57921" lon="0.21636">
        <ele>192.29</ele>
        <time>2019-12-01T08:23:10.999Z</time>
      </trkpt>
      <trkpt lat="46.57909" lon="0.21634">
        <ele>192.26</ele>
        <time>2019-12-01T08:23:12.999Z</time>
      </trkpt>
      <trkpt lat="46.57897" lon="0.21633">
        <ele>192.07</ele>
        <time>2019-12-01T08:23:14.999Z</time>
      </trkpt>
      <trkpt lat="46.57884" lon="0.21632">
        <ele>191.56</ele>
        <time>2019-12-01T08:23:16.999Z</time>
      </trkpt>
      <trkpt lat="46.5787" lon="0.21631">
        <ele>191.05</ele>
        <time>2019-12-01T08:23:18.999Z</time>
      </trkpt>
      <trkpt lat="46.57855" lon="0.21635">
        <ele>190.93</ele>
        <time>2019-12-01T08:23:20.999Z</time>
      </trkpt>
      <trkpt lat="46.57842" lon="0.21639">
        <ele>190.71</ele>
        <time>2019-12-01T08:23:22.999Z</time>
      </trkpt>
      <trkpt lat="46.57828" lon="0.21642">
        <ele>190.38</ele>
        <time>2019-12-01T08:23:24.999Z</time>
      </trkpt>
      <trkpt lat="46.57816" lon="0.21641">
        <ele>189.92</ele>
        <time>2019-12-01T08:23:26.999Z</time>
      </trkpt>
      <trkpt lat="46.57805" lon="0.21639">
        <ele>189.33</ele>
        <time>2019-12-01T08:23:28.999Z</time>
      </trkpt>
      <trkpt lat="46.57794" lon="0.21636">
        <ele>188.9</ele>
        <time>2019-12-01T08:23:30.999Z</time>
      </trkpt>
      <trkpt lat="46.57784" lon="0.21634">
        <ele>188.39</ele>
        <time>2019-12-01T08:23:32.999Z</time>
      </trkpt>
      <trkpt lat="46.57771" lon="0.21631">
        <ele>187.17</ele>
        <time>2019-12-01T08:23:35.999Z</time>
      </trkpt>
      <trkpt lat="46.57758" lon="0.21627">
        <ele>185.84</ele>
        <time>2019-12-01T08:23:38.999Z</time>
      </trkpt>
      <trkpt lat="46.57748" lon="0.21623">
        <ele>185.21</ele>
        <time>2019-12-01T08:23:40.999Z</time>
      </trkpt>
      <trkpt lat="46.57735" lon="0.21618">
        <ele>184.74</ele>
        <time>2019-12-01T08:23:43.999Z</time>
      </trkpt>
      <trkpt lat="46.57725" lon="0.21617">
        <ele>184.48</ele>
        <time>2019-12-01T08:23:45.999Z</time>
      </trkpt>
      <trkpt lat="46.57715" lon="0.21616">
        <ele>184.72</ele>
        <time>2019-12-01T08:23:47.999Z</time>
      </trkpt>
      <trkpt lat="46.57703" lon="0.21615">
        <ele>185.28</ele>
        <time>2019-12-01T08:23:50.999Z</time>
      </trkpt>
      <trkpt lat="46.5769" lon="0.21614">
        <ele>185.71</ele>
        <time>2019-12-01T08:23:53.999Z</time>
      </trkpt>
      <trkpt lat="46.57676" lon="0.21615">
        <ele>185.57</ele>
        <time>2019-12-01T08:23:57.999Z</time>
      </trkpt>
      <trkpt lat="46.57665" lon="0.21615">
        <ele>185.49</ele>
        <time>2019-12-01T08:24:00.999Z</time>
      </trkpt>
      <trkpt lat="46.57652" lon="0.21615">
        <ele>186.19</ele>
        <time>2019-12-01T08:24:03.999Z</time>
      </trkpt>
      <trkpt lat="46.57642" lon="0.21616">
        <ele>187.01</ele>
        <time>2019-12-01T08:24:05.999Z</time>
      </trkpt>
      <trkpt lat="46.57629" lon="0.21616">
        <ele>188.48</ele>
        <time>2019-12-01T08:24:08.999Z</time>
      </trkpt>
      <trkpt lat="46.5762" lon="0.21614">
        <ele>188.94</ele>
        <time>2019-12-01T08:24:10.999Z</time>
      </trkpt>
      <trkpt lat="46.57606" lon="0.21612">
        <ele>189.02</ele>
        <time>2019-12-01T08:24:13.999Z</time>
      </trkpt>
      <trkpt lat="46.57594" lon="0.21612">
        <ele>189.18</ele>
        <time>2019-12-01T08:24:16.999Z</time>
      </trkpt>
      <trkpt lat="46.57582" lon="0.21613">
        <ele>190.5</ele>
        <time>2019-12-01T08:24:19.999Z</time>
      </trkpt>
      <trkpt lat="46.57569" lon="0.21616">
        <ele>190.67</ele>
        <time>2019-12-01T08:24:22.999Z</time>
      </trkpt>
      <trkpt lat="46.57559" lon="0.21618">
        <ele>190.8</ele>
        <time>2019-12-01T08:24:25.999Z</time>
      </trkpt>
      <trkpt lat="46.57552" lon="0.21629">
        <ele>190.99</ele>
        <time>2019-12-01T08:24:28.999Z</time>
      </trkpt>
      <trkpt lat="46.5756" lon="0.21647">
        <ele>192.87</ele>
        <time>2019-12-01T08:24:31.999Z</time>
      </trkpt>
      <trkpt lat="46.57565" lon="0.21664">
        <ele>193.82</ele>
        <time>2019-12-01T08:24:33.999Z</time>
      </trkpt>
      <trkpt lat="46.57571" lon="0.21685">
        <ele>194.23</ele>
        <time>2019-12-01T08:24:35.999Z</time>
      </trkpt>
      <trkpt lat="46.57577" lon="0.21704">
        <ele>194.58</ele>
        <time>2019-12-01T08:24:37.999Z</time>
      </trkpt>
      <trkpt lat="46.57583" lon="0.21723">
        <ele>193.93</ele>
        <time>2019-12-01T08:24:39.999Z</time>
      </trkpt>
      <trkpt lat="46.57589" lon="0.21742">
        <ele>193.67</ele>
        <time>2019-12-01T08:24:41.999Z</time>
      </trkpt>
      <trkpt lat="46.57593" lon="0.21762">
        <ele>193.36</ele>
        <time>2019-12-01T08:24:43.999Z</time>
      </trkpt>
      <trkpt lat="46.57598" lon="0.21781">
        <ele>192.98</ele>
        <time>2019-12-01T08:24:45.999Z</time>
      </trkpt>
      <trkpt lat="46.57601" lon="0.21798">
        <ele>192.69</ele>
        <time>2019-12-01T08:24:47.999Z</time>
      </trkpt>
      <trkpt lat="46.57604" lon="0.21813">
        <ele>192.42</ele>
        <time>2019-12-01T08:24:49.999Z</time>
      </trkpt>
      <trkpt lat="46.57608" lon="0.21829">
        <ele>192.14</ele>
        <time>2019-12-01T08:24:51.999Z</time>
      </trkpt>
      <trkpt lat="46.57612" lon="0.21845">
        <ele>191.84</ele>
        <time>2019-12-01T08:24:53.999Z</time>
      </trkpt>
      <trkpt lat="46.57616" lon="0.2186">
        <ele>191.33</ele>
        <time>2019-12-01T08:24:55.999Z</time>
      </trkpt>
      <trkpt lat="46.57619" lon="0.21877">
        <ele>190.83</ele>
        <time>2019-12-01T08:24:57.999Z</time>
      </trkpt>
      <trkpt lat="46.57622" lon="0.21895">
        <ele>190.02</ele>
        <time>2019-12-01T08:24:59.999Z</time>
      </trkpt>
      <trkpt lat="46.57624" lon="0.21914">
        <ele>189.44</ele>
        <time>2019-12-01T08:25:01.999Z</time>
      </trkpt>
      <trkpt lat="46.57628" lon="0.21932">
        <ele>189.16</ele>
        <time>2019-12-01T08:25:03.999Z</time>
      </trkpt>
      <trkpt lat="46.57632" lon="0.21949">
        <ele>189.11</ele>
        <time>2019-12-01T08:25:05.999Z</time>
      </trkpt>
      <trkpt lat="46.57636" lon="0.21965">
        <ele>189.02</ele>
        <time>2019-12-01T08:25:07.999Z</time>
      </trkpt>
      <trkpt lat="46.57641" lon="0.2198">
        <ele>188.78</ele>
        <time>2019-12-01T08:25:09.999Z</time>
      </trkpt>
      <trkpt lat="46.57644" lon="0.21996">
        <ele>188.48</ele>
        <time>2019-12-01T08:25:11.999Z</time>
      </trkpt>
      <trkpt lat="46.57648" lon="0.22012">
        <ele>188.28</ele>
        <time>2019-12-01T08:25:13.999Z</time>
      </trkpt>
      <trkpt lat="46.57653" lon="0.22028">
        <ele>188.06</ele>
        <time>2019-12-01T08:25:15.999Z</time>
      </trkpt>
      <trkpt lat="46.57657" lon="0.22043">
        <ele>187.99</ele>
        <time>2019-12-01T08:25:17.999Z</time>
      </trkpt>
      <trkpt lat="46.57661" lon="0.22059">
        <ele>187.97</ele>
        <time>2019-12-01T08:25:19.999Z</time>
      </trkpt>
      <trkpt lat="46.57665" lon="0.22076">
        <ele>187.98</ele>
        <time>2019-12-01T08:25:21.999Z</time>
      </trkpt>
      <trkpt lat="46.57669" lon="0.22092">
        <ele>188.06</ele>
        <time>2019-12-01T08:25:23.999Z</time>
      </trkpt>
      <trkpt lat="46.57674" lon="0.22109">
        <ele>188.09</ele>
        <time>2019-12-01T08:25:25.999Z</time>
      </trkpt>
      <trkpt lat="46.57679" lon="0.22127">
        <ele>188.12</ele>
        <time>2019-12-01T08:25:27.999Z</time>
      </trkpt>
      <trkpt lat="46.57682" lon="0.22143">
        <ele>188.22</ele>
        <time>2019-12-01T08:25:29.999Z</time>
      </trkpt>
      <trkpt lat="46.57686" lon="0.22159">
        <ele>188.26</ele>
        <time>2019-12-01T08:25:31.999Z</time>
      </trkpt>
      <trkpt lat="46.5769" lon="0.22175">
        <ele>188.02</ele>
        <time>2019-12-01T08:25:33.999Z</time>
      </trkpt>
      <trkpt lat="46.57693" lon="0.22192">
        <ele>187.65</ele>
        <time>2019-12-01T08:25:35.999Z</time>
      </trkpt>
      <trkpt lat="46.57696" lon="0.22211">
        <ele>187.2</ele>
        <time>2019-12-01T08:25:37.999Z</time>
      </trkpt>
      <trkpt lat="46.577" lon="0.2223">
        <ele>186.81</ele>
        <time>2019-12-01T08:25:39.999Z</time>
      </trkpt>
      <trkpt lat="46.57704" lon="0.22248">
        <ele>185.83</ele>
        <time>2019-12-01T08:25:41.999Z</time>
      </trkpt>
      <trkpt lat="46.57709" lon="0.22266">
        <ele>184.55</ele>
        <time>2019-12-01T08:25:43.999Z</time>
      </trkpt>
      <trkpt lat="46.57714" lon="0.22284">
        <ele>182.53</ele>
        <time>2019-12-01T08:25:45.999Z</time>
      </trkpt>
      <trkpt lat="46.57719" lon="0.22302">
        <ele>180.75</ele>
        <time>2019-12-01T08:25:47.999Z</time>
      </trkpt>
      <trkpt lat="46.57725" lon="0.22315">
        <ele>179.88</ele>
        <time>2019-12-01T08:25:49.999Z</time>
      </trkpt>
      <trkpt lat="46.5773" lon="0.22329">
        <ele>179.55</ele>
        <time>2019-12-01T08:25:51.999Z</time>
      </trkpt>
      <trkpt lat="46.57734" lon="0.22345">
        <ele>179.49</ele>
        <time>2019-12-01T08:25:53.999Z</time>
      </trkpt>
      <trkpt lat="46.57737" lon="0.22363">
        <ele>180.03</ele>
        <time>2019-12-01T08:25:55.999Z</time>
      </trkpt>
      <trkpt lat="46.57739" lon="0.22381">
        <ele>180.98</ele>
        <time>2019-12-01T08:25:57.999Z</time>
      </trkpt>
      <trkpt lat="46.57743" lon="0.22398">
        <ele>181.83</ele>
        <time>2019-12-01T08:25:59.999Z</time>
      </trkpt>
      <trkpt lat="46.57747" lon="0.22417">
        <ele>182.34</ele>
        <time>2019-12-01T08:26:01.999Z</time>
      </trkpt>
      <trkpt lat="46.57751" lon="0.22434">
        <ele>182.75</ele>
        <time>2019-12-01T08:26:03.999Z</time>
      </trkpt>
      <trkpt lat="46.57755" lon="0.22451">
        <ele>182.84</ele>
        <time>2019-12-01T08:26:05.999Z</time>
      </trkpt>
      <trkpt lat="46.57758" lon="0.22468">
        <ele>182.48</ele>
        <time>2019-12-01T08:26:07.999Z</time>
      </trkpt>
      <trkpt lat="46.57762" lon="0.22484">
        <ele>181.87</ele>
        <time>2019-12-01T08:26:09.999Z</time>
      </trkpt>
      <trkpt lat="46.57766" lon="0.22502">
        <ele>181.36</ele>
        <time>2019-12-01T08:26:11.999Z</time>
      </trkpt>
      <trkpt lat="46.5777" lon="0.2252">
        <ele>181</ele>
        <time>2019-12-01T08:26:13.999Z</time>
      </trkpt>
      <trkpt lat="46.57773" lon="0.22537">
        <ele>180.25</ele>
        <time>2019-12-01T08:26:15.999Z</time>
      </trkpt>
      <trkpt lat="46.57778" lon="0.22554">
        <ele>179.54</ele>
        <time>2019-12-01T08:26:17.999Z</time>
      </trkpt>
      <trkpt lat="46.57784" lon="0.22571">
        <ele>178.46</ele>
        <time>2019-12-01T08:26:19.999Z</time>
      </trkpt>
      <trkpt lat="46.57788" lon="0.22586">
        <ele>178.54</ele>
        <time>2019-12-01T08:26:21.999Z</time>
      </trkpt>
      <trkpt lat="46.57794" lon="0.22603">
        <ele>178.9</ele>
        <time>2019-12-01T08:26:23.999Z</time>
      </trkpt>
      <trkpt lat="46.57799" lon="0.2262">
        <ele>178.84</ele>
        <time>2019-12-01T08:26:25.999Z</time>
      </trkpt>
      <trkpt lat="46.57804" lon="0.22637">
        <ele>178.64</ele>
        <time>2019-12-01T08:26:27.999Z</time>
      </trkpt>
      <trkpt lat="46.57808" lon="0.22651">
        <ele>178.54</ele>
        <time>2019-12-01T08:26:29.999Z</time>
      </trkpt>
      <trkpt lat="46.57815" lon="0.22665">
        <ele>178.65</ele>
        <time>2019-12-01T08:26:31.999Z</time>
      </trkpt>
      <trkpt lat="46.57822" lon="0.22682">
        <ele>178.91</ele>
        <time>2019-12-01T08:26:33.999Z</time>
      </trkpt>
      <trkpt lat="46.57828" lon="0.22697">
        <ele>178.61</ele>
        <time>2019-12-01T08:26:35.999Z</time>
      </trkpt>
      <trkpt lat="46.57833" lon="0.22711">
        <ele>178.37</ele>
        <time>2019-12-01T08:26:37.999Z</time>
      </trkpt>
      <trkpt lat="46.57838" lon="0.22728">
        <ele>178.03</ele>
        <time>2019-12-01T08:26:39.999Z</time>
      </trkpt>
      <trkpt lat="46.57838" lon="0.22743">
        <ele>177.7</ele>
        <time>2019-12-01T08:26:41.999Z</time>
      </trkpt>
      <trkpt lat="46.57839" lon="0.22761">
        <ele>177.5</ele>
        <time>2019-12-01T08:26:44.999Z</time>
      </trkpt>
      <trkpt lat="46.57837" lon="0.22778">
        <ele>176.85</ele>
        <time>2019-12-01T08:26:51.999Z</time>
      </trkpt>
      <trkpt lat="46.57837" lon="0.22792">
        <ele>176.62</ele>
        <time>2019-12-01T08:26:53.999Z</time>
      </trkpt>
      <trkpt lat="46.57839" lon="0.22806">
        <ele>175.06</ele>
        <time>2019-12-01T08:26:55.999Z</time>
      </trkpt>
      <trkpt lat="46.57844" lon="0.22822">
        <ele>174.42</ele>
        <time>2019-12-01T08:26:58.999Z</time>
      </trkpt>
      <trkpt lat="46.57839" lon="0.22836">
        <ele>174.19</ele>
        <time>2019-12-01T08:27:00.999Z</time>
      </trkpt>
      <trkpt lat="46.57832" lon="0.22846">
        <ele>173.79</ele>
        <time>2019-12-01T08:27:03.999Z</time>
      </trkpt>
      <trkpt lat="46.57821" lon="0.22857">
        <ele>173.49</ele>
        <time>2019-12-01T08:27:06.999Z</time>
      </trkpt>
      <trkpt lat="46.57816" lon="0.2287">
        <ele>173.33</ele>
        <time>2019-12-01T08:27:10.999Z</time>
      </trkpt>
      <trkpt lat="46.57812" lon="0.22886">
        <ele>173.23</ele>
        <time>2019-12-01T08:27:15.999Z</time>
      </trkpt>
      <trkpt lat="46.57808" lon="0.22899">
        <ele>173.14</ele>
        <time>2019-12-01T08:27:18.999Z</time>
      </trkpt>
      <trkpt lat="46.57804" lon="0.22915">
        <ele>172.98</ele>
        <time>2019-12-01T08:27:21.999Z</time>
      </trkpt>
      <trkpt lat="46.578" lon="0.2293">
        <ele>173.04</ele>
        <time>2019-12-01T08:27:25.999Z</time>
      </trkpt>
      <trkpt lat="46.57798" lon="0.22943">
        <ele>173.24</ele>
        <time>2019-12-01T08:27:28.999Z</time>
      </trkpt>
      <trkpt lat="46.57794" lon="0.22957">
        <ele>173.58</ele>
        <time>2019-12-01T08:27:31.999Z</time>
      </trkpt>
      <trkpt lat="46.57788" lon="0.22972">
        <ele>174.1</ele>
        <time>2019-12-01T08:27:35.999Z</time>
      </trkpt>
      <trkpt lat="46.57786" lon="0.22985">
        <ele>174.45</ele>
        <time>2019-12-01T08:27:38.999Z</time>
      </trkpt>
      <trkpt lat="46.57784" lon="0.23">
        <ele>174.91</ele>
        <time>2019-12-01T08:27:42.999Z</time>
      </trkpt>
      <trkpt lat="46.5778" lon="0.23015">
        <ele>175.59</ele>
        <time>2019-12-01T08:27:46.999Z</time>
      </trkpt>
      <trkpt lat="46.57773" lon="0.23025">
        <ele>176.35</ele>
        <time>2019-12-01T08:27:50.999Z</time>
      </trkpt>
      <trkpt lat="46.5777" lon="0.2304">
        <ele>176.72</ele>
        <time>2019-12-01T08:27:52.999Z</time>
      </trkpt>
      <trkpt lat="46.57766" lon="0.23057">
        <ele>177.6</ele>
        <time>2019-12-01T08:27:56.999Z</time>
      </trkpt>
      <trkpt lat="46.57761" lon="0.23074">
        <ele>178.43</ele>
        <time>2019-12-01T08:27:59.999Z</time>
      </trkpt>
      <trkpt lat="46.57754" lon="0.2309">
        <ele>179.26</ele>
        <time>2019-12-01T08:28:02.999Z</time>
      </trkpt>
      <trkpt lat="46.57747" lon="0.23102">
        <ele>179.62</ele>
        <time>2019-12-01T08:28:04.999Z</time>
      </trkpt>
      <trkpt lat="46.57743" lon="0.23114">
        <ele>179.87</ele>
        <time>2019-12-01T08:28:07.999Z</time>
      </trkpt>
      <trkpt lat="46.57737" lon="0.23126">
        <ele>179.88</ele>
        <time>2019-12-01T08:28:10.999Z</time>
      </trkpt>
      <trkpt lat="46.57733" lon="0.23141">
        <ele>179.66</ele>
        <time>2019-12-01T08:28:15.999Z</time>
      </trkpt>
      <trkpt lat="46.5773" lon="0.23154">
        <ele>179.64</ele>
        <time>2019-12-01T08:28:17.999Z</time>
      </trkpt>
      <trkpt lat="46.57725" lon="0.23166">
        <ele>179.84</ele>
        <time>2019-12-01T08:28:20.999Z</time>
      </trkpt>
      <trkpt lat="46.57721" lon="0.23178">
        <ele>180.25</ele>
        <time>2019-12-01T08:28:23.999Z</time>
      </trkpt>
      <trkpt lat="46.57717" lon="0.2319">
        <ele>180.57</ele>
        <time>2019-12-01T08:28:25.999Z</time>
      </trkpt>
      <trkpt lat="46.57712" lon="0.23207">
        <ele>180.87</ele>
        <time>2019-12-01T08:28:28.999Z</time>
      </trkpt>
      <trkpt lat="46.57709" lon="0.23222">
        <ele>181.07</ele>
        <time>2019-12-01T08:28:31.999Z</time>
      </trkpt>
      <trkpt lat="46.57707" lon="0.23237">
        <ele>181.55</ele>
        <time>2019-12-01T08:28:35.999Z</time>
      </trkpt>
      <trkpt lat="46.57705" lon="0.2325">
        <ele>182.21</ele>
        <time>2019-12-01T08:28:39.999Z</time>
      </trkpt>
      <trkpt lat="46.577" lon="0.23262">
        <ele>182.58</ele>
        <time>2019-12-01T08:28:41.999Z</time>
      </trkpt>
      <trkpt lat="46.57692" lon="0.23276">
        <ele>183.17</ele>
        <time>2019-12-01T08:28:44.999Z</time>
      </trkpt>
      <trkpt lat="46.57685" lon="0.2329">
        <ele>183.51</ele>
        <time>2019-12-01T08:28:46.999Z</time>
      </trkpt>
      <trkpt lat="46.57679" lon="0.23301">
        <ele>183.79</ele>
        <time>2019-12-01T08:28:48.999Z</time>
      </trkpt>
      <trkpt lat="46.57672" lon="0.23314">
        <ele>184.14</ele>
        <time>2019-12-01T08:28:51.999Z</time>
      </trkpt>
      <trkpt lat="46.57665" lon="0.23325">
        <ele>184.33</ele>
        <time>2019-12-01T08:28:53.999Z</time>
      </trkpt>
      <trkpt lat="46.57658" lon="0.23338">
        <ele>184.65</ele>
        <time>2019-12-01T08:28:56.999Z</time>
      </trkpt>
      <trkpt lat="46.5765" lon="0.23347">
        <ele>184.8</ele>
        <time>2019-12-01T08:28:58.999Z</time>
      </trkpt>
      <trkpt lat="46.57642" lon="0.23355">
        <ele>184.93</ele>
        <time>2019-12-01T08:29:00.999Z</time>
      </trkpt>
      <trkpt lat="46.57632" lon="0.23362">
        <ele>187.23</ele>
        <time>2019-12-01T08:29:02.999Z</time>
      </trkpt>
      <trkpt lat="46.57622" lon="0.23366">
        <ele>187.72</ele>
        <time>2019-12-01T08:29:04.999Z</time>
      </trkpt>
      <trkpt lat="46.5761" lon="0.2337">
        <ele>187.91</ele>
        <time>2019-12-01T08:29:06.999Z</time>
      </trkpt>
      <trkpt lat="46.576" lon="0.23374">
        <ele>188.01</ele>
        <time>2019-12-01T08:29:09.999Z</time>
      </trkpt>
      <trkpt lat="46.57591" lon="0.23378">
        <ele>188.03</ele>
        <time>2019-12-01T08:29:11.999Z</time>
      </trkpt>
      <trkpt lat="46.57582" lon="0.23382">
        <ele>188.03</ele>
        <time>2019-12-01T08:29:14.999Z</time>
      </trkpt>
      <trkpt lat="46.57572" lon="0.23389">
        <ele>188</ele>
        <time>2019-12-01T08:29:18.999Z</time>
      </trkpt>
      <trkpt lat="46.57573" lon="0.23406">
        <ele>187.7</ele>
        <time>2019-12-01T08:29:22.999Z</time>
      </trkpt>
      <trkpt lat="46.57581" lon="0.23417">
        <ele>187.5</ele>
        <time>2019-12-01T08:29:25.999Z</time>
      </trkpt>
      <trkpt lat="46.57589" lon="0.2343">
        <ele>187.11</ele>
        <time>2019-12-01T08:29:28.999Z</time>
      </trkpt>
      <trkpt lat="46.57594" lon="0.23444">
        <ele>186.56</ele>
        <time>2019-12-01T08:29:31.999Z</time>
      </trkpt>
      <trkpt lat="46.57598" lon="0.23457">
        <ele>185.79</ele>
        <time>2019-12-01T08:29:36.999Z</time>
      </trkpt>
      <trkpt lat="46.57604" lon="0.23467">
        <ele>185.68</ele>
        <time>2019-12-01T08:29:41.999Z</time>
      </trkpt>
      <trkpt lat="46.57602" lon="0.23481">
        <ele>185.7</ele>
        <time>2019-12-01T08:29:44.999Z</time>
      </trkpt>
      <trkpt lat="46.57606" lon="0.23496">
        <ele>185.64</ele>
        <time>2019-12-01T08:29:47.999Z</time>
      </trkpt>
      <trkpt lat="46.57611" lon="0.2351">
        <ele>185.63</ele>
        <time>2019-12-01T08:29:50.999Z</time>
      </trkpt>
      <trkpt lat="46.57618" lon="0.23524">
        <ele>185.92</ele>
        <time>2019-12-01T08:29:54.999Z</time>
      </trkpt>
      <trkpt lat="46.57628" lon="0.23535">
        <ele>186.2</ele>
        <time>2019-12-01T08:29:57.999Z</time>
      </trkpt>
      <trkpt lat="46.57637" lon="0.23533">
        <ele>186.34</ele>
        <time>2019-12-01T08:30:00.999Z</time>
      </trkpt>
      <trkpt lat="46.57647" lon="0.23526">
        <ele>186.35</ele>
        <time>2019-12-01T08:30:04.999Z</time>
      </trkpt>
      <trkpt lat="46.57657" lon="0.23519">
        <ele>186.53</ele>
        <time>2019-12-01T08:30:08.999Z</time>
      </trkpt>
      <trkpt lat="46.57669" lon="0.23525">
        <ele>186.47</ele>
        <time>2019-12-01T08:30:10.999Z</time>
      </trkpt>
      <trkpt lat="46.57681" lon="0.2353">
        <ele>186.25</ele>
        <time>2019-12-01T08:30:14.999Z</time>
      </trkpt>
      <trkpt lat="46.57686" lon="0.23544">
        <ele>186.05</ele>
        <time>2019-12-01T08:30:17.999Z</time>
      </trkpt>
      <trkpt lat="46.57692" lon="0.23556">
        <ele>185.86</ele>
        <time>2019-12-01T08:30:20.999Z</time>
      </trkpt>
      <trkpt lat="46.57699" lon="0.2357">
        <ele>185.69</ele>
        <time>2019-12-01T08:30:23.999Z</time>
      </trkpt>
      <trkpt lat="46.57706" lon="0.23579">
        <ele>185.55</ele>
        <time>2019-12-01T08:30:26.999Z</time>
      </trkpt>
      <trkpt lat="46.57712" lon="0.23594">
        <ele>185.51</ele>
        <time>2019-12-01T08:30:30.999Z</time>
      </trkpt>
      <trkpt lat="46.57718" lon="0.23613">
        <ele>185.47</ele>
        <time>2019-12-01T08:30:33.999Z</time>
      </trkpt>
      <trkpt lat="46.57723" lon="0.23625">
        <ele>185.64</ele>
        <time>2019-12-01T08:30:36.999Z</time>
      </trkpt>
      <trkpt lat="46.57728" lon="0.23638">
        <ele>186.03</ele>
        <time>2019-12-01T08:30:39.999Z</time>
      </trkpt>
      <trkpt lat="46.57732" lon="0.23657">
        <ele>186.52</ele>
        <time>2019-12-01T08:30:42.999Z</time>
      </trkpt>
      <trkpt lat="46.5773" lon="0.23673">
        <ele>186.87</ele>
        <time>2019-12-01T08:30:45.999Z</time>
      </trkpt>
      <trkpt lat="46.57727" lon="0.2369">
        <ele>187.17</ele>
        <time>2019-12-01T08:30:48.999Z</time>
      </trkpt>
      <trkpt lat="46.57726" lon="0.23708">
        <ele>187.38</ele>
        <time>2019-12-01T08:30:51.999Z</time>
      </trkpt>
      <trkpt lat="46.57723" lon="0.23726">
        <ele>187.43</ele>
        <time>2019-12-01T08:30:55.999Z</time>
      </trkpt>
      <trkpt lat="46.5772" lon="0.23739">
        <ele>187.41</ele>
        <time>2019-12-01T08:30:57.999Z</time>
      </trkpt>
      <trkpt lat="46.57718" lon="0.23757">
        <ele>187.44</ele>
        <time>2019-12-01T08:31:00.999Z</time>
      </trkpt>
      <trkpt lat="46.57713" lon="0.23778">
        <ele>187.43</ele>
        <time>2019-12-01T08:31:03.999Z</time>
      </trkpt>
      <trkpt lat="46.57712" lon="0.23792">
        <ele>187.38</ele>
        <time>2019-12-01T08:31:05.999Z</time>
      </trkpt>
      <trkpt lat="46.57712" lon="0.23809">
        <ele>187.19</ele>
        <time>2019-12-01T08:31:08.999Z</time>
      </trkpt>
      <trkpt lat="46.57709" lon="0.23827">
        <ele>186.95</ele>
        <time>2019-12-01T08:31:11.999Z</time>
      </trkpt>
      <trkpt lat="46.57707" lon="0.23842">
        <ele>186.65</ele>
        <time>2019-12-01T08:31:14.999Z</time>
      </trkpt>
      <trkpt lat="46.57705" lon="0.23856">
        <ele>185.04</ele>
        <time>2019-12-01T08:31:16.999Z</time>
      </trkpt>
      <trkpt lat="46.57703" lon="0.2387">
        <ele>184.84</ele>
        <time>2019-12-01T08:31:18.999Z</time>
      </trkpt>
      <trkpt lat="46.57699" lon="0.23883">
        <ele>184.64</ele>
        <time>2019-12-01T08:31:20.999Z</time>
      </trkpt>
      <trkpt lat="46.57692" lon="0.23895">
        <ele>184.43</ele>
        <time>2019-12-01T08:31:22.999Z</time>
      </trkpt>
      <trkpt lat="46.57686" lon="0.23907">
        <ele>184.21</ele>
        <time>2019-12-01T08:31:24.999Z</time>
      </trkpt>
      <trkpt lat="46.57681" lon="0.23922">
        <ele>183.92</ele>
        <time>2019-12-01T08:31:26.999Z</time>
      </trkpt>
      <trkpt lat="46.57673" lon="0.23932">
        <ele>182.16</ele>
        <time>2019-12-01T08:31:28.999Z</time>
      </trkpt>
      <trkpt lat="46.57664" lon="0.23943">
        <ele>181.7</ele>
        <time>2019-12-01T08:31:30.999Z</time>
      </trkpt>
      <trkpt lat="46.57657" lon="0.23951">
        <ele>181.61</ele>
        <time>2019-12-01T08:31:32.999Z</time>
      </trkpt>
      <trkpt lat="46.57648" lon="0.23966">
        <ele>181.51</ele>
        <time>2019-12-01T08:31:35.999Z</time>
      </trkpt>
      <trkpt lat="46.57641" lon="0.23975">
        <ele>181.45</ele>
        <time>2019-12-01T08:31:37.999Z</time>
      </trkpt>
      <trkpt lat="46.57634" lon="0.23984">
        <ele>181.45</ele>
        <time>2019-12-01T08:31:40.999Z</time>
      </trkpt>
      <trkpt lat="46.57623" lon="0.23992">
        <ele>181.54</ele>
        <time>2019-12-01T08:31:43.999Z</time>
      </trkpt>
      <trkpt lat="46.57613" lon="0.23999">
        <ele>181.59</ele>
        <time>2019-12-01T08:31:45.999Z</time>
      </trkpt>
      <trkpt lat="46.57601" lon="0.24007">
        <ele>182.41</ele>
        <time>2019-12-01T08:31:47.999Z</time>
      </trkpt>
      <trkpt lat="46.57588" lon="0.24017">
        <ele>183.83</ele>
        <time>2019-12-01T08:31:49.999Z</time>
      </trkpt>
      <trkpt lat="46.57581" lon="0.24024">
        <ele>184.99</ele>
        <time>2019-12-01T08:31:51.999Z</time>
      </trkpt>
      <trkpt lat="46.57572" lon="0.24032">
        <ele>186.11</ele>
        <time>2019-12-01T08:31:53.999Z</time>
      </trkpt>
      <trkpt lat="46.57563" lon="0.24039">
        <ele>188.33</ele>
        <time>2019-12-01T08:31:55.999Z</time>
      </trkpt>
      <trkpt lat="46.57552" lon="0.2405">
        <ele>189.5</ele>
        <time>2019-12-01T08:31:57.999Z</time>
      </trkpt>
      <trkpt lat="46.57544" lon="0.2406">
        <ele>190.09</ele>
        <time>2019-12-01T08:31:59.999Z</time>
      </trkpt>
      <trkpt lat="46.57532" lon="0.2407">
        <ele>189.74</ele>
        <time>2019-12-01T08:32:01.999Z</time>
      </trkpt>
      <trkpt lat="46.57521" lon="0.24079">
        <ele>188.92</ele>
        <time>2019-12-01T08:32:03.999Z</time>
      </trkpt>
      <trkpt lat="46.5751" lon="0.24085">
        <ele>188.49</ele>
        <time>2019-12-01T08:32:05.999Z</time>
      </trkpt>
      <trkpt lat="46.57498" lon="0.2409">
        <ele>189.35</ele>
        <time>2019-12-01T08:32:07.999Z</time>
      </trkpt>
      <trkpt lat="46.57486" lon="0.24095">
        <ele>189.75</ele>
        <time>2019-12-01T08:32:09.999Z</time>
      </trkpt>
      <trkpt lat="46.57474" lon="0.24101">
        <ele>189.04</ele>
        <time>2019-12-01T08:32:11.999Z</time>
      </trkpt>
      <trkpt lat="46.57464" lon="0.24106">
        <ele>188.78</ele>
        <time>2019-12-01T08:32:13.999Z</time>
      </trkpt>
      <trkpt lat="46.57454" lon="0.2411">
        <ele>188.37</ele>
        <time>2019-12-01T08:32:15.999Z</time>
      </trkpt>
      <trkpt lat="46.57443" lon="0.24121">
        <ele>187.14</ele>
        <time>2019-12-01T08:32:18.999Z</time>
      </trkpt>
      <trkpt lat="46.57437" lon="0.24133">
        <ele>186.17</ele>
        <time>2019-12-01T08:32:20.999Z</time>
      </trkpt>
      <trkpt lat="46.57431" lon="0.24145">
        <ele>185.47</ele>
        <time>2019-12-01T08:32:22.999Z</time>
      </trkpt>
      <trkpt lat="46.57426" lon="0.24159">
        <ele>185.25</ele>
        <time>2019-12-01T08:32:24.999Z</time>
      </trkpt>
      <trkpt lat="46.57423" lon="0.24177">
        <ele>185.16</ele>
        <time>2019-12-01T08:32:27.999Z</time>
      </trkpt>
      <trkpt lat="46.57423" lon="0.24192">
        <ele>185.07</ele>
        <time>2019-12-01T08:32:29.999Z</time>
      </trkpt>
      <trkpt lat="46.57421" lon="0.24208">
        <ele>184.78</ele>
        <time>2019-12-01T08:32:32.999Z</time>
      </trkpt>
      <trkpt lat="46.57422" lon="0.24225">
        <ele>184.36</ele>
        <time>2019-12-01T08:32:35.999Z</time>
      </trkpt>
      <trkpt lat="46.5742" lon="0.24243">
        <ele>183.97</ele>
        <time>2019-12-01T08:32:38.999Z</time>
      </trkpt>
      <trkpt lat="46.57416" lon="0.24258">
        <ele>183.62</ele>
        <time>2019-12-01T08:32:41.999Z</time>
      </trkpt>
      <trkpt lat="46.57413" lon="0.24272">
        <ele>183.4</ele>
        <time>2019-12-01T08:32:44.999Z</time>
      </trkpt>
      <trkpt lat="46.57408" lon="0.24285">
        <ele>183.33</ele>
        <time>2019-12-01T08:32:47.999Z</time>
      </trkpt>
      <trkpt lat="46.574" lon="0.2429">
        <ele>183.1</ele>
        <time>2019-12-01T08:32:50.999Z</time>
      </trkpt>
      <trkpt lat="46.57386" lon="0.24281">
        <ele>179.68</ele>
        <time>2019-12-01T08:32:53.999Z</time>
      </trkpt>
      <trkpt lat="46.57373" lon="0.24266">
        <ele>177.54</ele>
        <time>2019-12-01T08:32:55.999Z</time>
      </trkpt>
      <trkpt lat="46.57366" lon="0.24257">
        <ele>176.73</ele>
        <time>2019-12-01T08:32:56.999Z</time>
      </trkpt>
      <trkpt lat="46.57355" lon="0.24242">
        <ele>175.74</ele>
        <time>2019-12-01T08:32:58.999Z</time>
      </trkpt>
      <trkpt lat="46.57344" lon="0.24237">
        <ele>175.34</ele>
        <time>2019-12-01T08:33:00.999Z</time>
      </trkpt>
      <trkpt lat="46.5733" lon="0.24235">
        <ele>175.52</ele>
        <time>2019-12-01T08:33:02.999Z</time>
      </trkpt>
      <trkpt lat="46.57313" lon="0.24233">
        <ele>175.37</ele>
        <time>2019-12-01T08:33:04.999Z</time>
      </trkpt>
      <trkpt lat="46.57297" lon="0.24231">
        <ele>174.87</ele>
        <time>2019-12-01T08:33:06.999Z</time>
      </trkpt>
      <trkpt lat="46.57283" lon="0.2423">
        <ele>173.65</ele>
        <time>2019-12-01T08:33:08.999Z</time>
      </trkpt>
      <trkpt lat="46.5727" lon="0.24234">
        <ele>172.52</ele>
        <time>2019-12-01T08:33:10.999Z</time>
      </trkpt>
      <trkpt lat="46.57257" lon="0.24246">
        <ele>171.16</ele>
        <time>2019-12-01T08:33:12.999Z</time>
      </trkpt>
      <trkpt lat="46.57242" lon="0.24263">
        <ele>170.66</ele>
        <time>2019-12-01T08:33:14.999Z</time>
      </trkpt>
      <trkpt lat="46.57236" lon="0.24273">
        <ele>170.08</ele>
        <time>2019-12-01T08:33:15.999Z</time>
      </trkpt>
      <trkpt lat="46.57225" lon="0.24285">
        <ele>169.66</ele>
        <time>2019-12-01T08:33:17.999Z</time>
      </trkpt>
      <trkpt lat="46.57216" lon="0.24287">
        <ele>169.43</ele>
        <time>2019-12-01T08:33:20.999Z</time>
      </trkpt>
      <trkpt lat="46.57214" lon="0.24269">
        <ele>165.92</ele>
        <time>2019-12-01T08:33:24.999Z</time>
      </trkpt>
      <trkpt lat="46.57217" lon="0.24256">
        <ele>163.36</ele>
        <time>2019-12-01T08:33:26.999Z</time>
      </trkpt>
      <trkpt lat="46.5722" lon="0.24238">
        <ele>161.16</ele>
        <time>2019-12-01T08:33:28.999Z</time>
      </trkpt>
      <trkpt lat="46.57227" lon="0.24218">
        <ele>158.61</ele>
        <time>2019-12-01T08:33:30.999Z</time>
      </trkpt>
      <trkpt lat="46.57232" lon="0.24206">
        <ele>157.25</ele>
        <time>2019-12-01T08:33:31.999Z</time>
      </trkpt>
      <trkpt lat="46.57237" lon="0.24194">
        <ele>155.85</ele>
        <time>2019-12-01T08:33:32.999Z</time>
      </trkpt>
      <trkpt lat="46.57242" lon="0.24181">
        <ele>154.13</ele>
        <time>2019-12-01T08:33:33.999Z</time>
      </trkpt>
      <trkpt lat="46.57248" lon="0.2417">
        <ele>152.79</ele>
        <time>2019-12-01T08:33:34.999Z</time>
      </trkpt>
      <trkpt lat="46.57252" lon="0.24158">
        <ele>151.45</ele>
        <time>2019-12-01T08:33:35.999Z</time>
      </trkpt>
      <trkpt lat="46.57256" lon="0.24144">
        <ele>149.95</ele>
        <time>2019-12-01T08:33:36.999Z</time>
      </trkpt>
      <trkpt lat="46.5726" lon="0.24133">
        <ele>148.4</ele>
        <time>2019-12-01T08:33:37.999Z</time>
      </trkpt>
      <trkpt lat="46.57271" lon="0.24114">
        <ele>144.64</ele>
        <time>2019-12-01T08:33:39.999Z</time>
      </trkpt>
      <trkpt lat="46.57285" lon="0.24097">
        <ele>141.37</ele>
        <time>2019-12-01T08:33:41.999Z</time>
      </trkpt>
      <trkpt lat="46.57294" lon="0.24085">
        <ele>138.65</ele>
        <time>2019-12-01T08:33:43.999Z</time>
      </trkpt>
      <trkpt lat="46.57294" lon="0.24069">
        <ele>138.22</ele>
        <time>2019-12-01T08:33:46.999Z</time>
      </trkpt>
      <trkpt lat="46.57291" lon="0.24057">
        <ele>137.81</ele>
        <time>2019-12-01T08:33:49.999Z</time>
      </trkpt>
      <trkpt lat="46.57286" lon="0.24043">
        <ele>137.37</ele>
        <time>2019-12-01T08:33:54.999Z</time>
      </trkpt>
      <trkpt lat="46.5728" lon="0.24032">
        <ele>137.08</ele>
        <time>2019-12-01T08:34:00.999Z</time>
      </trkpt>
      <trkpt lat="46.57276" lon="0.24016">
        <ele>137.08</ele>
        <time>2019-12-01T08:34:04.999Z</time>
      </trkpt>
      <trkpt lat="46.5727" lon="0.24005">
        <ele>137.15</ele>
        <time>2019-12-01T08:34:06.999Z</time>
      </trkpt>
      <trkpt lat="46.57264" lon="0.23995">
        <ele>137.23</ele>
        <time>2019-12-01T08:34:08.999Z</time>
      </trkpt>
      <trkpt lat="46.57258" lon="0.23983">
        <ele>137.36</ele>
        <time>2019-12-01T08:34:10.999Z</time>
      </trkpt>
      <trkpt lat="46.57255" lon="0.2397">
        <ele>137.54</ele>
        <time>2019-12-01T08:34:12.999Z</time>
      </trkpt>
      <trkpt lat="46.57252" lon="0.23953">
        <ele>137.78</ele>
        <time>2019-12-01T08:34:15.999Z</time>
      </trkpt>
      <trkpt lat="46.57242" lon="0.23947">
        <ele>137.87</ele>
        <time>2019-12-01T08:34:19.999Z</time>
      </trkpt>
      <trkpt lat="46.57231" lon="0.23948">
        <ele>138.1</ele>
        <time>2019-12-01T08:34:24.999Z</time>
      </trkpt>
      <trkpt lat="46.57221" lon="0.23948">
        <ele>138.43</ele>
        <time>2019-12-01T08:34:28.999Z</time>
      </trkpt>
      <trkpt lat="46.57212" lon="0.23948">
        <ele>138.72</ele>
        <time>2019-12-01T08:34:32.999Z</time>
      </trkpt>
      <trkpt lat="46.57201" lon="0.2395">
        <ele>139.08</ele>
        <time>2019-12-01T08:34:36.999Z</time>
      </trkpt>
      <trkpt lat="46.5719" lon="0.2395">
        <ele>139.59</ele>
        <time>2019-12-01T08:34:41.999Z</time>
      </trkpt>
      <trkpt lat="46.57181" lon="0.23948">
        <ele>139.78</ele>
        <time>2019-12-01T08:34:46.999Z</time>
      </trkpt>
      <trkpt lat="46.5717" lon="0.23945">
        <ele>140.49</ele>
        <time>2019-12-01T08:34:55.999Z</time>
      </trkpt>
      <trkpt lat="46.57163" lon="0.23933">
        <ele>141.48</ele>
        <time>2019-12-01T08:35:02.999Z</time>
      </trkpt>
      <trkpt lat="46.57156" lon="0.23924">
        <ele>142.19</ele>
        <time>2019-12-01T08:35:07.999Z</time>
      </trkpt>
      <trkpt lat="46.57148" lon="0.23916">
        <ele>142.89</ele>
        <time>2019-12-01T08:35:12.999Z</time>
      </trkpt>
      <trkpt lat="46.57142" lon="0.23906">
        <ele>143.72</ele>
        <time>2019-12-01T08:35:17.999Z</time>
      </trkpt>
      <trkpt lat="46.57135" lon="0.23894">
        <ele>145.04</ele>
        <time>2019-12-01T08:35:24.999Z</time>
      </trkpt>
      <trkpt lat="46.57127" lon="0.23887">
        <ele>145.75</ele>
        <time>2019-12-01T08:35:27.999Z</time>
      </trkpt>
      <trkpt lat="46.57119" lon="0.23876">
        <ele>146.89</ele>
        <time>2019-12-01T08:35:31.999Z</time>
      </trkpt>
      <trkpt lat="46.5711" lon="0.23865">
        <ele>147.96</ele>
        <time>2019-12-01T08:35:35.999Z</time>
      </trkpt>
      <trkpt lat="46.57099" lon="0.23859">
        <ele>148.92</ele>
        <time>2019-12-01T08:35:39.999Z</time>
      </trkpt>
      <trkpt lat="46.57091" lon="0.23848">
        <ele>149.59</ele>
        <time>2019-12-01T08:35:43.999Z</time>
      </trkpt>
      <trkpt lat="46.5708" lon="0.23839">
        <ele>150.31</ele>
        <time>2019-12-01T08:35:47.999Z</time>
      </trkpt>
      <trkpt lat="46.57072" lon="0.2383">
        <ele>150.81</ele>
        <time>2019-12-01T08:35:51.999Z</time>
      </trkpt>
      <trkpt lat="46.57064" lon="0.23821">
        <ele>151.33</ele>
        <time>2019-12-01T08:35:54.999Z</time>
      </trkpt>
      <trkpt lat="46.57056" lon="0.23815">
        <ele>152</ele>
        <time>2019-12-01T08:35:58.999Z</time>
      </trkpt>
      <trkpt lat="46.57046" lon="0.23812">
        <ele>153.04</ele>
        <time>2019-12-01T08:36:02.999Z</time>
      </trkpt>
      <trkpt lat="46.57037" lon="0.23808">
        <ele>154.78</ele>
        <time>2019-12-01T08:36:08.999Z</time>
      </trkpt>
      <trkpt lat="46.57026" lon="0.23809">
        <ele>155.98</ele>
        <time>2019-12-01T08:36:13.999Z</time>
      </trkpt>
      <trkpt lat="46.57017" lon="0.23806">
        <ele>156.68</ele>
        <time>2019-12-01T08:36:17.999Z</time>
      </trkpt>
      <trkpt lat="46.57006" lon="0.23807">
        <ele>157.3</ele>
        <time>2019-12-01T08:36:22.999Z</time>
      </trkpt>
      <trkpt lat="46.56997" lon="0.23805">
        <ele>157.68</ele>
        <time>2019-12-01T08:36:26.999Z</time>
      </trkpt>
      <trkpt lat="46.56987" lon="0.23805">
        <ele>158.89</ele>
        <time>2019-12-01T08:36:34.999Z</time>
      </trkpt>
      <trkpt lat="46.56976" lon="0.23808">
        <ele>160.07</ele>
        <time>2019-12-01T08:36:43.999Z</time>
      </trkpt>
      <trkpt lat="46.56968" lon="0.23817">
        <ele>160.93</ele>
        <time>2019-12-01T08:36:51.999Z</time>
      </trkpt>
      <trkpt lat="46.56962" lon="0.23827">
        <ele>161.86</ele>
        <time>2019-12-01T08:36:59.999Z</time>
      </trkpt>
      <trkpt lat="46.56957" lon="0.23839">
        <ele>164.03</ele>
        <time>2019-12-01T08:37:09.999Z</time>
      </trkpt>
      <trkpt lat="46.5695" lon="0.23851">
        <ele>166.8</ele>
        <time>2019-12-01T08:37:19.999Z</time>
      </trkpt>
      <trkpt lat="46.56942" lon="0.2386">
        <ele>167.83</ele>
        <time>2019-12-01T08:37:24.999Z</time>
      </trkpt>
      <trkpt lat="46.56933" lon="0.23867">
        <ele>168.38</ele>
        <time>2019-12-01T08:37:28.999Z</time>
      </trkpt>
      <trkpt lat="46.56923" lon="0.23864">
        <ele>169.4</ele>
        <time>2019-12-01T08:37:36.999Z</time>
      </trkpt>
      <trkpt lat="46.56919" lon="0.23852">
        <ele>169.88</ele>
        <time>2019-12-01T08:37:41.999Z</time>
      </trkpt>
      <trkpt lat="46.56919" lon="0.23838">
        <ele>170.86</ele>
        <time>2019-12-01T08:37:48.999Z</time>
      </trkpt>
      <trkpt lat="46.56916" lon="0.23825">
        <ele>172.3</ele>
        <time>2019-12-01T08:37:54.999Z</time>
      </trkpt>
      <trkpt lat="46.56913" lon="0.23811">
        <ele>173.64</ele>
        <time>2019-12-01T08:38:00.999Z</time>
      </trkpt>
      <trkpt lat="46.56907" lon="0.23799">
        <ele>174.58</ele>
        <time>2019-12-01T08:38:05.999Z</time>
      </trkpt>
      <trkpt lat="46.56907" lon="0.23786">
        <ele>175.06</ele>
        <time>2019-12-01T08:38:08.999Z</time>
      </trkpt>
      <trkpt lat="46.56907" lon="0.23771">
        <ele>175.69</ele>
        <time>2019-12-01T08:38:13.999Z</time>
      </trkpt>
      <trkpt lat="46.569" lon="0.23762">
        <ele>176.22</ele>
        <time>2019-12-01T08:38:18.999Z</time>
      </trkpt>
      <trkpt lat="46.56891" lon="0.23754">
        <ele>176.74</ele>
        <time>2019-12-01T08:38:23.999Z</time>
      </trkpt>
      <trkpt lat="46.56883" lon="0.23747">
        <ele>177.5</ele>
        <time>2019-12-01T08:38:28.999Z</time>
      </trkpt>
      <trkpt lat="46.56875" lon="0.23738">
        <ele>178.11</ele>
        <time>2019-12-01T08:38:32.999Z</time>
      </trkpt>
      <trkpt lat="46.56867" lon="0.23726">
        <ele>178.73</ele>
        <time>2019-12-01T08:38:37.999Z</time>
      </trkpt>
      <trkpt lat="46.5686" lon="0.23716">
        <ele>179.26</ele>
        <time>2019-12-01T08:38:41.999Z</time>
      </trkpt>
      <trkpt lat="46.56852" lon="0.23706">
        <ele>179.69</ele>
        <time>2019-12-01T08:38:44.999Z</time>
      </trkpt>
      <trkpt lat="46.56844" lon="0.23695">
        <ele>180.21</ele>
        <time>2019-12-01T08:38:48.999Z</time>
      </trkpt>
      <trkpt lat="46.56835" lon="0.23686">
        <ele>180.64</ele>
        <time>2019-12-01T08:38:51.999Z</time>
      </trkpt>
      <trkpt lat="46.56828" lon="0.23678">
        <ele>181.05</ele>
        <time>2019-12-01T08:38:54.999Z</time>
      </trkpt>
      <trkpt lat="46.56818" lon="0.23675">
        <ele>181.49</ele>
        <time>2019-12-01T08:38:58.999Z</time>
      </trkpt>
      <trkpt lat="46.56808" lon="0.23678">
        <ele>181.76</ele>
        <time>2019-12-01T08:39:01.999Z</time>
      </trkpt>
      <trkpt lat="46.56798" lon="0.23677">
        <ele>182.03</ele>
        <time>2019-12-01T08:39:04.999Z</time>
      </trkpt>
      <trkpt lat="46.5679" lon="0.23672">
        <ele>182.25</ele>
        <time>2019-12-01T08:39:07.999Z</time>
      </trkpt>
      <trkpt lat="46.56779" lon="0.23667">
        <ele>182.42</ele>
        <time>2019-12-01T08:39:11.999Z</time>
      </trkpt>
      <trkpt lat="46.56768" lon="0.23662">
        <ele>182.49</ele>
        <time>2019-12-01T08:39:15.999Z</time>
      </trkpt>
      <trkpt lat="46.56758" lon="0.23659">
        <ele>182.53</ele>
        <time>2019-12-01T08:39:18.999Z</time>
      </trkpt>
      <trkpt lat="46.56747" lon="0.23661">
        <ele>182.66</ele>
        <time>2019-12-01T08:39:21.999Z</time>
      </trkpt>
      <trkpt lat="46.56735" lon="0.23661">
        <ele>182.86</ele>
        <time>2019-12-01T08:39:24.999Z</time>
      </trkpt>
      <trkpt lat="46.56723" lon="0.2366">
        <ele>183.05</ele>
        <time>2019-12-01T08:39:27.999Z</time>
      </trkpt>
      <trkpt lat="46.56714" lon="0.23662">
        <ele>183.31</ele>
        <time>2019-12-01T08:39:30.999Z</time>
      </trkpt>
      <trkpt lat="46.56701" lon="0.23659">
        <ele>183.7</ele>
        <time>2019-12-01T08:39:33.999Z</time>
      </trkpt>
      <trkpt lat="46.56692" lon="0.23656">
        <ele>183.89</ele>
        <time>2019-12-01T08:39:35.999Z</time>
      </trkpt>
      <trkpt lat="46.56681" lon="0.2365">
        <ele>184.02</ele>
        <time>2019-12-01T08:39:38.999Z</time>
      </trkpt>
      <trkpt lat="46.56669" lon="0.23641">
        <ele>184.28</ele>
        <time>2019-12-01T08:39:41.999Z</time>
      </trkpt>
      <trkpt lat="46.5666" lon="0.23635">
        <ele>184.52</ele>
        <time>2019-12-01T08:39:43.999Z</time>
      </trkpt>
      <trkpt lat="46.56652" lon="0.23625">
        <ele>184.89</ele>
        <time>2019-12-01T08:39:46.999Z</time>
      </trkpt>
      <trkpt lat="46.56642" lon="0.23614">
        <ele>185.28</ele>
        <time>2019-12-01T08:39:49.999Z</time>
      </trkpt>
      <trkpt lat="46.56636" lon="0.23599">
        <ele>185.63</ele>
        <time>2019-12-01T08:39:52.999Z</time>
      </trkpt>
      <trkpt lat="46.56629" lon="0.23588">
        <ele>186.32</ele>
        <time>2019-12-01T08:39:57.999Z</time>
      </trkpt>
      <trkpt lat="46.56623" lon="0.23574">
        <ele>187.01</ele>
        <time>2019-12-01T08:40:01.999Z</time>
      </trkpt>
      <trkpt lat="46.56617" lon="0.23562">
        <ele>187.53</ele>
        <time>2019-12-01T08:40:04.999Z</time>
      </trkpt>
      <trkpt lat="46.56611" lon="0.23551">
        <ele>188.17</ele>
        <time>2019-12-01T08:40:08.999Z</time>
      </trkpt>
      <trkpt lat="46.56604" lon="0.23542">
        <ele>188.72</ele>
        <time>2019-12-01T08:40:11.999Z</time>
      </trkpt>
      <trkpt lat="46.56598" lon="0.23531">
        <ele>189.38</ele>
        <time>2019-12-01T08:40:14.999Z</time>
      </trkpt>
      <trkpt lat="46.56592" lon="0.23519">
        <ele>190.01</ele>
        <time>2019-12-01T08:40:17.999Z</time>
      </trkpt>
      <trkpt lat="46.56587" lon="0.23503">
        <ele>190.54</ele>
        <time>2019-12-01T08:40:20.999Z</time>
      </trkpt>
      <trkpt lat="46.56584" lon="0.23486">
        <ele>190.95</ele>
        <time>2019-12-01T08:40:23.999Z</time>
      </trkpt>
      <trkpt lat="46.56584" lon="0.23466">
        <ele>191.34</ele>
        <time>2019-12-01T08:40:26.999Z</time>
      </trkpt>
      <trkpt lat="46.56586" lon="0.23447">
        <ele>191.8</ele>
        <time>2019-12-01T08:40:29.999Z</time>
      </trkpt>
      <trkpt lat="46.56584" lon="0.23429">
        <ele>192.74</ele>
        <time>2019-12-01T08:40:32.999Z</time>
      </trkpt>
      <trkpt lat="46.56579" lon="0.23415">
        <ele>192.95</ele>
        <time>2019-12-01T08:40:35.999Z</time>
      </trkpt>
      <trkpt lat="46.56576" lon="0.23401">
        <ele>193.21</ele>
        <time>2019-12-01T08:40:38.999Z</time>
      </trkpt>
      <trkpt lat="46.56575" lon="0.23388">
        <ele>193.32</ele>
        <time>2019-12-01T08:40:41.999Z</time>
      </trkpt>
      <trkpt lat="46.56572" lon="0.23371">
        <ele>192.82</ele>
        <time>2019-12-01T08:40:43.999Z</time>
      </trkpt>
      <trkpt lat="46.56571" lon="0.23357">
        <ele>192.31</ele>
        <time>2019-12-01T08:40:45.999Z</time>
      </trkpt>
      <trkpt lat="46.5657" lon="0.23336">
        <ele>190.89</ele>
        <time>2019-12-01T08:40:49.999Z</time>
      </trkpt>
      <trkpt lat="46.56568" lon="0.2332">
        <ele>189.72</ele>
        <time>2019-12-01T08:40:52.999Z</time>
      </trkpt>
      <trkpt lat="46.56566" lon="0.23302">
        <ele>189.37</ele>
        <time>2019-12-01T08:40:56.999Z</time>
      </trkpt>
      <trkpt lat="46.56563" lon="0.2329">
        <ele>188.89</ele>
        <time>2019-12-01T08:40:59.999Z</time>
      </trkpt>
      <trkpt lat="46.56557" lon="0.23278">
        <ele>188.4</ele>
        <time>2019-12-01T08:41:02.999Z</time>
      </trkpt>
      <trkpt lat="46.56546" lon="0.23271">
        <ele>188.13</ele>
        <time>2019-12-01T08:41:04.999Z</time>
      </trkpt>
      <trkpt lat="46.56537" lon="0.23261">
        <ele>187.91</ele>
        <time>2019-12-01T08:41:07.999Z</time>
      </trkpt>
      <trkpt lat="46.56527" lon="0.23248">
        <ele>187.75</ele>
        <time>2019-12-01T08:41:10.999Z</time>
      </trkpt>
      <trkpt lat="46.56518" lon="0.23238">
        <ele>187.83</ele>
        <time>2019-12-01T08:41:12.999Z</time>
      </trkpt>
      <trkpt lat="46.56505" lon="0.2323">
        <ele>187.76</ele>
        <time>2019-12-01T08:41:15.999Z</time>
      </trkpt>
      <trkpt lat="46.56494" lon="0.23223">
        <ele>187.58</ele>
        <time>2019-12-01T08:41:18.999Z</time>
      </trkpt>
      <trkpt lat="46.56484" lon="0.23215">
        <ele>188.22</ele>
        <time>2019-12-01T08:41:21.999Z</time>
      </trkpt>
      <trkpt lat="46.56473" lon="0.23208">
        <ele>189.2</ele>
        <time>2019-12-01T08:41:24.999Z</time>
      </trkpt>
      <trkpt lat="46.56463" lon="0.23206">
        <ele>191.75</ele>
        <time>2019-12-01T08:41:27.999Z</time>
      </trkpt>
      <trkpt lat="46.56453" lon="0.23206">
        <ele>192.3</ele>
        <time>2019-12-01T08:41:29.999Z</time>
      </trkpt>
      <trkpt lat="46.56442" lon="0.23207">
        <ele>191.87</ele>
        <time>2019-12-01T08:41:31.999Z</time>
      </trkpt>
      <trkpt lat="46.56432" lon="0.23209">
        <ele>191.63</ele>
        <time>2019-12-01T08:41:34.999Z</time>
      </trkpt>
      <trkpt lat="46.56422" lon="0.2321">
        <ele>191.34</ele>
        <time>2019-12-01T08:41:37.999Z</time>
      </trkpt>
      <trkpt lat="46.56413" lon="0.23212">
        <ele>190.46</ele>
        <time>2019-12-01T08:41:39.999Z</time>
      </trkpt>
      <trkpt lat="46.56403" lon="0.23214">
        <ele>189.08</ele>
        <time>2019-12-01T08:41:41.999Z</time>
      </trkpt>
      <trkpt lat="46.56392" lon="0.23216">
        <ele>187.93</ele>
        <time>2019-12-01T08:41:43.999Z</time>
      </trkpt>
      <trkpt lat="46.56382" lon="0.23215">
        <ele>186.93</ele>
        <time>2019-12-01T08:41:45.999Z</time>
      </trkpt>
      <trkpt lat="46.56373" lon="0.23213">
        <ele>186.05</ele>
        <time>2019-12-01T08:41:47.999Z</time>
      </trkpt>
      <trkpt lat="46.56364" lon="0.2321">
        <ele>185.3</ele>
        <time>2019-12-01T08:41:49.999Z</time>
      </trkpt>
      <trkpt lat="46.56351" lon="0.23205">
        <ele>184.61</ele>
        <time>2019-12-01T08:41:52.999Z</time>
      </trkpt>
      <trkpt lat="46.56338" lon="0.23202">
        <ele>185.07</ele>
        <time>2019-12-01T08:41:55.999Z</time>
      </trkpt>
      <trkpt lat="46.56328" lon="0.23201">
        <ele>185.68</ele>
        <time>2019-12-01T08:41:57.999Z</time>
      </trkpt>
      <trkpt lat="46.56318" lon="0.23199">
        <ele>185.9</ele>
        <time>2019-12-01T08:41:59.999Z</time>
      </trkpt>
      <trkpt lat="46.56306" lon="0.23197">
        <ele>186.32</ele>
        <time>2019-12-01T08:42:02.999Z</time>
      </trkpt>
      <trkpt lat="46.56293" lon="0.23195">
        <ele>187.73</ele>
        <time>2019-12-01T08:42:05.999Z</time>
      </trkpt>
      <trkpt lat="46.5628" lon="0.23197">
        <ele>187.81</ele>
        <time>2019-12-01T08:42:08.999Z</time>
      </trkpt>
      <trkpt lat="46.5627" lon="0.23202">
        <ele>187.82</ele>
        <time>2019-12-01T08:42:10.999Z</time>
      </trkpt>
      <trkpt lat="46.56262" lon="0.23209">
        <ele>187.87</ele>
        <time>2019-12-01T08:42:12.999Z</time>
      </trkpt>
      <trkpt lat="46.56252" lon="0.23213">
        <ele>188.34</ele>
        <time>2019-12-01T08:42:14.999Z</time>
      </trkpt>
      <trkpt lat="46.5624" lon="0.23217">
        <ele>188.47</ele>
        <time>2019-12-01T08:42:17.999Z</time>
      </trkpt>
      <trkpt lat="46.5623" lon="0.23217">
        <ele>188.62</ele>
        <time>2019-12-01T08:42:19.999Z</time>
      </trkpt>
      <trkpt lat="46.5622" lon="0.23218">
        <ele>189.13</ele>
        <time>2019-12-01T08:42:21.999Z</time>
      </trkpt>
      <trkpt lat="46.56211" lon="0.23218">
        <ele>189.13</ele>
        <time>2019-12-01T08:42:23.999Z</time>
      </trkpt>
      <trkpt lat="46.56201" lon="0.23216">
        <ele>189.06</ele>
        <time>2019-12-01T08:42:26.999Z</time>
      </trkpt>
      <trkpt lat="46.5619" lon="0.23216">
        <ele>188.97</ele>
        <time>2019-12-01T08:42:29.999Z</time>
      </trkpt>
      <trkpt lat="46.56178" lon="0.23215">
        <ele>188.91</ele>
        <time>2019-12-01T08:42:32.999Z</time>
      </trkpt>
      <trkpt lat="46.56167" lon="0.23213">
        <ele>188.86</ele>
        <time>2019-12-01T08:42:35.999Z</time>
      </trkpt>
      <trkpt lat="46.56157" lon="0.23209">
        <ele>188.82</ele>
        <time>2019-12-01T08:42:38.999Z</time>
      </trkpt>
      <trkpt lat="46.56143" lon="0.23205">
        <ele>188.87</ele>
        <time>2019-12-01T08:42:41.999Z</time>
      </trkpt>
      <trkpt lat="46.56133" lon="0.23202">
        <ele>189.46</ele>
        <time>2019-12-01T08:42:43.999Z</time>
      </trkpt>
      <trkpt lat="46.56124" lon="0.23199">
        <ele>189.59</ele>
        <time>2019-12-01T08:42:45.999Z</time>
      </trkpt>
      <trkpt lat="46.56113" lon="0.232">
        <ele>189.27</ele>
        <time>2019-12-01T08:42:47.999Z</time>
      </trkpt>
      <trkpt lat="46.56104" lon="0.23199">
        <ele>188.53</ele>
        <time>2019-12-01T08:42:49.999Z</time>
      </trkpt>
      <trkpt lat="46.56093" lon="0.23197">
        <ele>188.17</ele>
        <time>2019-12-01T08:42:51.999Z</time>
      </trkpt>
      <trkpt lat="46.56082" lon="0.23194">
        <ele>188.29</ele>
        <time>2019-12-01T08:42:54.999Z</time>
      </trkpt>
      <trkpt lat="46.56085" lon="0.23175">
        <ele>188.55</ele>
        <time>2019-12-01T08:42:58.999Z</time>
      </trkpt>
      <trkpt lat="46.56092" lon="0.23164">
        <ele>188.69</ele>
        <time>2019-12-01T08:43:01.999Z</time>
      </trkpt>
      <trkpt lat="46.56099" lon="0.23147">
        <ele>188.84</ele>
        <time>2019-12-01T08:43:04.999Z</time>
      </trkpt>
      <trkpt lat="46.56106" lon="0.23138">
        <ele>189.38</ele>
        <time>2019-12-01T08:43:06.999Z</time>
      </trkpt>
      <trkpt lat="46.56113" lon="0.23127">
        <ele>189.35</ele>
        <time>2019-12-01T08:43:08.999Z</time>
      </trkpt>
      <trkpt lat="46.56121" lon="0.23115">
        <ele>188.34</ele>
        <time>2019-12-01T08:43:10.999Z</time>
      </trkpt>
      <trkpt lat="46.56128" lon="0.23104">
        <ele>187.54</ele>
        <time>2019-12-01T08:43:13.999Z</time>
      </trkpt>
      <trkpt lat="46.56135" lon="0.23094">
        <ele>187.44</ele>
        <time>2019-12-01T08:43:15.999Z</time>
      </trkpt>
      <trkpt lat="46.56143" lon="0.23081">
        <ele>187.21</ele>
        <time>2019-12-01T08:43:18.999Z</time>
      </trkpt>
      <trkpt lat="46.56149" lon="0.23071">
        <ele>187.06</ele>
        <time>2019-12-01T08:43:20.999Z</time>
      </trkpt>
      <trkpt lat="46.56156" lon="0.2306">
        <ele>185.76</ele>
        <time>2019-12-01T08:43:23.999Z</time>
      </trkpt>
      <trkpt lat="46.56161" lon="0.23049">
        <ele>183.88</ele>
        <time>2019-12-01T08:43:25.999Z</time>
      </trkpt>
      <trkpt lat="46.56167" lon="0.23036">
        <ele>182.63</ele>
        <time>2019-12-01T08:43:27.999Z</time>
      </trkpt>
      <trkpt lat="46.56172" lon="0.23024">
        <ele>182.49</ele>
        <time>2019-12-01T08:43:29.999Z</time>
      </trkpt>
      <trkpt lat="46.56179" lon="0.23009">
        <ele>183.71</ele>
        <time>2019-12-01T08:43:32.999Z</time>
      </trkpt>
      <trkpt lat="46.56184" lon="0.22998">
        <ele>184.63</ele>
        <time>2019-12-01T08:43:35.999Z</time>
      </trkpt>
      <trkpt lat="46.5619" lon="0.22986">
        <ele>185.37</ele>
        <time>2019-12-01T08:43:37.999Z</time>
      </trkpt>
      <trkpt lat="46.56198" lon="0.22973">
        <ele>185.82</ele>
        <time>2019-12-01T08:43:39.999Z</time>
      </trkpt>
      <trkpt lat="46.56205" lon="0.2296">
        <ele>186.29</ele>
        <time>2019-12-01T08:43:41.999Z</time>
      </trkpt>
      <trkpt lat="46.56212" lon="0.22947">
        <ele>186.62</ele>
        <time>2019-12-01T08:43:44.999Z</time>
      </trkpt>
      <trkpt lat="46.56219" lon="0.22932">
        <ele>186.36</ele>
        <time>2019-12-01T08:43:47.999Z</time>
      </trkpt>
      <trkpt lat="46.56227" lon="0.22918">
        <ele>186.1</ele>
        <time>2019-12-01T08:43:50.999Z</time>
      </trkpt>
      <trkpt lat="46.56233" lon="0.22907">
        <ele>186.14</ele>
        <time>2019-12-01T08:43:53.999Z</time>
      </trkpt>
      <trkpt lat="46.5624" lon="0.22893">
        <ele>186.31</ele>
        <time>2019-12-01T08:43:56.999Z</time>
      </trkpt>
      <trkpt lat="46.56243" lon="0.2288">
        <ele>186.44</ele>
        <time>2019-12-01T08:43:59.999Z</time>
      </trkpt>
      <trkpt lat="46.5623" lon="0.22874">
        <ele>188.02</ele>
        <time>2019-12-01T08:44:02.999Z</time>
      </trkpt>
      <trkpt lat="46.5622" lon="0.22871">
        <ele>190.39</ele>
        <time>2019-12-01T08:44:04.999Z</time>
      </trkpt>
      <trkpt lat="46.56209" lon="0.22866">
        <ele>191.58</ele>
        <time>2019-12-01T08:44:06.999Z</time>
      </trkpt>
      <trkpt lat="46.562" lon="0.22862">
        <ele>192.19</ele>
        <time>2019-12-01T08:44:08.999Z</time>
      </trkpt>
      <trkpt lat="46.56189" lon="0.22859">
        <ele>192.48</ele>
        <time>2019-12-01T08:44:10.999Z</time>
      </trkpt>
      <trkpt lat="46.56176" lon="0.22855">
        <ele>192.75</ele>
        <time>2019-12-01T08:44:12.999Z</time>
      </trkpt>
      <trkpt lat="46.56165" lon="0.2285">
        <ele>192.63</ele>
        <time>2019-12-01T08:44:14.999Z</time>
      </trkpt>
      <trkpt lat="46.56155" lon="0.22846">
        <ele>192.15</ele>
        <time>2019-12-01T08:44:16.999Z</time>
      </trkpt>
      <trkpt lat="46.56144" lon="0.2284">
        <ele>191.32</ele>
        <time>2019-12-01T08:44:18.999Z</time>
      </trkpt>
      <trkpt lat="46.56133" lon="0.22835">
        <ele>190.63</ele>
        <time>2019-12-01T08:44:20.999Z</time>
      </trkpt>
      <trkpt lat="46.56122" lon="0.2283">
        <ele>189.62</ele>
        <time>2019-12-01T08:44:22.999Z</time>
      </trkpt>
      <trkpt lat="46.56111" lon="0.22824">
        <ele>188.41</ele>
        <time>2019-12-01T08:44:24.999Z</time>
      </trkpt>
      <trkpt lat="46.56099" lon="0.22817">
        <ele>188.03</ele>
        <time>2019-12-01T08:44:26.999Z</time>
      </trkpt>
      <trkpt lat="46.5609" lon="0.22809">
        <ele>188.11</ele>
        <time>2019-12-01T08:44:28.999Z</time>
      </trkpt>
      <trkpt lat="46.56081" lon="0.22804">
        <ele>187.83</ele>
        <time>2019-12-01T08:44:30.999Z</time>
      </trkpt>
      <trkpt lat="46.5607" lon="0.22798">
        <ele>188.08</ele>
        <time>2019-12-01T08:44:32.999Z</time>
      </trkpt>
      <trkpt lat="46.56061" lon="0.22793">
        <ele>189.35</ele>
        <time>2019-12-01T08:44:34.999Z</time>
      </trkpt>
      <trkpt lat="46.56048" lon="0.22789">
        <ele>190.01</ele>
        <time>2019-12-01T08:44:36.999Z</time>
      </trkpt>
      <trkpt lat="46.56037" lon="0.22787">
        <ele>190.41</ele>
        <time>2019-12-01T08:44:38.999Z</time>
      </trkpt>
      <trkpt lat="46.56026" lon="0.22782">
        <ele>190.87</ele>
        <time>2019-12-01T08:44:40.999Z</time>
      </trkpt>
      <trkpt lat="46.56016" lon="0.22779">
        <ele>191.33</ele>
        <time>2019-12-01T08:44:42.999Z</time>
      </trkpt>
      <trkpt lat="46.56004" lon="0.22774">
        <ele>191.82</ele>
        <time>2019-12-01T08:44:44.999Z</time>
      </trkpt>
      <trkpt lat="46.55991" lon="0.2277">
        <ele>191.51</ele>
        <time>2019-12-01T08:44:46.999Z</time>
      </trkpt>
      <trkpt lat="46.55979" lon="0.22764">
        <ele>190.64</ele>
        <time>2019-12-01T08:44:48.999Z</time>
      </trkpt>
      <trkpt lat="46.55968" lon="0.22758">
        <ele>189.36</ele>
        <time>2019-12-01T08:44:50.999Z</time>
      </trkpt>
      <trkpt lat="46.55956" lon="0.22753">
        <ele>188.5</ele>
        <time>2019-12-01T08:44:52.999Z</time>
      </trkpt>
      <trkpt lat="46.55944" lon="0.22747">
        <ele>187.75</ele>
        <time>2019-12-01T08:44:54.999Z</time>
      </trkpt>
      <trkpt lat="46.55934" lon="0.22742">
        <ele>187.98</ele>
        <time>2019-12-01T08:44:56.999Z</time>
      </trkpt>
      <trkpt lat="46.55923" lon="0.22739">
        <ele>188.75</ele>
        <time>2019-12-01T08:44:58.999Z</time>
      </trkpt>
      <trkpt lat="46.55912" lon="0.22735">
        <ele>190.04</ele>
        <time>2019-12-01T08:45:00.999Z</time>
      </trkpt>
      <trkpt lat="46.559" lon="0.22732">
        <ele>191.36</ele>
        <time>2019-12-01T08:45:02.999Z</time>
      </trkpt>
      <trkpt lat="46.5589" lon="0.2273">
        <ele>192.52</ele>
        <time>2019-12-01T08:45:04.999Z</time>
      </trkpt>
      <trkpt lat="46.55881" lon="0.22727">
        <ele>193.76</ele>
        <time>2019-12-01T08:45:06.999Z</time>
      </trkpt>
      <trkpt lat="46.55868" lon="0.22723">
        <ele>194.96</ele>
        <time>2019-12-01T08:45:09.999Z</time>
      </trkpt>
      <trkpt lat="46.55859" lon="0.22721">
        <ele>195.07</ele>
        <time>2019-12-01T08:45:11.999Z</time>
      </trkpt>
      <trkpt lat="46.55848" lon="0.22719">
        <ele>195.81</ele>
        <time>2019-12-01T08:45:13.999Z</time>
      </trkpt>
      <trkpt lat="46.55836" lon="0.22716">
        <ele>195.88</ele>
        <time>2019-12-01T08:45:15.999Z</time>
      </trkpt>
      <trkpt lat="46.55825" lon="0.2271">
        <ele>194.84</ele>
        <time>2019-12-01T08:45:17.999Z</time>
      </trkpt>
      <trkpt lat="46.55814" lon="0.22703">
        <ele>193.4</ele>
        <time>2019-12-01T08:45:20.999Z</time>
      </trkpt>
      <trkpt lat="46.55809" lon="0.22688">
        <ele>193.23</ele>
        <time>2019-12-01T08:45:24.999Z</time>
      </trkpt>
      <trkpt lat="46.55805" lon="0.22676">
        <ele>193.17</ele>
        <time>2019-12-01T08:45:28.999Z</time>
      </trkpt>
      <trkpt lat="46.55796" lon="0.22664">
        <ele>193.21</ele>
        <time>2019-12-01T08:45:33.999Z</time>
      </trkpt>
      <trkpt lat="46.5579" lon="0.22653">
        <ele>193.36</ele>
        <time>2019-12-01T08:45:37.999Z</time>
      </trkpt>
      <trkpt lat="46.55781" lon="0.22644">
        <ele>193.53</ele>
        <time>2019-12-01T08:45:41.999Z</time>
      </trkpt>
      <trkpt lat="46.55773" lon="0.22636">
        <ele>193.6</ele>
        <time>2019-12-01T08:45:45.999Z</time>
      </trkpt>
      <trkpt lat="46.55764" lon="0.22631">
        <ele>193.57</ele>
        <time>2019-12-01T08:45:49.999Z</time>
      </trkpt>
      <trkpt lat="46.55753" lon="0.22625">
        <ele>193.57</ele>
        <time>2019-12-01T08:45:55.999Z</time>
      </trkpt>
      <trkpt lat="46.55747" lon="0.22617">
        <ele>193.76</ele>
        <time>2019-12-01T08:45:58.999Z</time>
      </trkpt>
      <trkpt lat="46.55739" lon="0.22607">
        <ele>194.58</ele>
        <time>2019-12-01T08:46:03.999Z</time>
      </trkpt>
      <trkpt lat="46.5573" lon="0.22602">
        <ele>195.57</ele>
        <time>2019-12-01T08:46:10.999Z</time>
      </trkpt>
      <trkpt lat="46.55721" lon="0.22596">
        <ele>195.94</ele>
        <time>2019-12-01T08:46:13.999Z</time>
      </trkpt>
      <trkpt lat="46.55713" lon="0.22589">
        <ele>196.72</ele>
        <time>2019-12-01T08:46:18.999Z</time>
      </trkpt>
      <trkpt lat="46.55706" lon="0.22579">
        <ele>197.19</ele>
        <time>2019-12-01T08:46:22.999Z</time>
      </trkpt>
      <trkpt lat="46.55696" lon="0.22572">
        <ele>197.63</ele>
        <time>2019-12-01T08:46:28.999Z</time>
      </trkpt>
      <trkpt lat="46.55687" lon="0.22567">
        <ele>198.29</ele>
        <time>2019-12-01T08:46:34.999Z</time>
      </trkpt>
      <trkpt lat="46.55679" lon="0.22558">
        <ele>198.82</ele>
        <time>2019-12-01T08:46:38.999Z</time>
      </trkpt>
      <trkpt lat="46.55672" lon="0.2255">
        <ele>198.98</ele>
        <time>2019-12-01T08:46:41.999Z</time>
      </trkpt>
      <trkpt lat="46.55662" lon="0.2254">
        <ele>199.03</ele>
        <time>2019-12-01T08:46:45.999Z</time>
      </trkpt>
      <trkpt lat="46.55654" lon="0.22533">
        <ele>198.99</ele>
        <time>2019-12-01T08:46:49.999Z</time>
      </trkpt>
      <trkpt lat="46.55646" lon="0.22525">
        <ele>199.05</ele>
        <time>2019-12-01T08:46:53.999Z</time>
      </trkpt>
      <trkpt lat="46.55639" lon="0.22515">
        <ele>199.11</ele>
        <time>2019-12-01T08:46:56.999Z</time>
      </trkpt>
      <trkpt lat="46.55632" lon="0.22506">
        <ele>199.08</ele>
        <time>2019-12-01T08:46:59.999Z</time>
      </trkpt>
      <trkpt lat="46.55623" lon="0.22496">
        <ele>198.92</ele>
        <time>2019-12-01T08:47:03.999Z</time>
      </trkpt>
      <trkpt lat="46.55614" lon="0.22486">
        <ele>198.61</ele>
        <time>2019-12-01T08:47:07.999Z</time>
      </trkpt>
      <trkpt lat="46.55606" lon="0.22475">
        <ele>198.24</ele>
        <time>2019-12-01T08:47:11.999Z</time>
      </trkpt>
      <trkpt lat="46.55597" lon="0.22467">
        <ele>198.25</ele>
        <time>2019-12-01T08:47:16.999Z</time>
      </trkpt>
      <trkpt lat="46.5559" lon="0.22457">
        <ele>198.3</ele>
        <time>2019-12-01T08:47:20.999Z</time>
      </trkpt>
      <trkpt lat="46.55584" lon="0.22447">
        <ele>198.4</ele>
        <time>2019-12-01T08:47:23.999Z</time>
      </trkpt>
      <trkpt lat="46.55577" lon="0.22436">
        <ele>198.52</ele>
        <time>2019-12-01T08:47:27.999Z</time>
      </trkpt>
      <trkpt lat="46.55571" lon="0.22423">
        <ele>198.82</ele>
        <time>2019-12-01T08:47:32.999Z</time>
      </trkpt>
      <trkpt lat="46.55565" lon="0.2241">
        <ele>199.04</ele>
        <time>2019-12-01T08:47:36.999Z</time>
      </trkpt>
      <trkpt lat="46.55562" lon="0.22396">
        <ele>198.92</ele>
        <time>2019-12-01T08:47:41.999Z</time>
      </trkpt>
      <trkpt lat="46.5556" lon="0.22383">
        <ele>198.65</ele>
        <time>2019-12-01T08:47:45.999Z</time>
      </trkpt>
      <trkpt lat="46.55558" lon="0.22366">
        <ele>198.3</ele>
        <time>2019-12-01T08:47:49.999Z</time>
      </trkpt>
      <trkpt lat="46.55558" lon="0.22348">
        <ele>197.61</ele>
        <time>2019-12-01T08:47:54.999Z</time>
      </trkpt>
      <trkpt lat="46.55556" lon="0.22334">
        <ele>196.77</ele>
        <time>2019-12-01T08:47:58.999Z</time>
      </trkpt>
      <trkpt lat="46.55554" lon="0.22318">
        <ele>195.77</ele>
        <time>2019-12-01T08:48:02.999Z</time>
      </trkpt>
      <trkpt lat="46.55552" lon="0.22303">
        <ele>194.76</ele>
        <time>2019-12-01T08:48:06.999Z</time>
      </trkpt>
      <trkpt lat="46.55546" lon="0.22291">
        <ele>193.97</ele>
        <time>2019-12-01T08:48:09.999Z</time>
      </trkpt>
      <trkpt lat="46.5554" lon="0.22277">
        <ele>193.24</ele>
        <time>2019-12-01T08:48:12.999Z</time>
      </trkpt>
      <trkpt lat="46.55532" lon="0.22267">
        <ele>192.87</ele>
        <time>2019-12-01T08:48:14.999Z</time>
      </trkpt>
      <trkpt lat="46.55526" lon="0.22257">
        <ele>192.69</ele>
        <time>2019-12-01T08:48:16.999Z</time>
      </trkpt>
      <trkpt lat="46.5552" lon="0.22247">
        <ele>192.55</ele>
        <time>2019-12-01T08:48:18.999Z</time>
      </trkpt>
      <trkpt lat="46.55512" lon="0.22234">
        <ele>192.45</ele>
        <time>2019-12-01T08:48:22.999Z</time>
      </trkpt>
      <trkpt lat="46.55503" lon="0.22223">
        <ele>192.71</ele>
        <time>2019-12-01T08:48:26.999Z</time>
      </trkpt>
      <trkpt lat="46.55495" lon="0.2221">
        <ele>193.28</ele>
        <time>2019-12-01T08:48:30.999Z</time>
      </trkpt>
      <trkpt lat="46.55492" lon="0.22197">
        <ele>193.79</ele>
        <time>2019-12-01T08:48:33.999Z</time>
      </trkpt>
      <trkpt lat="46.55488" lon="0.22183">
        <ele>194.2</ele>
        <time>2019-12-01T08:48:36.999Z</time>
      </trkpt>
      <trkpt lat="46.55482" lon="0.22166">
        <ele>194.52</ele>
        <time>2019-12-01T08:48:39.999Z</time>
      </trkpt>
      <trkpt lat="46.55479" lon="0.22152">
        <ele>194.74</ele>
        <time>2019-12-01T08:48:42.999Z</time>
      </trkpt>
      <trkpt lat="46.55475" lon="0.2214">
        <ele>194.96</ele>
        <time>2019-12-01T08:48:45.999Z</time>
      </trkpt>
      <trkpt lat="46.55471" lon="0.22127">
        <ele>195.17</ele>
        <time>2019-12-01T08:48:48.999Z</time>
      </trkpt>
      <trkpt lat="46.55467" lon="0.22115">
        <ele>195.51</ele>
        <time>2019-12-01T08:48:51.999Z</time>
      </trkpt>
      <trkpt lat="46.55463" lon="0.221">
        <ele>195.95</ele>
        <time>2019-12-01T08:48:54.999Z</time>
      </trkpt>
      <trkpt lat="46.55455" lon="0.22089">
        <ele>196.39</ele>
        <time>2019-12-01T08:48:58.999Z</time>
      </trkpt>
      <trkpt lat="46.55447" lon="0.22075">
        <ele>196.55</ele>
        <time>2019-12-01T08:49:01.999Z</time>
      </trkpt>
      <trkpt lat="46.55441" lon="0.22062">
        <ele>196.7</ele>
        <time>2019-12-01T08:49:04.999Z</time>
      </trkpt>
      <trkpt lat="46.55434" lon="0.22051">
        <ele>196.88</ele>
        <time>2019-12-01T08:49:08.999Z</time>
      </trkpt>
      <trkpt lat="46.55429" lon="0.22033">
        <ele>197.01</ele>
        <time>2019-12-01T08:49:11.999Z</time>
      </trkpt>
      <trkpt lat="46.55423" lon="0.2202">
        <ele>197.21</ele>
        <time>2019-12-01T08:49:14.999Z</time>
      </trkpt>
      <trkpt lat="46.55415" lon="0.22006">
        <ele>197.74</ele>
        <time>2019-12-01T08:49:17.999Z</time>
      </trkpt>
      <trkpt lat="46.55408" lon="0.21997">
        <ele>197.94</ele>
        <time>2019-12-01T08:49:19.999Z</time>
      </trkpt>
      <trkpt lat="46.55398" lon="0.21983">
        <ele>197.61</ele>
        <time>2019-12-01T08:49:21.999Z</time>
      </trkpt>
      <trkpt lat="46.55392" lon="0.21973">
        <ele>197.02</ele>
        <time>2019-12-01T08:49:23.999Z</time>
      </trkpt>
      <trkpt lat="46.55385" lon="0.21959">
        <ele>196.48</ele>
        <time>2019-12-01T08:49:26.999Z</time>
      </trkpt>
      <trkpt lat="46.55379" lon="0.21949">
        <ele>196.51</ele>
        <time>2019-12-01T08:49:29.999Z</time>
      </trkpt>
      <trkpt lat="46.55371" lon="0.21936">
        <ele>196.56</ele>
        <time>2019-12-01T08:49:32.999Z</time>
      </trkpt>
      <trkpt lat="46.55362" lon="0.21922">
        <ele>196.66</ele>
        <time>2019-12-01T08:49:35.999Z</time>
      </trkpt>
      <trkpt lat="46.55353" lon="0.21912">
        <ele>196.75</ele>
        <time>2019-12-01T08:49:38.999Z</time>
      </trkpt>
      <trkpt lat="46.55347" lon="0.21903">
        <ele>197.93</ele>
        <time>2019-12-01T08:49:40.999Z</time>
      </trkpt>
      <trkpt lat="46.55338" lon="0.21892">
        <ele>199.34</ele>
        <time>2019-12-01T08:49:43.999Z</time>
      </trkpt>
      <trkpt lat="46.5533" lon="0.21884">
        <ele>199.54</ele>
        <time>2019-12-01T08:49:45.999Z</time>
      </trkpt>
      <trkpt lat="46.55321" lon="0.21871">
        <ele>199.82</ele>
        <time>2019-12-01T08:49:48.999Z</time>
      </trkpt>
      <trkpt lat="46.55315" lon="0.21855">
        <ele>200.03</ele>
        <time>2019-12-01T08:49:51.999Z</time>
      </trkpt>
      <trkpt lat="46.5532" lon="0.21838">
        <ele>200.02</ele>
        <time>2019-12-01T08:49:54.999Z</time>
      </trkpt>
      <trkpt lat="46.55323" lon="0.21819">
        <ele>199.7</ele>
        <time>2019-12-01T08:49:57.999Z</time>
      </trkpt>
      <trkpt lat="46.55318" lon="0.21805">
        <ele>199.57</ele>
        <time>2019-12-01T08:49:59.999Z</time>
      </trkpt>
      <trkpt lat="46.55311" lon="0.2179">
        <ele>199.54</ele>
        <time>2019-12-01T08:50:01.999Z</time>
      </trkpt>
      <trkpt lat="46.55305" lon="0.21774">
        <ele>199.46</ele>
        <time>2019-12-01T08:50:03.999Z</time>
      </trkpt>
      <trkpt lat="46.55298" lon="0.21758">
        <ele>199.57</ele>
        <time>2019-12-01T08:50:05.999Z</time>
      </trkpt>
      <trkpt lat="46.5529" lon="0.21741">
        <ele>199.36</ele>
        <time>2019-12-01T08:50:07.999Z</time>
      </trkpt>
      <trkpt lat="46.55283" lon="0.21724">
        <ele>199.06</ele>
        <time>2019-12-01T08:50:09.999Z</time>
      </trkpt>
      <trkpt lat="46.55276" lon="0.21707">
        <ele>198.73</ele>
        <time>2019-12-01T08:50:11.999Z</time>
      </trkpt>
      <trkpt lat="46.55268" lon="0.21689">
        <ele>198.23</ele>
        <time>2019-12-01T08:50:13.999Z</time>
      </trkpt>
      <trkpt lat="46.55261" lon="0.21671">
        <ele>197.61</ele>
        <time>2019-12-01T08:50:15.999Z</time>
      </trkpt>
      <trkpt lat="46.55254" lon="0.21653">
        <ele>196.98</ele>
        <time>2019-12-01T08:50:17.999Z</time>
      </trkpt>
      <trkpt lat="46.55246" lon="0.21637">
        <ele>196.74</ele>
        <time>2019-12-01T08:50:19.999Z</time>
      </trkpt>
      <trkpt lat="46.55237" lon="0.21621">
        <ele>196.5</ele>
        <time>2019-12-01T08:50:21.999Z</time>
      </trkpt>
      <trkpt lat="46.55229" lon="0.21605">
        <ele>196.04</ele>
        <time>2019-12-01T08:50:23.999Z</time>
      </trkpt>
      <trkpt lat="46.55221" lon="0.21587">
        <ele>195.5</ele>
        <time>2019-12-01T08:50:25.999Z</time>
      </trkpt>
      <trkpt lat="46.55219" lon="0.21567">
        <ele>194.9</ele>
        <time>2019-12-01T08:50:27.999Z</time>
      </trkpt>
      <trkpt lat="46.55217" lon="0.21545">
        <ele>193.97</ele>
        <time>2019-12-01T08:50:29.999Z</time>
      </trkpt>
      <trkpt lat="46.55214" lon="0.21526">
        <ele>192.97</ele>
        <time>2019-12-01T08:50:31.999Z</time>
      </trkpt>
      <trkpt lat="46.55206" lon="0.21514">
        <ele>192.02</ele>
        <time>2019-12-01T08:50:33.999Z</time>
      </trkpt>
      <trkpt lat="46.55196" lon="0.21507">
        <ele>190.9</ele>
        <time>2019-12-01T08:50:35.999Z</time>
      </trkpt>
      <trkpt lat="46.5519" lon="0.21489">
        <ele>189.64</ele>
        <time>2019-12-01T08:50:37.999Z</time>
      </trkpt>
      <trkpt lat="46.55188" lon="0.21468">
        <ele>188.4</ele>
        <time>2019-12-01T08:50:39.999Z</time>
      </trkpt>
      <trkpt lat="46.55186" lon="0.21446">
        <ele>186.96</ele>
        <time>2019-12-01T08:50:41.999Z</time>
      </trkpt>
      <trkpt lat="46.55182" lon="0.21424">
        <ele>185.74</ele>
        <time>2019-12-01T08:50:43.999Z</time>
      </trkpt>
      <trkpt lat="46.55177" lon="0.21401">
        <ele>184.24</ele>
        <time>2019-12-01T08:50:45.999Z</time>
      </trkpt>
      <trkpt lat="46.55176" lon="0.21377">
        <ele>183.2</ele>
        <time>2019-12-01T08:50:47.999Z</time>
      </trkpt>
      <trkpt lat="46.55177" lon="0.21353">
        <ele>182.1</ele>
        <time>2019-12-01T08:50:49.999Z</time>
      </trkpt>
      <trkpt lat="46.55182" lon="0.2133">
        <ele>180.06</ele>
        <time>2019-12-01T08:50:51.999Z</time>
      </trkpt>
      <trkpt lat="46.55188" lon="0.21306">
        <ele>178.21</ele>
        <time>2019-12-01T08:50:53.999Z</time>
      </trkpt>
      <trkpt lat="46.5519" lon="0.21282">
        <ele>177.52</ele>
        <time>2019-12-01T08:50:55.999Z</time>
      </trkpt>
      <trkpt lat="46.55194" lon="0.21257">
        <ele>176.53</ele>
        <time>2019-12-01T08:50:57.999Z</time>
      </trkpt>
      <trkpt lat="46.55195" lon="0.21243">
        <ele>176.06</ele>
        <time>2019-12-01T08:50:58.999Z</time>
      </trkpt>
      <trkpt lat="46.55195" lon="0.21229">
        <ele>175.26</ele>
        <time>2019-12-01T08:50:59.999Z</time>
      </trkpt>
      <trkpt lat="46.55196" lon="0.21215">
        <ele>174.46</ele>
        <time>2019-12-01T08:51:00.999Z</time>
      </trkpt>
      <trkpt lat="46.55196" lon="0.2119">
        <ele>174.26</ele>
        <time>2019-12-01T08:51:02.999Z</time>
      </trkpt>
      <trkpt lat="46.55195" lon="0.21165">
        <ele>174.01</ele>
        <time>2019-12-01T08:51:04.999Z</time>
      </trkpt>
      <trkpt lat="46.55195" lon="0.21146">
        <ele>173.62</ele>
        <time>2019-12-01T08:51:06.999Z</time>
      </trkpt>
      <trkpt lat="46.55196" lon="0.21133">
        <ele>173.7</ele>
        <time>2019-12-01T08:51:09.999Z</time>
      </trkpt>
      <trkpt lat="46.55196" lon="0.2112">
        <ele>173.79</ele>
        <time>2019-12-01T08:51:12.999Z</time>
      </trkpt>
      <trkpt lat="46.55197" lon="0.21103">
        <ele>173.21</ele>
        <time>2019-12-01T08:51:15.999Z</time>
      </trkpt>
      <trkpt lat="46.55195" lon="0.21089">
        <ele>172.19</ele>
        <time>2019-12-01T08:51:17.999Z</time>
      </trkpt>
      <trkpt lat="46.55191" lon="0.21072">
        <ele>172.22</ele>
        <time>2019-12-01T08:51:20.999Z</time>
      </trkpt>
      <trkpt lat="46.55185" lon="0.21057">
        <ele>173.55</ele>
        <time>2019-12-01T08:51:23.999Z</time>
      </trkpt>
      <trkpt lat="46.55187" lon="0.21041">
        <ele>174.63</ele>
        <time>2019-12-01T08:51:35.999Z</time>
      </trkpt>
      <trkpt lat="46.55196" lon="0.21036">
        <ele>175.29</ele>
        <time>2019-12-01T08:51:45.999Z</time>
      </trkpt>
      <trkpt lat="46.552" lon="0.21024">
        <ele>175.99</ele>
        <time>2019-12-01T08:51:55.999Z</time>
      </trkpt>
      <trkpt lat="46.55211" lon="0.21022">
        <ele>175.72</ele>
        <time>2019-12-01T08:52:01.999Z</time>
      </trkpt>
      <trkpt lat="46.55221" lon="0.2102">
        <ele>175.55</ele>
        <time>2019-12-01T08:52:04.999Z</time>
      </trkpt>
      <trkpt lat="46.5523" lon="0.21018">
        <ele>175.38</ele>
        <time>2019-12-01T08:52:08.000Z</time>
      </trkpt>
      <trkpt lat="46.55242" lon="0.21016">
        <ele>175.32</ele>
        <time>2019-12-01T08:52:11.000Z</time>
      </trkpt>
      <trkpt lat="46.55252" lon="0.2101">
        <ele>175.34</ele>
        <time>2019-12-01T08:52:14.000Z</time>
      </trkpt>
      <trkpt lat="46.55261" lon="0.21003">
        <ele>175.19</ele>
        <time>2019-12-01T08:52:17.000Z</time>
      </trkpt>
      <trkpt lat="46.5527" lon="0.20994">
        <ele>174.59</ele>
        <time>2019-12-01T08:52:21.000Z</time>
      </trkpt>
      <trkpt lat="46.55279" lon="0.20995">
        <ele>174.15</ele>
        <time>2019-12-01T08:52:24.000Z</time>
      </trkpt>
      <trkpt lat="46.55284" lon="0.20982">
        <ele>173.12</ele>
        <time>2019-12-01T08:52:34.000Z</time>
      </trkpt>
      <trkpt lat="46.55289" lon="0.20969">
        <ele>172.18</ele>
        <time>2019-12-01T08:52:41.000Z</time>
      </trkpt>
      <trkpt lat="46.55282" lon="0.2096">
        <ele>171.95</ele>
        <time>2019-12-01T08:52:48.000Z</time>
      </trkpt>
      <trkpt lat="46.55285" lon="0.20946">
        <ele>171.58</ele>
        <time>2019-12-01T08:53:10.000Z</time>
      </trkpt>
      <trkpt lat="46.55284" lon="0.20931">
        <ele>171.83</ele>
        <time>2019-12-01T08:53:15.000Z</time>
      </trkpt>
      <trkpt lat="46.5529" lon="0.20916">
        <ele>172.12</ele>
        <time>2019-12-01T08:53:21.000Z</time>
      </trkpt>
      <trkpt lat="46.55287" lon="0.20901">
        <ele>171.99</ele>
        <time>2019-12-01T08:53:29.000Z</time>
      </trkpt>
      <trkpt lat="46.55284" lon="0.20888">
        <ele>172.06</ele>
        <time>2019-12-01T08:53:34.000Z</time>
      </trkpt>
      <trkpt lat="46.55287" lon="0.20874">
        <ele>172.08</ele>
        <time>2019-12-01T08:53:39.000Z</time>
      </trkpt>
      <trkpt lat="46.55294" lon="0.20861">
        <ele>172.34</ele>
        <time>2019-12-01T08:53:42.000Z</time>
      </trkpt>
      <trkpt lat="46.55299" lon="0.20848">
        <ele>172.57</ele>
        <time>2019-12-01T08:53:45.000Z</time>
      </trkpt>
      <trkpt lat="46.55304" lon="0.20834">
        <ele>172.52</ele>
        <time>2019-12-01T08:53:49.000Z</time>
      </trkpt>
      <trkpt lat="46.55305" lon="0.2082">
        <ele>171.89</ele>
        <time>2019-12-01T08:53:55.000Z</time>
      </trkpt>
      <trkpt lat="46.55299" lon="0.20808">
        <ele>172.07</ele>
        <time>2019-12-01T08:54:01.000Z</time>
      </trkpt>
      <trkpt lat="46.55296" lon="0.20793">
        <ele>172.61</ele>
        <time>2019-12-01T08:54:05.000Z</time>
      </trkpt>
      <trkpt lat="46.55299" lon="0.20775">
        <ele>173</ele>
        <time>2019-12-01T08:54:08.000Z</time>
      </trkpt>
      <trkpt lat="46.55301" lon="0.20761">
        <ele>173.21</ele>
        <time>2019-12-01T08:54:11.000Z</time>
      </trkpt>
      <trkpt lat="46.55304" lon="0.20745">
        <ele>173.34</ele>
        <time>2019-12-01T08:54:14.000Z</time>
      </trkpt>
      <trkpt lat="46.55309" lon="0.20727">
        <ele>173.44</ele>
        <time>2019-12-01T08:54:21.000Z</time>
      </trkpt>
      <trkpt lat="46.55314" lon="0.20714">
        <ele>173.51</ele>
        <time>2019-12-01T08:54:23.000Z</time>
      </trkpt>
      <trkpt lat="46.5532" lon="0.20704">
        <ele>173.57</ele>
        <time>2019-12-01T08:54:26.000Z</time>
      </trkpt>
      <trkpt lat="46.55321" lon="0.20689">
        <ele>173.45</ele>
        <time>2019-12-01T08:54:32.000Z</time>
      </trkpt>
      <trkpt lat="46.55322" lon="0.20673">
        <ele>173.45</ele>
        <time>2019-12-01T08:54:36.000Z</time>
      </trkpt>
      <trkpt lat="46.55327" lon="0.20662">
        <ele>173.43</ele>
        <time>2019-12-01T08:54:42.000Z</time>
      </trkpt>
      <trkpt lat="46.55327" lon="0.20648">
        <ele>173.36</ele>
        <time>2019-12-01T08:54:46.000Z</time>
      </trkpt>
      <trkpt lat="46.5533" lon="0.20635">
        <ele>173.21</ele>
        <time>2019-12-01T08:54:52.000Z</time>
      </trkpt>
      <trkpt lat="46.55333" lon="0.20622">
        <ele>173.2</ele>
        <time>2019-12-01T08:54:58.000Z</time>
      </trkpt>
      <trkpt lat="46.55336" lon="0.20609">
        <ele>173.34</ele>
        <time>2019-12-01T08:55:04.000Z</time>
      </trkpt>
      <trkpt lat="46.55338" lon="0.20595">
        <ele>173.42</ele>
        <time>2019-12-01T08:55:08.000Z</time>
      </trkpt>
      <trkpt lat="46.55341" lon="0.20581">
        <ele>173.48</ele>
        <time>2019-12-01T08:55:13.000Z</time>
      </trkpt>
      <trkpt lat="46.55339" lon="0.20567">
        <ele>173.46</ele>
        <time>2019-12-01T08:55:16.000Z</time>
      </trkpt>
      <trkpt lat="46.55337" lon="0.20552">
        <ele>173.37</ele>
        <time>2019-12-01T08:55:19.000Z</time>
      </trkpt>
      <trkpt lat="46.55331" lon="0.20542">
        <ele>173.26</ele>
        <time>2019-12-01T08:55:24.000Z</time>
      </trkpt>
      <trkpt lat="46.55325" lon="0.20527">
        <ele>173.39</ele>
        <time>2019-12-01T08:55:28.000Z</time>
      </trkpt>
      <trkpt lat="46.55318" lon="0.20515">
        <ele>173.94</ele>
        <time>2019-12-01T08:55:32.000Z</time>
      </trkpt>
      <trkpt lat="46.5532" lon="0.20498">
        <ele>174.51</ele>
        <time>2019-12-01T08:55:38.000Z</time>
      </trkpt>
      <trkpt lat="46.55324" lon="0.20485">
        <ele>174.61</ele>
        <time>2019-12-01T08:55:40.000Z</time>
      </trkpt>
      <trkpt lat="46.55331" lon="0.20473">
        <ele>174.47</ele>
        <time>2019-12-01T08:55:45.000Z</time>
      </trkpt>
      <trkpt lat="46.55336" lon="0.20458">
        <ele>174.08</ele>
        <time>2019-12-01T08:55:48.000Z</time>
      </trkpt>
      <trkpt lat="46.55342" lon="0.20445">
        <ele>173.42</ele>
        <time>2019-12-01T08:55:51.000Z</time>
      </trkpt>
      <trkpt lat="46.55353" lon="0.20442">
        <ele>172.68</ele>
        <time>2019-12-01T08:55:55.000Z</time>
      </trkpt>
      <trkpt lat="46.55363" lon="0.20454">
        <ele>172.49</ele>
        <time>2019-12-01T08:55:58.000Z</time>
      </trkpt>
      <trkpt lat="46.5537" lon="0.20468">
        <ele>172.25</ele>
        <time>2019-12-01T08:56:02.000Z</time>
      </trkpt>
      <trkpt lat="46.55379" lon="0.20481">
        <ele>172.23</ele>
        <time>2019-12-01T08:56:05.000Z</time>
      </trkpt>
      <trkpt lat="46.55386" lon="0.20495">
        <ele>172.6</ele>
        <time>2019-12-01T08:56:09.000Z</time>
      </trkpt>
      <trkpt lat="46.55395" lon="0.205">
        <ele>173.27</ele>
        <time>2019-12-01T08:56:28.000Z</time>
      </trkpt>
      <trkpt lat="46.55402" lon="0.20511">
        <ele>173.22</ele>
        <time>2019-12-01T08:56:36.000Z</time>
      </trkpt>
      <trkpt lat="46.55409" lon="0.2052">
        <ele>172.95</ele>
        <time>2019-12-01T08:56:41.000Z</time>
      </trkpt>
      <trkpt lat="46.55419" lon="0.20525">
        <ele>172.66</ele>
        <time>2019-12-01T08:56:52.000Z</time>
      </trkpt>
      <trkpt lat="46.55429" lon="0.2053">
        <ele>174.18</ele>
        <time>2019-12-01T08:57:12.000Z</time>
      </trkpt>
      <trkpt lat="46.55437" lon="0.2054">
        <ele>175.56</ele>
        <time>2019-12-01T08:57:24.000Z</time>
      </trkpt>
      <trkpt lat="46.55447" lon="0.20548">
        <ele>175.6</ele>
        <time>2019-12-01T08:57:32.000Z</time>
      </trkpt>
      <trkpt lat="46.55457" lon="0.20552">
        <ele>175.66</ele>
        <time>2019-12-01T08:57:38.000Z</time>
      </trkpt>
      <trkpt lat="46.55456" lon="0.20539">
        <ele>175.5</ele>
        <time>2019-12-01T08:57:49.000Z</time>
      </trkpt>
      <trkpt lat="46.55456" lon="0.20526">
        <ele>175.6</ele>
        <time>2019-12-01T08:57:54.000Z</time>
      </trkpt>
      <trkpt lat="46.55459" lon="0.20512">
        <ele>175.78</ele>
        <time>2019-12-01T08:58:06.000Z</time>
      </trkpt>
      <trkpt lat="46.55468" lon="0.20504">
        <ele>176.56</ele>
        <time>2019-12-01T08:58:14.000Z</time>
      </trkpt>
      <trkpt lat="46.55478" lon="0.20502">
        <ele>177.43</ele>
        <time>2019-12-01T08:58:22.000Z</time>
      </trkpt>
      <trkpt lat="46.55487" lon="0.20508">
        <ele>177.93</ele>
        <time>2019-12-01T08:58:29.000Z</time>
      </trkpt>
      <trkpt lat="46.55497" lon="0.20504">
        <ele>177.93</ele>
        <time>2019-12-01T08:58:34.000Z</time>
      </trkpt>
      <trkpt lat="46.55505" lon="0.2051">
        <ele>178.09</ele>
        <time>2019-12-01T08:58:38.000Z</time>
      </trkpt>
      <trkpt lat="46.55513" lon="0.20514">
        <ele>178.35</ele>
        <time>2019-12-01T08:58:43.000Z</time>
      </trkpt>
      <trkpt lat="46.55517" lon="0.205">
        <ele>178.5</ele>
        <time>2019-12-01T08:58:50.000Z</time>
      </trkpt>
      <trkpt lat="46.55524" lon="0.2049">
        <ele>179.12</ele>
        <time>2019-12-01T08:58:55.000Z</time>
      </trkpt>
      <trkpt lat="46.55534" lon="0.20492">
        <ele>180.06</ele>
        <time>2019-12-01T08:59:01.000Z</time>
      </trkpt>
      <trkpt lat="46.55544" lon="0.20491">
        <ele>180.63</ele>
        <time>2019-12-01T08:59:06.000Z</time>
      </trkpt>
      <trkpt lat="46.55553" lon="0.20497">
        <ele>180.67</ele>
        <time>2019-12-01T08:59:10.000Z</time>
      </trkpt>
      <trkpt lat="46.55563" lon="0.20501">
        <ele>180.63</ele>
        <time>2019-12-01T08:59:14.000Z</time>
      </trkpt>
      <trkpt lat="46.55572" lon="0.20507">
        <ele>180.83</ele>
        <time>2019-12-01T08:59:18.000Z</time>
      </trkpt>
      <trkpt lat="46.55581" lon="0.20513">
        <ele>181.26</ele>
        <time>2019-12-01T08:59:24.000Z</time>
      </trkpt>
      <trkpt lat="46.5559" lon="0.20519">
        <ele>181.51</ele>
        <time>2019-12-01T08:59:27.000Z</time>
      </trkpt>
      <trkpt lat="46.55601" lon="0.20522">
        <ele>181.78</ele>
        <time>2019-12-01T08:59:33.000Z</time>
      </trkpt>
      <trkpt lat="46.55611" lon="0.20519">
        <ele>181.94</ele>
        <time>2019-12-01T08:59:37.000Z</time>
      </trkpt>
      <trkpt lat="46.55621" lon="0.20515">
        <ele>182.03</ele>
        <time>2019-12-01T08:59:41.000Z</time>
      </trkpt>
      <trkpt lat="46.55629" lon="0.20505">
        <ele>182.23</ele>
        <time>2019-12-01T08:59:45.000Z</time>
      </trkpt>
      <trkpt lat="46.55639" lon="0.20509">
        <ele>182.74</ele>
        <time>2019-12-01T08:59:51.000Z</time>
      </trkpt>
      <trkpt lat="46.55648" lon="0.2051">
        <ele>183</ele>
        <time>2019-12-01T08:59:56.000Z</time>
      </trkpt>
      <trkpt lat="46.55658" lon="0.20512">
        <ele>183</ele>
        <time>2019-12-01T09:00:00.000Z</time>
      </trkpt>
      <trkpt lat="46.55668" lon="0.20515">
        <ele>183.1</ele>
        <time>2019-12-01T09:00:04.000Z</time>
      </trkpt>
      <trkpt lat="46.55675" lon="0.20506">
        <ele>183.32</ele>
        <time>2019-12-01T09:00:09.000Z</time>
      </trkpt>
      <trkpt lat="46.55684" lon="0.20514">
        <ele>183.36</ele>
        <time>2019-12-01T09:00:13.000Z</time>
      </trkpt>
      <trkpt lat="46.55694" lon="0.20513">
        <ele>183.14</ele>
        <time>2019-12-01T09:00:18.000Z</time>
      </trkpt>
      <trkpt lat="46.55704" lon="0.20514">
        <ele>183.06</ele>
        <time>2019-12-01T09:00:22.000Z</time>
      </trkpt>
      <trkpt lat="46.55712" lon="0.2051">
        <ele>183.14</ele>
        <time>2019-12-01T09:00:27.000Z</time>
      </trkpt>
      <trkpt lat="46.5572" lon="0.20515">
        <ele>183.44</ele>
        <time>2019-12-01T09:00:31.000Z</time>
      </trkpt>
      <trkpt lat="46.55729" lon="0.2051">
        <ele>183.95</ele>
        <time>2019-12-01T09:00:36.000Z</time>
      </trkpt>
      <trkpt lat="46.55739" lon="0.20508">
        <ele>184.79</ele>
        <time>2019-12-01T09:00:44.000Z</time>
      </trkpt>
      <trkpt lat="46.55749" lon="0.20515">
        <ele>185.32</ele>
        <time>2019-12-01T09:00:48.000Z</time>
      </trkpt>
      <trkpt lat="46.55756" lon="0.20528">
        <ele>185.73</ele>
        <time>2019-12-01T09:00:51.000Z</time>
      </trkpt>
      <trkpt lat="46.55765" lon="0.20535">
        <ele>186.01</ele>
        <time>2019-12-01T09:00:54.000Z</time>
      </trkpt>
      <trkpt lat="46.5577" lon="0.20547">
        <ele>186.12</ele>
        <time>2019-12-01T09:00:57.000Z</time>
      </trkpt>
      <trkpt lat="46.55779" lon="0.20556">
        <ele>185.93</ele>
        <time>2019-12-01T09:01:01.000Z</time>
      </trkpt>
      <trkpt lat="46.55788" lon="0.20558">
        <ele>185.76</ele>
        <time>2019-12-01T09:01:03.000Z</time>
      </trkpt>
      <trkpt lat="46.55796" lon="0.20567">
        <ele>185.77</ele>
        <time>2019-12-01T09:01:11.000Z</time>
      </trkpt>
      <trkpt lat="46.55806" lon="0.20563">
        <ele>186.08</ele>
        <time>2019-12-01T09:01:16.000Z</time>
      </trkpt>
      <trkpt lat="46.55813" lon="0.20572">
        <ele>186.16</ele>
        <time>2019-12-01T09:01:20.000Z</time>
      </trkpt>
      <trkpt lat="46.55817" lon="0.20584">
        <ele>186.09</ele>
        <time>2019-12-01T09:01:22.000Z</time>
      </trkpt>
      <trkpt lat="46.55823" lon="0.20594">
        <ele>186.08</ele>
        <time>2019-12-01T09:01:24.000Z</time>
      </trkpt>
      <trkpt lat="46.55834" lon="0.20594">
        <ele>185.91</ele>
        <time>2019-12-01T09:01:29.000Z</time>
      </trkpt>
      <trkpt lat="46.55847" lon="0.20596">
        <ele>185.78</ele>
        <time>2019-12-01T09:01:32.000Z</time>
      </trkpt>
      <trkpt lat="46.55855" lon="0.20607">
        <ele>185.57</ele>
        <time>2019-12-01T09:01:35.000Z</time>
      </trkpt>
      <trkpt lat="46.55855" lon="0.20622">
        <ele>185.4</ele>
        <time>2019-12-01T09:01:38.000Z</time>
      </trkpt>
      <trkpt lat="46.55857" lon="0.20635">
        <ele>185.23</ele>
        <time>2019-12-01T09:01:40.000Z</time>
      </trkpt>
      <trkpt lat="46.55858" lon="0.20649">
        <ele>184.92</ele>
        <time>2019-12-01T09:01:42.000Z</time>
      </trkpt>
      <trkpt lat="46.5585" lon="0.20662">
        <ele>184.51</ele>
        <time>2019-12-01T09:01:46.000Z</time>
      </trkpt>
      <trkpt lat="46.55842" lon="0.20671">
        <ele>184.35</ele>
        <time>2019-12-01T09:01:48.000Z</time>
      </trkpt>
      <trkpt lat="46.5583" lon="0.20671">
        <ele>184.23</ele>
        <time>2019-12-01T09:01:51.000Z</time>
      </trkpt>
      <trkpt lat="46.55821" lon="0.20678">
        <ele>184.14</ele>
        <time>2019-12-01T09:01:55.000Z</time>
      </trkpt>
      <trkpt lat="46.55809" lon="0.20679">
        <ele>183.91</ele>
        <time>2019-12-01T09:01:59.000Z</time>
      </trkpt>
      <trkpt lat="46.558" lon="0.20676">
        <ele>183.78</ele>
        <time>2019-12-01T09:02:02.000Z</time>
      </trkpt>
      <trkpt lat="46.55791" lon="0.20671">
        <ele>183.62</ele>
        <time>2019-12-01T09:02:05.000Z</time>
      </trkpt>
      <trkpt lat="46.55782" lon="0.2067">
        <ele>183.52</ele>
        <time>2019-12-01T09:02:09.000Z</time>
      </trkpt>
      <trkpt lat="46.55773" lon="0.20664">
        <ele>183.7</ele>
        <time>2019-12-01T09:02:12.000Z</time>
      </trkpt>
      <trkpt lat="46.55765" lon="0.20657">
        <ele>184.09</ele>
        <time>2019-12-01T09:02:16.000Z</time>
      </trkpt>
      <trkpt lat="46.55753" lon="0.20658">
        <ele>184.31</ele>
        <time>2019-12-01T09:02:19.000Z</time>
      </trkpt>
      <trkpt lat="46.55744" lon="0.20653">
        <ele>184.46</ele>
        <time>2019-12-01T09:02:22.000Z</time>
      </trkpt>
      <trkpt lat="46.55735" lon="0.20646">
        <ele>184.57</ele>
        <time>2019-12-01T09:02:25.000Z</time>
      </trkpt>
      <trkpt lat="46.55728" lon="0.20638">
        <ele>184.69</ele>
        <time>2019-12-01T09:02:29.000Z</time>
      </trkpt>
      <trkpt lat="46.55718" lon="0.20634">
        <ele>184.67</ele>
        <time>2019-12-01T09:02:32.000Z</time>
      </trkpt>
      <trkpt lat="46.55709" lon="0.20627">
        <ele>184.54</ele>
        <time>2019-12-01T09:02:36.000Z</time>
      </trkpt>
      <trkpt lat="46.557" lon="0.20617">
        <ele>184.41</ele>
        <time>2019-12-01T09:02:40.000Z</time>
      </trkpt>
      <trkpt lat="46.55694" lon="0.20607">
        <ele>184.85</ele>
        <time>2019-12-01T09:02:45.000Z</time>
      </trkpt>
      <trkpt lat="46.55686" lon="0.206">
        <ele>185.53</ele>
        <time>2019-12-01T09:02:49.000Z</time>
      </trkpt>
      <trkpt lat="46.55678" lon="0.20588">
        <ele>186.43</ele>
        <time>2019-12-01T09:02:53.000Z</time>
      </trkpt>
      <trkpt lat="46.5567" lon="0.2058">
        <ele>187.11</ele>
        <time>2019-12-01T09:02:56.000Z</time>
      </trkpt>
      <trkpt lat="46.55659" lon="0.20577">
        <ele>188.02</ele>
        <time>2019-12-01T09:03:00.000Z</time>
      </trkpt>
      <trkpt lat="46.55648" lon="0.2057">
        <ele>188.73</ele>
        <time>2019-12-01T09:03:04.000Z</time>
      </trkpt>
      <trkpt lat="46.55637" lon="0.20572">
        <ele>188.89</ele>
        <time>2019-12-01T09:03:08.000Z</time>
      </trkpt>
      <trkpt lat="46.5563" lon="0.20581">
        <ele>188.3</ele>
        <time>2019-12-01T09:03:16.000Z</time>
      </trkpt>
      <trkpt lat="46.5562" lon="0.20588">
        <ele>187.74</ele>
        <time>2019-12-01T09:03:22.000Z</time>
      </trkpt>
      <trkpt lat="46.5561" lon="0.20595">
        <ele>187.43</ele>
        <time>2019-12-01T09:03:25.000Z</time>
      </trkpt>
      <trkpt lat="46.55599" lon="0.20593">
        <ele>186.99</ele>
        <time>2019-12-01T09:03:31.000Z</time>
      </trkpt>
      <trkpt lat="46.55588" lon="0.20592">
        <ele>186.71</ele>
        <time>2019-12-01T09:03:35.000Z</time>
      </trkpt>
      <trkpt lat="46.55578" lon="0.20591">
        <ele>186.44</ele>
        <time>2019-12-01T09:03:39.000Z</time>
      </trkpt>
      <trkpt lat="46.55569" lon="0.20591">
        <ele>186.31</ele>
        <time>2019-12-01T09:03:44.000Z</time>
      </trkpt>
      <trkpt lat="46.55561" lon="0.20597">
        <ele>185.87</ele>
        <time>2019-12-01T09:03:50.000Z</time>
      </trkpt>
      <trkpt lat="46.55552" lon="0.20602">
        <ele>185.56</ele>
        <time>2019-12-01T09:03:53.000Z</time>
      </trkpt>
      <trkpt lat="46.55539" lon="0.20606">
        <ele>185.07</ele>
        <time>2019-12-01T09:03:57.000Z</time>
      </trkpt>
      <trkpt lat="46.5553" lon="0.20615">
        <ele>184.19</ele>
        <time>2019-12-01T09:04:01.000Z</time>
      </trkpt>
      <trkpt lat="46.5552" lon="0.20622">
        <ele>182.9</ele>
        <time>2019-12-01T09:04:05.000Z</time>
      </trkpt>
      <trkpt lat="46.55511" lon="0.20623">
        <ele>181.47</ele>
        <time>2019-12-01T09:04:10.000Z</time>
      </trkpt>
      <trkpt lat="46.555" lon="0.20616">
        <ele>180.34</ele>
        <time>2019-12-01T09:04:16.000Z</time>
      </trkpt>
      <trkpt lat="46.5549" lon="0.20614">
        <ele>180.38</ele>
        <time>2019-12-01T09:04:19.000Z</time>
      </trkpt>
      <trkpt lat="46.55481" lon="0.20617">
        <ele>180.6</ele>
        <time>2019-12-01T09:04:22.000Z</time>
      </trkpt>
      <trkpt lat="46.55468" lon="0.20617">
        <ele>180.75</ele>
        <time>2019-12-01T09:04:25.000Z</time>
      </trkpt>
      <trkpt lat="46.55457" lon="0.20609">
        <ele>180.73</ele>
        <time>2019-12-01T09:04:29.000Z</time>
      </trkpt>
      <trkpt lat="46.55449" lon="0.20599">
        <ele>180.75</ele>
        <time>2019-12-01T09:04:33.000Z</time>
      </trkpt>
      <trkpt lat="46.5544" lon="0.20597">
        <ele>180.87</ele>
        <time>2019-12-01T09:04:39.000Z</time>
      </trkpt>
      <trkpt lat="46.5543" lon="0.206">
        <ele>180.56</ele>
        <time>2019-12-01T09:04:45.000Z</time>
      </trkpt>
      <trkpt lat="46.55423" lon="0.2061">
        <ele>180.64</ele>
        <time>2019-12-01T09:04:49.000Z</time>
      </trkpt>
      <trkpt lat="46.55413" lon="0.20617">
        <ele>180.83</ele>
        <time>2019-12-01T09:04:53.000Z</time>
      </trkpt>
      <trkpt lat="46.55406" lon="0.20627">
        <ele>180.91</ele>
        <time>2019-12-01T09:04:56.000Z</time>
      </trkpt>
      <trkpt lat="46.55398" lon="0.20636">
        <ele>180.92</ele>
        <time>2019-12-01T09:05:01.000Z</time>
      </trkpt>
      <trkpt lat="46.55393" lon="0.20647">
        <ele>181.07</ele>
        <time>2019-12-01T09:05:06.000Z</time>
      </trkpt>
      <trkpt lat="46.55388" lon="0.20663">
        <ele>181.21</ele>
        <time>2019-12-01T09:05:10.000Z</time>
      </trkpt>
      <trkpt lat="46.5538" lon="0.20674">
        <ele>181.34</ele>
        <time>2019-12-01T09:05:15.000Z</time>
      </trkpt>
      <trkpt lat="46.55372" lon="0.20683">
        <ele>181.72</ele>
        <time>2019-12-01T09:05:18.000Z</time>
      </trkpt>
      <trkpt lat="46.55363" lon="0.20692">
        <ele>182.61</ele>
        <time>2019-12-01T09:05:22.000Z</time>
      </trkpt>
      <trkpt lat="46.55359" lon="0.20705">
        <ele>183.3</ele>
        <time>2019-12-01T09:05:25.000Z</time>
      </trkpt>
      <trkpt lat="46.55359" lon="0.20722">
        <ele>184.41</ele>
        <time>2019-12-01T09:05:29.000Z</time>
      </trkpt>
      <trkpt lat="46.55357" lon="0.20743">
        <ele>185.63</ele>
        <time>2019-12-01T09:05:33.000Z</time>
      </trkpt>
      <trkpt lat="46.55355" lon="0.20761">
        <ele>186.26</ele>
        <time>2019-12-01T09:05:36.000Z</time>
      </trkpt>
      <trkpt lat="46.55354" lon="0.20776">
        <ele>186.8</ele>
        <time>2019-12-01T09:05:39.000Z</time>
      </trkpt>
      <trkpt lat="46.55355" lon="0.20792">
        <ele>187.36</ele>
        <time>2019-12-01T09:05:42.000Z</time>
      </trkpt>
      <trkpt lat="46.55358" lon="0.20807">
        <ele>187.69</ele>
        <time>2019-12-01T09:05:44.000Z</time>
      </trkpt>
      <trkpt lat="46.55359" lon="0.20821">
        <ele>188.13</ele>
        <time>2019-12-01T09:05:47.000Z</time>
      </trkpt>
      <trkpt lat="46.5536" lon="0.20839">
        <ele>188.36</ele>
        <time>2019-12-01T09:05:50.000Z</time>
      </trkpt>
      <trkpt lat="46.55359" lon="0.20852">
        <ele>188.33</ele>
        <time>2019-12-01T09:05:53.000Z</time>
      </trkpt>
      <trkpt lat="46.5536" lon="0.20874">
        <ele>187.93</ele>
        <time>2019-12-01T09:05:56.000Z</time>
      </trkpt>
      <trkpt lat="46.55361" lon="0.20891">
        <ele>183.15</ele>
        <time>2019-12-01T09:05:59.000Z</time>
      </trkpt>
      <trkpt lat="46.55361" lon="0.20905">
        <ele>182.11</ele>
        <time>2019-12-01T09:06:03.000Z</time>
      </trkpt>
      <trkpt lat="46.55361" lon="0.20919">
        <ele>181.3</ele>
        <time>2019-12-01T09:06:06.000Z</time>
      </trkpt>
      <trkpt lat="46.55367" lon="0.2093">
        <ele>180.19</ele>
        <time>2019-12-01T09:06:10.000Z</time>
      </trkpt>
      <trkpt lat="46.55374" lon="0.20937">
        <ele>179.41</ele>
        <time>2019-12-01T09:06:12.000Z</time>
      </trkpt>
      <trkpt lat="46.55375" lon="0.20952">
        <ele>177.51</ele>
        <time>2019-12-01T09:06:17.000Z</time>
      </trkpt>
      <trkpt lat="46.55383" lon="0.20962">
        <ele>174.49</ele>
        <time>2019-12-01T09:06:26.000Z</time>
      </trkpt>
      <trkpt lat="46.55391" lon="0.20968">
        <ele>171.97</ele>
        <time>2019-12-01T09:06:37.000Z</time>
      </trkpt>
      <trkpt lat="46.55396" lon="0.2098">
        <ele>170.35</ele>
        <time>2019-12-01T09:06:48.000Z</time>
      </trkpt>
      <trkpt lat="46.55394" lon="0.20995">
        <ele>170.31</ele>
        <time>2019-12-01T09:06:57.000Z</time>
      </trkpt>
      <trkpt lat="46.55386" lon="0.21004">
        <ele>170.84</ele>
        <time>2019-12-01T09:07:03.000Z</time>
      </trkpt>
      <trkpt lat="46.55376" lon="0.2101">
        <ele>171.18</ele>
        <time>2019-12-01T09:07:11.000Z</time>
      </trkpt>
      <trkpt lat="46.55367" lon="0.21018">
        <ele>171.56</ele>
        <time>2019-12-01T09:07:20.000Z</time>
      </trkpt>
      <trkpt lat="46.55359" lon="0.21027">
        <ele>171.82</ele>
        <time>2019-12-01T09:07:23.000Z</time>
      </trkpt>
      <trkpt lat="46.55351" lon="0.21033">
        <ele>172.35</ele>
        <time>2019-12-01T09:07:28.000Z</time>
      </trkpt>
      <trkpt lat="46.55342" lon="0.21038">
        <ele>173.32</ele>
        <time>2019-12-01T09:07:33.000Z</time>
      </trkpt>
      <trkpt lat="46.55334" lon="0.21043">
        <ele>174.35</ele>
        <time>2019-12-01T09:07:39.000Z</time>
      </trkpt>
      <trkpt lat="46.55325" lon="0.21047">
        <ele>176.1</ele>
        <time>2019-12-01T09:07:54.000Z</time>
      </trkpt>
      <trkpt lat="46.55317" lon="0.21053">
        <ele>177.33</ele>
        <time>2019-12-01T09:08:01.000Z</time>
      </trkpt>
      <trkpt lat="46.55307" lon="0.21055">
        <ele>177.75</ele>
        <time>2019-12-01T09:08:04.000Z</time>
      </trkpt>
      <trkpt lat="46.55299" lon="0.21064">
        <ele>178.16</ele>
        <time>2019-12-01T09:08:09.000Z</time>
      </trkpt>
      <trkpt lat="46.5529" lon="0.21069">
        <ele>178.65</ele>
        <time>2019-12-01T09:08:14.000Z</time>
      </trkpt>
      <trkpt lat="46.55278" lon="0.21068">
        <ele>178.89</ele>
        <time>2019-12-01T09:08:17.000Z</time>
      </trkpt>
      <trkpt lat="46.5527" lon="0.21069">
        <ele>179.34</ele>
        <time>2019-12-01T09:08:22.000Z</time>
      </trkpt>
      <trkpt lat="46.5526" lon="0.21073">
        <ele>179.45</ele>
        <time>2019-12-01T09:08:28.000Z</time>
      </trkpt>
      <trkpt lat="46.5525" lon="0.21076">
        <ele>179.27</ele>
        <time>2019-12-01T09:08:32.000Z</time>
      </trkpt>
      <trkpt lat="46.5524" lon="0.21076">
        <ele>179.08</ele>
        <time>2019-12-01T09:08:36.000Z</time>
      </trkpt>
      <trkpt lat="46.55237" lon="0.21088">
        <ele>179.4</ele>
        <time>2019-12-01T09:08:48.000Z</time>
      </trkpt>
      <trkpt lat="46.5523" lon="0.21099">
        <ele>179.91</ele>
        <time>2019-12-01T09:08:54.000Z</time>
      </trkpt>
      <trkpt lat="46.55223" lon="0.21109">
        <ele>180.97</ele>
        <time>2019-12-01T09:09:00.000Z</time>
      </trkpt>
      <trkpt lat="46.55233" lon="0.21102">
        <ele>181.32</ele>
        <time>2019-12-01T09:09:14.000Z</time>
      </trkpt>
      <trkpt lat="46.55242" lon="0.21099">
        <ele>181.46</ele>
        <time>2019-12-01T09:09:23.000Z</time>
      </trkpt>
      <trkpt lat="46.55254" lon="0.21104">
        <ele>181.67</ele>
        <time>2019-12-01T09:09:31.000Z</time>
      </trkpt>
      <trkpt lat="46.55263" lon="0.2111">
        <ele>181.72</ele>
        <time>2019-12-01T09:09:37.000Z</time>
      </trkpt>
      <trkpt lat="46.55272" lon="0.21115">
        <ele>182.04</ele>
        <time>2019-12-01T09:09:45.000Z</time>
      </trkpt>
      <trkpt lat="46.55282" lon="0.21114">
        <ele>182.06</ele>
        <time>2019-12-01T09:09:52.000Z</time>
      </trkpt>
      <trkpt lat="46.55292" lon="0.21119">
        <ele>182.2</ele>
        <time>2019-12-01T09:09:57.000Z</time>
      </trkpt>
      <trkpt lat="46.553" lon="0.21124">
        <ele>182.82</ele>
        <time>2019-12-01T09:10:06.000Z</time>
      </trkpt>
      <trkpt lat="46.5531" lon="0.21131">
        <ele>183.3</ele>
        <time>2019-12-01T09:10:11.000Z</time>
      </trkpt>
      <trkpt lat="46.5532" lon="0.2113">
        <ele>184.03</ele>
        <time>2019-12-01T09:10:21.000Z</time>
      </trkpt>
      <trkpt lat="46.55328" lon="0.21126">
        <ele>184.64</ele>
        <time>2019-12-01T09:10:26.000Z</time>
      </trkpt>
      <trkpt lat="46.55338" lon="0.21119">
        <ele>185.08</ele>
        <time>2019-12-01T09:10:31.000Z</time>
      </trkpt>
      <trkpt lat="46.55347" lon="0.21115">
        <ele>185.56</ele>
        <time>2019-12-01T09:10:35.000Z</time>
      </trkpt>
      <trkpt lat="46.55358" lon="0.21109">
        <ele>186.1</ele>
        <time>2019-12-01T09:10:38.000Z</time>
      </trkpt>
      <trkpt lat="46.5537" lon="0.21103">
        <ele>186.88</ele>
        <time>2019-12-01T09:10:41.000Z</time>
      </trkpt>
      <trkpt lat="46.55379" lon="0.21096">
        <ele>187.85</ele>
        <time>2019-12-01T09:10:44.000Z</time>
      </trkpt>
      <trkpt lat="46.55389" lon="0.21094">
        <ele>188.9</ele>
        <time>2019-12-01T09:10:47.000Z</time>
      </trkpt>
      <trkpt lat="46.55398" lon="0.2109">
        <ele>189.91</ele>
        <time>2019-12-01T09:10:50.000Z</time>
      </trkpt>
      <trkpt lat="46.55406" lon="0.21086">
        <ele>190.58</ele>
        <time>2019-12-01T09:10:52.000Z</time>
      </trkpt>
      <trkpt lat="46.55415" lon="0.21081">
        <ele>191.56</ele>
        <time>2019-12-01T09:10:55.000Z</time>
      </trkpt>
      <trkpt lat="46.55423" lon="0.2107">
        <ele>192.47</ele>
        <time>2019-12-01T09:10:58.000Z</time>
      </trkpt>
      <trkpt lat="46.55431" lon="0.21057">
        <ele>193.6</ele>
        <time>2019-12-01T09:11:02.000Z</time>
      </trkpt>
      <trkpt lat="46.55437" lon="0.21042">
        <ele>194.35</ele>
        <time>2019-12-01T09:11:05.000Z</time>
      </trkpt>
      <trkpt lat="46.55444" lon="0.21031">
        <ele>195.06</ele>
        <time>2019-12-01T09:11:08.000Z</time>
      </trkpt>
      <trkpt lat="46.55449" lon="0.21017">
        <ele>195.52</ele>
        <time>2019-12-01T09:11:10.000Z</time>
      </trkpt>
      <trkpt lat="46.55453" lon="0.21003">
        <ele>196.21</ele>
        <time>2019-12-01T09:11:13.000Z</time>
      </trkpt>
      <trkpt lat="46.55458" lon="0.20991">
        <ele>196.6</ele>
        <time>2019-12-01T09:11:15.000Z</time>
      </trkpt>
      <trkpt lat="46.55463" lon="0.20975">
        <ele>197.11</ele>
        <time>2019-12-01T09:11:18.000Z</time>
      </trkpt>
      <trkpt lat="46.5547" lon="0.20957">
        <ele>197.4</ele>
        <time>2019-12-01T09:11:21.000Z</time>
      </trkpt>
      <trkpt lat="46.55472" lon="0.20943">
        <ele>197.53</ele>
        <time>2019-12-01T09:11:24.000Z</time>
      </trkpt>
      <trkpt lat="46.55475" lon="0.20927">
        <ele>197.55</ele>
        <time>2019-12-01T09:11:27.000Z</time>
      </trkpt>
      <trkpt lat="46.55483" lon="0.2091">
        <ele>197.46</ele>
        <time>2019-12-01T09:11:30.000Z</time>
      </trkpt>
      <trkpt lat="46.5549" lon="0.20898">
        <ele>197.41</ele>
        <time>2019-12-01T09:11:32.000Z</time>
      </trkpt>
      <trkpt lat="46.55496" lon="0.20885">
        <ele>197.25</ele>
        <time>2019-12-01T09:11:34.000Z</time>
      </trkpt>
      <trkpt lat="46.55501" lon="0.20871">
        <ele>197.04</ele>
        <time>2019-12-01T09:11:36.000Z</time>
      </trkpt>
      <trkpt lat="46.55509" lon="0.20859">
        <ele>196.76</ele>
        <time>2019-12-01T09:11:39.000Z</time>
      </trkpt>
      <trkpt lat="46.5552" lon="0.20849">
        <ele>196.59</ele>
        <time>2019-12-01T09:11:42.000Z</time>
      </trkpt>
      <trkpt lat="46.55528" lon="0.20841">
        <ele>196.54</ele>
        <time>2019-12-01T09:11:44.000Z</time>
      </trkpt>
      <trkpt lat="46.55536" lon="0.20833">
        <ele>196.57</ele>
        <time>2019-12-01T09:11:46.000Z</time>
      </trkpt>
      <trkpt lat="46.55547" lon="0.20823">
        <ele>196.6</ele>
        <time>2019-12-01T09:11:49.000Z</time>
      </trkpt>
      <trkpt lat="46.55555" lon="0.20816">
        <ele>196.26</ele>
        <time>2019-12-01T09:11:51.000Z</time>
      </trkpt>
      <trkpt lat="46.55564" lon="0.20807">
        <ele>196.25</ele>
        <time>2019-12-01T09:11:53.000Z</time>
      </trkpt>
      <trkpt lat="46.55573" lon="0.20805">
        <ele>196.3</ele>
        <time>2019-12-01T09:11:55.000Z</time>
      </trkpt>
      <trkpt lat="46.55589" lon="0.20801">
        <ele>196.42</ele>
        <time>2019-12-01T09:11:58.000Z</time>
      </trkpt>
      <trkpt lat="46.55602" lon="0.20803">
        <ele>196.42</ele>
        <time>2019-12-01T09:12:00.000Z</time>
      </trkpt>
      <trkpt lat="46.55616" lon="0.20804">
        <ele>195.91</ele>
        <time>2019-12-01T09:12:02.000Z</time>
      </trkpt>
      <trkpt lat="46.55628" lon="0.20809">
        <ele>195.53</ele>
        <time>2019-12-01T09:12:04.000Z</time>
      </trkpt>
      <trkpt lat="46.55641" lon="0.20806">
        <ele>194.98</ele>
        <time>2019-12-01T09:12:06.000Z</time>
      </trkpt>
      <trkpt lat="46.55655" lon="0.20813">
        <ele>194.36</ele>
        <time>2019-12-01T09:12:08.000Z</time>
      </trkpt>
      <trkpt lat="46.55665" lon="0.20815">
        <ele>193.84</ele>
        <time>2019-12-01T09:12:10.000Z</time>
      </trkpt>
      <trkpt lat="46.55674" lon="0.2082">
        <ele>193.41</ele>
        <time>2019-12-01T09:12:12.000Z</time>
      </trkpt>
      <trkpt lat="46.55686" lon="0.20828">
        <ele>193.4</ele>
        <time>2019-12-01T09:12:15.000Z</time>
      </trkpt>
      <trkpt lat="46.55696" lon="0.20826">
        <ele>193.56</ele>
        <time>2019-12-01T09:12:17.000Z</time>
      </trkpt>
      <trkpt lat="46.55708" lon="0.20823">
        <ele>194.27</ele>
        <time>2019-12-01T09:12:19.000Z</time>
      </trkpt>
      <trkpt lat="46.55717" lon="0.20818">
        <ele>194.29</ele>
        <time>2019-12-01T09:12:21.000Z</time>
      </trkpt>
      <trkpt lat="46.55729" lon="0.20812">
        <ele>194.22</ele>
        <time>2019-12-01T09:12:23.000Z</time>
      </trkpt>
      <trkpt lat="46.55742" lon="0.20813">
        <ele>194.26</ele>
        <time>2019-12-01T09:12:25.000Z</time>
      </trkpt>
      <trkpt lat="46.55754" lon="0.20816">
        <ele>194.44</ele>
        <time>2019-12-01T09:12:27.000Z</time>
      </trkpt>
      <trkpt lat="46.55765" lon="0.20822">
        <ele>194.71</ele>
        <time>2019-12-01T09:12:29.000Z</time>
      </trkpt>
      <trkpt lat="46.55779" lon="0.20829">
        <ele>195.19</ele>
        <time>2019-12-01T09:12:32.000Z</time>
      </trkpt>
      <trkpt lat="46.55788" lon="0.20836">
        <ele>195.53</ele>
        <time>2019-12-01T09:12:34.000Z</time>
      </trkpt>
      <trkpt lat="46.55794" lon="0.20846">
        <ele>196.06</ele>
        <time>2019-12-01T09:12:37.000Z</time>
      </trkpt>
      <trkpt lat="46.55793" lon="0.20862">
        <ele>197.05</ele>
        <time>2019-12-01T09:12:44.000Z</time>
      </trkpt>
      <trkpt lat="46.55794" lon="0.20876">
        <ele>197.36</ele>
        <time>2019-12-01T09:12:48.000Z</time>
      </trkpt>
      <trkpt lat="46.55794" lon="0.20891">
        <ele>197.66</ele>
        <time>2019-12-01T09:12:54.000Z</time>
      </trkpt>
      <trkpt lat="46.55793" lon="0.20905">
        <ele>197.84</ele>
        <time>2019-12-01T09:12:59.000Z</time>
      </trkpt>
      <trkpt lat="46.55801" lon="0.20915">
        <ele>197.97</ele>
        <time>2019-12-01T09:13:04.000Z</time>
      </trkpt>
      <trkpt lat="46.55804" lon="0.20931">
        <ele>198.07</ele>
        <time>2019-12-01T09:13:09.000Z</time>
      </trkpt>
      <trkpt lat="46.55812" lon="0.20938">
        <ele>198.25</ele>
        <time>2019-12-01T09:13:12.000Z</time>
      </trkpt>
      <trkpt lat="46.55817" lon="0.20954">
        <ele>198.6</ele>
        <time>2019-12-01T09:13:16.000Z</time>
      </trkpt>
      <trkpt lat="46.55817" lon="0.20968">
        <ele>199.02</ele>
        <time>2019-12-01T09:13:20.000Z</time>
      </trkpt>
      <trkpt lat="46.55821" lon="0.2098">
        <ele>199.66</ele>
        <time>2019-12-01T09:13:27.000Z</time>
      </trkpt>
      <trkpt lat="46.55827" lon="0.20991">
        <ele>199.97</ele>
        <time>2019-12-01T09:13:30.000Z</time>
      </trkpt>
      <trkpt lat="46.55837" lon="0.20992">
        <ele>200.35</ele>
        <time>2019-12-01T09:13:36.000Z</time>
      </trkpt>
      <trkpt lat="46.55848" lon="0.20988">
        <ele>200.18</ele>
        <time>2019-12-01T09:13:40.000Z</time>
      </trkpt>
      <trkpt lat="46.55858" lon="0.20982">
        <ele>200.09</ele>
        <time>2019-12-01T09:13:42.000Z</time>
      </trkpt>
      <trkpt lat="46.55869" lon="0.20978">
        <ele>200.05</ele>
        <time>2019-12-01T09:13:45.000Z</time>
      </trkpt>
      <trkpt lat="46.55879" lon="0.20987">
        <ele>200.03</ele>
        <time>2019-12-01T09:13:48.000Z</time>
      </trkpt>
      <trkpt lat="46.55886" lon="0.21">
        <ele>200</ele>
        <time>2019-12-01T09:13:52.000Z</time>
      </trkpt>
      <trkpt lat="46.55896" lon="0.21011">
        <ele>199.95</ele>
        <time>2019-12-01T09:13:56.000Z</time>
      </trkpt>
      <trkpt lat="46.55904" lon="0.2102">
        <ele>200</ele>
        <time>2019-12-01T09:13:58.000Z</time>
      </trkpt>
      <trkpt lat="46.55912" lon="0.21028">
        <ele>200.01</ele>
        <time>2019-12-01T09:14:01.000Z</time>
      </trkpt>
      <trkpt lat="46.55914" lon="0.21041">
        <ele>200.04</ele>
        <time>2019-12-01T09:14:04.000Z</time>
      </trkpt>
      <trkpt lat="46.55909" lon="0.21053">
        <ele>200.25</ele>
        <time>2019-12-01T09:14:08.000Z</time>
      </trkpt>
      <trkpt lat="46.55905" lon="0.21067">
        <ele>200.41</ele>
        <time>2019-12-01T09:14:11.000Z</time>
      </trkpt>
      <trkpt lat="46.55902" lon="0.21081">
        <ele>200.5</ele>
        <time>2019-12-01T09:14:15.000Z</time>
      </trkpt>
      <trkpt lat="46.55896" lon="0.21092">
        <ele>200.5</ele>
        <time>2019-12-01T09:14:19.000Z</time>
      </trkpt>
      <trkpt lat="46.55887" lon="0.21099">
        <ele>200.56</ele>
        <time>2019-12-01T09:14:22.000Z</time>
      </trkpt>
      <trkpt lat="46.55875" lon="0.21101">
        <ele>200.8</ele>
        <time>2019-12-01T09:14:25.000Z</time>
      </trkpt>
      <trkpt lat="46.55869" lon="0.21112">
        <ele>201.41</ele>
        <time>2019-12-01T09:14:29.000Z</time>
      </trkpt>
      <trkpt lat="46.55865" lon="0.21124">
        <ele>202.16</ele>
        <time>2019-12-01T09:14:34.000Z</time>
      </trkpt>
      <trkpt lat="46.55859" lon="0.2114">
        <ele>202.83</ele>
        <time>2019-12-01T09:14:38.000Z</time>
      </trkpt>
      <trkpt lat="46.55855" lon="0.21152">
        <ele>203.31</ele>
        <time>2019-12-01T09:14:41.000Z</time>
      </trkpt>
      <trkpt lat="46.55845" lon="0.21159">
        <ele>203.78</ele>
        <time>2019-12-01T09:14:44.000Z</time>
      </trkpt>
      <trkpt lat="46.55839" lon="0.21171">
        <ele>204.28</ele>
        <time>2019-12-01T09:14:48.000Z</time>
      </trkpt>
      <trkpt lat="46.55844" lon="0.21184">
        <ele>204.42</ele>
        <time>2019-12-01T09:14:52.000Z</time>
      </trkpt>
      <trkpt lat="46.55854" lon="0.2119">
        <ele>204.44</ele>
        <time>2019-12-01T09:14:56.000Z</time>
      </trkpt>
      <trkpt lat="46.55863" lon="0.21208">
        <ele>204.35</ele>
        <time>2019-12-01T09:14:58.000Z</time>
      </trkpt>
      <trkpt lat="46.55874" lon="0.21211">
        <ele>203.81</ele>
        <time>2019-12-01T09:15:04.000Z</time>
      </trkpt>
      <trkpt lat="46.55882" lon="0.21205">
        <ele>203.09</ele>
        <time>2019-12-01T09:15:08.000Z</time>
      </trkpt>
      <trkpt lat="46.55893" lon="0.21209">
        <ele>202.12</ele>
        <time>2019-12-01T09:15:12.000Z</time>
      </trkpt>
      <trkpt lat="46.55895" lon="0.21224">
        <ele>201.05</ele>
        <time>2019-12-01T09:15:15.000Z</time>
      </trkpt>
      <trkpt lat="46.55904" lon="0.21229">
        <ele>199.37</ele>
        <time>2019-12-01T09:15:19.000Z</time>
      </trkpt>
      <trkpt lat="46.55907" lon="0.21242">
        <ele>198.21</ele>
        <time>2019-12-01T09:15:23.000Z</time>
      </trkpt>
      <trkpt lat="46.55898" lon="0.21249">
        <ele>197.87</ele>
        <time>2019-12-01T09:15:27.000Z</time>
      </trkpt>
      <trkpt lat="46.55888" lon="0.21255">
        <ele>197.97</ele>
        <time>2019-12-01T09:15:30.000Z</time>
      </trkpt>
      <trkpt lat="46.55876" lon="0.21263">
        <ele>198.09</ele>
        <time>2019-12-01T09:15:33.000Z</time>
      </trkpt>
      <trkpt lat="46.55869" lon="0.2127">
        <ele>198.06</ele>
        <time>2019-12-01T09:15:37.000Z</time>
      </trkpt>
      <trkpt lat="46.5586" lon="0.21278">
        <ele>197.94</ele>
        <time>2019-12-01T09:15:40.000Z</time>
      </trkpt>
      <trkpt lat="46.55853" lon="0.21287">
        <ele>197.78</ele>
        <time>2019-12-01T09:15:45.000Z</time>
      </trkpt>
      <trkpt lat="46.55843" lon="0.21296">
        <ele>197.89</ele>
        <time>2019-12-01T09:15:50.000Z</time>
      </trkpt>
      <trkpt lat="46.55851" lon="0.21287">
        <ele>198.05</ele>
        <time>2019-12-01T09:16:03.000Z</time>
      </trkpt>
      <trkpt lat="46.55861" lon="0.21284">
        <ele>198.06</ele>
        <time>2019-12-01T09:16:08.000Z</time>
      </trkpt>
      <trkpt lat="46.55871" lon="0.21283">
        <ele>198.03</ele>
        <time>2019-12-01T09:16:11.000Z</time>
      </trkpt>
      <trkpt lat="46.5588" lon="0.21286">
        <ele>197.88</ele>
        <time>2019-12-01T09:16:14.000Z</time>
      </trkpt>
      <trkpt lat="46.55889" lon="0.2129">
        <ele>197.62</ele>
        <time>2019-12-01T09:16:18.000Z</time>
      </trkpt>
      <trkpt lat="46.55897" lon="0.21298">
        <ele>197.34</ele>
        <time>2019-12-01T09:16:24.000Z</time>
      </trkpt>
      <trkpt lat="46.55902" lon="0.21311">
        <ele>197.07</ele>
        <time>2019-12-01T09:16:30.000Z</time>
      </trkpt>
      <trkpt lat="46.55906" lon="0.21324">
        <ele>196.41</ele>
        <time>2019-12-01T09:16:41.000Z</time>
      </trkpt>
      <trkpt lat="46.55913" lon="0.21335">
        <ele>196.04</ele>
        <time>2019-12-01T09:16:47.000Z</time>
      </trkpt>
      <trkpt lat="46.55919" lon="0.21345">
        <ele>195.84</ele>
        <time>2019-12-01T09:16:52.000Z</time>
      </trkpt>
      <trkpt lat="46.55919" lon="0.21358">
        <ele>195.74</ele>
        <time>2019-12-01T09:16:57.000Z</time>
      </trkpt>
      <trkpt lat="46.55929" lon="0.21357">
        <ele>195.98</ele>
        <time>2019-12-01T09:17:13.000Z</time>
      </trkpt>
      <trkpt lat="46.55938" lon="0.21347">
        <ele>196.07</ele>
        <time>2019-12-01T09:17:16.000Z</time>
      </trkpt>
      <trkpt lat="46.55944" lon="0.21338">
        <ele>195.98</ele>
        <time>2019-12-01T09:17:19.000Z</time>
      </trkpt>
      <trkpt lat="46.55946" lon="0.21323">
        <ele>196.21</ele>
        <time>2019-12-01T09:17:25.000Z</time>
      </trkpt>
      <trkpt lat="46.55952" lon="0.21309">
        <ele>196.35</ele>
        <time>2019-12-01T09:17:28.000Z</time>
      </trkpt>
      <trkpt lat="46.55958" lon="0.21294">
        <ele>196.45</ele>
        <time>2019-12-01T09:17:31.000Z</time>
      </trkpt>
      <trkpt lat="46.55963" lon="0.2128">
        <ele>196.5</ele>
        <time>2019-12-01T09:17:33.000Z</time>
      </trkpt>
      <trkpt lat="46.55969" lon="0.2127">
        <ele>196.49</ele>
        <time>2019-12-01T09:17:35.000Z</time>
      </trkpt>
      <trkpt lat="46.55977" lon="0.21259">
        <ele>196.31</ele>
        <time>2019-12-01T09:17:38.000Z</time>
      </trkpt>
      <trkpt lat="46.55985" lon="0.21244">
        <ele>195.99</ele>
        <time>2019-12-01T09:17:41.000Z</time>
      </trkpt>
      <trkpt lat="46.55988" lon="0.21232">
        <ele>195.72</ele>
        <time>2019-12-01T09:17:43.000Z</time>
      </trkpt>
      <trkpt lat="46.55992" lon="0.21216">
        <ele>195.39</ele>
        <time>2019-12-01T09:17:45.000Z</time>
      </trkpt>
      <trkpt lat="46.55996" lon="0.21202">
        <ele>194.99</ele>
        <time>2019-12-01T09:17:48.000Z</time>
      </trkpt>
      <trkpt lat="46.56002" lon="0.21189">
        <ele>194.43</ele>
        <time>2019-12-01T09:17:52.000Z</time>
      </trkpt>
      <trkpt lat="46.56011" lon="0.2118">
        <ele>194.13</ele>
        <time>2019-12-01T09:17:56.000Z</time>
      </trkpt>
      <trkpt lat="46.56023" lon="0.21174">
        <ele>194</ele>
        <time>2019-12-01T09:18:01.000Z</time>
      </trkpt>
      <trkpt lat="46.56027" lon="0.21162">
        <ele>193.85</ele>
        <time>2019-12-01T09:18:06.000Z</time>
      </trkpt>
      <trkpt lat="46.56032" lon="0.2115">
        <ele>193.59</ele>
        <time>2019-12-01T09:18:11.000Z</time>
      </trkpt>
      <trkpt lat="46.56039" lon="0.21138">
        <ele>193.17</ele>
        <time>2019-12-01T09:18:17.000Z</time>
      </trkpt>
      <trkpt lat="46.56045" lon="0.21128">
        <ele>193.07</ele>
        <time>2019-12-01T09:18:22.000Z</time>
      </trkpt>
      <trkpt lat="46.56051" lon="0.21116">
        <ele>193.08</ele>
        <time>2019-12-01T09:18:25.000Z</time>
      </trkpt>
      <trkpt lat="46.56057" lon="0.21106">
        <ele>193.11</ele>
        <time>2019-12-01T09:18:28.000Z</time>
      </trkpt>
      <trkpt lat="46.56062" lon="0.21091">
        <ele>192.96</ele>
        <time>2019-12-01T09:18:31.000Z</time>
      </trkpt>
      <trkpt lat="46.56067" lon="0.21078">
        <ele>192.3</ele>
        <time>2019-12-01T09:18:36.000Z</time>
      </trkpt>
      <trkpt lat="46.56069" lon="0.21065">
        <ele>191.39</ele>
        <time>2019-12-01T09:18:41.000Z</time>
      </trkpt>
      <trkpt lat="46.56073" lon="0.21049">
        <ele>190.65</ele>
        <time>2019-12-01T09:18:45.000Z</time>
      </trkpt>
      <trkpt lat="46.56079" lon="0.21039">
        <ele>190.16</ele>
        <time>2019-12-01T09:18:48.000Z</time>
      </trkpt>
      <trkpt lat="46.56088" lon="0.21033">
        <ele>189.68</ele>
        <time>2019-12-01T09:18:51.000Z</time>
      </trkpt>
      <trkpt lat="46.56096" lon="0.21026">
        <ele>189</ele>
        <time>2019-12-01T09:18:55.000Z</time>
      </trkpt>
      <trkpt lat="46.56107" lon="0.21028">
        <ele>187.5</ele>
        <time>2019-12-01T09:19:03.000Z</time>
      </trkpt>
      <trkpt lat="46.56115" lon="0.21033">
        <ele>185.82</ele>
        <time>2019-12-01T09:19:14.000Z</time>
      </trkpt>
      <trkpt lat="46.56124" lon="0.21036">
        <ele>185.33</ele>
        <time>2019-12-01T09:19:19.000Z</time>
      </trkpt>
      <trkpt lat="46.56132" lon="0.21029">
        <ele>185.23</ele>
        <time>2019-12-01T09:19:25.000Z</time>
      </trkpt>
      <trkpt lat="46.5614" lon="0.21035">
        <ele>185.16</ele>
        <time>2019-12-01T09:19:29.000Z</time>
      </trkpt>
      <trkpt lat="46.5615" lon="0.21035">
        <ele>184.94</ele>
        <time>2019-12-01T09:19:32.000Z</time>
      </trkpt>
      <trkpt lat="46.56158" lon="0.21043">
        <ele>184.57</ele>
        <time>2019-12-01T09:19:35.000Z</time>
      </trkpt>
      <trkpt lat="46.56169" lon="0.21044">
        <ele>183.93</ele>
        <time>2019-12-01T09:19:39.000Z</time>
      </trkpt>
      <trkpt lat="46.56179" lon="0.21045">
        <ele>183.49</ele>
        <time>2019-12-01T09:19:42.000Z</time>
      </trkpt>
      <trkpt lat="46.56187" lon="0.21051">
        <ele>183.16</ele>
        <time>2019-12-01T09:19:45.000Z</time>
      </trkpt>
      <trkpt lat="46.56197" lon="0.21057">
        <ele>182.92</ele>
        <time>2019-12-01T09:19:49.000Z</time>
      </trkpt>
      <trkpt lat="46.56208" lon="0.21061">
        <ele>182.76</ele>
        <time>2019-12-01T09:19:53.000Z</time>
      </trkpt>
      <trkpt lat="46.56213" lon="0.21073">
        <ele>182.63</ele>
        <time>2019-12-01T09:19:59.000Z</time>
      </trkpt>
      <trkpt lat="46.56221" lon="0.21084">
        <ele>182.32</ele>
        <time>2019-12-01T09:20:04.000Z</time>
      </trkpt>
      <trkpt lat="46.56232" lon="0.21087">
        <ele>182.32</ele>
        <time>2019-12-01T09:20:09.000Z</time>
      </trkpt>
      <trkpt lat="46.56243" lon="0.21082">
        <ele>182.24</ele>
        <time>2019-12-01T09:20:14.000Z</time>
      </trkpt>
      <trkpt lat="46.56254" lon="0.21086">
        <ele>182.24</ele>
        <time>2019-12-01T09:20:17.000Z</time>
      </trkpt>
      <trkpt lat="46.56265" lon="0.21093">
        <ele>182.13</ele>
        <time>2019-12-01T09:20:21.000Z</time>
      </trkpt>
      <trkpt lat="46.5628" lon="0.21101">
        <ele>181.93</ele>
        <time>2019-12-01T09:20:24.000Z</time>
      </trkpt>
      <trkpt lat="46.5629" lon="0.21108">
        <ele>181.69</ele>
        <time>2019-12-01T09:20:27.000Z</time>
      </trkpt>
      <trkpt lat="46.56299" lon="0.2111">
        <ele>181.43</ele>
        <time>2019-12-01T09:20:31.000Z</time>
      </trkpt>
      <trkpt lat="46.56306" lon="0.21125">
        <ele>181.15</ele>
        <time>2019-12-01T09:20:35.000Z</time>
      </trkpt>
      <trkpt lat="46.56315" lon="0.21132">
        <ele>180.6</ele>
        <time>2019-12-01T09:20:38.000Z</time>
      </trkpt>
      <trkpt lat="46.56323" lon="0.21144">
        <ele>180.04</ele>
        <time>2019-12-01T09:20:41.000Z</time>
      </trkpt>
      <trkpt lat="46.56333" lon="0.21144">
        <ele>179.27</ele>
        <time>2019-12-01T09:20:45.000Z</time>
      </trkpt>
      <trkpt lat="46.5634" lon="0.21131">
        <ele>178.91</ele>
        <time>2019-12-01T09:20:48.000Z</time>
      </trkpt>
      <trkpt lat="46.56353" lon="0.21133">
        <ele>178.62</ele>
        <time>2019-12-01T09:20:52.000Z</time>
      </trkpt>
      <trkpt lat="46.56363" lon="0.2114">
        <ele>178.25</ele>
        <time>2019-12-01T09:20:55.000Z</time>
      </trkpt>
      <trkpt lat="46.56363" lon="0.21155">
        <ele>178.1</ele>
        <time>2019-12-01T09:21:01.000Z</time>
      </trkpt>
      <trkpt lat="46.56365" lon="0.21169">
        <ele>178.47</ele>
        <time>2019-12-01T09:21:04.000Z</time>
      </trkpt>
      <trkpt lat="46.56366" lon="0.21184">
        <ele>178.92</ele>
        <time>2019-12-01T09:21:07.000Z</time>
      </trkpt>
      <trkpt lat="46.56357" lon="0.21197">
        <ele>179.69</ele>
        <time>2019-12-01T09:21:12.000Z</time>
      </trkpt>
      <trkpt lat="46.5635" lon="0.21208">
        <ele>181.2</ele>
        <time>2019-12-01T09:21:20.000Z</time>
      </trkpt>
      <trkpt lat="46.56342" lon="0.21216">
        <ele>182.26</ele>
        <time>2019-12-01T09:21:25.000Z</time>
      </trkpt>
      <trkpt lat="46.56335" lon="0.21226">
        <ele>183.06</ele>
        <time>2019-12-01T09:21:29.000Z</time>
      </trkpt>
      <trkpt lat="46.56328" lon="0.21235">
        <ele>183.84</ele>
        <time>2019-12-01T09:21:32.000Z</time>
      </trkpt>
      <trkpt lat="46.5632" lon="0.21246">
        <ele>184.64</ele>
        <time>2019-12-01T09:21:35.000Z</time>
      </trkpt>
      <trkpt lat="46.56315" lon="0.21263">
        <ele>185.3</ele>
        <time>2019-12-01T09:21:38.000Z</time>
      </trkpt>
      <trkpt lat="46.56313" lon="0.21277">
        <ele>185.76</ele>
        <time>2019-12-01T09:21:41.000Z</time>
      </trkpt>
      <trkpt lat="46.56309" lon="0.21296">
        <ele>186.04</ele>
        <time>2019-12-01T09:21:44.000Z</time>
      </trkpt>
      <trkpt lat="46.56306" lon="0.2131">
        <ele>186.28</ele>
        <time>2019-12-01T09:21:46.000Z</time>
      </trkpt>
      <trkpt lat="46.56307" lon="0.21323">
        <ele>186.56</ele>
        <time>2019-12-01T09:21:49.000Z</time>
      </trkpt>
      <trkpt lat="46.56307" lon="0.2134">
        <ele>186.78</ele>
        <time>2019-12-01T09:21:52.000Z</time>
      </trkpt>
      <trkpt lat="46.56303" lon="0.21353">
        <ele>187.02</ele>
        <time>2019-12-01T09:21:55.000Z</time>
      </trkpt>
      <trkpt lat="46.56297" lon="0.21365">
        <ele>187.24</ele>
        <time>2019-12-01T09:21:59.000Z</time>
      </trkpt>
      <trkpt lat="46.56293" lon="0.21379">
        <ele>187.89</ele>
        <time>2019-12-01T09:22:04.000Z</time>
      </trkpt>
      <trkpt lat="46.5629" lon="0.21401">
        <ele>188.18</ele>
        <time>2019-12-01T09:22:07.000Z</time>
      </trkpt>
      <trkpt lat="46.5629" lon="0.21416">
        <ele>188.29</ele>
        <time>2019-12-01T09:22:10.000Z</time>
      </trkpt>
      <trkpt lat="46.56288" lon="0.21432">
        <ele>188.52</ele>
        <time>2019-12-01T09:22:14.000Z</time>
      </trkpt>
      <trkpt lat="46.56283" lon="0.21444">
        <ele>188.74</ele>
        <time>2019-12-01T09:22:19.000Z</time>
      </trkpt>
      <trkpt lat="46.56273" lon="0.21447">
        <ele>189</ele>
        <time>2019-12-01T09:22:21.000Z</time>
      </trkpt>
      <trkpt lat="46.56264" lon="0.21449">
        <ele>189.6</ele>
        <time>2019-12-01T09:22:25.000Z</time>
      </trkpt>
      <trkpt lat="46.56252" lon="0.2145">
        <ele>190.16</ele>
        <time>2019-12-01T09:22:29.000Z</time>
      </trkpt>
      <trkpt lat="46.56242" lon="0.21453">
        <ele>191.3</ele>
        <time>2019-12-01T09:22:34.000Z</time>
      </trkpt>
      <trkpt lat="46.56232" lon="0.21449">
        <ele>192.19</ele>
        <time>2019-12-01T09:22:38.000Z</time>
      </trkpt>
      <trkpt lat="46.56223" lon="0.21446">
        <ele>192.77</ele>
        <time>2019-12-01T09:22:43.000Z</time>
      </trkpt>
      <trkpt lat="46.56214" lon="0.21445">
        <ele>193.59</ele>
        <time>2019-12-01T09:22:51.000Z</time>
      </trkpt>
      <trkpt lat="46.56204" lon="0.21443">
        <ele>194.77</ele>
        <time>2019-12-01T09:23:00.000Z</time>
      </trkpt>
      <trkpt lat="46.56195" lon="0.21439">
        <ele>195.22</ele>
        <time>2019-12-01T09:23:06.000Z</time>
      </trkpt>
      <trkpt lat="46.56185" lon="0.21441">
        <ele>196.83</ele>
        <time>2019-12-01T09:23:20.000Z</time>
      </trkpt>
      <trkpt lat="46.56174" lon="0.21448">
        <ele>198.97</ele>
        <time>2019-12-01T09:23:26.000Z</time>
      </trkpt>
      <trkpt lat="46.56164" lon="0.21452">
        <ele>200.21</ele>
        <time>2019-12-01T09:23:29.000Z</time>
      </trkpt>
      <trkpt lat="46.56155" lon="0.2146">
        <ele>202</ele>
        <time>2019-12-01T09:23:34.000Z</time>
      </trkpt>
      <trkpt lat="46.56145" lon="0.21468">
        <ele>203.19</ele>
        <time>2019-12-01T09:23:39.000Z</time>
      </trkpt>
      <trkpt lat="46.56137" lon="0.21476">
        <ele>203.9</ele>
        <time>2019-12-01T09:23:43.000Z</time>
      </trkpt>
      <trkpt lat="46.5613" lon="0.21485">
        <ele>204.43</ele>
        <time>2019-12-01T09:23:46.000Z</time>
      </trkpt>
      <trkpt lat="46.56121" lon="0.21494">
        <ele>205.04</ele>
        <time>2019-12-01T09:23:50.000Z</time>
      </trkpt>
      <trkpt lat="46.5611" lon="0.215">
        <ele>205.4</ele>
        <time>2019-12-01T09:23:53.000Z</time>
      </trkpt>
      <trkpt lat="46.56101" lon="0.21503">
        <ele>205.77</ele>
        <time>2019-12-01T09:23:56.000Z</time>
      </trkpt>
      <trkpt lat="46.56091" lon="0.215">
        <ele>205.88</ele>
        <time>2019-12-01T09:23:59.000Z</time>
      </trkpt>
      <trkpt lat="46.56081" lon="0.21496">
        <ele>205.77</ele>
        <time>2019-12-01T09:24:02.000Z</time>
      </trkpt>
      <trkpt lat="46.56069" lon="0.21497">
        <ele>205.66</ele>
        <time>2019-12-01T09:24:06.000Z</time>
      </trkpt>
      <trkpt lat="46.56057" lon="0.21496">
        <ele>205.63</ele>
        <time>2019-12-01T09:24:10.000Z</time>
      </trkpt>
      <trkpt lat="46.56048" lon="0.21493">
        <ele>205.76</ele>
        <time>2019-12-01T09:24:12.000Z</time>
      </trkpt>
      <trkpt lat="46.56035" lon="0.21493">
        <ele>205.97</ele>
        <time>2019-12-01T09:24:16.000Z</time>
      </trkpt>
      <trkpt lat="46.56025" lon="0.21494">
        <ele>206.16</ele>
        <time>2019-12-01T09:24:19.000Z</time>
      </trkpt>
      <trkpt lat="46.56012" lon="0.21496">
        <ele>206.55</ele>
        <time>2019-12-01T09:24:22.000Z</time>
      </trkpt>
      <trkpt lat="46.56001" lon="0.21497">
        <ele>207.1</ele>
        <time>2019-12-01T09:24:25.000Z</time>
      </trkpt>
      <trkpt lat="46.5599" lon="0.21497">
        <ele>207.73</ele>
        <time>2019-12-01T09:24:28.000Z</time>
      </trkpt>
      <trkpt lat="46.55978" lon="0.21496">
        <ele>208.31</ele>
        <time>2019-12-01T09:24:31.000Z</time>
      </trkpt>
      <trkpt lat="46.55968" lon="0.21495">
        <ele>208.64</ele>
        <time>2019-12-01T09:24:33.000Z</time>
      </trkpt>
      <trkpt lat="46.55957" lon="0.21495">
        <ele>209.26</ele>
        <time>2019-12-01T09:24:37.000Z</time>
      </trkpt>
      <trkpt lat="46.55947" lon="0.21495">
        <ele>209.76</ele>
        <time>2019-12-01T09:24:40.000Z</time>
      </trkpt>
      <trkpt lat="46.55938" lon="0.21496">
        <ele>210.56</ele>
        <time>2019-12-01T09:24:46.000Z</time>
      </trkpt>
      <trkpt lat="46.55946" lon="0.21508">
        <ele>211.03</ele>
        <time>2019-12-01T09:24:50.000Z</time>
      </trkpt>
      <trkpt lat="46.55954" lon="0.21516">
        <ele>211.44</ele>
        <time>2019-12-01T09:24:53.000Z</time>
      </trkpt>
      <trkpt lat="46.55963" lon="0.21516">
        <ele>211.59</ele>
        <time>2019-12-01T09:24:55.000Z</time>
      </trkpt>
      <trkpt lat="46.55972" lon="0.21521">
        <ele>211.66</ele>
        <time>2019-12-01T09:24:57.000Z</time>
      </trkpt>
      <trkpt lat="46.55983" lon="0.21528">
        <ele>211.63</ele>
        <time>2019-12-01T09:25:00.000Z</time>
      </trkpt>
      <trkpt lat="46.55992" lon="0.21535">
        <ele>211.35</ele>
        <time>2019-12-01T09:25:03.000Z</time>
      </trkpt>
      <trkpt lat="46.56002" lon="0.21543">
        <ele>211.14</ele>
        <time>2019-12-01T09:25:05.000Z</time>
      </trkpt>
      <trkpt lat="46.56009" lon="0.21554">
        <ele>211.03</ele>
        <time>2019-12-01T09:25:07.000Z</time>
      </trkpt>
      <trkpt lat="46.56017" lon="0.21563">
        <ele>210.9</ele>
        <time>2019-12-01T09:25:10.000Z</time>
      </trkpt>
      <trkpt lat="46.56021" lon="0.21577">
        <ele>210.75</ele>
        <time>2019-12-01T09:25:13.000Z</time>
      </trkpt>
      <trkpt lat="46.56028" lon="0.21593">
        <ele>210.45</ele>
        <time>2019-12-01T09:25:16.000Z</time>
      </trkpt>
      <trkpt lat="46.56033" lon="0.21607">
        <ele>209.86</ele>
        <time>2019-12-01T09:25:20.000Z</time>
      </trkpt>
      <trkpt lat="46.5604" lon="0.21624">
        <ele>209.35</ele>
        <time>2019-12-01T09:25:23.000Z</time>
      </trkpt>
      <trkpt lat="46.56044" lon="0.21638">
        <ele>208.59</ele>
        <time>2019-12-01T09:25:26.000Z</time>
      </trkpt>
      <trkpt lat="46.56048" lon="0.21649">
        <ele>202.55</ele>
        <time>2019-12-01T09:25:28.000Z</time>
      </trkpt>
      <trkpt lat="46.56054" lon="0.21666">
        <ele>198.11</ele>
        <time>2019-12-01T09:25:31.000Z</time>
      </trkpt>
      <trkpt lat="46.56056" lon="0.21681">
        <ele>197.63</ele>
        <time>2019-12-01T09:25:34.000Z</time>
      </trkpt>
      <trkpt lat="46.56064" lon="0.2169">
        <ele>197.07</ele>
        <time>2019-12-01T09:25:37.000Z</time>
      </trkpt>
      <trkpt lat="46.56067" lon="0.21704">
        <ele>196.18</ele>
        <time>2019-12-01T09:25:41.000Z</time>
      </trkpt>
      <trkpt lat="46.56063" lon="0.21718">
        <ele>195.45</ele>
        <time>2019-12-01T09:25:45.000Z</time>
      </trkpt>
      <trkpt lat="46.56061" lon="0.21733">
        <ele>195</ele>
        <time>2019-12-01T09:25:47.000Z</time>
      </trkpt>
      <trkpt lat="46.5606" lon="0.2175">
        <ele>194.23</ele>
        <time>2019-12-01T09:25:50.000Z</time>
      </trkpt>
      <trkpt lat="46.56066" lon="0.21762">
        <ele>193.68</ele>
        <time>2019-12-01T09:25:53.000Z</time>
      </trkpt>
      <trkpt lat="46.5606" lon="0.21776">
        <ele>193.46</ele>
        <time>2019-12-01T09:25:56.000Z</time>
      </trkpt>
      <trkpt lat="46.56053" lon="0.2179">
        <ele>193.57</ele>
        <time>2019-12-01T09:25:59.000Z</time>
      </trkpt>
      <trkpt lat="46.56044" lon="0.218">
        <ele>193.82</ele>
        <time>2019-12-01T09:26:02.000Z</time>
      </trkpt>
      <trkpt lat="46.56038" lon="0.2181">
        <ele>194.12</ele>
        <time>2019-12-01T09:26:05.000Z</time>
      </trkpt>
      <trkpt lat="46.56031" lon="0.21819">
        <ele>194.5</ele>
        <time>2019-12-01T09:26:09.000Z</time>
      </trkpt>
      <trkpt lat="46.56024" lon="0.21831">
        <ele>195.12</ele>
        <time>2019-12-01T09:26:14.000Z</time>
      </trkpt>
      <trkpt lat="46.56023" lon="0.21845">
        <ele>195.59</ele>
        <time>2019-12-01T09:26:19.000Z</time>
      </trkpt>
      <trkpt lat="46.56019" lon="0.21858">
        <ele>195.68</ele>
        <time>2019-12-01T09:26:22.000Z</time>
      </trkpt>
      <trkpt lat="46.56017" lon="0.21873">
        <ele>195.73</ele>
        <time>2019-12-01T09:26:28.000Z</time>
      </trkpt>
      <trkpt lat="46.56017" lon="0.21886">
        <ele>196.12</ele>
        <time>2019-12-01T09:26:33.000Z</time>
      </trkpt>
      <trkpt lat="46.56019" lon="0.219">
        <ele>196.6</ele>
        <time>2019-12-01T09:26:40.000Z</time>
      </trkpt>
      <trkpt lat="46.56028" lon="0.21901">
        <ele>196.28</ele>
        <time>2019-12-01T09:26:49.000Z</time>
      </trkpt>
      <trkpt lat="46.56038" lon="0.21895">
        <ele>196.08</ele>
        <time>2019-12-01T09:26:54.000Z</time>
      </trkpt>
      <trkpt lat="46.56047" lon="0.21892">
        <ele>196.13</ele>
        <time>2019-12-01T09:26:58.000Z</time>
      </trkpt>
      <trkpt lat="46.56059" lon="0.2189">
        <ele>196.33</ele>
        <time>2019-12-01T09:27:02.000Z</time>
      </trkpt>
      <trkpt lat="46.56069" lon="0.21888">
        <ele>196.55</ele>
        <time>2019-12-01T09:27:05.000Z</time>
      </trkpt>
      <trkpt lat="46.56078" lon="0.21886">
        <ele>196.74</ele>
        <time>2019-12-01T09:27:08.000Z</time>
      </trkpt>
      <trkpt lat="46.56089" lon="0.21883">
        <ele>197.01</ele>
        <time>2019-12-01T09:27:11.000Z</time>
      </trkpt>
      <trkpt lat="46.56097" lon="0.21877">
        <ele>197.89</ele>
        <time>2019-12-01T09:27:13.000Z</time>
      </trkpt>
      <trkpt lat="46.56107" lon="0.21869">
        <ele>198.03</ele>
        <time>2019-12-01T09:27:16.000Z</time>
      </trkpt>
      <trkpt lat="46.56115" lon="0.21862">
        <ele>198.02</ele>
        <time>2019-12-01T09:27:18.000Z</time>
      </trkpt>
      <trkpt lat="46.56128" lon="0.21847">
        <ele>197.9</ele>
        <time>2019-12-01T09:27:22.000Z</time>
      </trkpt>
      <trkpt lat="46.56138" lon="0.21838">
        <ele>197.5</ele>
        <time>2019-12-01T09:27:25.000Z</time>
      </trkpt>
      <trkpt lat="46.56145" lon="0.21829">
        <ele>197.49</ele>
        <time>2019-12-01T09:27:27.000Z</time>
      </trkpt>
      <trkpt lat="46.56153" lon="0.2182">
        <ele>197.92</ele>
        <time>2019-12-01T09:27:29.000Z</time>
      </trkpt>
      <trkpt lat="46.5616" lon="0.21809">
        <ele>198.48</ele>
        <time>2019-12-01T09:27:31.000Z</time>
      </trkpt>
      <trkpt lat="46.56171" lon="0.218">
        <ele>198.87</ele>
        <time>2019-12-01T09:27:33.000Z</time>
      </trkpt>
      <trkpt lat="46.56183" lon="0.21788">
        <ele>200.18</ele>
        <time>2019-12-01T09:27:35.000Z</time>
      </trkpt>
      <trkpt lat="46.56194" lon="0.21775">
        <ele>200.79</ele>
        <time>2019-12-01T09:27:37.000Z</time>
      </trkpt>
      <trkpt lat="46.56205" lon="0.21765">
        <ele>200.26</ele>
        <time>2019-12-01T09:27:39.000Z</time>
      </trkpt>
      <trkpt lat="46.56214" lon="0.21756">
        <ele>199.59</ele>
        <time>2019-12-01T09:27:41.000Z</time>
      </trkpt>
      <trkpt lat="46.56224" lon="0.21746">
        <ele>198.61</ele>
        <time>2019-12-01T09:27:43.000Z</time>
      </trkpt>
      <trkpt lat="46.56234" lon="0.21735">
        <ele>197.39</ele>
        <time>2019-12-01T09:27:45.000Z</time>
      </trkpt>
      <trkpt lat="46.56244" lon="0.21722">
        <ele>195.8</ele>
        <time>2019-12-01T09:27:47.000Z</time>
      </trkpt>
      <trkpt lat="46.56254" lon="0.2171">
        <ele>194.26</ele>
        <time>2019-12-01T09:27:49.000Z</time>
      </trkpt>
      <trkpt lat="46.56266" lon="0.21702">
        <ele>193.17</ele>
        <time>2019-12-01T09:27:51.000Z</time>
      </trkpt>
      <trkpt lat="46.56277" lon="0.21692">
        <ele>192.43</ele>
        <time>2019-12-01T09:27:53.000Z</time>
      </trkpt>
      <trkpt lat="46.56288" lon="0.21684">
        <ele>191.76</ele>
        <time>2019-12-01T09:27:55.000Z</time>
      </trkpt>
      <trkpt lat="46.56298" lon="0.21674">
        <ele>191.06</ele>
        <time>2019-12-01T09:27:57.000Z</time>
      </trkpt>
      <trkpt lat="46.5631" lon="0.21664">
        <ele>189.95</ele>
        <time>2019-12-01T09:27:59.000Z</time>
      </trkpt>
      <trkpt lat="46.5632" lon="0.21651">
        <ele>189.02</ele>
        <time>2019-12-01T09:28:01.000Z</time>
      </trkpt>
      <trkpt lat="46.56328" lon="0.21639">
        <ele>188.35</ele>
        <time>2019-12-01T09:28:03.000Z</time>
      </trkpt>
      <trkpt lat="46.56336" lon="0.21626">
        <ele>187.7</ele>
        <time>2019-12-01T09:28:05.000Z</time>
      </trkpt>
      <trkpt lat="46.56345" lon="0.21614">
        <ele>187.2</ele>
        <time>2019-12-01T09:28:07.000Z</time>
      </trkpt>
      <trkpt lat="46.56354" lon="0.21604">
        <ele>186.79</ele>
        <time>2019-12-01T09:28:09.000Z</time>
      </trkpt>
      <trkpt lat="46.56362" lon="0.21595">
        <ele>186.74</ele>
        <time>2019-12-01T09:28:11.000Z</time>
      </trkpt>
      <trkpt lat="46.56369" lon="0.21586">
        <ele>187.17</ele>
        <time>2019-12-01T09:28:13.000Z</time>
      </trkpt>
      <trkpt lat="46.56376" lon="0.21577">
        <ele>187.97</ele>
        <time>2019-12-01T09:28:15.000Z</time>
      </trkpt>
      <trkpt lat="46.56383" lon="0.21568">
        <ele>188.41</ele>
        <time>2019-12-01T09:28:17.000Z</time>
      </trkpt>
      <trkpt lat="46.56391" lon="0.21558">
        <ele>188.65</ele>
        <time>2019-12-01T09:28:19.000Z</time>
      </trkpt>
      <trkpt lat="46.56398" lon="0.21548">
        <ele>188.47</ele>
        <time>2019-12-01T09:28:21.000Z</time>
      </trkpt>
      <trkpt lat="46.56405" lon="0.21538">
        <ele>188.14</ele>
        <time>2019-12-01T09:28:23.000Z</time>
      </trkpt>
      <trkpt lat="46.56414" lon="0.21529">
        <ele>187.59</ele>
        <time>2019-12-01T09:28:25.000Z</time>
      </trkpt>
      <trkpt lat="46.56422" lon="0.21521">
        <ele>186.91</ele>
        <time>2019-12-01T09:28:27.000Z</time>
      </trkpt>
      <trkpt lat="46.5643" lon="0.21514">
        <ele>186.4</ele>
        <time>2019-12-01T09:28:29.000Z</time>
      </trkpt>
      <trkpt lat="46.56439" lon="0.21507">
        <ele>186.27</ele>
        <time>2019-12-01T09:28:31.000Z</time>
      </trkpt>
      <trkpt lat="46.56447" lon="0.21499">
        <ele>186.16</ele>
        <time>2019-12-01T09:28:33.000Z</time>
      </trkpt>
      <trkpt lat="46.56457" lon="0.21491">
        <ele>186.14</ele>
        <time>2019-12-01T09:28:35.000Z</time>
      </trkpt>
      <trkpt lat="46.56467" lon="0.21482">
        <ele>186.37</ele>
        <time>2019-12-01T09:28:37.000Z</time>
      </trkpt>
      <trkpt lat="46.56478" lon="0.21476">
        <ele>187.12</ele>
        <time>2019-12-01T09:28:39.000Z</time>
      </trkpt>
      <trkpt lat="46.56486" lon="0.21468">
        <ele>187.47</ele>
        <time>2019-12-01T09:28:41.000Z</time>
      </trkpt>
      <trkpt lat="46.56497" lon="0.2146">
        <ele>187.95</ele>
        <time>2019-12-01T09:28:44.000Z</time>
      </trkpt>
      <trkpt lat="46.56509" lon="0.21451">
        <ele>188.01</ele>
        <time>2019-12-01T09:28:47.000Z</time>
      </trkpt>
      <trkpt lat="46.56517" lon="0.21441">
        <ele>188.07</ele>
        <time>2019-12-01T09:28:50.000Z</time>
      </trkpt>
      <trkpt lat="46.56516" lon="0.21425">
        <ele>188.28</ele>
        <time>2019-12-01T09:28:53.000Z</time>
      </trkpt>
      <trkpt lat="46.56517" lon="0.21412">
        <ele>190.09</ele>
        <time>2019-12-01T09:28:55.000Z</time>
      </trkpt>
      <trkpt lat="46.56517" lon="0.21397">
        <ele>191.5</ele>
        <time>2019-12-01T09:28:57.000Z</time>
      </trkpt>
      <trkpt lat="46.56516" lon="0.21382">
        <ele>191.54</ele>
        <time>2019-12-01T09:28:59.000Z</time>
      </trkpt>
      <trkpt lat="46.56515" lon="0.21368">
        <ele>190.99</ele>
        <time>2019-12-01T09:29:01.000Z</time>
      </trkpt>
      <trkpt lat="46.5651" lon="0.2135">
        <ele>190.43</ele>
        <time>2019-12-01T09:29:03.000Z</time>
      </trkpt>
      <trkpt lat="46.56506" lon="0.21336">
        <ele>189.92</ele>
        <time>2019-12-01T09:29:05.000Z</time>
      </trkpt>
      <trkpt lat="46.56506" lon="0.21323">
        <ele>189.68</ele>
        <time>2019-12-01T09:29:07.000Z</time>
      </trkpt>
      <trkpt lat="46.56505" lon="0.21307">
        <ele>189.78</ele>
        <time>2019-12-01T09:29:10.000Z</time>
      </trkpt>
      <trkpt lat="46.56499" lon="0.21293">
        <ele>189.75</ele>
        <time>2019-12-01T09:29:13.000Z</time>
      </trkpt>
      <trkpt lat="46.56494" lon="0.2128">
        <ele>189.72</ele>
        <time>2019-12-01T09:29:15.000Z</time>
      </trkpt>
      <trkpt lat="46.56491" lon="0.21263">
        <ele>188.57</ele>
        <time>2019-12-01T09:29:17.000Z</time>
      </trkpt>
      <trkpt lat="46.56489" lon="0.21244">
        <ele>188.34</ele>
        <time>2019-12-01T09:29:20.000Z</time>
      </trkpt>
      <trkpt lat="46.56487" lon="0.21229">
        <ele>188.05</ele>
        <time>2019-12-01T09:29:22.000Z</time>
      </trkpt>
      <trkpt lat="46.56485" lon="0.21215">
        <ele>187.77</ele>
        <time>2019-12-01T09:29:24.000Z</time>
      </trkpt>
      <trkpt lat="46.56483" lon="0.21202">
        <ele>187.39</ele>
        <time>2019-12-01T09:29:26.000Z</time>
      </trkpt>
      <trkpt lat="46.56485" lon="0.21186">
        <ele>186.26</ele>
        <time>2019-12-01T09:29:30.000Z</time>
      </trkpt>
      <trkpt lat="46.56487" lon="0.21172">
        <ele>185.25</ele>
        <time>2019-12-01T09:29:33.000Z</time>
      </trkpt>
      <trkpt lat="46.56495" lon="0.21165">
        <ele>184.26</ele>
        <time>2019-12-01T09:29:36.000Z</time>
      </trkpt>
      <trkpt lat="46.56502" lon="0.21154">
        <ele>183.23</ele>
        <time>2019-12-01T09:29:39.000Z</time>
      </trkpt>
      <trkpt lat="46.5651" lon="0.21142">
        <ele>181.85</ele>
        <time>2019-12-01T09:29:43.000Z</time>
      </trkpt>
      <trkpt lat="46.5652" lon="0.21129">
        <ele>180.01</ele>
        <time>2019-12-01T09:29:48.000Z</time>
      </trkpt>
      <trkpt lat="46.56528" lon="0.21119">
        <ele>179.32</ele>
        <time>2019-12-01T09:29:50.000Z</time>
      </trkpt>
      <trkpt lat="46.56536" lon="0.21113">
        <ele>178.73</ele>
        <time>2019-12-01T09:29:52.000Z</time>
      </trkpt>
      <trkpt lat="46.56546" lon="0.21109">
        <ele>178</ele>
        <time>2019-12-01T09:29:55.000Z</time>
      </trkpt>
      <trkpt lat="46.56558" lon="0.21106">
        <ele>177.52</ele>
        <time>2019-12-01T09:29:57.000Z</time>
      </trkpt>
      <trkpt lat="46.56567" lon="0.21101">
        <ele>177.12</ele>
        <time>2019-12-01T09:29:59.000Z</time>
      </trkpt>
      <trkpt lat="46.56579" lon="0.21093">
        <ele>176.55</ele>
        <time>2019-12-01T09:30:02.000Z</time>
      </trkpt>
      <trkpt lat="46.56589" lon="0.21092">
        <ele>175.79</ele>
        <time>2019-12-01T09:30:06.000Z</time>
      </trkpt>
      <trkpt lat="46.56597" lon="0.21084">
        <ele>173.69</ele>
        <time>2019-12-01T09:30:08.000Z</time>
      </trkpt>
      <trkpt lat="46.56607" lon="0.21075">
        <ele>171.37</ele>
        <time>2019-12-01T09:30:10.000Z</time>
      </trkpt>
      <trkpt lat="46.56616" lon="0.21069">
        <ele>171.24</ele>
        <time>2019-12-01T09:30:12.000Z</time>
      </trkpt>
      <trkpt lat="46.56625" lon="0.21063">
        <ele>171.7</ele>
        <time>2019-12-01T09:30:14.000Z</time>
      </trkpt>
      <trkpt lat="46.56637" lon="0.21062">
        <ele>169.4</ele>
        <time>2019-12-01T09:30:17.000Z</time>
      </trkpt>
      <trkpt lat="46.5663" lon="0.2105">
        <ele>168.01</ele>
        <time>2019-12-01T09:30:25.000Z</time>
      </trkpt>
      <trkpt lat="46.56623" lon="0.21038">
        <ele>167.04</ele>
        <time>2019-12-01T09:30:29.000Z</time>
      </trkpt>
      <trkpt lat="46.56616" lon="0.2103">
        <ele>165.31</ele>
        <time>2019-12-01T09:30:36.000Z</time>
      </trkpt>
      <trkpt lat="46.56615" lon="0.21017">
        <ele>163.78</ele>
        <time>2019-12-01T09:30:49.000Z</time>
      </trkpt>
      <trkpt lat="46.56613" lon="0.21003">
        <ele>163.69</ele>
        <time>2019-12-01T09:31:06.000Z</time>
      </trkpt>
      <trkpt lat="46.56625" lon="0.21001">
        <ele>164.02</ele>
        <time>2019-12-01T09:31:34.000Z</time>
      </trkpt>
      <trkpt lat="46.56623" lon="0.20988">
        <ele>164.31</ele>
        <time>2019-12-01T09:32:05.000Z</time>
      </trkpt>
      <trkpt lat="46.56614" lon="0.20991">
        <ele>150.98</ele>
        <time>2019-12-01T09:33:29.000Z</time>
      </trkpt>
      <trkpt lat="46.56623" lon="0.2099">
        <ele>158.84</ele>
        <time>2019-12-01T09:39:34.000Z</time>
      </trkpt>
      <trkpt lat="46.56619" lon="0.21003">
        <ele>159.47</ele>
        <time>2019-12-01T09:40:35.000Z</time>
      </trkpt>
      <trkpt lat="46.56618" lon="0.21016">
        <ele>159.89</ele>
        <time>2019-12-01T09:40:43.000Z</time>
      </trkpt>
      <trkpt lat="46.56624" lon="0.21027">
        <ele>160.13</ele>
        <time>2019-12-01T09:40:55.000Z</time>
      </trkpt>
      <trkpt lat="46.56632" lon="0.21037">
        <ele>160.27</ele>
        <time>2019-12-01T09:40:59.000Z</time>
      </trkpt>
      <trkpt lat="46.56639" lon="0.21048">
        <ele>160.24</ele>
        <time>2019-12-01T09:41:02.000Z</time>
      </trkpt>
      <trkpt lat="46.56648" lon="0.2106">
        <ele>160.02</ele>
        <time>2019-12-01T09:41:07.000Z</time>
      </trkpt>
      <trkpt lat="46.56658" lon="0.21064">
        <ele>159.86</ele>
        <time>2019-12-01T09:41:10.000Z</time>
      </trkpt>
      <trkpt lat="46.56667" lon="0.21058">
        <ele>159.8</ele>
        <time>2019-12-01T09:41:12.000Z</time>
      </trkpt>
      <trkpt lat="46.56675" lon="0.21047">
        <ele>159.73</ele>
        <time>2019-12-01T09:41:14.000Z</time>
      </trkpt>
      <trkpt lat="46.56683" lon="0.21038">
        <ele>159.71</ele>
        <time>2019-12-01T09:41:16.000Z</time>
      </trkpt>
      <trkpt lat="46.56691" lon="0.21029">
        <ele>159.83</ele>
        <time>2019-12-01T09:41:18.000Z</time>
      </trkpt>
      <trkpt lat="46.567" lon="0.21018">
        <ele>160.9</ele>
        <time>2019-12-01T09:41:20.000Z</time>
      </trkpt>
      <trkpt lat="46.56708" lon="0.21009">
        <ele>162.41</ele>
        <time>2019-12-01T09:41:22.000Z</time>
      </trkpt>
      <trkpt lat="46.56703" lon="0.20994">
        <ele>163.48</ele>
        <time>2019-12-01T09:41:26.000Z</time>
      </trkpt>
      <trkpt lat="46.56693" lon="0.20989">
        <ele>163.1</ele>
        <time>2019-12-01T09:41:28.000Z</time>
      </trkpt>
      <trkpt lat="46.56682" lon="0.20982">
        <ele>162.53</ele>
        <time>2019-12-01T09:41:30.000Z</time>
      </trkpt>
      <trkpt lat="46.5667" lon="0.20973">
        <ele>162.11</ele>
        <time>2019-12-01T09:41:32.000Z</time>
      </trkpt>
      <trkpt lat="46.5666" lon="0.20963">
        <ele>161.33</ele>
        <time>2019-12-01T09:41:34.000Z</time>
      </trkpt>
      <trkpt lat="46.56651" lon="0.20951">
        <ele>160.3</ele>
        <time>2019-12-01T09:41:36.000Z</time>
      </trkpt>
      <trkpt lat="46.56642" lon="0.20939">
        <ele>158.78</ele>
        <time>2019-12-01T09:41:38.000Z</time>
      </trkpt>
      <trkpt lat="46.56634" lon="0.20925">
        <ele>157.12</ele>
        <time>2019-12-01T09:41:40.000Z</time>
      </trkpt>
      <trkpt lat="46.56626" lon="0.20912">
        <ele>155.29</ele>
        <time>2019-12-01T09:41:42.000Z</time>
      </trkpt>
      <trkpt lat="46.56618" lon="0.209">
        <ele>152.97</ele>
        <time>2019-12-01T09:41:44.000Z</time>
      </trkpt>
      <trkpt lat="46.56609" lon="0.20888">
        <ele>150.38</ele>
        <time>2019-12-01T09:41:46.000Z</time>
      </trkpt>
      <trkpt lat="46.56601" lon="0.20874">
        <ele>147.9</ele>
        <time>2019-12-01T09:41:48.000Z</time>
      </trkpt>
      <trkpt lat="46.56592" lon="0.20861">
        <ele>145.89</ele>
        <time>2019-12-01T09:41:50.000Z</time>
      </trkpt>
      <trkpt lat="46.56583" lon="0.20849">
        <ele>144.1</ele>
        <time>2019-12-01T09:41:52.000Z</time>
      </trkpt>
      <trkpt lat="46.56575" lon="0.20834">
        <ele>142.23</ele>
        <time>2019-12-01T09:41:54.000Z</time>
      </trkpt>
      <trkpt lat="46.56568" lon="0.20821">
        <ele>140.64</ele>
        <time>2019-12-01T09:41:56.000Z</time>
      </trkpt>
      <trkpt lat="46.56561" lon="0.20807">
        <ele>139.17</ele>
        <time>2019-12-01T09:41:58.000Z</time>
      </trkpt>
      <trkpt lat="46.56557" lon="0.20791">
        <ele>137.84</ele>
        <time>2019-12-01T09:42:00.000Z</time>
      </trkpt>
      <trkpt lat="46.56554" lon="0.20776">
        <ele>137.56</ele>
        <time>2019-12-01T09:42:02.000Z</time>
      </trkpt>
      <trkpt lat="46.56551" lon="0.2076">
        <ele>137.69</ele>
        <time>2019-12-01T09:42:04.000Z</time>
      </trkpt>
      <trkpt lat="46.56551" lon="0.2074">
        <ele>137.38</ele>
        <time>2019-12-01T09:42:06.000Z</time>
      </trkpt>
      <trkpt lat="46.56553" lon="0.20722">
        <ele>137.21</ele>
        <time>2019-12-01T09:42:08.000Z</time>
      </trkpt>
      <trkpt lat="46.56552" lon="0.20707">
        <ele>138.01</ele>
        <time>2019-12-01T09:42:10.000Z</time>
      </trkpt>
      <trkpt lat="46.56551" lon="0.20691">
        <ele>139.32</ele>
        <time>2019-12-01T09:42:12.000Z</time>
      </trkpt>
      <trkpt lat="46.56551" lon="0.20673">
        <ele>140.6</ele>
        <time>2019-12-01T09:42:14.000Z</time>
      </trkpt>
      <trkpt lat="46.56551" lon="0.20656">
        <ele>141.01</ele>
        <time>2019-12-01T09:42:16.000Z</time>
      </trkpt>
      <trkpt lat="46.56557" lon="0.20638">
        <ele>141.1</ele>
        <time>2019-12-01T09:42:19.000Z</time>
      </trkpt>
      <trkpt lat="46.56562" lon="0.20626">
        <ele>141.61</ele>
        <time>2019-12-01T09:42:21.000Z</time>
      </trkpt>
      <trkpt lat="46.56568" lon="0.20615">
        <ele>142.51</ele>
        <time>2019-12-01T09:42:23.000Z</time>
      </trkpt>
      <trkpt lat="46.56575" lon="0.20599">
        <ele>144.94</ele>
        <time>2019-12-01T09:42:26.000Z</time>
      </trkpt>
      <trkpt lat="46.56582" lon="0.20584">
        <ele>146.56</ele>
        <time>2019-12-01T09:42:29.000Z</time>
      </trkpt>
      <trkpt lat="46.5659" lon="0.20568">
        <ele>146.77</ele>
        <time>2019-12-01T09:42:32.000Z</time>
      </trkpt>
      <trkpt lat="46.56595" lon="0.20556">
        <ele>146.56</ele>
        <time>2019-12-01T09:42:34.000Z</time>
      </trkpt>
      <trkpt lat="46.56601" lon="0.20542">
        <ele>146.43</ele>
        <time>2019-12-01T09:42:36.000Z</time>
      </trkpt>
      <trkpt lat="46.56609" lon="0.2053">
        <ele>147.13</ele>
        <time>2019-12-01T09:42:38.000Z</time>
      </trkpt>
      <trkpt lat="46.56617" lon="0.20519">
        <ele>148.5</ele>
        <time>2019-12-01T09:42:40.000Z</time>
      </trkpt>
      <trkpt lat="46.56627" lon="0.20511">
        <ele>150.16</ele>
        <time>2019-12-01T09:42:42.000Z</time>
      </trkpt>
      <trkpt lat="46.56638" lon="0.20504">
        <ele>151.86</ele>
        <time>2019-12-01T09:42:44.000Z</time>
      </trkpt>
      <trkpt lat="46.56647" lon="0.20496">
        <ele>152.88</ele>
        <time>2019-12-01T09:42:46.000Z</time>
      </trkpt>
      <trkpt lat="46.56656" lon="0.20484">
        <ele>153.74</ele>
        <time>2019-12-01T09:42:48.000Z</time>
      </trkpt>
      <trkpt lat="46.56659" lon="0.20466">
        <ele>154.75</ele>
        <time>2019-12-01T09:42:50.000Z</time>
      </trkpt>
      <trkpt lat="46.56657" lon="0.20449">
        <ele>155.58</ele>
        <time>2019-12-01T09:42:52.000Z</time>
      </trkpt>
      <trkpt lat="46.56654" lon="0.20431">
        <ele>155.88</ele>
        <time>2019-12-01T09:42:54.000Z</time>
      </trkpt>
      <trkpt lat="46.56649" lon="0.20412">
        <ele>156.15</ele>
        <time>2019-12-01T09:42:56.000Z</time>
      </trkpt>
      <trkpt lat="46.56647" lon="0.20397">
        <ele>155.9</ele>
        <time>2019-12-01T09:42:58.000Z</time>
      </trkpt>
      <trkpt lat="46.56649" lon="0.20383">
        <ele>155.92</ele>
        <time>2019-12-01T09:43:01.000Z</time>
      </trkpt>
      <trkpt lat="46.5665" lon="0.2037">
        <ele>156.12</ele>
        <time>2019-12-01T09:43:05.000Z</time>
      </trkpt>
      <trkpt lat="46.56653" lon="0.20357">
        <ele>156.57</ele>
        <time>2019-12-01T09:43:09.000Z</time>
      </trkpt>
      <trkpt lat="46.56655" lon="0.20341">
        <ele>157.05</ele>
        <time>2019-12-01T09:43:13.000Z</time>
      </trkpt>
      <trkpt lat="46.5666" lon="0.20327">
        <ele>157.28</ele>
        <time>2019-12-01T09:43:16.000Z</time>
      </trkpt>
      <trkpt lat="46.56661" lon="0.20309">
        <ele>157.32</ele>
        <time>2019-12-01T09:43:19.000Z</time>
      </trkpt>
      <trkpt lat="46.56658" lon="0.20296">
        <ele>157.32</ele>
        <time>2019-12-01T09:43:22.000Z</time>
      </trkpt>
      <trkpt lat="46.56651" lon="0.20286">
        <ele>157.31</ele>
        <time>2019-12-01T09:43:25.000Z</time>
      </trkpt>
      <trkpt lat="46.56643" lon="0.20276">
        <ele>157.3</ele>
        <time>2019-12-01T09:43:27.000Z</time>
      </trkpt>
      <trkpt lat="46.56641" lon="0.20261">
        <ele>157.68</ele>
        <time>2019-12-01T09:43:31.000Z</time>
      </trkpt>
      <trkpt lat="46.56644" lon="0.20247">
        <ele>158.14</ele>
        <time>2019-12-01T09:43:34.000Z</time>
      </trkpt>
      <trkpt lat="46.56646" lon="0.20234">
        <ele>158.72</ele>
        <time>2019-12-01T09:43:37.000Z</time>
      </trkpt>
      <trkpt lat="46.56646" lon="0.2022">
        <ele>159.62</ele>
        <time>2019-12-01T09:43:41.000Z</time>
      </trkpt>
      <trkpt lat="46.56641" lon="0.20204">
        <ele>160.06</ele>
        <time>2019-12-01T09:43:44.000Z</time>
      </trkpt>
      <trkpt lat="46.56637" lon="0.20188">
        <ele>160.6</ele>
        <time>2019-12-01T09:43:47.000Z</time>
      </trkpt>
      <trkpt lat="46.56633" lon="0.20176">
        <ele>161.25</ele>
        <time>2019-12-01T09:43:50.000Z</time>
      </trkpt>
      <trkpt lat="46.56631" lon="0.20163">
        <ele>161.98</ele>
        <time>2019-12-01T09:43:53.000Z</time>
      </trkpt>
      <trkpt lat="46.56624" lon="0.20153">
        <ele>162.82</ele>
        <time>2019-12-01T09:43:57.000Z</time>
      </trkpt>
      <trkpt lat="46.56621" lon="0.2014">
        <ele>163.68</ele>
        <time>2019-12-01T09:44:01.000Z</time>
      </trkpt>
      <trkpt lat="46.56619" lon="0.20124">
        <ele>164.37</ele>
        <time>2019-12-01T09:44:05.000Z</time>
      </trkpt>
      <trkpt lat="46.56615" lon="0.20109">
        <ele>164.87</ele>
        <time>2019-12-01T09:44:10.000Z</time>
      </trkpt>
      <trkpt lat="46.56614" lon="0.20095">
        <ele>165.13</ele>
        <time>2019-12-01T09:44:13.000Z</time>
      </trkpt>
      <trkpt lat="46.5661" lon="0.2008">
        <ele>165.06</ele>
        <time>2019-12-01T09:44:17.000Z</time>
      </trkpt>
      <trkpt lat="46.56607" lon="0.20067">
        <ele>164.93</ele>
        <time>2019-12-01T09:44:20.000Z</time>
      </trkpt>
      <trkpt lat="46.56603" lon="0.20054">
        <ele>164.81</ele>
        <time>2019-12-01T09:44:23.000Z</time>
      </trkpt>
      <trkpt lat="46.56599" lon="0.2004">
        <ele>164.74</ele>
        <time>2019-12-01T09:44:26.000Z</time>
      </trkpt>
      <trkpt lat="46.56597" lon="0.20025">
        <ele>164.88</ele>
        <time>2019-12-01T09:44:30.000Z</time>
      </trkpt>
      <trkpt lat="46.56589" lon="0.20013">
        <ele>165.12</ele>
        <time>2019-12-01T09:44:34.000Z</time>
      </trkpt>
      <trkpt lat="46.56582" lon="0.20003">
        <ele>165.63</ele>
        <time>2019-12-01T09:44:38.000Z</time>
      </trkpt>
      <trkpt lat="46.56572" lon="0.19993">
        <ele>165.95</ele>
        <time>2019-12-01T09:44:41.000Z</time>
      </trkpt>
      <trkpt lat="46.56566" lon="0.19983">
        <ele>166.26</ele>
        <time>2019-12-01T09:44:44.000Z</time>
      </trkpt>
      <trkpt lat="46.56557" lon="0.19982">
        <ele>167.13</ele>
        <time>2019-12-01T09:44:49.000Z</time>
      </trkpt>
      <trkpt lat="46.56547" lon="0.19984">
        <ele>169.06</ele>
        <time>2019-12-01T09:44:56.000Z</time>
      </trkpt>
      <trkpt lat="46.56537" lon="0.19983">
        <ele>170.21</ele>
        <time>2019-12-01T09:45:00.000Z</time>
      </trkpt>
      <trkpt lat="46.56528" lon="0.19981">
        <ele>171.14</ele>
        <time>2019-12-01T09:45:04.000Z</time>
      </trkpt>
      <trkpt lat="46.56519" lon="0.19974">
        <ele>171.77</ele>
        <time>2019-12-01T09:45:08.000Z</time>
      </trkpt>
      <trkpt lat="46.5651" lon="0.1997">
        <ele>172.09</ele>
        <time>2019-12-01T09:45:11.000Z</time>
      </trkpt>
      <trkpt lat="46.56499" lon="0.19966">
        <ele>172.15</ele>
        <time>2019-12-01T09:45:17.000Z</time>
      </trkpt>
      <trkpt lat="46.5649" lon="0.19963">
        <ele>172.35</ele>
        <time>2019-12-01T09:45:22.000Z</time>
      </trkpt>
      <trkpt lat="46.5648" lon="0.19962">
        <ele>173.28</ele>
        <time>2019-12-01T09:45:28.000Z</time>
      </trkpt>
      <trkpt lat="46.56469" lon="0.19957">
        <ele>174.39</ele>
        <time>2019-12-01T09:45:34.000Z</time>
      </trkpt>
      <trkpt lat="46.56459" lon="0.19953">
        <ele>175.28</ele>
        <time>2019-12-01T09:45:39.000Z</time>
      </trkpt>
      <trkpt lat="46.5645" lon="0.1995">
        <ele>176.07</ele>
        <time>2019-12-01T09:45:44.000Z</time>
      </trkpt>
      <trkpt lat="46.5644" lon="0.19946">
        <ele>176.78</ele>
        <time>2019-12-01T09:45:49.000Z</time>
      </trkpt>
      <trkpt lat="46.56429" lon="0.1994">
        <ele>177.16</ele>
        <time>2019-12-01T09:45:53.000Z</time>
      </trkpt>
      <trkpt lat="46.56418" lon="0.19939">
        <ele>177.83</ele>
        <time>2019-12-01T09:45:57.000Z</time>
      </trkpt>
      <trkpt lat="46.56407" lon="0.19935">
        <ele>178.9</ele>
        <time>2019-12-01T09:46:02.000Z</time>
      </trkpt>
      <trkpt lat="46.56398" lon="0.19929">
        <ele>179.7</ele>
        <time>2019-12-01T09:46:05.000Z</time>
      </trkpt>
      <trkpt lat="46.56388" lon="0.19926">
        <ele>180.17</ele>
        <time>2019-12-01T09:46:08.000Z</time>
      </trkpt>
      <trkpt lat="46.56376" lon="0.19923">
        <ele>180.5</ele>
        <time>2019-12-01T09:46:12.000Z</time>
      </trkpt>
      <trkpt lat="46.56367" lon="0.1992">
        <ele>180.77</ele>
        <time>2019-12-01T09:46:15.000Z</time>
      </trkpt>
      <trkpt lat="46.56358" lon="0.19916">
        <ele>181</ele>
        <time>2019-12-01T09:46:18.000Z</time>
      </trkpt>
      <trkpt lat="46.56348" lon="0.19913">
        <ele>181.23</ele>
        <time>2019-12-01T09:46:21.000Z</time>
      </trkpt>
      <trkpt lat="46.56335" lon="0.19911">
        <ele>181.47</ele>
        <time>2019-12-01T09:46:24.000Z</time>
      </trkpt>
      <trkpt lat="46.56324" lon="0.19908">
        <ele>181.95</ele>
        <time>2019-12-01T09:46:28.000Z</time>
      </trkpt>
      <trkpt lat="46.56314" lon="0.19906">
        <ele>182.34</ele>
        <time>2019-12-01T09:46:31.000Z</time>
      </trkpt>
      <trkpt lat="46.56301" lon="0.19901">
        <ele>182.62</ele>
        <time>2019-12-01T09:46:34.000Z</time>
      </trkpt>
      <trkpt lat="46.56292" lon="0.19899">
        <ele>182.83</ele>
        <time>2019-12-01T09:46:36.000Z</time>
      </trkpt>
      <trkpt lat="46.56282" lon="0.19894">
        <ele>185.89</ele>
        <time>2019-12-01T09:46:39.000Z</time>
      </trkpt>
      <trkpt lat="46.56272" lon="0.1989">
        <ele>187.43</ele>
        <time>2019-12-01T09:46:42.000Z</time>
      </trkpt>
      <trkpt lat="46.56262" lon="0.19885">
        <ele>187.79</ele>
        <time>2019-12-01T09:46:45.000Z</time>
      </trkpt>
      <trkpt lat="46.56252" lon="0.19882">
        <ele>189.63</ele>
        <time>2019-12-01T09:46:48.000Z</time>
      </trkpt>
      <trkpt lat="46.56241" lon="0.19877">
        <ele>189.98</ele>
        <time>2019-12-01T09:46:51.000Z</time>
      </trkpt>
      <trkpt lat="46.56232" lon="0.19872">
        <ele>191.38</ele>
        <time>2019-12-01T09:46:54.000Z</time>
      </trkpt>
      <trkpt lat="46.56221" lon="0.19866">
        <ele>193.32</ele>
        <time>2019-12-01T09:46:57.000Z</time>
      </trkpt>
      <trkpt lat="46.5621" lon="0.1986">
        <ele>193.02</ele>
        <time>2019-12-01T09:47:00.000Z</time>
      </trkpt>
      <trkpt lat="46.56198" lon="0.19853">
        <ele>192.94</ele>
        <time>2019-12-01T09:47:03.000Z</time>
      </trkpt>
      <trkpt lat="46.56187" lon="0.19848">
        <ele>192.89</ele>
        <time>2019-12-01T09:47:06.000Z</time>
      </trkpt>
      <trkpt lat="46.56177" lon="0.19845">
        <ele>192.18</ele>
        <time>2019-12-01T09:47:09.000Z</time>
      </trkpt>
      <trkpt lat="46.56167" lon="0.19839">
        <ele>191.97</ele>
        <time>2019-12-01T09:47:13.000Z</time>
      </trkpt>
      <trkpt lat="46.56156" lon="0.1984">
        <ele>191.25</ele>
        <time>2019-12-01T09:47:16.000Z</time>
      </trkpt>
      <trkpt lat="46.56144" lon="0.19839">
        <ele>190.89</ele>
        <time>2019-12-01T09:47:19.000Z</time>
      </trkpt>
      <trkpt lat="46.56132" lon="0.19843">
        <ele>191.95</ele>
        <time>2019-12-01T09:47:22.000Z</time>
      </trkpt>
      <trkpt lat="46.56121" lon="0.19847">
        <ele>192.62</ele>
        <time>2019-12-01T09:47:25.000Z</time>
      </trkpt>
      <trkpt lat="46.56111" lon="0.1985">
        <ele>192.9</ele>
        <time>2019-12-01T09:47:28.000Z</time>
      </trkpt>
      <trkpt lat="46.56101" lon="0.19852">
        <ele>196.23</ele>
        <time>2019-12-01T09:47:31.000Z</time>
      </trkpt>
      <trkpt lat="46.5609" lon="0.19852">
        <ele>199.4</ele>
        <time>2019-12-01T09:47:34.000Z</time>
      </trkpt>
      <trkpt lat="46.5608" lon="0.1985">
        <ele>200.52</ele>
        <time>2019-12-01T09:47:36.000Z</time>
      </trkpt>
      <trkpt lat="46.5607" lon="0.19847">
        <ele>200.98</ele>
        <time>2019-12-01T09:47:38.000Z</time>
      </trkpt>
      <trkpt lat="46.56059" lon="0.19845">
        <ele>200.47</ele>
        <time>2019-12-01T09:47:40.000Z</time>
      </trkpt>
      <trkpt lat="46.56045" lon="0.19841">
        <ele>199.76</ele>
        <time>2019-12-01T09:47:42.000Z</time>
      </trkpt>
      <trkpt lat="46.56034" lon="0.19837">
        <ele>198.39</ele>
        <time>2019-12-01T09:47:44.000Z</time>
      </trkpt>
      <trkpt lat="46.56024" lon="0.19833">
        <ele>197.08</ele>
        <time>2019-12-01T09:47:46.000Z</time>
      </trkpt>
      <trkpt lat="46.56015" lon="0.19827">
        <ele>196.06</ele>
        <time>2019-12-01T09:47:48.000Z</time>
      </trkpt>
      <trkpt lat="46.56002" lon="0.19818">
        <ele>194.65</ele>
        <time>2019-12-01T09:47:51.000Z</time>
      </trkpt>
      <trkpt lat="46.55995" lon="0.1981">
        <ele>193.7</ele>
        <time>2019-12-01T09:47:53.000Z</time>
      </trkpt>
      <trkpt lat="46.55987" lon="0.198">
        <ele>193.89</ele>
        <time>2019-12-01T09:47:55.000Z</time>
      </trkpt>
      <trkpt lat="46.55978" lon="0.19789">
        <ele>195.23</ele>
        <time>2019-12-01T09:47:58.000Z</time>
      </trkpt>
      <trkpt lat="46.55968" lon="0.19776">
        <ele>196.29</ele>
        <time>2019-12-01T09:48:01.000Z</time>
      </trkpt>
      <trkpt lat="46.55966" lon="0.1976">
        <ele>196.85</ele>
        <time>2019-12-01T09:48:05.000Z</time>
      </trkpt>
      <trkpt lat="46.55967" lon="0.19744">
        <ele>198.98</ele>
        <time>2019-12-01T09:48:08.000Z</time>
      </trkpt>
      <trkpt lat="46.55967" lon="0.1973">
        <ele>201.42</ele>
        <time>2019-12-01T09:48:10.000Z</time>
      </trkpt>
      <trkpt lat="46.55967" lon="0.19714">
        <ele>201.94</ele>
        <time>2019-12-01T09:48:12.000Z</time>
      </trkpt>
      <trkpt lat="46.55963" lon="0.19696">
        <ele>200.37</ele>
        <time>2019-12-01T09:48:15.000Z</time>
      </trkpt>
      <trkpt lat="46.55961" lon="0.19682">
        <ele>199.66</ele>
        <time>2019-12-01T09:48:17.000Z</time>
      </trkpt>
      <trkpt lat="46.55954" lon="0.19665">
        <ele>197.32</ele>
        <time>2019-12-01T09:48:20.000Z</time>
      </trkpt>
      <trkpt lat="46.55947" lon="0.1965">
        <ele>196.28</ele>
        <time>2019-12-01T09:48:23.000Z</time>
      </trkpt>
      <trkpt lat="46.55941" lon="0.19636">
        <ele>196.08</ele>
        <time>2019-12-01T09:48:27.000Z</time>
      </trkpt>
      <trkpt lat="46.55935" lon="0.19621">
        <ele>196</ele>
        <time>2019-12-01T09:48:31.000Z</time>
      </trkpt>
      <trkpt lat="46.55929" lon="0.19606">
        <ele>196.39</ele>
        <time>2019-12-01T09:48:35.000Z</time>
      </trkpt>
      <trkpt lat="46.55926" lon="0.19593">
        <ele>196.95</ele>
        <time>2019-12-01T09:48:38.000Z</time>
      </trkpt>
      <trkpt lat="46.55922" lon="0.19578">
        <ele>197.57</ele>
        <time>2019-12-01T09:48:41.000Z</time>
      </trkpt>
      <trkpt lat="46.5592" lon="0.19564">
        <ele>198.6</ele>
        <time>2019-12-01T09:48:46.000Z</time>
      </trkpt>
      <trkpt lat="46.55917" lon="0.19548">
        <ele>199.15</ele>
        <time>2019-12-01T09:48:49.000Z</time>
      </trkpt>
      <trkpt lat="46.55915" lon="0.19529">
        <ele>199.69</ele>
        <time>2019-12-01T09:48:52.000Z</time>
      </trkpt>
      <trkpt lat="46.55916" lon="0.19511">
        <ele>200.05</ele>
        <time>2019-12-01T09:48:55.000Z</time>
      </trkpt>
      <trkpt lat="46.55916" lon="0.19492">
        <ele>200.41</ele>
        <time>2019-12-01T09:48:58.000Z</time>
      </trkpt>
      <trkpt lat="46.55918" lon="0.19473">
        <ele>200.39</ele>
        <time>2019-12-01T09:49:01.000Z</time>
      </trkpt>
      <trkpt lat="46.5592" lon="0.19457">
        <ele>200.41</ele>
        <time>2019-12-01T09:49:05.000Z</time>
      </trkpt>
      <trkpt lat="46.55923" lon="0.19439">
        <ele>200.61</ele>
        <time>2019-12-01T09:49:08.000Z</time>
      </trkpt>
      <trkpt lat="46.55924" lon="0.19424">
        <ele>200.57</ele>
        <time>2019-12-01T09:49:10.000Z</time>
      </trkpt>
      <trkpt lat="46.55931" lon="0.19407">
        <ele>197.66</ele>
        <time>2019-12-01T09:49:13.000Z</time>
      </trkpt>
      <trkpt lat="46.55937" lon="0.19393">
        <ele>196.23</ele>
        <time>2019-12-01T09:49:15.000Z</time>
      </trkpt>
      <trkpt lat="46.55941" lon="0.19378">
        <ele>195.04</ele>
        <time>2019-12-01T09:49:17.000Z</time>
      </trkpt>
      <trkpt lat="46.55945" lon="0.19362">
        <ele>194.58</ele>
        <time>2019-12-01T09:49:19.000Z</time>
      </trkpt>
      <trkpt lat="46.5595" lon="0.19346">
        <ele>193.67</ele>
        <time>2019-12-01T09:49:21.000Z</time>
      </trkpt>
      <trkpt lat="46.55956" lon="0.19334">
        <ele>193.63</ele>
        <time>2019-12-01T09:49:23.000Z</time>
      </trkpt>
      <trkpt lat="46.55961" lon="0.19317">
        <ele>193.35</ele>
        <time>2019-12-01T09:49:26.000Z</time>
      </trkpt>
      <trkpt lat="46.55966" lon="0.19301">
        <ele>193.76</ele>
        <time>2019-12-01T09:49:29.000Z</time>
      </trkpt>
      <trkpt lat="46.55972" lon="0.19284">
        <ele>193.82</ele>
        <time>2019-12-01T09:49:31.000Z</time>
      </trkpt>
      <trkpt lat="46.55978" lon="0.19271">
        <ele>194.19</ele>
        <time>2019-12-01T09:49:33.000Z</time>
      </trkpt>
      <trkpt lat="46.55984" lon="0.19262">
        <ele>194.22</ele>
        <time>2019-12-01T09:49:35.000Z</time>
      </trkpt>
      <trkpt lat="46.5599" lon="0.19253">
        <ele>194.15</ele>
        <time>2019-12-01T09:49:38.000Z</time>
      </trkpt>
      <trkpt lat="46.55991" lon="0.19266">
        <ele>194.09</ele>
        <time>2019-12-01T09:49:42.000Z</time>
      </trkpt>
      <trkpt lat="46.55983" lon="0.19279">
        <ele>194.1</ele>
        <time>2019-12-01T09:49:45.000Z</time>
      </trkpt>
      <trkpt lat="46.55978" lon="0.19291">
        <ele>194.36</ele>
        <time>2019-12-01T09:49:48.000Z</time>
      </trkpt>
      <trkpt lat="46.55974" lon="0.19306">
        <ele>194.68</ele>
        <time>2019-12-01T09:49:51.000Z</time>
      </trkpt>
      <trkpt lat="46.55971" lon="0.19319">
        <ele>194.93</ele>
        <time>2019-12-01T09:49:53.000Z</time>
      </trkpt>
      <trkpt lat="46.55968" lon="0.19332">
        <ele>195.15</ele>
        <time>2019-12-01T09:49:55.000Z</time>
      </trkpt>
      <trkpt lat="46.55964" lon="0.19349">
        <ele>195.37</ele>
        <time>2019-12-01T09:49:58.000Z</time>
      </trkpt>
      <trkpt lat="46.5596" lon="0.19367">
        <ele>195.99</ele>
        <time>2019-12-01T09:50:01.000Z</time>
      </trkpt>
      <trkpt lat="46.55955" lon="0.19381">
        <ele>196.08</ele>
        <time>2019-12-01T09:50:04.000Z</time>
      </trkpt>
      <trkpt lat="46.55948" lon="0.1939">
        <ele>196.38</ele>
        <time>2019-12-01T09:50:07.000Z</time>
      </trkpt>
      <trkpt lat="46.55959" lon="0.19392">
        <ele>197.07</ele>
        <time>2019-12-01T09:50:12.000Z</time>
      </trkpt>
      <trkpt lat="46.55973" lon="0.19393">
        <ele>197.53</ele>
        <time>2019-12-01T09:50:15.000Z</time>
      </trkpt>
      <trkpt lat="46.55982" lon="0.19392">
        <ele>197.76</ele>
        <time>2019-12-01T09:50:17.000Z</time>
      </trkpt>
      <trkpt lat="46.55992" lon="0.19393">
        <ele>198.02</ele>
        <time>2019-12-01T09:50:20.000Z</time>
      </trkpt>
      <trkpt lat="46.56003" lon="0.19397">
        <ele>198.11</ele>
        <time>2019-12-01T09:50:24.000Z</time>
      </trkpt>
      <trkpt lat="46.56016" lon="0.19398">
        <ele>198.51</ele>
        <time>2019-12-01T09:50:27.000Z</time>
      </trkpt>
      <trkpt lat="46.56027" lon="0.19397">
        <ele>198.9</ele>
        <time>2019-12-01T09:50:29.000Z</time>
      </trkpt>
      <trkpt lat="46.56037" lon="0.19398">
        <ele>199.32</ele>
        <time>2019-12-01T09:50:31.000Z</time>
      </trkpt>
      <trkpt lat="46.56048" lon="0.19402">
        <ele>199.84</ele>
        <time>2019-12-01T09:50:34.000Z</time>
      </trkpt>
      <trkpt lat="46.56058" lon="0.19402">
        <ele>200.38</ele>
        <time>2019-12-01T09:50:37.000Z</time>
      </trkpt>
      <trkpt lat="46.5607" lon="0.19403">
        <ele>200.91</ele>
        <time>2019-12-01T09:50:40.000Z</time>
      </trkpt>
      <trkpt lat="46.56079" lon="0.19403">
        <ele>201.28</ele>
        <time>2019-12-01T09:50:42.000Z</time>
      </trkpt>
      <trkpt lat="46.5609" lon="0.19404">
        <ele>201.9</ele>
        <time>2019-12-01T09:50:45.000Z</time>
      </trkpt>
      <trkpt lat="46.56101" lon="0.19406">
        <ele>202.84</ele>
        <time>2019-12-01T09:50:49.000Z</time>
      </trkpt>
      <trkpt lat="46.56112" lon="0.19409">
        <ele>203.23</ele>
        <time>2019-12-01T09:50:52.000Z</time>
      </trkpt>
      <trkpt lat="46.56116" lon="0.19422">
        <ele>203.49</ele>
        <time>2019-12-01T09:50:55.000Z</time>
      </trkpt>
      <trkpt lat="46.56117" lon="0.19436">
        <ele>203.73</ele>
        <time>2019-12-01T09:50:58.000Z</time>
      </trkpt>
      <trkpt lat="46.56117" lon="0.19451">
        <ele>203.82</ele>
        <time>2019-12-01T09:51:01.000Z</time>
      </trkpt>
      <trkpt lat="46.56116" lon="0.19466">
        <ele>203.68</ele>
        <time>2019-12-01T09:51:05.000Z</time>
      </trkpt>
      <trkpt lat="46.56116" lon="0.1948">
        <ele>203.27</ele>
        <time>2019-12-01T09:51:10.000Z</time>
      </trkpt>
      <trkpt lat="46.56115" lon="0.19494">
        <ele>202.88</ele>
        <time>2019-12-01T09:51:14.000Z</time>
      </trkpt>
      <trkpt lat="46.56115" lon="0.19509">
        <ele>202.4</ele>
        <time>2019-12-01T09:51:17.000Z</time>
      </trkpt>
      <trkpt lat="46.56113" lon="0.19524">
        <ele>201.72</ele>
        <time>2019-12-01T09:51:21.000Z</time>
      </trkpt>
      <trkpt lat="46.56111" lon="0.19538">
        <ele>201.35</ele>
        <time>2019-12-01T09:51:24.000Z</time>
      </trkpt>
      <trkpt lat="46.56119" lon="0.19544">
        <ele>201.02</ele>
        <time>2019-12-01T09:51:29.000Z</time>
      </trkpt>
      <trkpt lat="46.5613" lon="0.19546">
        <ele>201.49</ele>
        <time>2019-12-01T09:51:34.000Z</time>
      </trkpt>
      <trkpt lat="46.5614" lon="0.19534">
        <ele>202.07</ele>
        <time>2019-12-01T09:51:39.000Z</time>
      </trkpt>
      <trkpt lat="46.56144" lon="0.19519">
        <ele>202.17</ele>
        <time>2019-12-01T09:51:44.000Z</time>
      </trkpt>
      <trkpt lat="46.56141" lon="0.19504">
        <ele>202.12</ele>
        <time>2019-12-01T09:51:47.000Z</time>
      </trkpt>
      <trkpt lat="46.56152" lon="0.19506">
        <ele>201.73</ele>
        <time>2019-12-01T09:51:52.000Z</time>
      </trkpt>
      <trkpt lat="46.56161" lon="0.19512">
        <ele>201.39</ele>
        <time>2019-12-01T09:51:54.000Z</time>
      </trkpt>
      <trkpt lat="46.56171" lon="0.19517">
        <ele>201</ele>
        <time>2019-12-01T09:51:57.000Z</time>
      </trkpt>
      <trkpt lat="46.56183" lon="0.19522">
        <ele>200.91</ele>
        <time>2019-12-01T09:52:00.000Z</time>
      </trkpt>
      <trkpt lat="46.56196" lon="0.19531">
        <ele>200.84</ele>
        <time>2019-12-01T09:52:02.000Z</time>
      </trkpt>
      <trkpt lat="46.56206" lon="0.19535">
        <ele>199.42</ele>
        <time>2019-12-01T09:52:04.000Z</time>
      </trkpt>
      <trkpt lat="46.56218" lon="0.19537">
        <ele>198.09</ele>
        <time>2019-12-01T09:52:06.000Z</time>
      </trkpt>
      <trkpt lat="46.5623" lon="0.19535">
        <ele>197.77</ele>
        <time>2019-12-01T09:52:09.000Z</time>
      </trkpt>
      <trkpt lat="46.5624" lon="0.19538">
        <ele>197.46</ele>
        <time>2019-12-01T09:52:12.000Z</time>
      </trkpt>
      <trkpt lat="46.56239" lon="0.19522">
        <ele>196.69</ele>
        <time>2019-12-01T09:52:18.000Z</time>
      </trkpt>
      <trkpt lat="46.56234" lon="0.1951">
        <ele>196.39</ele>
        <time>2019-12-01T09:52:22.000Z</time>
      </trkpt>
      <trkpt lat="46.56228" lon="0.19495">
        <ele>196.01</ele>
        <time>2019-12-01T09:52:25.000Z</time>
      </trkpt>
      <trkpt lat="46.5623" lon="0.19478">
        <ele>195.59</ele>
        <time>2019-12-01T09:52:30.000Z</time>
      </trkpt>
      <trkpt lat="46.56228" lon="0.19465">
        <ele>195.36</ele>
        <time>2019-12-01T09:52:33.000Z</time>
      </trkpt>
      <trkpt lat="46.56226" lon="0.19451">
        <ele>195.06</ele>
        <time>2019-12-01T09:52:36.000Z</time>
      </trkpt>
      <trkpt lat="46.56224" lon="0.19435">
        <ele>194.72</ele>
        <time>2019-12-01T09:52:38.000Z</time>
      </trkpt>
      <trkpt lat="46.56221" lon="0.19419">
        <ele>194.34</ele>
        <time>2019-12-01T09:52:40.000Z</time>
      </trkpt>
      <trkpt lat="46.56216" lon="0.19402">
        <ele>193.79</ele>
        <time>2019-12-01T09:52:43.000Z</time>
      </trkpt>
      <trkpt lat="46.56204" lon="0.19395">
        <ele>193.33</ele>
        <time>2019-12-01T09:52:46.000Z</time>
      </trkpt>
      <trkpt lat="46.56198" lon="0.19384">
        <ele>193.36</ele>
        <time>2019-12-01T09:52:53.000Z</time>
      </trkpt>
      <trkpt lat="46.5619" lon="0.19374">
        <ele>193.49</ele>
        <time>2019-12-01T09:52:57.000Z</time>
      </trkpt>
      <trkpt lat="46.56181" lon="0.19363">
        <ele>193.76</ele>
        <time>2019-12-01T09:53:01.000Z</time>
      </trkpt>
      <trkpt lat="46.56173" lon="0.19349">
        <ele>193.87</ele>
        <time>2019-12-01T09:53:04.000Z</time>
      </trkpt>
      <trkpt lat="46.56166" lon="0.19334">
        <ele>193.93</ele>
        <time>2019-12-01T09:53:07.000Z</time>
      </trkpt>
      <trkpt lat="46.56157" lon="0.19322">
        <ele>193.97</ele>
        <time>2019-12-01T09:53:12.000Z</time>
      </trkpt>
      <trkpt lat="46.5615" lon="0.19312">
        <ele>194.06</ele>
        <time>2019-12-01T09:53:15.000Z</time>
      </trkpt>
      <trkpt lat="46.56139" lon="0.19306">
        <ele>194.07</ele>
        <time>2019-12-01T09:53:19.000Z</time>
      </trkpt>
      <trkpt lat="46.56132" lon="0.19293">
        <ele>193.61</ele>
        <time>2019-12-01T09:53:24.000Z</time>
      </trkpt>
      <trkpt lat="46.56131" lon="0.19278">
        <ele>193.44</ele>
        <time>2019-12-01T09:53:26.000Z</time>
      </trkpt>
      <trkpt lat="46.56137" lon="0.19268">
        <ele>193.07</ele>
        <time>2019-12-01T09:53:29.000Z</time>
      </trkpt>
      <trkpt lat="46.56147" lon="0.19253">
        <ele>192.57</ele>
        <time>2019-12-01T09:53:32.000Z</time>
      </trkpt>
      <trkpt lat="46.56156" lon="0.19242">
        <ele>191.89</ele>
        <time>2019-12-01T09:53:35.000Z</time>
      </trkpt>
      <trkpt lat="46.56165" lon="0.19238">
        <ele>191.49</ele>
        <time>2019-12-01T09:53:37.000Z</time>
      </trkpt>
      <trkpt lat="46.56177" lon="0.19236">
        <ele>191.14</ele>
        <time>2019-12-01T09:53:39.000Z</time>
      </trkpt>
      <trkpt lat="46.56186" lon="0.19228">
        <ele>190.87</ele>
        <time>2019-12-01T09:53:41.000Z</time>
      </trkpt>
      <trkpt lat="46.56198" lon="0.19238">
        <ele>190.32</ele>
        <time>2019-12-01T09:53:44.000Z</time>
      </trkpt>
      <trkpt lat="46.56204" lon="0.19252">
        <ele>189.25</ele>
        <time>2019-12-01T09:53:48.000Z</time>
      </trkpt>
      <trkpt lat="46.56213" lon="0.19247">
        <ele>186.05</ele>
        <time>2019-12-01T09:53:55.000Z</time>
      </trkpt>
      <trkpt lat="46.5621" lon="0.19232">
        <ele>184.18</ele>
        <time>2019-12-01T09:53:59.000Z</time>
      </trkpt>
      <trkpt lat="46.56209" lon="0.19217">
        <ele>182.56</ele>
        <time>2019-12-01T09:54:03.000Z</time>
      </trkpt>
      <trkpt lat="46.56212" lon="0.19199">
        <ele>180.82</ele>
        <time>2019-12-01T09:54:08.000Z</time>
      </trkpt>
      <trkpt lat="46.56212" lon="0.19185">
        <ele>179.9</ele>
        <time>2019-12-01T09:54:11.000Z</time>
      </trkpt>
      <trkpt lat="46.56214" lon="0.19169">
        <ele>178.38</ele>
        <time>2019-12-01T09:54:15.000Z</time>
      </trkpt>
      <trkpt lat="46.56217" lon="0.19155">
        <ele>177.38</ele>
        <time>2019-12-01T09:54:20.000Z</time>
      </trkpt>
      <trkpt lat="46.56222" lon="0.19143">
        <ele>177</ele>
        <time>2019-12-01T09:54:23.000Z</time>
      </trkpt>
      <trkpt lat="46.5623" lon="0.19132">
        <ele>176.96</ele>
        <time>2019-12-01T09:54:26.000Z</time>
      </trkpt>
      <trkpt lat="46.56238" lon="0.19122">
        <ele>177.22</ele>
        <time>2019-12-01T09:54:30.000Z</time>
      </trkpt>
      <trkpt lat="46.56251" lon="0.19115">
        <ele>177.54</ele>
        <time>2019-12-01T09:54:34.000Z</time>
      </trkpt>
      <trkpt lat="46.56259" lon="0.19106">
        <ele>177.25</ele>
        <time>2019-12-01T09:54:37.000Z</time>
      </trkpt>
      <trkpt lat="46.56269" lon="0.19102">
        <ele>176.37</ele>
        <time>2019-12-01T09:54:41.000Z</time>
      </trkpt>
      <trkpt lat="46.56281" lon="0.19099">
        <ele>174.97</ele>
        <time>2019-12-01T09:54:46.000Z</time>
      </trkpt>
      <trkpt lat="46.56291" lon="0.19095">
        <ele>174.07</ele>
        <time>2019-12-01T09:54:49.000Z</time>
      </trkpt>
      <trkpt lat="46.563" lon="0.19097">
        <ele>173.21</ele>
        <time>2019-12-01T09:54:52.000Z</time>
      </trkpt>
      <trkpt lat="46.56313" lon="0.19099">
        <ele>171.85</ele>
        <time>2019-12-01T09:54:57.000Z</time>
      </trkpt>
      <trkpt lat="46.56324" lon="0.19101">
        <ele>171.16</ele>
        <time>2019-12-01T09:55:00.000Z</time>
      </trkpt>
      <trkpt lat="46.56336" lon="0.19101">
        <ele>169.48</ele>
        <time>2019-12-01T09:55:03.000Z</time>
      </trkpt>
      <trkpt lat="46.56347" lon="0.191">
        <ele>169.28</ele>
        <time>2019-12-01T09:55:05.000Z</time>
      </trkpt>
      <trkpt lat="46.56359" lon="0.19098">
        <ele>168.99</ele>
        <time>2019-12-01T09:55:07.000Z</time>
      </trkpt>
      <trkpt lat="46.5637" lon="0.191">
        <ele>168.42</ele>
        <time>2019-12-01T09:55:10.000Z</time>
      </trkpt>
      <trkpt lat="46.5638" lon="0.19104">
        <ele>167.83</ele>
        <time>2019-12-01T09:55:13.000Z</time>
      </trkpt>
      <trkpt lat="46.56389" lon="0.1911">
        <ele>167.2</ele>
        <time>2019-12-01T09:55:16.000Z</time>
      </trkpt>
      <trkpt lat="46.56398" lon="0.19115">
        <ele>166.56</ele>
        <time>2019-12-01T09:55:19.000Z</time>
      </trkpt>
      <trkpt lat="46.56409" lon="0.19112">
        <ele>165.65</ele>
        <time>2019-12-01T09:55:23.000Z</time>
      </trkpt>
      <trkpt lat="46.56421" lon="0.19103">
        <ele>165.02</ele>
        <time>2019-12-01T09:55:27.000Z</time>
      </trkpt>
      <trkpt lat="46.56427" lon="0.19093">
        <ele>164.66</ele>
        <time>2019-12-01T09:55:31.000Z</time>
      </trkpt>
      <trkpt lat="46.56422" lon="0.19082">
        <ele>163.46</ele>
        <time>2019-12-01T09:55:36.000Z</time>
      </trkpt>
      <trkpt lat="46.56417" lon="0.19067">
        <ele>162.58</ele>
        <time>2019-12-01T09:55:40.000Z</time>
      </trkpt>
      <trkpt lat="46.56413" lon="0.19053">
        <ele>162.08</ele>
        <time>2019-12-01T09:55:43.000Z</time>
      </trkpt>
      <trkpt lat="46.56407" lon="0.19043">
        <ele>161.64</ele>
        <time>2019-12-01T09:55:46.000Z</time>
      </trkpt>
      <trkpt lat="46.564" lon="0.19031">
        <ele>161.27</ele>
        <time>2019-12-01T09:55:49.000Z</time>
      </trkpt>
      <trkpt lat="46.56396" lon="0.19018">
        <ele>161.03</ele>
        <time>2019-12-01T09:55:52.000Z</time>
      </trkpt>
      <trkpt lat="46.56393" lon="0.19004">
        <ele>160.95</ele>
        <time>2019-12-01T09:55:56.000Z</time>
      </trkpt>
      <trkpt lat="46.5639" lon="0.18989">
        <ele>161.16</ele>
        <time>2019-12-01T09:56:00.000Z</time>
      </trkpt>
      <trkpt lat="46.56392" lon="0.18974">
        <ele>161.52</ele>
        <time>2019-12-01T09:56:04.000Z</time>
      </trkpt>
      <trkpt lat="46.56399" lon="0.18958">
        <ele>162.03</ele>
        <time>2019-12-01T09:56:09.000Z</time>
      </trkpt>
      <trkpt lat="46.56405" lon="0.18948">
        <ele>162.67</ele>
        <time>2019-12-01T09:56:13.000Z</time>
      </trkpt>
      <trkpt lat="46.56402" lon="0.18934">
        <ele>163.73</ele>
        <time>2019-12-01T09:56:21.000Z</time>
      </trkpt>
      <trkpt lat="46.56392" lon="0.18926">
        <ele>164.81</ele>
        <time>2019-12-01T09:56:29.000Z</time>
      </trkpt>
      <trkpt lat="46.56384" lon="0.18919">
        <ele>165.57</ele>
        <time>2019-12-01T09:56:37.000Z</time>
      </trkpt>
      <trkpt lat="46.56375" lon="0.1891">
        <ele>166.48</ele>
        <time>2019-12-01T09:56:43.000Z</time>
      </trkpt>
      <trkpt lat="46.56366" lon="0.18904">
        <ele>168.41</ele>
        <time>2019-12-01T09:56:51.000Z</time>
      </trkpt>
      <trkpt lat="46.56357" lon="0.18897">
        <ele>169.62</ele>
        <time>2019-12-01T09:56:56.000Z</time>
      </trkpt>
      <trkpt lat="46.56351" lon="0.18887">
        <ele>170.97</ele>
        <time>2019-12-01T09:57:02.000Z</time>
      </trkpt>
      <trkpt lat="46.56343" lon="0.18876">
        <ele>172.16</ele>
        <time>2019-12-01T09:57:11.000Z</time>
      </trkpt>
      <trkpt lat="46.56335" lon="0.18868">
        <ele>172.93</ele>
        <time>2019-12-01T09:57:17.000Z</time>
      </trkpt>
      <trkpt lat="46.56329" lon="0.18857">
        <ele>173.86</ele>
        <time>2019-12-01T09:57:24.000Z</time>
      </trkpt>
      <trkpt lat="46.56325" lon="0.18845">
        <ele>174.26</ele>
        <time>2019-12-01T09:57:29.000Z</time>
      </trkpt>
      <trkpt lat="46.56317" lon="0.18841">
        <ele>174.78</ele>
        <time>2019-12-01T09:57:35.000Z</time>
      </trkpt>
      <trkpt lat="46.56306" lon="0.18842">
        <ele>175.16</ele>
        <time>2019-12-01T09:57:38.000Z</time>
      </trkpt>
      <trkpt lat="46.56295" lon="0.18841">
        <ele>175.67</ele>
        <time>2019-12-01T09:57:42.000Z</time>
      </trkpt>
      <trkpt lat="46.56287" lon="0.18834">
        <ele>176.24</ele>
        <time>2019-12-01T09:57:48.000Z</time>
      </trkpt>
      <trkpt lat="46.56276" lon="0.18841">
        <ele>176.5</ele>
        <time>2019-12-01T09:57:55.000Z</time>
      </trkpt>
      <trkpt lat="46.56267" lon="0.18847">
        <ele>176.46</ele>
        <time>2019-12-01T09:58:02.000Z</time>
      </trkpt>
      <trkpt lat="46.56259" lon="0.18856">
        <ele>176.14</ele>
        <time>2019-12-01T09:58:08.000Z</time>
      </trkpt>
      <trkpt lat="46.56252" lon="0.18865">
        <ele>176.06</ele>
        <time>2019-12-01T09:58:17.000Z</time>
      </trkpt>
      <trkpt lat="46.56243" lon="0.1887">
        <ele>177.29</ele>
        <time>2019-12-01T09:58:25.000Z</time>
      </trkpt>
      <trkpt lat="46.56234" lon="0.18876">
        <ele>179.05</ele>
        <time>2019-12-01T09:58:34.000Z</time>
      </trkpt>
      <trkpt lat="46.56225" lon="0.18886">
        <ele>179.91</ele>
        <time>2019-12-01T09:58:41.000Z</time>
      </trkpt>
      <trkpt lat="46.56217" lon="0.18897">
        <ele>180.04</ele>
        <time>2019-12-01T09:58:46.000Z</time>
      </trkpt>
      <trkpt lat="46.56209" lon="0.18904">
        <ele>180.3</ele>
        <time>2019-12-01T09:58:52.000Z</time>
      </trkpt>
      <trkpt lat="46.562" lon="0.18907">
        <ele>180.51</ele>
        <time>2019-12-01T09:58:57.000Z</time>
      </trkpt>
      <trkpt lat="46.56194" lon="0.18918">
        <ele>180.91</ele>
        <time>2019-12-01T09:59:03.000Z</time>
      </trkpt>
      <trkpt lat="46.56186" lon="0.18927">
        <ele>181.86</ele>
        <time>2019-12-01T09:59:11.000Z</time>
      </trkpt>
      <trkpt lat="46.56179" lon="0.18934">
        <ele>182.65</ele>
        <time>2019-12-01T09:59:18.000Z</time>
      </trkpt>
      <trkpt lat="46.5617" lon="0.18937">
        <ele>183.59</ele>
        <time>2019-12-01T09:59:28.000Z</time>
      </trkpt>
      <trkpt lat="46.5616" lon="0.18932">
        <ele>184.12</ele>
        <time>2019-12-01T09:59:35.000Z</time>
      </trkpt>
      <trkpt lat="46.56154" lon="0.18922">
        <ele>184.5</ele>
        <time>2019-12-01T09:59:40.000Z</time>
      </trkpt>
      <trkpt lat="46.56151" lon="0.18907">
        <ele>185.38</ele>
        <time>2019-12-01T09:59:46.000Z</time>
      </trkpt>
      <trkpt lat="46.56149" lon="0.18894">
        <ele>185.79</ele>
        <time>2019-12-01T09:59:50.000Z</time>
      </trkpt>
      <trkpt lat="46.56144" lon="0.1888">
        <ele>186.01</ele>
        <time>2019-12-01T10:00:05.000Z</time>
      </trkpt>
      <trkpt lat="46.56145" lon="0.18864">
        <ele>185.79</ele>
        <time>2019-12-01T10:00:10.000Z</time>
      </trkpt>
      <trkpt lat="46.56143" lon="0.18849">
        <ele>185.42</ele>
        <time>2019-12-01T10:00:14.000Z</time>
      </trkpt>
      <trkpt lat="46.5614" lon="0.18835">
        <ele>184.99</ele>
        <time>2019-12-01T10:00:17.000Z</time>
      </trkpt>
      <trkpt lat="46.56137" lon="0.1882">
        <ele>184.85</ele>
        <time>2019-12-01T10:00:23.000Z</time>
      </trkpt>
      <trkpt lat="46.56127" lon="0.18813">
        <ele>185.02</ele>
        <time>2019-12-01T10:00:28.000Z</time>
      </trkpt>
      <trkpt lat="46.56117" lon="0.18811">
        <ele>185.11</ele>
        <time>2019-12-01T10:00:32.000Z</time>
      </trkpt>
      <trkpt lat="46.56107" lon="0.18805">
        <ele>185.11</ele>
        <time>2019-12-01T10:00:36.000Z</time>
      </trkpt>
      <trkpt lat="46.56097" lon="0.18801">
        <ele>185.12</ele>
        <time>2019-12-01T10:00:40.000Z</time>
      </trkpt>
      <trkpt lat="46.56085" lon="0.18799">
        <ele>185.24</ele>
        <time>2019-12-01T10:00:47.000Z</time>
      </trkpt>
      <trkpt lat="46.56076" lon="0.18801">
        <ele>185.67</ele>
        <time>2019-12-01T10:00:51.000Z</time>
      </trkpt>
      <trkpt lat="46.56066" lon="0.18803">
        <ele>186.24</ele>
        <time>2019-12-01T10:00:56.000Z</time>
      </trkpt>
      <trkpt lat="46.56055" lon="0.18805">
        <ele>186.64</ele>
        <time>2019-12-01T10:01:01.000Z</time>
      </trkpt>
      <trkpt lat="46.56045" lon="0.18804">
        <ele>186.83</ele>
        <time>2019-12-01T10:01:06.000Z</time>
      </trkpt>
      <trkpt lat="46.56034" lon="0.18808">
        <ele>186.64</ele>
        <time>2019-12-01T10:01:11.000Z</time>
      </trkpt>
      <trkpt lat="46.56025" lon="0.1881">
        <ele>186.15</ele>
        <time>2019-12-01T10:01:15.000Z</time>
      </trkpt>
      <trkpt lat="46.56016" lon="0.1881">
        <ele>185.8</ele>
        <time>2019-12-01T10:01:20.000Z</time>
      </trkpt>
      <trkpt lat="46.56007" lon="0.18815">
        <ele>185.68</ele>
        <time>2019-12-01T10:01:23.000Z</time>
      </trkpt>
      <trkpt lat="46.55996" lon="0.18816">
        <ele>185.58</ele>
        <time>2019-12-01T10:01:27.000Z</time>
      </trkpt>
      <trkpt lat="46.55984" lon="0.18814">
        <ele>185.4</ele>
        <time>2019-12-01T10:01:30.000Z</time>
      </trkpt>
      <trkpt lat="46.55975" lon="0.18815">
        <ele>185.27</ele>
        <time>2019-12-01T10:01:33.000Z</time>
      </trkpt>
      <trkpt lat="46.55966" lon="0.18817">
        <ele>185.21</ele>
        <time>2019-12-01T10:01:37.000Z</time>
      </trkpt>
      <trkpt lat="46.55955" lon="0.1882">
        <ele>184.86</ele>
        <time>2019-12-01T10:01:42.000Z</time>
      </trkpt>
      <trkpt lat="46.55945" lon="0.18819">
        <ele>184.67</ele>
        <time>2019-12-01T10:01:46.000Z</time>
      </trkpt>
      <trkpt lat="46.55933" lon="0.18817">
        <ele>184.86</ele>
        <time>2019-12-01T10:01:49.000Z</time>
      </trkpt>
      <trkpt lat="46.55923" lon="0.18816">
        <ele>185.1</ele>
        <time>2019-12-01T10:01:55.000Z</time>
      </trkpt>
      <trkpt lat="46.55912" lon="0.18814">
        <ele>184.8</ele>
        <time>2019-12-01T10:01:59.000Z</time>
      </trkpt>
      <trkpt lat="46.55906" lon="0.18805">
        <ele>184.24</ele>
        <time>2019-12-01T10:02:04.000Z</time>
      </trkpt>
      <trkpt lat="46.55902" lon="0.18792">
        <ele>183.57</ele>
        <time>2019-12-01T10:02:11.000Z</time>
      </trkpt>
      <trkpt lat="46.55894" lon="0.18787">
        <ele>183.39</ele>
        <time>2019-12-01T10:02:20.000Z</time>
      </trkpt>
      <trkpt lat="46.55885" lon="0.18792">
        <ele>183.45</ele>
        <time>2019-12-01T10:02:25.000Z</time>
      </trkpt>
      <trkpt lat="46.55876" lon="0.18802">
        <ele>183.64</ele>
        <time>2019-12-01T10:02:33.000Z</time>
      </trkpt>
      <trkpt lat="46.55867" lon="0.18809">
        <ele>183.7</ele>
        <time>2019-12-01T10:02:38.000Z</time>
      </trkpt>
      <trkpt lat="46.55859" lon="0.18816">
        <ele>184.01</ele>
        <time>2019-12-01T10:02:46.000Z</time>
      </trkpt>
      <trkpt lat="46.55852" lon="0.18826">
        <ele>184.39</ele>
        <time>2019-12-01T10:02:51.000Z</time>
      </trkpt>
      <trkpt lat="46.55844" lon="0.18835">
        <ele>184.93</ele>
        <time>2019-12-01T10:02:57.000Z</time>
      </trkpt>
      <trkpt lat="46.55835" lon="0.18843">
        <ele>185.3</ele>
        <time>2019-12-01T10:03:02.000Z</time>
      </trkpt>
      <trkpt lat="46.55826" lon="0.18851">
        <ele>185.73</ele>
        <time>2019-12-01T10:03:08.000Z</time>
      </trkpt>
      <trkpt lat="46.55818" lon="0.18859">
        <ele>186.13</ele>
        <time>2019-12-01T10:03:12.000Z</time>
      </trkpt>
      <trkpt lat="46.55809" lon="0.18864">
        <ele>186.46</ele>
        <time>2019-12-01T10:03:16.000Z</time>
      </trkpt>
      <trkpt lat="46.55799" lon="0.18871">
        <ele>186.79</ele>
        <time>2019-12-01T10:03:20.000Z</time>
      </trkpt>
      <trkpt lat="46.55791" lon="0.18864">
        <ele>187.84</ele>
        <time>2019-12-01T10:03:27.000Z</time>
      </trkpt>
      <trkpt lat="46.55787" lon="0.18849">
        <ele>188.34</ele>
        <time>2019-12-01T10:03:31.000Z</time>
      </trkpt>
      <trkpt lat="46.55781" lon="0.18837">
        <ele>188.8</ele>
        <time>2019-12-01T10:03:35.000Z</time>
      </trkpt>
      <trkpt lat="46.55772" lon="0.18827">
        <ele>189.24</ele>
        <time>2019-12-01T10:03:39.000Z</time>
      </trkpt>
      <trkpt lat="46.55764" lon="0.18816">
        <ele>189.6</ele>
        <time>2019-12-01T10:03:44.000Z</time>
      </trkpt>
      <trkpt lat="46.55756" lon="0.18804">
        <ele>190.11</ele>
        <time>2019-12-01T10:03:52.000Z</time>
      </trkpt>
      <trkpt lat="46.55749" lon="0.18792">
        <ele>190.31</ele>
        <time>2019-12-01T10:03:58.000Z</time>
      </trkpt>
      <trkpt lat="46.55744" lon="0.18781">
        <ele>190.43</ele>
        <time>2019-12-01T10:04:05.000Z</time>
      </trkpt>
      <trkpt lat="46.55738" lon="0.18771">
        <ele>190.47</ele>
        <time>2019-12-01T10:04:09.000Z</time>
      </trkpt>
      <trkpt lat="46.55731" lon="0.18761">
        <ele>190.49</ele>
        <time>2019-12-01T10:04:16.000Z</time>
      </trkpt>
      <trkpt lat="46.55725" lon="0.18752">
        <ele>190.84</ele>
        <time>2019-12-01T10:04:21.000Z</time>
      </trkpt>
      <trkpt lat="46.5572" lon="0.18739">
        <ele>191.55</ele>
        <time>2019-12-01T10:04:28.000Z</time>
      </trkpt>
      <trkpt lat="46.55715" lon="0.18725">
        <ele>192.12</ele>
        <time>2019-12-01T10:04:33.000Z</time>
      </trkpt>
      <trkpt lat="46.5571" lon="0.18711">
        <ele>192.82</ele>
        <time>2019-12-01T10:04:38.000Z</time>
      </trkpt>
      <trkpt lat="46.55708" lon="0.18698">
        <ele>193.03</ele>
        <time>2019-12-01T10:04:41.000Z</time>
      </trkpt>
      <trkpt lat="46.55703" lon="0.18688">
        <ele>193.23</ele>
        <time>2019-12-01T10:04:44.000Z</time>
      </trkpt>
      <trkpt lat="46.55698" lon="0.18676">
        <ele>193.5</ele>
        <time>2019-12-01T10:04:47.000Z</time>
      </trkpt>
      <trkpt lat="46.55696" lon="0.18661">
        <ele>193.93</ele>
        <time>2019-12-01T10:04:52.000Z</time>
      </trkpt>
      <trkpt lat="46.55692" lon="0.18648">
        <ele>194.24</ele>
        <time>2019-12-01T10:04:57.000Z</time>
      </trkpt>
      <trkpt lat="46.55686" lon="0.18635">
        <ele>194.45</ele>
        <time>2019-12-01T10:05:01.000Z</time>
      </trkpt>
      <trkpt lat="46.55681" lon="0.18621">
        <ele>194.69</ele>
        <time>2019-12-01T10:05:05.000Z</time>
      </trkpt>
      <trkpt lat="46.55676" lon="0.18605">
        <ele>194.91</ele>
        <time>2019-12-01T10:05:09.000Z</time>
      </trkpt>
      <trkpt lat="46.55673" lon="0.18587">
        <ele>195.01</ele>
        <time>2019-12-01T10:05:13.000Z</time>
      </trkpt>
      <trkpt lat="46.55668" lon="0.18576">
        <ele>194.98</ele>
        <time>2019-12-01T10:05:16.000Z</time>
      </trkpt>
      <trkpt lat="46.55658" lon="0.18575">
        <ele>195.09</ele>
        <time>2019-12-01T10:05:22.000Z</time>
      </trkpt>
      <trkpt lat="46.5565" lon="0.18591">
        <ele>195.32</ele>
        <time>2019-12-01T10:05:27.000Z</time>
      </trkpt>
      <trkpt lat="46.55648" lon="0.18608">
        <ele>195.77</ele>
        <time>2019-12-01T10:05:30.000Z</time>
      </trkpt>
      <trkpt lat="46.55645" lon="0.18622">
        <ele>196.28</ele>
        <time>2019-12-01T10:05:33.000Z</time>
      </trkpt>
      <trkpt lat="46.5564" lon="0.18637">
        <ele>198.65</ele>
        <time>2019-12-01T10:05:36.000Z</time>
      </trkpt>
      <trkpt lat="46.55634" lon="0.18651">
        <ele>198.89</ele>
        <time>2019-12-01T10:05:39.000Z</time>
      </trkpt>
      <trkpt lat="46.55625" lon="0.18662">
        <ele>199.28</ele>
        <time>2019-12-01T10:05:41.000Z</time>
      </trkpt>
      <trkpt lat="46.5562" lon="0.18673">
        <ele>199.86</ele>
        <time>2019-12-01T10:05:43.000Z</time>
      </trkpt>
      <trkpt lat="46.55614" lon="0.18683">
        <ele>199.52</ele>
        <time>2019-12-01T10:05:45.000Z</time>
      </trkpt>
      <trkpt lat="46.55608" lon="0.18693">
        <ele>199.16</ele>
        <time>2019-12-01T10:05:47.000Z</time>
      </trkpt>
      <trkpt lat="46.55601" lon="0.18702">
        <ele>198.75</ele>
        <time>2019-12-01T10:05:49.000Z</time>
      </trkpt>
      <trkpt lat="46.55592" lon="0.18715">
        <ele>198.67</ele>
        <time>2019-12-01T10:05:52.000Z</time>
      </trkpt>
      <trkpt lat="46.55586" lon="0.18727">
        <ele>198.64</ele>
        <time>2019-12-01T10:05:56.000Z</time>
      </trkpt>
      <trkpt lat="46.5558" lon="0.18738">
        <ele>198.85</ele>
        <time>2019-12-01T10:06:00.000Z</time>
      </trkpt>
      <trkpt lat="46.55574" lon="0.18749">
        <ele>199</ele>
        <time>2019-12-01T10:06:03.000Z</time>
      </trkpt>
      <trkpt lat="46.55567" lon="0.18758">
        <ele>199.15</ele>
        <time>2019-12-01T10:06:06.000Z</time>
      </trkpt>
      <trkpt lat="46.55557" lon="0.18765">
        <ele>199.21</ele>
        <time>2019-12-01T10:06:09.000Z</time>
      </trkpt>
      <trkpt lat="46.55547" lon="0.18774">
        <ele>199.37</ele>
        <time>2019-12-01T10:06:12.000Z</time>
      </trkpt>
      <trkpt lat="46.55536" lon="0.18782">
        <ele>199.7</ele>
        <time>2019-12-01T10:06:15.000Z</time>
      </trkpt>
      <trkpt lat="46.55528" lon="0.18788">
        <ele>199.95</ele>
        <time>2019-12-01T10:06:17.000Z</time>
      </trkpt>
      <trkpt lat="46.55517" lon="0.18796">
        <ele>200.43</ele>
        <time>2019-12-01T10:06:20.000Z</time>
      </trkpt>
      <trkpt lat="46.55508" lon="0.18803">
        <ele>200.8</ele>
        <time>2019-12-01T10:06:23.000Z</time>
      </trkpt>
      <trkpt lat="46.55498" lon="0.18809">
        <ele>200.1</ele>
        <time>2019-12-01T10:06:26.000Z</time>
      </trkpt>
      <trkpt lat="46.5549" lon="0.18816">
        <ele>198.56</ele>
        <time>2019-12-01T10:06:28.000Z</time>
      </trkpt>
      <trkpt lat="46.55479" lon="0.18825">
        <ele>195.8</ele>
        <time>2019-12-01T10:06:31.000Z</time>
      </trkpt>
      <trkpt lat="46.55472" lon="0.18833">
        <ele>193.32</ele>
        <time>2019-12-01T10:06:34.000Z</time>
      </trkpt>
      <trkpt lat="46.55468" lon="0.18845">
        <ele>192.96</ele>
        <time>2019-12-01T10:06:38.000Z</time>
      </trkpt>
      <trkpt lat="46.55468" lon="0.18859">
        <ele>192.59</ele>
        <time>2019-12-01T10:06:44.000Z</time>
      </trkpt>
      <trkpt lat="46.55465" lon="0.18873">
        <ele>192.5</ele>
        <time>2019-12-01T10:06:49.000Z</time>
      </trkpt>
      <trkpt lat="46.55463" lon="0.18886">
        <ele>192.39</ele>
        <time>2019-12-01T10:06:52.000Z</time>
      </trkpt>
      <trkpt lat="46.55462" lon="0.18899">
        <ele>192.09</ele>
        <time>2019-12-01T10:06:55.000Z</time>
      </trkpt>
      <trkpt lat="46.55463" lon="0.18914">
        <ele>191.73</ele>
        <time>2019-12-01T10:06:59.000Z</time>
      </trkpt>
      <trkpt lat="46.55463" lon="0.18932">
        <ele>191.34</ele>
        <time>2019-12-01T10:07:03.000Z</time>
      </trkpt>
      <trkpt lat="46.55466" lon="0.18945">
        <ele>191.1</ele>
        <time>2019-12-01T10:07:07.000Z</time>
      </trkpt>
      <trkpt lat="46.5547" lon="0.18959">
        <ele>190.99</ele>
        <time>2019-12-01T10:07:12.000Z</time>
      </trkpt>
      <trkpt lat="46.55475" lon="0.1897">
        <ele>191.31</ele>
        <time>2019-12-01T10:07:16.000Z</time>
      </trkpt>
      <trkpt lat="46.55478" lon="0.18984">
        <ele>191.57</ele>
        <time>2019-12-01T10:07:20.000Z</time>
      </trkpt>
      <trkpt lat="46.55483" lon="0.19">
        <ele>191.61</ele>
        <time>2019-12-01T10:07:24.000Z</time>
      </trkpt>
      <trkpt lat="46.5549" lon="0.19011">
        <ele>191.61</ele>
        <time>2019-12-01T10:07:30.000Z</time>
      </trkpt>
      <trkpt lat="46.55495" lon="0.19022">
        <ele>191.69</ele>
        <time>2019-12-01T10:07:35.000Z</time>
      </trkpt>
      <trkpt lat="46.55503" lon="0.19034">
        <ele>191.91</ele>
        <time>2019-12-01T10:07:40.000Z</time>
      </trkpt>
      <trkpt lat="46.55511" lon="0.19043">
        <ele>192.5</ele>
        <time>2019-12-01T10:07:45.000Z</time>
      </trkpt>
      <trkpt lat="46.55516" lon="0.19057">
        <ele>193.35</ele>
        <time>2019-12-01T10:07:54.000Z</time>
      </trkpt>
      <trkpt lat="46.55521" lon="0.19068">
        <ele>194.05</ele>
        <time>2019-12-01T10:08:03.000Z</time>
      </trkpt>
      <trkpt lat="46.55528" lon="0.19077">
        <ele>194.38</ele>
        <time>2019-12-01T10:08:08.000Z</time>
      </trkpt>
      <trkpt lat="46.55537" lon="0.19082">
        <ele>195.05</ele>
        <time>2019-12-01T10:08:13.000Z</time>
      </trkpt>
      <trkpt lat="46.55544" lon="0.19091">
        <ele>195.93</ele>
        <time>2019-12-01T10:08:19.000Z</time>
      </trkpt>
      <trkpt lat="46.55554" lon="0.191">
        <ele>196.38</ele>
        <time>2019-12-01T10:08:24.000Z</time>
      </trkpt>
      <trkpt lat="46.55562" lon="0.19109">
        <ele>196.86</ele>
        <time>2019-12-01T10:08:28.000Z</time>
      </trkpt>
      <trkpt lat="46.55563" lon="0.19122">
        <ele>197.15</ele>
        <time>2019-12-01T10:08:31.000Z</time>
      </trkpt>
      <trkpt lat="46.55556" lon="0.19131">
        <ele>197.67</ele>
        <time>2019-12-01T10:08:37.000Z</time>
      </trkpt>
      <trkpt lat="46.55545" lon="0.19139">
        <ele>198.52</ele>
        <time>2019-12-01T10:08:41.000Z</time>
      </trkpt>
      <trkpt lat="46.55537" lon="0.19145">
        <ele>199.79</ele>
        <time>2019-12-01T10:08:46.000Z</time>
      </trkpt>
      <trkpt lat="46.55528" lon="0.19154">
        <ele>200.81</ele>
        <time>2019-12-01T10:08:51.000Z</time>
      </trkpt>
      <trkpt lat="46.55519" lon="0.1916">
        <ele>201.15</ele>
        <time>2019-12-01T10:08:57.000Z</time>
      </trkpt>
      <trkpt lat="46.55511" lon="0.19169">
        <ele>201.56</ele>
        <time>2019-12-01T10:09:02.000Z</time>
      </trkpt>
      <trkpt lat="46.55501" lon="0.19181">
        <ele>201.71</ele>
        <time>2019-12-01T10:09:06.000Z</time>
      </trkpt>
      <trkpt lat="46.55493" lon="0.19188">
        <ele>201.84</ele>
        <time>2019-12-01T10:09:09.000Z</time>
      </trkpt>
      <trkpt lat="46.55484" lon="0.19194">
        <ele>202</ele>
        <time>2019-12-01T10:09:12.000Z</time>
      </trkpt>
      <trkpt lat="46.55474" lon="0.19201">
        <ele>201.97</ele>
        <time>2019-12-01T10:09:19.000Z</time>
      </trkpt>
      <trkpt lat="46.55468" lon="0.19213">
        <ele>201.83</ele>
        <time>2019-12-01T10:09:25.000Z</time>
      </trkpt>
      <trkpt lat="46.55464" lon="0.19226">
        <ele>201.98</ele>
        <time>2019-12-01T10:09:29.000Z</time>
      </trkpt>
      <trkpt lat="46.55458" lon="0.19239">
        <ele>201.99</ele>
        <time>2019-12-01T10:09:33.000Z</time>
      </trkpt>
      <trkpt lat="46.55452" lon="0.19251">
        <ele>201.93</ele>
        <time>2019-12-01T10:09:36.000Z</time>
      </trkpt>
      <trkpt lat="46.55448" lon="0.19263">
        <ele>201.76</ele>
        <time>2019-12-01T10:09:41.000Z</time>
      </trkpt>
      <trkpt lat="46.55437" lon="0.19259">
        <ele>201.3</ele>
        <time>2019-12-01T10:09:46.000Z</time>
      </trkpt>
      <trkpt lat="46.55428" lon="0.19249">
        <ele>200.79</ele>
        <time>2019-12-01T10:09:49.000Z</time>
      </trkpt>
      <trkpt lat="46.5542" lon="0.19237">
        <ele>200.3</ele>
        <time>2019-12-01T10:09:53.000Z</time>
      </trkpt>
      <trkpt lat="46.5541" lon="0.19224">
        <ele>199.95</ele>
        <time>2019-12-01T10:09:56.000Z</time>
      </trkpt>
      <trkpt lat="46.55403" lon="0.19215">
        <ele>198.52</ele>
        <time>2019-12-01T10:09:58.000Z</time>
      </trkpt>
      <trkpt lat="46.55395" lon="0.19206">
        <ele>198.29</ele>
        <time>2019-12-01T10:10:00.000Z</time>
      </trkpt>
      <trkpt lat="46.55384" lon="0.19196">
        <ele>197.1</ele>
        <time>2019-12-01T10:10:03.000Z</time>
      </trkpt>
      <trkpt lat="46.55376" lon="0.1919">
        <ele>196.23</ele>
        <time>2019-12-01T10:10:05.000Z</time>
      </trkpt>
      <trkpt lat="46.55367" lon="0.19184">
        <ele>195.99</ele>
        <time>2019-12-01T10:10:07.000Z</time>
      </trkpt>
      <trkpt lat="46.55358" lon="0.19176">
        <ele>196.14</ele>
        <time>2019-12-01T10:10:09.000Z</time>
      </trkpt>
      <trkpt lat="46.55349" lon="0.19169">
        <ele>196.18</ele>
        <time>2019-12-01T10:10:11.000Z</time>
      </trkpt>
      <trkpt lat="46.5534" lon="0.19162">
        <ele>196.21</ele>
        <time>2019-12-01T10:10:13.000Z</time>
      </trkpt>
      <trkpt lat="46.55329" lon="0.19151">
        <ele>197.08</ele>
        <time>2019-12-01T10:10:16.000Z</time>
      </trkpt>
      <trkpt lat="46.5532" lon="0.19143">
        <ele>197.7</ele>
        <time>2019-12-01T10:10:18.000Z</time>
      </trkpt>
      <trkpt lat="46.55312" lon="0.19134">
        <ele>198.24</ele>
        <time>2019-12-01T10:10:20.000Z</time>
      </trkpt>
      <trkpt lat="46.55304" lon="0.19124">
        <ele>198.13</ele>
        <time>2019-12-01T10:10:22.000Z</time>
      </trkpt>
      <trkpt lat="46.55295" lon="0.19113">
        <ele>198.17</ele>
        <time>2019-12-01T10:10:25.000Z</time>
      </trkpt>
      <trkpt lat="46.55295" lon="0.19098">
        <ele>198.16</ele>
        <time>2019-12-01T10:10:28.000Z</time>
      </trkpt>
      <trkpt lat="46.55298" lon="0.19082">
        <ele>198.38</ele>
        <time>2019-12-01T10:10:30.000Z</time>
      </trkpt>
      <trkpt lat="46.55302" lon="0.1907">
        <ele>198.24</ele>
        <time>2019-12-01T10:10:32.000Z</time>
      </trkpt>
      <trkpt lat="46.55309" lon="0.19053">
        <ele>197.44</ele>
        <time>2019-12-01T10:10:35.000Z</time>
      </trkpt>
      <trkpt lat="46.55314" lon="0.19038">
        <ele>196.17</ele>
        <time>2019-12-01T10:10:37.000Z</time>
      </trkpt>
      <trkpt lat="46.55318" lon="0.19025">
        <ele>194.95</ele>
        <time>2019-12-01T10:10:39.000Z</time>
      </trkpt>
      <trkpt lat="46.5532" lon="0.19009">
        <ele>194.67</ele>
        <time>2019-12-01T10:10:41.000Z</time>
      </trkpt>
      <trkpt lat="46.5532" lon="0.18994">
        <ele>194.79</ele>
        <time>2019-12-01T10:10:43.000Z</time>
      </trkpt>
      <trkpt lat="46.55318" lon="0.18979">
        <ele>194.82</ele>
        <time>2019-12-01T10:10:45.000Z</time>
      </trkpt>
      <trkpt lat="46.55314" lon="0.18963">
        <ele>194.74</ele>
        <time>2019-12-01T10:10:47.000Z</time>
      </trkpt>
      <trkpt lat="46.55319" lon="0.18948">
        <ele>194.47</ele>
        <time>2019-12-01T10:10:51.000Z</time>
      </trkpt>
      <trkpt lat="46.55325" lon="0.18936">
        <ele>192.97</ele>
        <time>2019-12-01T10:10:53.000Z</time>
      </trkpt>
      <trkpt lat="46.55332" lon="0.18916">
        <ele>191.05</ele>
        <time>2019-12-01T10:10:55.000Z</time>
      </trkpt>
      <trkpt lat="46.55339" lon="0.18907">
        <ele>191.01</ele>
        <time>2019-12-01T10:10:58.000Z</time>
      </trkpt>
      <trkpt lat="46.55345" lon="0.18896">
        <ele>191.15</ele>
        <time>2019-12-01T10:11:01.000Z</time>
      </trkpt>
      <trkpt lat="46.55345" lon="0.18881">
        <ele>191.84</ele>
        <time>2019-12-01T10:11:07.000Z</time>
      </trkpt>
      <trkpt lat="46.55345" lon="0.18867">
        <ele>192.44</ele>
        <time>2019-12-01T10:11:12.000Z</time>
      </trkpt>
      <trkpt lat="46.55344" lon="0.18853">
        <ele>193</ele>
        <time>2019-12-01T10:11:18.000Z</time>
      </trkpt>
      <trkpt lat="46.5534" lon="0.18839">
        <ele>193.19</ele>
        <time>2019-12-01T10:11:23.000Z</time>
      </trkpt>
      <trkpt lat="46.55336" lon="0.18826">
        <ele>193.18</ele>
        <time>2019-12-01T10:11:27.000Z</time>
      </trkpt>
      <trkpt lat="46.55341" lon="0.18813">
        <ele>193.2</ele>
        <time>2019-12-01T10:11:32.000Z</time>
      </trkpt>
      <trkpt lat="46.55348" lon="0.188">
        <ele>192.95</ele>
        <time>2019-12-01T10:11:36.000Z</time>
      </trkpt>
      <trkpt lat="46.55355" lon="0.18791">
        <ele>192.55</ele>
        <time>2019-12-01T10:11:39.000Z</time>
      </trkpt>
      <trkpt lat="46.55359" lon="0.18777">
        <ele>192.07</ele>
        <time>2019-12-01T10:11:43.000Z</time>
      </trkpt>
      <trkpt lat="46.55362" lon="0.18763">
        <ele>191.67</ele>
        <time>2019-12-01T10:11:47.000Z</time>
      </trkpt>
      <trkpt lat="46.55367" lon="0.18747">
        <ele>191.39</ele>
        <time>2019-12-01T10:11:50.000Z</time>
      </trkpt>
      <trkpt lat="46.5537" lon="0.1873">
        <ele>191.13</ele>
        <time>2019-12-01T10:11:54.000Z</time>
      </trkpt>
      <trkpt lat="46.5537" lon="0.18714">
        <ele>190.9</ele>
        <time>2019-12-01T10:11:57.000Z</time>
      </trkpt>
      <trkpt lat="46.5537" lon="0.18697">
        <ele>190.65</ele>
        <time>2019-12-01T10:12:00.000Z</time>
      </trkpt>
      <trkpt lat="46.55366" lon="0.18683">
        <ele>190.47</ele>
        <time>2019-12-01T10:12:03.000Z</time>
      </trkpt>
      <trkpt lat="46.55358" lon="0.18671">
        <ele>190.49</ele>
        <time>2019-12-01T10:12:06.000Z</time>
      </trkpt>
      <trkpt lat="46.55354" lon="0.18657">
        <ele>190.6</ele>
        <time>2019-12-01T10:12:09.000Z</time>
      </trkpt>
      <trkpt lat="46.55353" lon="0.18643">
        <ele>190.64</ele>
        <time>2019-12-01T10:12:12.000Z</time>
      </trkpt>
      <trkpt lat="46.55348" lon="0.1863">
        <ele>190.82</ele>
        <time>2019-12-01T10:12:16.000Z</time>
      </trkpt>
      <trkpt lat="46.55339" lon="0.18619">
        <ele>190.87</ele>
        <time>2019-12-01T10:12:19.000Z</time>
      </trkpt>
      <trkpt lat="46.55331" lon="0.18607">
        <ele>190.86</ele>
        <time>2019-12-01T10:12:23.000Z</time>
      </trkpt>
      <trkpt lat="46.55321" lon="0.18599">
        <ele>191.27</ele>
        <time>2019-12-01T10:12:29.000Z</time>
      </trkpt>
      <trkpt lat="46.55311" lon="0.18595">
        <ele>191.84</ele>
        <time>2019-12-01T10:12:33.000Z</time>
      </trkpt>
      <trkpt lat="46.55305" lon="0.18582">
        <ele>192.32</ele>
        <time>2019-12-01T10:12:36.000Z</time>
      </trkpt>
      <trkpt lat="46.55298" lon="0.18573">
        <ele>192.83</ele>
        <time>2019-12-01T10:12:40.000Z</time>
      </trkpt>
      <trkpt lat="46.55289" lon="0.18567">
        <ele>193.21</ele>
        <time>2019-12-01T10:12:43.000Z</time>
      </trkpt>
      <trkpt lat="46.55281" lon="0.18555">
        <ele>193.82</ele>
        <time>2019-12-01T10:12:47.000Z</time>
      </trkpt>
      <trkpt lat="46.55277" lon="0.18539">
        <ele>194.4</ele>
        <time>2019-12-01T10:12:51.000Z</time>
      </trkpt>
      <trkpt lat="46.55268" lon="0.18529">
        <ele>194.87</ele>
        <time>2019-12-01T10:12:54.000Z</time>
      </trkpt>
      <trkpt lat="46.55263" lon="0.18516">
        <ele>195.19</ele>
        <time>2019-12-01T10:12:57.000Z</time>
      </trkpt>
      <trkpt lat="46.55262" lon="0.18498">
        <ele>195.38</ele>
        <time>2019-12-01T10:13:01.000Z</time>
      </trkpt>
      <trkpt lat="46.55258" lon="0.18484">
        <ele>195.64</ele>
        <time>2019-12-01T10:13:04.000Z</time>
      </trkpt>
      <trkpt lat="46.55255" lon="0.18471">
        <ele>196.17</ele>
        <time>2019-12-01T10:13:07.000Z</time>
      </trkpt>
      <trkpt lat="46.55254" lon="0.18457">
        <ele>197.02</ele>
        <time>2019-12-01T10:13:11.000Z</time>
      </trkpt>
      <trkpt lat="46.55256" lon="0.18441">
        <ele>197.59</ele>
        <time>2019-12-01T10:13:14.000Z</time>
      </trkpt>
      <trkpt lat="46.55264" lon="0.18432">
        <ele>198.26</ele>
        <time>2019-12-01T10:13:18.000Z</time>
      </trkpt>
      <trkpt lat="46.55274" lon="0.18425">
        <ele>198.58</ele>
        <time>2019-12-01T10:13:20.000Z</time>
      </trkpt>
      <trkpt lat="46.55283" lon="0.18417">
        <ele>198.92</ele>
        <time>2019-12-01T10:13:22.000Z</time>
      </trkpt>
      <trkpt lat="46.55294" lon="0.18412">
        <ele>199.43</ele>
        <time>2019-12-01T10:13:25.000Z</time>
      </trkpt>
      <trkpt lat="46.55301" lon="0.18401">
        <ele>200.83</ele>
        <time>2019-12-01T10:13:27.000Z</time>
      </trkpt>
      <trkpt lat="46.55301" lon="0.18382">
        <ele>201.1</ele>
        <time>2019-12-01T10:13:31.000Z</time>
      </trkpt>
      <trkpt lat="46.55295" lon="0.18368">
        <ele>201.51</ele>
        <time>2019-12-01T10:13:36.000Z</time>
      </trkpt>
      <trkpt lat="46.55288" lon="0.18358">
        <ele>201.85</ele>
        <time>2019-12-01T10:13:39.000Z</time>
      </trkpt>
      <trkpt lat="46.55281" lon="0.18347">
        <ele>202.14</ele>
        <time>2019-12-01T10:13:42.000Z</time>
      </trkpt>
      <trkpt lat="46.55276" lon="0.18336">
        <ele>202.37</ele>
        <time>2019-12-01T10:13:45.000Z</time>
      </trkpt>
      <trkpt lat="46.55271" lon="0.18324">
        <ele>202.45</ele>
        <time>2019-12-01T10:13:47.000Z</time>
      </trkpt>
      <trkpt lat="46.55269" lon="0.18305">
        <ele>202.62</ele>
        <time>2019-12-01T10:13:51.000Z</time>
      </trkpt>
      <trkpt lat="46.55266" lon="0.18291">
        <ele>202.68</ele>
        <time>2019-12-01T10:13:54.000Z</time>
      </trkpt>
      <trkpt lat="46.55259" lon="0.18281">
        <ele>202.72</ele>
        <time>2019-12-01T10:13:58.000Z</time>
      </trkpt>
      <trkpt lat="46.55248" lon="0.18274">
        <ele>203.01</ele>
        <time>2019-12-01T10:14:02.000Z</time>
      </trkpt>
      <trkpt lat="46.55239" lon="0.18268">
        <ele>203.16</ele>
        <time>2019-12-01T10:14:06.000Z</time>
      </trkpt>
      <trkpt lat="46.55231" lon="0.18261">
        <ele>203.31</ele>
        <time>2019-12-01T10:14:09.000Z</time>
      </trkpt>
      <trkpt lat="46.55225" lon="0.18249">
        <ele>203.49</ele>
        <time>2019-12-01T10:14:15.000Z</time>
      </trkpt>
      <trkpt lat="46.55219" lon="0.18239">
        <ele>203.83</ele>
        <time>2019-12-01T10:14:19.000Z</time>
      </trkpt>
      <trkpt lat="46.55212" lon="0.1823">
        <ele>203.86</ele>
        <time>2019-12-01T10:14:21.000Z</time>
      </trkpt>
      <trkpt lat="46.55217" lon="0.18217">
        <ele>203.85</ele>
        <time>2019-12-01T10:14:30.000Z</time>
      </trkpt>
      <trkpt lat="46.55214" lon="0.18203">
        <ele>203.92</ele>
        <time>2019-12-01T10:14:35.000Z</time>
      </trkpt>
      <trkpt lat="46.55214" lon="0.1819">
        <ele>203.96</ele>
        <time>2019-12-01T10:14:41.000Z</time>
      </trkpt>
      <trkpt lat="46.55221" lon="0.18182">
        <ele>204.54</ele>
        <time>2019-12-01T10:14:52.000Z</time>
      </trkpt>
      <trkpt lat="46.55229" lon="0.18171">
        <ele>204.73</ele>
        <time>2019-12-01T10:14:55.000Z</time>
      </trkpt>
      <trkpt lat="46.55238" lon="0.18159">
        <ele>204.83</ele>
        <time>2019-12-01T10:14:58.000Z</time>
      </trkpt>
      <trkpt lat="46.55246" lon="0.18149">
        <ele>204.89</ele>
        <time>2019-12-01T10:15:01.000Z</time>
      </trkpt>
      <trkpt lat="46.55256" lon="0.18143">
        <ele>204.87</ele>
        <time>2019-12-01T10:15:05.000Z</time>
      </trkpt>
      <trkpt lat="46.55267" lon="0.18134">
        <ele>204.77</ele>
        <time>2019-12-01T10:15:08.000Z</time>
      </trkpt>
      <trkpt lat="46.5527" lon="0.1812">
        <ele>204.62</ele>
        <time>2019-12-01T10:15:14.000Z</time>
      </trkpt>
      <trkpt lat="46.55278" lon="0.18108">
        <ele>204.7</ele>
        <time>2019-12-01T10:15:18.000Z</time>
      </trkpt>
      <trkpt lat="46.55287" lon="0.18097">
        <ele>204.78</ele>
        <time>2019-12-01T10:15:21.000Z</time>
      </trkpt>
      <trkpt lat="46.55295" lon="0.1809">
        <ele>204.82</ele>
        <time>2019-12-01T10:15:24.000Z</time>
      </trkpt>
      <trkpt lat="46.55301" lon="0.1808">
        <ele>204.8</ele>
        <time>2019-12-01T10:15:28.000Z</time>
      </trkpt>
      <trkpt lat="46.55309" lon="0.18072">
        <ele>205.12</ele>
        <time>2019-12-01T10:15:33.000Z</time>
      </trkpt>
      <trkpt lat="46.55317" lon="0.1806">
        <ele>205.34</ele>
        <time>2019-12-01T10:15:37.000Z</time>
      </trkpt>
      <trkpt lat="46.5532" lon="0.18048">
        <ele>205.01</ele>
        <time>2019-12-01T10:15:41.000Z</time>
      </trkpt>
      <trkpt lat="46.55321" lon="0.18031">
        <ele>204.3</ele>
        <time>2019-12-01T10:15:45.000Z</time>
      </trkpt>
      <trkpt lat="46.55329" lon="0.18019">
        <ele>203.52</ele>
        <time>2019-12-01T10:15:49.000Z</time>
      </trkpt>
      <trkpt lat="46.55337" lon="0.18011">
        <ele>203.02</ele>
        <time>2019-12-01T10:15:52.000Z</time>
      </trkpt>
      <trkpt lat="46.5535" lon="0.18008">
        <ele>202.53</ele>
        <time>2019-12-01T10:15:56.000Z</time>
      </trkpt>
      <trkpt lat="46.55359" lon="0.18009">
        <ele>202.34</ele>
        <time>2019-12-01T10:15:59.000Z</time>
      </trkpt>
      <trkpt lat="46.55365" lon="0.18">
        <ele>202.08</ele>
        <time>2019-12-01T10:16:04.000Z</time>
      </trkpt>
      <trkpt lat="46.55371" lon="0.17985">
        <ele>201.54</ele>
        <time>2019-12-01T10:16:08.000Z</time>
      </trkpt>
      <trkpt lat="46.55376" lon="0.17974">
        <ele>201.04</ele>
        <time>2019-12-01T10:16:11.000Z</time>
      </trkpt>
      <trkpt lat="46.55385" lon="0.17968">
        <ele>200.71</ele>
        <time>2019-12-01T10:16:14.000Z</time>
      </trkpt>
      <trkpt lat="46.55398" lon="0.17972">
        <ele>200.53</ele>
        <time>2019-12-01T10:16:17.000Z</time>
      </trkpt>
      <trkpt lat="46.55407" lon="0.17968">
        <ele>200.43</ele>
        <time>2019-12-01T10:16:19.000Z</time>
      </trkpt>
      <trkpt lat="46.55415" lon="0.17958">
        <ele>200.2</ele>
        <time>2019-12-01T10:16:22.000Z</time>
      </trkpt>
      <trkpt lat="46.55422" lon="0.17945">
        <ele>199.32</ele>
        <time>2019-12-01T10:16:27.000Z</time>
      </trkpt>
      <trkpt lat="46.5542" lon="0.17928">
        <ele>198.43</ele>
        <time>2019-12-01T10:16:31.000Z</time>
      </trkpt>
      <trkpt lat="46.5543" lon="0.17919">
        <ele>197.45</ele>
        <time>2019-12-01T10:16:35.000Z</time>
      </trkpt>
      <trkpt lat="46.55441" lon="0.17914">
        <ele>196.69</ele>
        <time>2019-12-01T10:16:38.000Z</time>
      </trkpt>
      <trkpt lat="46.55449" lon="0.17903">
        <ele>195.92</ele>
        <time>2019-12-01T10:16:41.000Z</time>
      </trkpt>
      <trkpt lat="46.55457" lon="0.17897">
        <ele>194.61</ele>
        <time>2019-12-01T10:16:44.000Z</time>
      </trkpt>
      <trkpt lat="46.55465" lon="0.17888">
        <ele>194.39</ele>
        <time>2019-12-01T10:16:48.000Z</time>
      </trkpt>
      <trkpt lat="46.55474" lon="0.17881">
        <ele>194.38</ele>
        <time>2019-12-01T10:16:52.000Z</time>
      </trkpt>
      <trkpt lat="46.55483" lon="0.1787">
        <ele>194.84</ele>
        <time>2019-12-01T10:16:56.000Z</time>
      </trkpt>
      <trkpt lat="46.55484" lon="0.17855">
        <ele>195.19</ele>
        <time>2019-12-01T10:16:59.000Z</time>
      </trkpt>
      <trkpt lat="46.55493" lon="0.17847">
        <ele>195.63</ele>
        <time>2019-12-01T10:17:02.000Z</time>
      </trkpt>
      <trkpt lat="46.55501" lon="0.1784">
        <ele>196.18</ele>
        <time>2019-12-01T10:17:05.000Z</time>
      </trkpt>
      <trkpt lat="46.55508" lon="0.17828">
        <ele>196.97</ele>
        <time>2019-12-01T10:17:09.000Z</time>
      </trkpt>
      <trkpt lat="46.55517" lon="0.17817">
        <ele>197.57</ele>
        <time>2019-12-01T10:17:12.000Z</time>
      </trkpt>
      <trkpt lat="46.55523" lon="0.17798">
        <ele>201.99</ele>
        <time>2019-12-01T10:17:15.000Z</time>
      </trkpt>
      <trkpt lat="46.55526" lon="0.1778">
        <ele>203.14</ele>
        <time>2019-12-01T10:17:18.000Z</time>
      </trkpt>
      <trkpt lat="46.5553" lon="0.1776">
        <ele>203.67</ele>
        <time>2019-12-01T10:17:20.000Z</time>
      </trkpt>
      <trkpt lat="46.55535" lon="0.17744">
        <ele>203.83</ele>
        <time>2019-12-01T10:17:22.000Z</time>
      </trkpt>
      <trkpt lat="46.55534" lon="0.17729">
        <ele>202.53</ele>
        <time>2019-12-01T10:17:24.000Z</time>
      </trkpt>
      <trkpt lat="46.55538" lon="0.17716">
        <ele>201.94</ele>
        <time>2019-12-01T10:17:26.000Z</time>
      </trkpt>
      <trkpt lat="46.5554" lon="0.177">
        <ele>201.83</ele>
        <time>2019-12-01T10:17:28.000Z</time>
      </trkpt>
      <trkpt lat="46.55544" lon="0.17683">
        <ele>200.52</ele>
        <time>2019-12-01T10:17:30.000Z</time>
      </trkpt>
      <trkpt lat="46.55548" lon="0.17667">
        <ele>198.9</ele>
        <time>2019-12-01T10:17:32.000Z</time>
      </trkpt>
      <trkpt lat="46.5555" lon="0.17651">
        <ele>197.18</ele>
        <time>2019-12-01T10:17:34.000Z</time>
      </trkpt>
      <trkpt lat="46.55553" lon="0.17634">
        <ele>196.05</ele>
        <time>2019-12-01T10:17:37.000Z</time>
      </trkpt>
      <trkpt lat="46.55555" lon="0.17621">
        <ele>195.93</ele>
        <time>2019-12-01T10:17:40.000Z</time>
      </trkpt>
      <trkpt lat="46.55555" lon="0.17607">
        <ele>195.92</ele>
        <time>2019-12-01T10:17:44.000Z</time>
      </trkpt>
      <trkpt lat="46.55547" lon="0.17595">
        <ele>195.98</ele>
        <time>2019-12-01T10:17:47.000Z</time>
      </trkpt>
      <trkpt lat="46.55542" lon="0.17583">
        <ele>195.99</ele>
        <time>2019-12-01T10:17:49.000Z</time>
      </trkpt>
      <trkpt lat="46.55547" lon="0.17566">
        <ele>196</ele>
        <time>2019-12-01T10:17:52.000Z</time>
      </trkpt>
      <trkpt lat="46.5555" lon="0.17552">
        <ele>195.96</ele>
        <time>2019-12-01T10:17:54.000Z</time>
      </trkpt>
      <trkpt lat="46.55546" lon="0.17535">
        <ele>195.77</ele>
        <time>2019-12-01T10:17:57.000Z</time>
      </trkpt>
      <trkpt lat="46.55537" lon="0.17528">
        <ele>195.8</ele>
        <time>2019-12-01T10:18:01.000Z</time>
      </trkpt>
      <trkpt lat="46.55527" lon="0.17528">
        <ele>195.98</ele>
        <time>2019-12-01T10:18:04.000Z</time>
      </trkpt>
      <trkpt lat="46.55516" lon="0.17529">
        <ele>196.43</ele>
        <time>2019-12-01T10:18:08.000Z</time>
      </trkpt>
      <trkpt lat="46.55504" lon="0.17534">
        <ele>196.99</ele>
        <time>2019-12-01T10:18:12.000Z</time>
      </trkpt>
      <trkpt lat="46.55492" lon="0.17533">
        <ele>197.71</ele>
        <time>2019-12-01T10:18:16.000Z</time>
      </trkpt>
      <trkpt lat="46.55482" lon="0.17535">
        <ele>198.3</ele>
        <time>2019-12-01T10:18:19.000Z</time>
      </trkpt>
      <trkpt lat="46.55472" lon="0.17536">
        <ele>199.32</ele>
        <time>2019-12-01T10:18:24.000Z</time>
      </trkpt>
      <trkpt lat="46.55461" lon="0.17539">
        <ele>199.8</ele>
        <time>2019-12-01T10:18:27.000Z</time>
      </trkpt>
      <trkpt lat="46.5545" lon="0.17534">
        <ele>200.05</ele>
        <time>2019-12-01T10:18:30.000Z</time>
      </trkpt>
      <trkpt lat="46.5544" lon="0.17526">
        <ele>200.13</ele>
        <time>2019-12-01T10:18:33.000Z</time>
      </trkpt>
      <trkpt lat="46.55428" lon="0.17524">
        <ele>200.06</ele>
        <time>2019-12-01T10:18:36.000Z</time>
      </trkpt>
      <trkpt lat="46.55419" lon="0.17516">
        <ele>199.77</ele>
        <time>2019-12-01T10:18:38.000Z</time>
      </trkpt>
      <trkpt lat="46.55409" lon="0.17517">
        <ele>199.76</ele>
        <time>2019-12-01T10:18:40.000Z</time>
      </trkpt>
      <trkpt lat="46.55399" lon="0.17515">
        <ele>199.77</ele>
        <time>2019-12-01T10:18:42.000Z</time>
      </trkpt>
      <trkpt lat="46.55389" lon="0.17513">
        <ele>199.87</ele>
        <time>2019-12-01T10:18:45.000Z</time>
      </trkpt>
      <trkpt lat="46.55378" lon="0.17514">
        <ele>200.04</ele>
        <time>2019-12-01T10:18:48.000Z</time>
      </trkpt>
      <trkpt lat="46.55367" lon="0.17517">
        <ele>200.88</ele>
        <time>2019-12-01T10:18:51.000Z</time>
      </trkpt>
      <trkpt lat="46.55356" lon="0.17517">
        <ele>201.18</ele>
        <time>2019-12-01T10:18:54.000Z</time>
      </trkpt>
      <trkpt lat="46.55346" lon="0.17516">
        <ele>201.42</ele>
        <time>2019-12-01T10:18:58.000Z</time>
      </trkpt>
      <trkpt lat="46.55337" lon="0.17519">
        <ele>201.7</ele>
        <time>2019-12-01T10:19:02.000Z</time>
      </trkpt>
      <trkpt lat="46.55324" lon="0.17521">
        <ele>201.95</ele>
        <time>2019-12-01T10:19:05.000Z</time>
      </trkpt>
      <trkpt lat="46.55315" lon="0.17524">
        <ele>202.18</ele>
        <time>2019-12-01T10:19:07.000Z</time>
      </trkpt>
      <trkpt lat="46.55301" lon="0.17528">
        <ele>203.86</ele>
        <time>2019-12-01T10:19:10.000Z</time>
      </trkpt>
      <trkpt lat="46.55291" lon="0.17526">
        <ele>204.49</ele>
        <time>2019-12-01T10:19:14.000Z</time>
      </trkpt>
      <trkpt lat="46.55278" lon="0.17524">
        <ele>204.9</ele>
        <time>2019-12-01T10:19:17.000Z</time>
      </trkpt>
      <trkpt lat="46.55265" lon="0.17523">
        <ele>206.6</ele>
        <time>2019-12-01T10:19:20.000Z</time>
      </trkpt>
      <trkpt lat="46.55256" lon="0.17522">
        <ele>206.67</ele>
        <time>2019-12-01T10:19:22.000Z</time>
      </trkpt>
      <trkpt lat="46.55245" lon="0.17516">
        <ele>206.7</ele>
        <time>2019-12-01T10:19:25.000Z</time>
      </trkpt>
      <trkpt lat="46.55236" lon="0.17506">
        <ele>206.66</ele>
        <time>2019-12-01T10:19:26.000Z</time>
      </trkpt>
      <trkpt lat="46.55236" lon="0.17493">
        <ele>206.46</ele>
        <time>2019-12-01T10:19:29.000Z</time>
      </trkpt>
      <trkpt lat="46.55249" lon="0.17482">
        <ele>206.15</ele>
        <time>2019-12-01T10:19:32.000Z</time>
      </trkpt>
      <trkpt lat="46.5526" lon="0.17475">
        <ele>203.11</ele>
        <time>2019-12-01T10:19:34.000Z</time>
      </trkpt>
      <trkpt lat="46.55272" lon="0.17467">
        <ele>199.93</ele>
        <time>2019-12-01T10:19:36.000Z</time>
      </trkpt>
      <trkpt lat="46.55281" lon="0.17461">
        <ele>198.65</ele>
        <time>2019-12-01T10:19:39.000Z</time>
      </trkpt>
      <trkpt lat="46.55288" lon="0.17451">
        <ele>197.56</ele>
        <time>2019-12-01T10:19:41.000Z</time>
      </trkpt>
      <trkpt lat="46.55296" lon="0.17435">
        <ele>195.75</ele>
        <time>2019-12-01T10:19:44.000Z</time>
      </trkpt>
      <trkpt lat="46.55302" lon="0.17421">
        <ele>194.07</ele>
        <time>2019-12-01T10:19:46.000Z</time>
      </trkpt>
      <trkpt lat="46.55308" lon="0.17408">
        <ele>192.55</ele>
        <time>2019-12-01T10:19:48.000Z</time>
      </trkpt>
      <trkpt lat="46.55315" lon="0.17395">
        <ele>191.03</ele>
        <time>2019-12-01T10:19:50.000Z</time>
      </trkpt>
      <trkpt lat="46.55323" lon="0.17385">
        <ele>190.61</ele>
        <time>2019-12-01T10:19:52.000Z</time>
      </trkpt>
      <trkpt lat="46.55329" lon="0.17375">
        <ele>190.54</ele>
        <time>2019-12-01T10:19:54.000Z</time>
      </trkpt>
      <trkpt lat="46.55339" lon="0.17369">
        <ele>190.49</ele>
        <time>2019-12-01T10:19:57.000Z</time>
      </trkpt>
      <trkpt lat="46.55349" lon="0.17364">
        <ele>190.58</ele>
        <time>2019-12-01T10:20:00.000Z</time>
      </trkpt>
      <trkpt lat="46.55361" lon="0.17359">
        <ele>190.3</ele>
        <time>2019-12-01T10:20:03.000Z</time>
      </trkpt>
      <trkpt lat="46.55372" lon="0.17362">
        <ele>189.57</ele>
        <time>2019-12-01T10:20:05.000Z</time>
      </trkpt>
      <trkpt lat="46.55383" lon="0.17351">
        <ele>188.18</ele>
        <time>2019-12-01T10:20:07.000Z</time>
      </trkpt>
      <trkpt lat="46.55398" lon="0.17351">
        <ele>187.41</ele>
        <time>2019-12-01T10:20:09.000Z</time>
      </trkpt>
      <trkpt lat="46.55409" lon="0.17351">
        <ele>187.39</ele>
        <time>2019-12-01T10:20:11.000Z</time>
      </trkpt>
      <trkpt lat="46.55419" lon="0.17349">
        <ele>188.13</ele>
        <time>2019-12-01T10:20:17.000Z</time>
      </trkpt>
      <trkpt lat="46.55432" lon="0.1735">
        <ele>188.79</ele>
        <time>2019-12-01T10:20:20.000Z</time>
      </trkpt>
      <trkpt lat="46.55444" lon="0.17352">
        <ele>195.97</ele>
        <time>2019-12-01T10:20:23.000Z</time>
      </trkpt>
      <trkpt lat="46.55458" lon="0.17345">
        <ele>199.31</ele>
        <time>2019-12-01T10:20:25.000Z</time>
      </trkpt>
      <trkpt lat="46.55471" lon="0.17343">
        <ele>202.62</ele>
        <time>2019-12-01T10:20:27.000Z</time>
      </trkpt>
      <trkpt lat="46.55481" lon="0.17341">
        <ele>204.96</ele>
        <time>2019-12-01T10:20:29.000Z</time>
      </trkpt>
      <trkpt lat="46.55492" lon="0.17338">
        <ele>206.41</ele>
        <time>2019-12-01T10:20:32.000Z</time>
      </trkpt>
      <trkpt lat="46.55503" lon="0.17334">
        <ele>206.09</ele>
        <time>2019-12-01T10:20:34.000Z</time>
      </trkpt>
      <trkpt lat="46.55514" lon="0.17328">
        <ele>206.33</ele>
        <time>2019-12-01T10:20:36.000Z</time>
      </trkpt>
      <trkpt lat="46.55525" lon="0.17324">
        <ele>206.31</ele>
        <time>2019-12-01T10:20:38.000Z</time>
      </trkpt>
      <trkpt lat="46.55536" lon="0.17324">
        <ele>206.1</ele>
        <time>2019-12-01T10:20:40.000Z</time>
      </trkpt>
      <trkpt lat="46.55549" lon="0.17328">
        <ele>204.7</ele>
        <time>2019-12-01T10:20:42.000Z</time>
      </trkpt>
      <trkpt lat="46.55562" lon="0.1733">
        <ele>204.12</ele>
        <time>2019-12-01T10:20:45.000Z</time>
      </trkpt>
      <trkpt lat="46.55573" lon="0.17326">
        <ele>203.88</ele>
        <time>2019-12-01T10:20:47.000Z</time>
      </trkpt>
      <trkpt lat="46.55582" lon="0.17315">
        <ele>203.52</ele>
        <time>2019-12-01T10:20:49.000Z</time>
      </trkpt>
      <trkpt lat="46.55592" lon="0.17302">
        <ele>203.23</ele>
        <time>2019-12-01T10:20:52.000Z</time>
      </trkpt>
      <trkpt lat="46.55597" lon="0.17287">
        <ele>202.44</ele>
        <time>2019-12-01T10:20:56.000Z</time>
      </trkpt>
      <trkpt lat="46.55598" lon="0.1727">
        <ele>201.85</ele>
        <time>2019-12-01T10:20:59.000Z</time>
      </trkpt>
      <trkpt lat="46.55602" lon="0.17257">
        <ele>201.51</ele>
        <time>2019-12-01T10:21:03.000Z</time>
      </trkpt>
      <trkpt lat="46.55613" lon="0.17262">
        <ele>201.17</ele>
        <time>2019-12-01T10:21:09.000Z</time>
      </trkpt>
      <trkpt lat="46.55622" lon="0.17269">
        <ele>201.03</ele>
        <time>2019-12-01T10:21:11.000Z</time>
      </trkpt>
      <trkpt lat="46.55634" lon="0.17272">
        <ele>200.86</ele>
        <time>2019-12-01T10:21:13.000Z</time>
      </trkpt>
      <trkpt lat="46.55633" lon="0.1729">
        <ele>199.43</ele>
        <time>2019-12-01T10:22:06.000Z</time>
      </trkpt>
      <trkpt lat="46.55638" lon="0.17301">
        <ele>198.51</ele>
        <time>2019-12-01T10:22:08.000Z</time>
      </trkpt>
      <trkpt lat="46.55648" lon="0.17306">
        <ele>197.13</ele>
        <time>2019-12-01T10:22:10.000Z</time>
      </trkpt>
      <trkpt lat="46.55659" lon="0.17306">
        <ele>193.88</ele>
        <time>2019-12-01T10:22:13.000Z</time>
      </trkpt>
      <trkpt lat="46.55672" lon="0.17305">
        <ele>191.27</ele>
        <time>2019-12-01T10:22:16.000Z</time>
      </trkpt>
      <trkpt lat="46.55683" lon="0.17303">
        <ele>188.94</ele>
        <time>2019-12-01T10:22:19.000Z</time>
      </trkpt>
      <trkpt lat="46.55697" lon="0.17304">
        <ele>187.31</ele>
        <time>2019-12-01T10:22:22.000Z</time>
      </trkpt>
      <trkpt lat="46.55707" lon="0.17307">
        <ele>186.52</ele>
        <time>2019-12-01T10:22:24.000Z</time>
      </trkpt>
      <trkpt lat="46.55717" lon="0.17315">
        <ele>186.48</ele>
        <time>2019-12-01T10:22:27.000Z</time>
      </trkpt>
      <trkpt lat="46.55723" lon="0.17327">
        <ele>186.45</ele>
        <time>2019-12-01T10:22:30.000Z</time>
      </trkpt>
      <trkpt lat="46.55729" lon="0.17314">
        <ele>186.55</ele>
        <time>2019-12-01T10:22:35.000Z</time>
      </trkpt>
      <trkpt lat="46.55733" lon="0.17299">
        <ele>186.74</ele>
        <time>2019-12-01T10:22:39.000Z</time>
      </trkpt>
      <trkpt lat="46.55737" lon="0.17286">
        <ele>186.77</ele>
        <time>2019-12-01T10:22:43.000Z</time>
      </trkpt>
      <trkpt lat="46.55742" lon="0.17274">
        <ele>186.64</ele>
        <time>2019-12-01T10:22:46.000Z</time>
      </trkpt>
      <trkpt lat="46.55746" lon="0.17259">
        <ele>186.41</ele>
        <time>2019-12-01T10:22:49.000Z</time>
      </trkpt>
      <trkpt lat="46.55753" lon="0.17243">
        <ele>185.88</ele>
        <time>2019-12-01T10:22:52.000Z</time>
      </trkpt>
      <trkpt lat="46.55757" lon="0.17229">
        <ele>185.22</ele>
        <time>2019-12-01T10:22:55.000Z</time>
      </trkpt>
      <trkpt lat="46.55765" lon="0.17214">
        <ele>184.51</ele>
        <time>2019-12-01T10:22:58.000Z</time>
      </trkpt>
      <trkpt lat="46.55772" lon="0.17198">
        <ele>183.95</ele>
        <time>2019-12-01T10:23:01.000Z</time>
      </trkpt>
      <trkpt lat="46.55778" lon="0.17185">
        <ele>183.59</ele>
        <time>2019-12-01T10:23:04.000Z</time>
      </trkpt>
      <trkpt lat="46.55784" lon="0.17173">
        <ele>183.38</ele>
        <time>2019-12-01T10:23:08.000Z</time>
      </trkpt>
      <trkpt lat="46.5579" lon="0.17163">
        <ele>183.18</ele>
        <time>2019-12-01T10:23:12.000Z</time>
      </trkpt>
      <trkpt lat="46.55799" lon="0.17149">
        <ele>181.87</ele>
        <time>2019-12-01T10:23:15.000Z</time>
      </trkpt>
      <trkpt lat="46.55806" lon="0.17135">
        <ele>179.32</ele>
        <time>2019-12-01T10:23:17.000Z</time>
      </trkpt>
      <trkpt lat="46.55814" lon="0.17123">
        <ele>177.09</ele>
        <time>2019-12-01T10:23:19.000Z</time>
      </trkpt>
      <trkpt lat="46.55824" lon="0.17113">
        <ele>175.29</ele>
        <time>2019-12-01T10:23:21.000Z</time>
      </trkpt>
      <trkpt lat="46.55834" lon="0.17105">
        <ele>173.48</ele>
        <time>2019-12-01T10:23:23.000Z</time>
      </trkpt>
      <trkpt lat="46.55843" lon="0.17099">
        <ele>172.17</ele>
        <time>2019-12-01T10:23:25.000Z</time>
      </trkpt>
      <trkpt lat="46.55853" lon="0.17091">
        <ele>171.13</ele>
        <time>2019-12-01T10:23:27.000Z</time>
      </trkpt>
      <trkpt lat="46.55861" lon="0.17086">
        <ele>170.52</ele>
        <time>2019-12-01T10:23:29.000Z</time>
      </trkpt>
      <trkpt lat="46.55873" lon="0.17077">
        <ele>168.84</ele>
        <time>2019-12-01T10:23:32.000Z</time>
      </trkpt>
      <trkpt lat="46.55882" lon="0.17071">
        <ele>167.19</ele>
        <time>2019-12-01T10:23:34.000Z</time>
      </trkpt>
      <trkpt lat="46.55892" lon="0.17064">
        <ele>165.24</ele>
        <time>2019-12-01T10:23:36.000Z</time>
      </trkpt>
      <trkpt lat="46.55901" lon="0.17057">
        <ele>164.96</ele>
        <time>2019-12-01T10:23:39.000Z</time>
      </trkpt>
      <trkpt lat="46.55908" lon="0.17046">
        <ele>164.82</ele>
        <time>2019-12-01T10:23:43.000Z</time>
      </trkpt>
      <trkpt lat="46.55919" lon="0.17038">
        <ele>165.35</ele>
        <time>2019-12-01T10:23:46.000Z</time>
      </trkpt>
      <trkpt lat="46.5593" lon="0.17033">
        <ele>166.01</ele>
        <time>2019-12-01T10:23:48.000Z</time>
      </trkpt>
      <trkpt lat="46.55942" lon="0.17025">
        <ele>166.27</ele>
        <time>2019-12-01T10:23:51.000Z</time>
      </trkpt>
      <trkpt lat="46.55951" lon="0.17019">
        <ele>168.16</ele>
        <time>2019-12-01T10:23:53.000Z</time>
      </trkpt>
      <trkpt lat="46.5596" lon="0.17014">
        <ele>169.46</ele>
        <time>2019-12-01T10:23:55.000Z</time>
      </trkpt>
      <trkpt lat="46.55971" lon="0.1701">
        <ele>171.73</ele>
        <time>2019-12-01T10:23:59.000Z</time>
      </trkpt>
      <trkpt lat="46.55981" lon="0.1701">
        <ele>172.43</ele>
        <time>2019-12-01T10:24:01.000Z</time>
      </trkpt>
      <trkpt lat="46.55991" lon="0.17016">
        <ele>172.42</ele>
        <time>2019-12-01T10:24:03.000Z</time>
      </trkpt>
      <trkpt lat="46.56001" lon="0.17024">
        <ele>172.32</ele>
        <time>2019-12-01T10:24:05.000Z</time>
      </trkpt>
      <trkpt lat="46.56009" lon="0.17037">
        <ele>171.48</ele>
        <time>2019-12-01T10:24:07.000Z</time>
      </trkpt>
      <trkpt lat="46.56014" lon="0.17054">
        <ele>171.1</ele>
        <time>2019-12-01T10:24:09.000Z</time>
      </trkpt>
      <trkpt lat="46.56019" lon="0.17069">
        <ele>171.14</ele>
        <time>2019-12-01T10:24:12.000Z</time>
      </trkpt>
      <trkpt lat="46.56022" lon="0.17084">
        <ele>171.27</ele>
        <time>2019-12-01T10:24:15.000Z</time>
      </trkpt>
      <trkpt lat="46.56023" lon="0.171">
        <ele>171.35</ele>
        <time>2019-12-01T10:24:19.000Z</time>
      </trkpt>
      <trkpt lat="46.56025" lon="0.17115">
        <ele>171.73</ele>
        <time>2019-12-01T10:24:24.000Z</time>
      </trkpt>
      <trkpt lat="46.56027" lon="0.17129">
        <ele>172.56</ele>
        <time>2019-12-01T10:24:29.000Z</time>
      </trkpt>
      <trkpt lat="46.56026" lon="0.17144">
        <ele>172.91</ele>
        <time>2019-12-01T10:24:34.000Z</time>
      </trkpt>
      <trkpt lat="46.56028" lon="0.17158">
        <ele>172.92</ele>
        <time>2019-12-01T10:24:37.000Z</time>
      </trkpt>
      <trkpt lat="46.56029" lon="0.17174">
        <ele>172.71</ele>
        <time>2019-12-01T10:24:41.000Z</time>
      </trkpt>
      <trkpt lat="46.56029" lon="0.1719">
        <ele>172.69</ele>
        <time>2019-12-01T10:24:45.000Z</time>
      </trkpt>
      <trkpt lat="46.56031" lon="0.17204">
        <ele>173.6</ele>
        <time>2019-12-01T10:24:53.000Z</time>
      </trkpt>
      <trkpt lat="46.56031" lon="0.17218">
        <ele>174.76</ele>
        <time>2019-12-01T10:24:59.000Z</time>
      </trkpt>
      <trkpt lat="46.56028" lon="0.17235">
        <ele>175.5</ele>
        <time>2019-12-01T10:25:04.000Z</time>
      </trkpt>
      <trkpt lat="46.56028" lon="0.17251">
        <ele>176.55</ele>
        <time>2019-12-01T10:25:09.000Z</time>
      </trkpt>
      <trkpt lat="46.56027" lon="0.17264">
        <ele>177.2</ele>
        <time>2019-12-01T10:25:13.000Z</time>
      </trkpt>
      <trkpt lat="46.56027" lon="0.17279">
        <ele>177.98</ele>
        <time>2019-12-01T10:25:17.000Z</time>
      </trkpt>
      <trkpt lat="46.56019" lon="0.1729">
        <ele>179.33</ele>
        <time>2019-12-01T10:25:22.000Z</time>
      </trkpt>
      <trkpt lat="46.56016" lon="0.17303">
        <ele>180.47</ele>
        <time>2019-12-01T10:25:26.000Z</time>
      </trkpt>
      <trkpt lat="46.56015" lon="0.1732">
        <ele>181.55</ele>
        <time>2019-12-01T10:25:30.000Z</time>
      </trkpt>
      <trkpt lat="46.56015" lon="0.17336">
        <ele>182.62</ele>
        <time>2019-12-01T10:25:34.000Z</time>
      </trkpt>
      <trkpt lat="46.56014" lon="0.17351">
        <ele>183.61</ele>
        <time>2019-12-01T10:25:38.000Z</time>
      </trkpt>
      <trkpt lat="46.56012" lon="0.17366">
        <ele>184.57</ele>
        <time>2019-12-01T10:25:42.000Z</time>
      </trkpt>
      <trkpt lat="46.56009" lon="0.17382">
        <ele>185.55</ele>
        <time>2019-12-01T10:25:46.000Z</time>
      </trkpt>
      <trkpt lat="46.56006" lon="0.17396">
        <ele>186.45</ele>
        <time>2019-12-01T10:25:50.000Z</time>
      </trkpt>
      <trkpt lat="46.56006" lon="0.17412">
        <ele>187.18</ele>
        <time>2019-12-01T10:25:54.000Z</time>
      </trkpt>
      <trkpt lat="46.56008" lon="0.17428">
        <ele>187.66</ele>
        <time>2019-12-01T10:25:57.000Z</time>
      </trkpt>
      <trkpt lat="46.56009" lon="0.17441">
        <ele>188.08</ele>
        <time>2019-12-01T10:26:00.000Z</time>
      </trkpt>
      <trkpt lat="46.56009" lon="0.17459">
        <ele>188.62</ele>
        <time>2019-12-01T10:26:04.000Z</time>
      </trkpt>
      <trkpt lat="46.56002" lon="0.1747">
        <ele>188.85</ele>
        <time>2019-12-01T10:26:09.000Z</time>
      </trkpt>
      <trkpt lat="46.56002" lon="0.17483">
        <ele>188.97</ele>
        <time>2019-12-01T10:26:15.000Z</time>
      </trkpt>
      <trkpt lat="46.56007" lon="0.175">
        <ele>189.15</ele>
        <time>2019-12-01T10:26:18.000Z</time>
      </trkpt>
      <trkpt lat="46.5601" lon="0.17517">
        <ele>189</ele>
        <time>2019-12-01T10:26:20.000Z</time>
      </trkpt>
      <trkpt lat="46.56013" lon="0.17532">
        <ele>188.97</ele>
        <time>2019-12-01T10:26:22.000Z</time>
      </trkpt>
      <trkpt lat="46.56015" lon="0.17552">
        <ele>187.3</ele>
        <time>2019-12-01T10:26:25.000Z</time>
      </trkpt>
      <trkpt lat="46.56017" lon="0.17569">
        <ele>185.62</ele>
        <time>2019-12-01T10:26:28.000Z</time>
      </trkpt>
      <trkpt lat="46.56022" lon="0.17581">
        <ele>185.14</ele>
        <time>2019-12-01T10:26:32.000Z</time>
      </trkpt>
      <trkpt lat="46.56029" lon="0.1759">
        <ele>183.62</ele>
        <time>2019-12-01T10:26:34.000Z</time>
      </trkpt>
      <trkpt lat="46.56032" lon="0.17603">
        <ele>182.79</ele>
        <time>2019-12-01T10:26:36.000Z</time>
      </trkpt>
      <trkpt lat="46.56038" lon="0.1762">
        <ele>181.8</ele>
        <time>2019-12-01T10:26:39.000Z</time>
      </trkpt>
      <trkpt lat="46.56041" lon="0.17632">
        <ele>181.71</ele>
        <time>2019-12-01T10:26:41.000Z</time>
      </trkpt>
      <trkpt lat="46.56046" lon="0.17646">
        <ele>181.69</ele>
        <time>2019-12-01T10:26:44.000Z</time>
      </trkpt>
      <trkpt lat="46.56049" lon="0.17659">
        <ele>181.71</ele>
        <time>2019-12-01T10:26:47.000Z</time>
      </trkpt>
      <trkpt lat="46.56055" lon="0.17672">
        <ele>181.9</ele>
        <time>2019-12-01T10:26:51.000Z</time>
      </trkpt>
      <trkpt lat="46.56061" lon="0.17683">
        <ele>182.29</ele>
        <time>2019-12-01T10:26:56.000Z</time>
      </trkpt>
      <trkpt lat="46.56067" lon="0.17697">
        <ele>182.64</ele>
        <time>2019-12-01T10:27:03.000Z</time>
      </trkpt>
      <trkpt lat="46.56067" lon="0.17711">
        <ele>183.02</ele>
        <time>2019-12-01T10:27:09.000Z</time>
      </trkpt>
      <trkpt lat="46.56068" lon="0.17726">
        <ele>183.47</ele>
        <time>2019-12-01T10:27:15.000Z</time>
      </trkpt>
      <trkpt lat="46.56074" lon="0.1774">
        <ele>183.92</ele>
        <time>2019-12-01T10:27:21.000Z</time>
      </trkpt>
      <trkpt lat="46.56076" lon="0.17755">
        <ele>184.43</ele>
        <time>2019-12-01T10:27:26.000Z</time>
      </trkpt>
      <trkpt lat="46.56081" lon="0.17768">
        <ele>184.72</ele>
        <time>2019-12-01T10:27:30.000Z</time>
      </trkpt>
      <trkpt lat="46.56087" lon="0.17779">
        <ele>185.27</ele>
        <time>2019-12-01T10:27:34.000Z</time>
      </trkpt>
      <trkpt lat="46.56094" lon="0.17789">
        <ele>185.95</ele>
        <time>2019-12-01T10:27:38.000Z</time>
      </trkpt>
      <trkpt lat="46.56102" lon="0.17802">
        <ele>186.42</ele>
        <time>2019-12-01T10:27:42.000Z</time>
      </trkpt>
      <trkpt lat="46.5611" lon="0.17814">
        <ele>186.64</ele>
        <time>2019-12-01T10:27:45.000Z</time>
      </trkpt>
      <trkpt lat="46.56117" lon="0.17827">
        <ele>186.89</ele>
        <time>2019-12-01T10:27:48.000Z</time>
      </trkpt>
      <trkpt lat="46.56125" lon="0.17844">
        <ele>187.34</ele>
        <time>2019-12-01T10:27:51.000Z</time>
      </trkpt>
      <trkpt lat="46.5613" lon="0.17855">
        <ele>187.78</ele>
        <time>2019-12-01T10:27:54.000Z</time>
      </trkpt>
      <trkpt lat="46.56137" lon="0.17866">
        <ele>188.01</ele>
        <time>2019-12-01T10:27:57.000Z</time>
      </trkpt>
      <trkpt lat="46.56147" lon="0.17875">
        <ele>188.42</ele>
        <time>2019-12-01T10:28:01.000Z</time>
      </trkpt>
      <trkpt lat="46.56155" lon="0.17882">
        <ele>188.93</ele>
        <time>2019-12-01T10:28:04.000Z</time>
      </trkpt>
      <trkpt lat="46.56164" lon="0.1789">
        <ele>189.51</ele>
        <time>2019-12-01T10:28:08.000Z</time>
      </trkpt>
      <trkpt lat="46.56173" lon="0.17899">
        <ele>189.78</ele>
        <time>2019-12-01T10:28:11.000Z</time>
      </trkpt>
      <trkpt lat="46.5618" lon="0.17908">
        <ele>189.9</ele>
        <time>2019-12-01T10:28:14.000Z</time>
      </trkpt>
      <trkpt lat="46.56188" lon="0.17918">
        <ele>190.16</ele>
        <time>2019-12-01T10:28:19.000Z</time>
      </trkpt>
      <trkpt lat="46.56197" lon="0.1793">
        <ele>190.75</ele>
        <time>2019-12-01T10:28:24.000Z</time>
      </trkpt>
      <trkpt lat="46.56206" lon="0.17937">
        <ele>191.45</ele>
        <time>2019-12-01T10:28:29.000Z</time>
      </trkpt>
      <trkpt lat="46.56216" lon="0.17941">
        <ele>192.07</ele>
        <time>2019-12-01T10:28:33.000Z</time>
      </trkpt>
      <trkpt lat="46.56228" lon="0.17948">
        <ele>192.35</ele>
        <time>2019-12-01T10:28:36.000Z</time>
      </trkpt>
      <trkpt lat="46.56238" lon="0.17957">
        <ele>192.34</ele>
        <time>2019-12-01T10:28:39.000Z</time>
      </trkpt>
      <trkpt lat="46.56251" lon="0.17959">
        <ele>192.5</ele>
        <time>2019-12-01T10:28:41.000Z</time>
      </trkpt>
      <trkpt lat="46.5626" lon="0.17961">
        <ele>192.71</ele>
        <time>2019-12-01T10:28:44.000Z</time>
      </trkpt>
      <trkpt lat="46.56269" lon="0.17969">
        <ele>192.84</ele>
        <time>2019-12-01T10:28:47.000Z</time>
      </trkpt>
      <trkpt lat="46.56281" lon="0.17976">
        <ele>192.64</ele>
        <time>2019-12-01T10:28:51.000Z</time>
      </trkpt>
      <trkpt lat="46.5629" lon="0.17981">
        <ele>192.68</ele>
        <time>2019-12-01T10:28:54.000Z</time>
      </trkpt>
      <trkpt lat="46.563" lon="0.17985">
        <ele>192.84</ele>
        <time>2019-12-01T10:28:56.000Z</time>
      </trkpt>
      <trkpt lat="46.5631" lon="0.17988">
        <ele>193.08</ele>
        <time>2019-12-01T10:28:59.000Z</time>
      </trkpt>
      <trkpt lat="46.56319" lon="0.17994">
        <ele>193.23</ele>
        <time>2019-12-01T10:29:02.000Z</time>
      </trkpt>
      <trkpt lat="46.56332" lon="0.17997">
        <ele>193.44</ele>
        <time>2019-12-01T10:29:06.000Z</time>
      </trkpt>
      <trkpt lat="46.56345" lon="0.17997">
        <ele>193.87</ele>
        <time>2019-12-01T10:29:09.000Z</time>
      </trkpt>
      <trkpt lat="46.56356" lon="0.17999">
        <ele>194.22</ele>
        <time>2019-12-01T10:29:11.000Z</time>
      </trkpt>
      <trkpt lat="46.56366" lon="0.18">
        <ele>194.91</ele>
        <time>2019-12-01T10:29:13.000Z</time>
      </trkpt>
      <trkpt lat="46.56378" lon="0.18">
        <ele>196.11</ele>
        <time>2019-12-01T10:29:15.000Z</time>
      </trkpt>
      <trkpt lat="46.56389" lon="0.17996">
        <ele>196.64</ele>
        <time>2019-12-01T10:29:17.000Z</time>
      </trkpt>
      <trkpt lat="46.56401" lon="0.17994">
        <ele>196.79</ele>
        <time>2019-12-01T10:29:19.000Z</time>
      </trkpt>
      <trkpt lat="46.56413" lon="0.17993">
        <ele>196.64</ele>
        <time>2019-12-01T10:29:21.000Z</time>
      </trkpt>
      <trkpt lat="46.56426" lon="0.17993">
        <ele>195.57</ele>
        <time>2019-12-01T10:29:23.000Z</time>
      </trkpt>
      <trkpt lat="46.56439" lon="0.17995">
        <ele>195.37</ele>
        <time>2019-12-01T10:29:25.000Z</time>
      </trkpt>
      <trkpt lat="46.5645" lon="0.17994">
        <ele>194.95</ele>
        <time>2019-12-01T10:29:28.000Z</time>
      </trkpt>
      <trkpt lat="46.56461" lon="0.17993">
        <ele>194.57</ele>
        <time>2019-12-01T10:29:31.000Z</time>
      </trkpt>
      <trkpt lat="46.56471" lon="0.17994">
        <ele>194.41</ele>
        <time>2019-12-01T10:29:33.000Z</time>
      </trkpt>
      <trkpt lat="46.56482" lon="0.17996">
        <ele>194.21</ele>
        <time>2019-12-01T10:29:35.000Z</time>
      </trkpt>
      <trkpt lat="46.56493" lon="0.17997">
        <ele>193.93</ele>
        <time>2019-12-01T10:29:38.000Z</time>
      </trkpt>
      <trkpt lat="46.56504" lon="0.17993">
        <ele>191.51</ele>
        <time>2019-12-01T10:29:41.000Z</time>
      </trkpt>
      <trkpt lat="46.56513" lon="0.17991">
        <ele>191.47</ele>
        <time>2019-12-01T10:29:43.000Z</time>
      </trkpt>
      <trkpt lat="46.56522" lon="0.17988">
        <ele>191.25</ele>
        <time>2019-12-01T10:29:45.000Z</time>
      </trkpt>
      <trkpt lat="46.56532" lon="0.17986">
        <ele>191.24</ele>
        <time>2019-12-01T10:29:47.000Z</time>
      </trkpt>
      <trkpt lat="46.56544" lon="0.17985">
        <ele>190.81</ele>
        <time>2019-12-01T10:29:49.000Z</time>
      </trkpt>
      <trkpt lat="46.56557" lon="0.17981">
        <ele>190.22</ele>
        <time>2019-12-01T10:29:51.000Z</time>
      </trkpt>
      <trkpt lat="46.56568" lon="0.17986">
        <ele>190.17</ele>
        <time>2019-12-01T10:29:53.000Z</time>
      </trkpt>
      <trkpt lat="46.56577" lon="0.17992">
        <ele>190.1</ele>
        <time>2019-12-01T10:29:55.000Z</time>
      </trkpt>
      <trkpt lat="46.56589" lon="0.17998">
        <ele>190.09</ele>
        <time>2019-12-01T10:29:57.000Z</time>
      </trkpt>
      <trkpt lat="46.56601" lon="0.18">
        <ele>188.69</ele>
        <time>2019-12-01T10:30:00.000Z</time>
      </trkpt>
      <trkpt lat="46.56614" lon="0.18001">
        <ele>187.96</ele>
        <time>2019-12-01T10:30:02.000Z</time>
      </trkpt>
      <trkpt lat="46.56626" lon="0.18001">
        <ele>188.98</ele>
        <time>2019-12-01T10:30:04.000Z</time>
      </trkpt>
      <trkpt lat="46.56639" lon="0.17999">
        <ele>190.3</ele>
        <time>2019-12-01T10:30:06.000Z</time>
      </trkpt>
      <trkpt lat="46.56652" lon="0.18">
        <ele>190.95</ele>
        <time>2019-12-01T10:30:08.000Z</time>
      </trkpt>
      <trkpt lat="46.56665" lon="0.17995">
        <ele>189.72</ele>
        <time>2019-12-01T10:30:10.000Z</time>
      </trkpt>
      <trkpt lat="46.56677" lon="0.18002">
        <ele>188.74</ele>
        <time>2019-12-01T10:30:12.000Z</time>
      </trkpt>
      <trkpt lat="46.56683" lon="0.18016">
        <ele>186.71</ele>
        <time>2019-12-01T10:30:14.000Z</time>
      </trkpt>
      <trkpt lat="46.56692" lon="0.1803">
        <ele>184.6</ele>
        <time>2019-12-01T10:30:16.000Z</time>
      </trkpt>
      <trkpt lat="46.56703" lon="0.18033">
        <ele>183.46</ele>
        <time>2019-12-01T10:30:19.000Z</time>
      </trkpt>
      <trkpt lat="46.56711" lon="0.1802">
        <ele>181.43</ele>
        <time>2019-12-01T10:30:21.000Z</time>
      </trkpt>
      <trkpt lat="46.56721" lon="0.18009">
        <ele>179.92</ele>
        <time>2019-12-01T10:30:23.000Z</time>
      </trkpt>
      <trkpt lat="46.56731" lon="0.17998">
        <ele>179.32</ele>
        <time>2019-12-01T10:30:25.000Z</time>
      </trkpt>
      <trkpt lat="46.56739" lon="0.17987">
        <ele>179.24</ele>
        <time>2019-12-01T10:30:27.000Z</time>
      </trkpt>
      <trkpt lat="46.56748" lon="0.17975">
        <ele>179.12</ele>
        <time>2019-12-01T10:30:29.000Z</time>
      </trkpt>
      <trkpt lat="46.56754" lon="0.17964">
        <ele>178.88</ele>
        <time>2019-12-01T10:30:31.000Z</time>
      </trkpt>
      <trkpt lat="46.5676" lon="0.1795">
        <ele>178.27</ele>
        <time>2019-12-01T10:30:33.000Z</time>
      </trkpt>
      <trkpt lat="46.56767" lon="0.17933">
        <ele>177.7</ele>
        <time>2019-12-01T10:30:35.000Z</time>
      </trkpt>
      <trkpt lat="46.56774" lon="0.17916">
        <ele>176.99</ele>
        <time>2019-12-01T10:30:37.000Z</time>
      </trkpt>
      <trkpt lat="46.56781" lon="0.17899">
        <ele>176.35</ele>
        <time>2019-12-01T10:30:39.000Z</time>
      </trkpt>
      <trkpt lat="46.56787" lon="0.17883">
        <ele>175.69</ele>
        <time>2019-12-01T10:30:41.000Z</time>
      </trkpt>
      <trkpt lat="46.56794" lon="0.17867">
        <ele>175.19</ele>
        <time>2019-12-01T10:30:43.000Z</time>
      </trkpt>
      <trkpt lat="46.56801" lon="0.17849">
        <ele>174.46</ele>
        <time>2019-12-01T10:30:45.000Z</time>
      </trkpt>
      <trkpt lat="46.56807" lon="0.17829">
        <ele>173.31</ele>
        <time>2019-12-01T10:30:47.000Z</time>
      </trkpt>
      <trkpt lat="46.56814" lon="0.17806">
        <ele>172.09</ele>
        <time>2019-12-01T10:30:49.000Z</time>
      </trkpt>
      <trkpt lat="46.56821" lon="0.17783">
        <ele>170.51</ele>
        <time>2019-12-01T10:30:51.000Z</time>
      </trkpt>
      <trkpt lat="46.56826" lon="0.17761">
        <ele>169.62</ele>
        <time>2019-12-01T10:30:53.000Z</time>
      </trkpt>
      <trkpt lat="46.56825" lon="0.1774">
        <ele>168.72</ele>
        <time>2019-12-01T10:30:55.000Z</time>
      </trkpt>
      <trkpt lat="46.56818" lon="0.17722">
        <ele>167.79</ele>
        <time>2019-12-01T10:30:57.000Z</time>
      </trkpt>
      <trkpt lat="46.5681" lon="0.17706">
        <ele>167.08</ele>
        <time>2019-12-01T10:30:59.000Z</time>
      </trkpt>
      <trkpt lat="46.56803" lon="0.17692">
        <ele>166.55</ele>
        <time>2019-12-01T10:31:01.000Z</time>
      </trkpt>
      <trkpt lat="46.56798" lon="0.17677">
        <ele>166.33</ele>
        <time>2019-12-01T10:31:03.000Z</time>
      </trkpt>
      <trkpt lat="46.56791" lon="0.17664">
        <ele>166.02</ele>
        <time>2019-12-01T10:31:05.000Z</time>
      </trkpt>
      <trkpt lat="46.56784" lon="0.17654">
        <ele>165.7</ele>
        <time>2019-12-01T10:31:07.000Z</time>
      </trkpt>
      <trkpt lat="46.56774" lon="0.17647">
        <ele>165.64</ele>
        <time>2019-12-01T10:31:09.000Z</time>
      </trkpt>
      <trkpt lat="46.56763" lon="0.17642">
        <ele>165.63</ele>
        <time>2019-12-01T10:31:11.000Z</time>
      </trkpt>
      <trkpt lat="46.56751" lon="0.17641">
        <ele>166.4</ele>
        <time>2019-12-01T10:31:13.000Z</time>
      </trkpt>
      <trkpt lat="46.56739" lon="0.17638">
        <ele>166.74</ele>
        <time>2019-12-01T10:31:15.000Z</time>
      </trkpt>
      <trkpt lat="46.56727" lon="0.17636">
        <ele>167.71</ele>
        <time>2019-12-01T10:31:17.000Z</time>
      </trkpt>
      <trkpt lat="46.56715" lon="0.17635">
        <ele>168.36</ele>
        <time>2019-12-01T10:31:19.000Z</time>
      </trkpt>
      <trkpt lat="46.56705" lon="0.17633">
        <ele>170.05</ele>
        <time>2019-12-01T10:31:21.000Z</time>
      </trkpt>
      <trkpt lat="46.56695" lon="0.1763">
        <ele>171.82</ele>
        <time>2019-12-01T10:31:23.000Z</time>
      </trkpt>
      <trkpt lat="46.56686" lon="0.17622">
        <ele>173.46</ele>
        <time>2019-12-01T10:31:25.000Z</time>
      </trkpt>
      <trkpt lat="46.56678" lon="0.17608">
        <ele>174.35</ele>
        <time>2019-12-01T10:31:28.000Z</time>
      </trkpt>
      <trkpt lat="46.56675" lon="0.17595">
        <ele>174.73</ele>
        <time>2019-12-01T10:31:31.000Z</time>
      </trkpt>
      <trkpt lat="46.56677" lon="0.17579">
        <ele>175.44</ele>
        <time>2019-12-01T10:31:36.000Z</time>
      </trkpt>
      <trkpt lat="46.56683" lon="0.17567">
        <ele>175.78</ele>
        <time>2019-12-01T10:31:40.000Z</time>
      </trkpt>
      <trkpt lat="46.56688" lon="0.17552">
        <ele>175.98</ele>
        <time>2019-12-01T10:31:43.000Z</time>
      </trkpt>
      <trkpt lat="46.56691" lon="0.17539">
        <ele>176.11</ele>
        <time>2019-12-01T10:31:47.000Z</time>
      </trkpt>
      <trkpt lat="46.56699" lon="0.17528">
        <ele>176.58</ele>
        <time>2019-12-01T10:31:54.000Z</time>
      </trkpt>
      <trkpt lat="46.56706" lon="0.1752">
        <ele>176.84</ele>
        <time>2019-12-01T10:31:58.000Z</time>
      </trkpt>
      <trkpt lat="46.56709" lon="0.17507">
        <ele>177.34</ele>
        <time>2019-12-01T10:32:05.000Z</time>
      </trkpt>
      <trkpt lat="46.56714" lon="0.17496">
        <ele>177.42</ele>
        <time>2019-12-01T10:32:11.000Z</time>
      </trkpt>
      <trkpt lat="46.5672" lon="0.17485">
        <ele>177.45</ele>
        <time>2019-12-01T10:32:19.000Z</time>
      </trkpt>
      <trkpt lat="46.56728" lon="0.17475">
        <ele>177.88</ele>
        <time>2019-12-01T10:32:28.000Z</time>
      </trkpt>
      <trkpt lat="46.56735" lon="0.17465">
        <ele>178.3</ele>
        <time>2019-12-01T10:32:36.000Z</time>
      </trkpt>
      <trkpt lat="46.56742" lon="0.17455">
        <ele>178.25</ele>
        <time>2019-12-01T10:32:45.000Z</time>
      </trkpt>
      <trkpt lat="46.56746" lon="0.17443">
        <ele>178.71</ele>
        <time>2019-12-01T10:32:55.000Z</time>
      </trkpt>
      <trkpt lat="46.56755" lon="0.17436">
        <ele>179.41</ele>
        <time>2019-12-01T10:33:04.000Z</time>
      </trkpt>
      <trkpt lat="46.5676" lon="0.17423">
        <ele>180.14</ele>
        <time>2019-12-01T10:33:13.000Z</time>
      </trkpt>
      <trkpt lat="46.56766" lon="0.17412">
        <ele>180.78</ele>
        <time>2019-12-01T10:33:21.000Z</time>
      </trkpt>
      <trkpt lat="46.56774" lon="0.17406">
        <ele>181.29</ele>
        <time>2019-12-01T10:33:29.000Z</time>
      </trkpt>
      <trkpt lat="46.56779" lon="0.17393">
        <ele>182.01</ele>
        <time>2019-12-01T10:33:36.000Z</time>
      </trkpt>
      <trkpt lat="46.56785" lon="0.17383">
        <ele>182.73</ele>
        <time>2019-12-01T10:33:44.000Z</time>
      </trkpt>
      <trkpt lat="46.56793" lon="0.17373">
        <ele>183.81</ele>
        <time>2019-12-01T10:33:50.000Z</time>
      </trkpt>
      <trkpt lat="46.56802" lon="0.17376">
        <ele>185.55</ele>
        <time>2019-12-01T10:33:57.000Z</time>
      </trkpt>
      <trkpt lat="46.56813" lon="0.17375">
        <ele>187.4</ele>
        <time>2019-12-01T10:34:04.000Z</time>
      </trkpt>
      <trkpt lat="46.56824" lon="0.17373">
        <ele>189.07</ele>
        <time>2019-12-01T10:34:12.000Z</time>
      </trkpt>
      <trkpt lat="46.56832" lon="0.17379">
        <ele>190.19</ele>
        <time>2019-12-01T10:34:16.000Z</time>
      </trkpt>
      <trkpt lat="46.56842" lon="0.17384">
        <ele>191.99</ele>
        <time>2019-12-01T10:34:22.000Z</time>
      </trkpt>
      <trkpt lat="46.56846" lon="0.17395">
        <ele>194.62</ele>
        <time>2019-12-01T10:34:31.000Z</time>
      </trkpt>
      <trkpt lat="46.56856" lon="0.17394">
        <ele>195.82</ele>
        <time>2019-12-01T10:34:37.000Z</time>
      </trkpt>
      <trkpt lat="46.56866" lon="0.17391">
        <ele>196.25</ele>
        <time>2019-12-01T10:34:42.000Z</time>
      </trkpt>
      <trkpt lat="46.56877" lon="0.17395">
        <ele>196.89</ele>
        <time>2019-12-01T10:34:50.000Z</time>
      </trkpt>
      <trkpt lat="46.56888" lon="0.17399">
        <ele>197.34</ele>
        <time>2019-12-01T10:34:54.000Z</time>
      </trkpt>
      <trkpt lat="46.56897" lon="0.17397">
        <ele>197.71</ele>
        <time>2019-12-01T10:34:58.000Z</time>
      </trkpt>
      <trkpt lat="46.56906" lon="0.17394">
        <ele>197.83</ele>
        <time>2019-12-01T10:35:01.000Z</time>
      </trkpt>
      <trkpt lat="46.56918" lon="0.17392">
        <ele>197.88</ele>
        <time>2019-12-01T10:35:05.000Z</time>
      </trkpt>
      <trkpt lat="46.56927" lon="0.17392">
        <ele>197.84</ele>
        <time>2019-12-01T10:35:07.000Z</time>
      </trkpt>
      <trkpt lat="46.56936" lon="0.17397">
        <ele>197.76</ele>
        <time>2019-12-01T10:35:12.000Z</time>
      </trkpt>
      <trkpt lat="46.56936" lon="0.17383">
        <ele>198.36</ele>
        <time>2019-12-01T10:35:37.000Z</time>
      </trkpt>
      <trkpt lat="46.56937" lon="0.17366">
        <ele>198.3</ele>
        <time>2019-12-01T10:35:41.000Z</time>
      </trkpt>
      <trkpt lat="46.56937" lon="0.17349">
        <ele>198.05</ele>
        <time>2019-12-01T10:35:44.000Z</time>
      </trkpt>
      <trkpt lat="46.56938" lon="0.17336">
        <ele>197.64</ele>
        <time>2019-12-01T10:35:46.000Z</time>
      </trkpt>
      <trkpt lat="46.56939" lon="0.17322">
        <ele>197.05</ele>
        <time>2019-12-01T10:35:48.000Z</time>
      </trkpt>
      <trkpt lat="46.56941" lon="0.17308">
        <ele>196.04</ele>
        <time>2019-12-01T10:35:50.000Z</time>
      </trkpt>
      <trkpt lat="46.56944" lon="0.17291">
        <ele>194.91</ele>
        <time>2019-12-01T10:35:52.000Z</time>
      </trkpt>
      <trkpt lat="46.56943" lon="0.17277">
        <ele>193.81</ele>
        <time>2019-12-01T10:35:54.000Z</time>
      </trkpt>
      <trkpt lat="46.56939" lon="0.17265">
        <ele>192.89</ele>
        <time>2019-12-01T10:35:56.000Z</time>
      </trkpt>
      <trkpt lat="46.56941" lon="0.17251">
        <ele>192.35</ele>
        <time>2019-12-01T10:35:58.000Z</time>
      </trkpt>
      <trkpt lat="46.56942" lon="0.17237">
        <ele>192.32</ele>
        <time>2019-12-01T10:36:00.000Z</time>
      </trkpt>
      <trkpt lat="46.56942" lon="0.17222">
        <ele>192.96</ele>
        <time>2019-12-01T10:36:02.000Z</time>
      </trkpt>
      <trkpt lat="46.56944" lon="0.17204">
        <ele>192.51</ele>
        <time>2019-12-01T10:36:05.000Z</time>
      </trkpt>
      <trkpt lat="46.56943" lon="0.17188">
        <ele>191.72</ele>
        <time>2019-12-01T10:36:07.000Z</time>
      </trkpt>
      <trkpt lat="46.56947" lon="0.17171">
        <ele>191.93</ele>
        <time>2019-12-01T10:36:12.000Z</time>
      </trkpt>
      <trkpt lat="46.56954" lon="0.17161">
        <ele>192.23</ele>
        <time>2019-12-01T10:36:15.000Z</time>
      </trkpt>
      <trkpt lat="46.56961" lon="0.17153">
        <ele>192.46</ele>
        <time>2019-12-01T10:36:17.000Z</time>
      </trkpt>
      <trkpt lat="46.56971" lon="0.17142">
        <ele>192.97</ele>
        <time>2019-12-01T10:36:21.000Z</time>
      </trkpt>
      <trkpt lat="46.56981" lon="0.17131">
        <ele>193.57</ele>
        <time>2019-12-01T10:36:25.000Z</time>
      </trkpt>
      <trkpt lat="46.5699" lon="0.17121">
        <ele>193.98</ele>
        <time>2019-12-01T10:36:28.000Z</time>
      </trkpt>
      <trkpt lat="46.56999" lon="0.17111">
        <ele>194.66</ele>
        <time>2019-12-01T10:36:32.000Z</time>
      </trkpt>
      <trkpt lat="46.57009" lon="0.17101">
        <ele>195.56</ele>
        <time>2019-12-01T10:36:36.000Z</time>
      </trkpt>
      <trkpt lat="46.57018" lon="0.1709">
        <ele>196.22</ele>
        <time>2019-12-01T10:36:39.000Z</time>
      </trkpt>
      <trkpt lat="46.57025" lon="0.17081">
        <ele>196.93</ele>
        <time>2019-12-01T10:36:42.000Z</time>
      </trkpt>
      <trkpt lat="46.57032" lon="0.17071">
        <ele>197.7</ele>
        <time>2019-12-01T10:36:45.000Z</time>
      </trkpt>
      <trkpt lat="46.57039" lon="0.17059">
        <ele>198.15</ele>
        <time>2019-12-01T10:36:47.000Z</time>
      </trkpt>
      <trkpt lat="46.57046" lon="0.17049">
        <ele>198.53</ele>
        <time>2019-12-01T10:36:49.000Z</time>
      </trkpt>
      <trkpt lat="46.57058" lon="0.17036">
        <ele>199.45</ele>
        <time>2019-12-01T10:36:53.000Z</time>
      </trkpt>
      <trkpt lat="46.57066" lon="0.17028">
        <ele>199.87</ele>
        <time>2019-12-01T10:36:55.000Z</time>
      </trkpt>
      <trkpt lat="46.57076" lon="0.17022">
        <ele>200.25</ele>
        <time>2019-12-01T10:36:57.000Z</time>
      </trkpt>
      <trkpt lat="46.5709" lon="0.17015">
        <ele>201.02</ele>
        <time>2019-12-01T10:37:01.000Z</time>
      </trkpt>
      <trkpt lat="46.57099" lon="0.17004">
        <ele>201.84</ele>
        <time>2019-12-01T10:37:05.000Z</time>
      </trkpt>
      <trkpt lat="46.57109" lon="0.16998">
        <ele>202.46</ele>
        <time>2019-12-01T10:37:08.000Z</time>
      </trkpt>
      <trkpt lat="46.57117" lon="0.16986">
        <ele>202.87</ele>
        <time>2019-12-01T10:37:11.000Z</time>
      </trkpt>
      <trkpt lat="46.57125" lon="0.16975">
        <ele>203.42</ele>
        <time>2019-12-01T10:37:14.000Z</time>
      </trkpt>
      <trkpt lat="46.57135" lon="0.16965">
        <ele>203.87</ele>
        <time>2019-12-01T10:37:17.000Z</time>
      </trkpt>
      <trkpt lat="46.57143" lon="0.16955">
        <ele>204.04</ele>
        <time>2019-12-01T10:37:19.000Z</time>
      </trkpt>
      <trkpt lat="46.57152" lon="0.16945">
        <ele>204.36</ele>
        <time>2019-12-01T10:37:22.000Z</time>
      </trkpt>
      <trkpt lat="46.57164" lon="0.16933">
        <ele>204.64</ele>
        <time>2019-12-01T10:37:25.000Z</time>
      </trkpt>
      <trkpt lat="46.57173" lon="0.1692">
        <ele>204.83</ele>
        <time>2019-12-01T10:37:27.000Z</time>
      </trkpt>
      <trkpt lat="46.57185" lon="0.16907">
        <ele>204.6</ele>
        <time>2019-12-01T10:37:29.000Z</time>
      </trkpt>
      <trkpt lat="46.57197" lon="0.16899">
        <ele>203.15</ele>
        <time>2019-12-01T10:37:31.000Z</time>
      </trkpt>
      <trkpt lat="46.57206" lon="0.16887">
        <ele>201.95</ele>
        <time>2019-12-01T10:37:33.000Z</time>
      </trkpt>
      <trkpt lat="46.57213" lon="0.16877">
        <ele>201.78</ele>
        <time>2019-12-01T10:37:36.000Z</time>
      </trkpt>
      <trkpt lat="46.5722" lon="0.16868">
        <ele>201.53</ele>
        <time>2019-12-01T10:37:40.000Z</time>
      </trkpt>
      <trkpt lat="46.57229" lon="0.16858">
        <ele>201.31</ele>
        <time>2019-12-01T10:37:44.000Z</time>
      </trkpt>
      <trkpt lat="46.57239" lon="0.16847">
        <ele>201.19</ele>
        <time>2019-12-01T10:37:47.000Z</time>
      </trkpt>
      <trkpt lat="46.57251" lon="0.16838">
        <ele>201.19</ele>
        <time>2019-12-01T10:37:51.000Z</time>
      </trkpt>
      <trkpt lat="46.57259" lon="0.16831">
        <ele>201.23</ele>
        <time>2019-12-01T10:37:53.000Z</time>
      </trkpt>
      <trkpt lat="46.5727" lon="0.16827">
        <ele>201.21</ele>
        <time>2019-12-01T10:37:55.000Z</time>
      </trkpt>
      <trkpt lat="46.57277" lon="0.16818">
        <ele>201.49</ele>
        <time>2019-12-01T10:37:57.000Z</time>
      </trkpt>
      <trkpt lat="46.57284" lon="0.16807">
        <ele>201.53</ele>
        <time>2019-12-01T10:37:59.000Z</time>
      </trkpt>
      <trkpt lat="46.57292" lon="0.16797">
        <ele>201.66</ele>
        <time>2019-12-01T10:38:02.000Z</time>
      </trkpt>
      <trkpt lat="46.573" lon="0.16786">
        <ele>201.78</ele>
        <time>2019-12-01T10:38:04.000Z</time>
      </trkpt>
      <trkpt lat="46.57309" lon="0.16776">
        <ele>201.88</ele>
        <time>2019-12-01T10:38:06.000Z</time>
      </trkpt>
      <trkpt lat="46.57314" lon="0.16765">
        <ele>202.17</ele>
        <time>2019-12-01T10:38:09.000Z</time>
      </trkpt>
      <trkpt lat="46.57322" lon="0.16757">
        <ele>202.4</ele>
        <time>2019-12-01T10:38:11.000Z</time>
      </trkpt>
      <trkpt lat="46.57331" lon="0.16744">
        <ele>202.67</ele>
        <time>2019-12-01T10:38:14.000Z</time>
      </trkpt>
      <trkpt lat="46.57338" lon="0.16732">
        <ele>204.35</ele>
        <time>2019-12-01T10:38:16.000Z</time>
      </trkpt>
      <trkpt lat="46.57346" lon="0.16721">
        <ele>205.77</ele>
        <time>2019-12-01T10:38:18.000Z</time>
      </trkpt>
      <trkpt lat="46.57354" lon="0.16713">
        <ele>208.19</ele>
        <time>2019-12-01T10:38:20.000Z</time>
      </trkpt>
      <trkpt lat="46.57367" lon="0.16706">
        <ele>209.02</ele>
        <time>2019-12-01T10:38:23.000Z</time>
      </trkpt>
      <trkpt lat="46.57375" lon="0.167">
        <ele>209.09</ele>
        <time>2019-12-01T10:38:26.000Z</time>
      </trkpt>
      <trkpt lat="46.57386" lon="0.16692">
        <ele>209.22</ele>
        <time>2019-12-01T10:38:29.000Z</time>
      </trkpt>
      <trkpt lat="46.57394" lon="0.16684">
        <ele>209.1</ele>
        <time>2019-12-01T10:38:32.000Z</time>
      </trkpt>
      <trkpt lat="46.57404" lon="0.16674">
        <ele>208.79</ele>
        <time>2019-12-01T10:38:35.000Z</time>
      </trkpt>
      <trkpt lat="46.57415" lon="0.16663">
        <ele>208.4</ele>
        <time>2019-12-01T10:38:38.000Z</time>
      </trkpt>
      <trkpt lat="46.57423" lon="0.16652">
        <ele>207.01</ele>
        <time>2019-12-01T10:38:41.000Z</time>
      </trkpt>
      <trkpt lat="46.57432" lon="0.16641">
        <ele>206.78</ele>
        <time>2019-12-01T10:38:43.000Z</time>
      </trkpt>
      <trkpt lat="46.57441" lon="0.16633">
        <ele>204.42</ele>
        <time>2019-12-01T10:38:45.000Z</time>
      </trkpt>
      <trkpt lat="46.5745" lon="0.16623">
        <ele>202.58</ele>
        <time>2019-12-01T10:38:47.000Z</time>
      </trkpt>
      <trkpt lat="46.57461" lon="0.16612">
        <ele>201.61</ele>
        <time>2019-12-01T10:38:49.000Z</time>
      </trkpt>
      <trkpt lat="46.57471" lon="0.16604">
        <ele>200.93</ele>
        <time>2019-12-01T10:38:51.000Z</time>
      </trkpt>
      <trkpt lat="46.57479" lon="0.16592">
        <ele>200.89</ele>
        <time>2019-12-01T10:38:54.000Z</time>
      </trkpt>
      <trkpt lat="46.57487" lon="0.16584">
        <ele>200.85</ele>
        <time>2019-12-01T10:38:56.000Z</time>
      </trkpt>
      <trkpt lat="46.57498" lon="0.16575">
        <ele>200.78</ele>
        <time>2019-12-01T10:38:59.000Z</time>
      </trkpt>
      <trkpt lat="46.57509" lon="0.16564">
        <ele>200.76</ele>
        <time>2019-12-01T10:39:02.000Z</time>
      </trkpt>
      <trkpt lat="46.57517" lon="0.16554">
        <ele>200.66</ele>
        <time>2019-12-01T10:39:04.000Z</time>
      </trkpt>
      <trkpt lat="46.5752" lon="0.1654">
        <ele>200.51</ele>
        <time>2019-12-01T10:39:06.000Z</time>
      </trkpt>
      <trkpt lat="46.5753" lon="0.16528">
        <ele>200.33</ele>
        <time>2019-12-01T10:39:09.000Z</time>
      </trkpt>
      <trkpt lat="46.5754" lon="0.16519">
        <ele>199.95</ele>
        <time>2019-12-01T10:39:12.000Z</time>
      </trkpt>
      <trkpt lat="46.57549" lon="0.1651">
        <ele>199.49</ele>
        <time>2019-12-01T10:39:15.000Z</time>
      </trkpt>
      <trkpt lat="46.57555" lon="0.16499">
        <ele>198.9</ele>
        <time>2019-12-01T10:39:18.000Z</time>
      </trkpt>
      <trkpt lat="46.57566" lon="0.16489">
        <ele>198.22</ele>
        <time>2019-12-01T10:39:21.000Z</time>
      </trkpt>
      <trkpt lat="46.57574" lon="0.16476">
        <ele>197.54</ele>
        <time>2019-12-01T10:39:24.000Z</time>
      </trkpt>
      <trkpt lat="46.57581" lon="0.16465">
        <ele>196.86</ele>
        <time>2019-12-01T10:39:27.000Z</time>
      </trkpt>
      <trkpt lat="46.57588" lon="0.16451">
        <ele>196.13</ele>
        <time>2019-12-01T10:39:30.000Z</time>
      </trkpt>
      <trkpt lat="46.57597" lon="0.16438">
        <ele>195.42</ele>
        <time>2019-12-01T10:39:33.000Z</time>
      </trkpt>
      <trkpt lat="46.57602" lon="0.16424">
        <ele>194.58</ele>
        <time>2019-12-01T10:39:36.000Z</time>
      </trkpt>
      <trkpt lat="46.57607" lon="0.16411">
        <ele>190.81</ele>
        <time>2019-12-01T10:39:39.000Z</time>
      </trkpt>
      <trkpt lat="46.57612" lon="0.16399">
        <ele>190.16</ele>
        <time>2019-12-01T10:39:42.000Z</time>
      </trkpt>
      <trkpt lat="46.57617" lon="0.16389">
        <ele>189.52</ele>
        <time>2019-12-01T10:39:45.000Z</time>
      </trkpt>
      <trkpt lat="46.57624" lon="0.16373">
        <ele>187.07</ele>
        <time>2019-12-01T10:39:48.000Z</time>
      </trkpt>
      <trkpt lat="46.57629" lon="0.16359">
        <ele>184.99</ele>
        <time>2019-12-01T10:39:51.000Z</time>
      </trkpt>
      <trkpt lat="46.57633" lon="0.16345">
        <ele>184.68</ele>
        <time>2019-12-01T10:39:54.000Z</time>
      </trkpt>
      <trkpt lat="46.57639" lon="0.16331">
        <ele>182.65</ele>
        <time>2019-12-01T10:39:57.000Z</time>
      </trkpt>
      <trkpt lat="46.57645" lon="0.16316">
        <ele>181.27</ele>
        <time>2019-12-01T10:40:00.000Z</time>
      </trkpt>
      <trkpt lat="46.57648" lon="0.16301">
        <ele>182.59</ele>
        <time>2019-12-01T10:40:03.000Z</time>
      </trkpt>
      <trkpt lat="46.57652" lon="0.16286">
        <ele>184.14</ele>
        <time>2019-12-01T10:40:06.000Z</time>
      </trkpt>
      <trkpt lat="46.57654" lon="0.16272">
        <ele>185.19</ele>
        <time>2019-12-01T10:40:11.000Z</time>
      </trkpt>
      <trkpt lat="46.57659" lon="0.16257">
        <ele>186.3</ele>
        <time>2019-12-01T10:40:15.000Z</time>
      </trkpt>
      <trkpt lat="46.57662" lon="0.16242">
        <ele>187.77</ele>
        <time>2019-12-01T10:40:20.000Z</time>
      </trkpt>
      <trkpt lat="46.57666" lon="0.16228">
        <ele>188.97</ele>
        <time>2019-12-01T10:40:24.000Z</time>
      </trkpt>
      <trkpt lat="46.57674" lon="0.16214">
        <ele>189.89</ele>
        <time>2019-12-01T10:40:28.000Z</time>
      </trkpt>
      <trkpt lat="46.57679" lon="0.16201">
        <ele>190.2</ele>
        <time>2019-12-01T10:40:30.000Z</time>
      </trkpt>
      <trkpt lat="46.57682" lon="0.16184">
        <ele>191.14</ele>
        <time>2019-12-01T10:40:35.000Z</time>
      </trkpt>
      <trkpt lat="46.57687" lon="0.16173">
        <ele>191.65</ele>
        <time>2019-12-01T10:40:38.000Z</time>
      </trkpt>
      <trkpt lat="46.57688" lon="0.16159">
        <ele>192.12</ele>
        <time>2019-12-01T10:40:42.000Z</time>
      </trkpt>
      <trkpt lat="46.57691" lon="0.16142">
        <ele>192.42</ele>
        <time>2019-12-01T10:40:46.000Z</time>
      </trkpt>
      <trkpt lat="46.57697" lon="0.16132">
        <ele>192.47</ele>
        <time>2019-12-01T10:40:52.000Z</time>
      </trkpt>
      <trkpt lat="46.57704" lon="0.16119">
        <ele>192.49</ele>
        <time>2019-12-01T10:40:55.000Z</time>
      </trkpt>
      <trkpt lat="46.57711" lon="0.16106">
        <ele>192.52</ele>
        <time>2019-12-01T10:40:59.000Z</time>
      </trkpt>
      <trkpt lat="46.5772" lon="0.16097">
        <ele>192.44</ele>
        <time>2019-12-01T10:41:04.000Z</time>
      </trkpt>
      <trkpt lat="46.57729" lon="0.16085">
        <ele>192.33</ele>
        <time>2019-12-01T10:41:08.000Z</time>
      </trkpt>
      <trkpt lat="46.5774" lon="0.16075">
        <ele>192.22</ele>
        <time>2019-12-01T10:41:12.000Z</time>
      </trkpt>
      <trkpt lat="46.57744" lon="0.16063">
        <ele>192.15</ele>
        <time>2019-12-01T10:41:14.000Z</time>
      </trkpt>
      <trkpt lat="46.57751" lon="0.16048">
        <ele>191.94</ele>
        <time>2019-12-01T10:41:17.000Z</time>
      </trkpt>
      <trkpt lat="46.57758" lon="0.16039">
        <ele>192.28</ele>
        <time>2019-12-01T10:41:25.000Z</time>
      </trkpt>
      <trkpt lat="46.57765" lon="0.16027">
        <ele>192.88</ele>
        <time>2019-12-01T10:41:28.000Z</time>
      </trkpt>
      <trkpt lat="46.5777" lon="0.16016">
        <ele>193.86</ele>
        <time>2019-12-01T10:41:32.000Z</time>
      </trkpt>
      <trkpt lat="46.57776" lon="0.16002">
        <ele>194.83</ele>
        <time>2019-12-01T10:41:36.000Z</time>
      </trkpt>
      <trkpt lat="46.57781" lon="0.1599">
        <ele>195.72</ele>
        <time>2019-12-01T10:41:40.000Z</time>
      </trkpt>
      <trkpt lat="46.57788" lon="0.15979">
        <ele>196.7</ele>
        <time>2019-12-01T10:41:45.000Z</time>
      </trkpt>
      <trkpt lat="46.57793" lon="0.15969">
        <ele>197.19</ele>
        <time>2019-12-01T10:41:48.000Z</time>
      </trkpt>
      <trkpt lat="46.57798" lon="0.15955">
        <ele>197.7</ele>
        <time>2019-12-01T10:41:52.000Z</time>
      </trkpt>
      <trkpt lat="46.57805" lon="0.15966">
        <ele>199.19</ele>
        <time>2019-12-01T10:42:01.000Z</time>
      </trkpt>
      <trkpt lat="46.57807" lon="0.15981">
        <ele>199.46</ele>
        <time>2019-12-01T10:42:05.000Z</time>
      </trkpt>
      <trkpt lat="46.57807" lon="0.15998">
        <ele>199.56</ele>
        <time>2019-12-01T10:42:08.000Z</time>
      </trkpt>
      <trkpt lat="46.57805" lon="0.16015">
        <ele>199.89</ele>
        <time>2019-12-01T10:42:12.000Z</time>
      </trkpt>
      <trkpt lat="46.57806" lon="0.16031">
        <ele>200.47</ele>
        <time>2019-12-01T10:42:16.000Z</time>
      </trkpt>
      <trkpt lat="46.57803" lon="0.16044">
        <ele>200.92</ele>
        <time>2019-12-01T10:42:19.000Z</time>
      </trkpt>
      <trkpt lat="46.57806" lon="0.16061">
        <ele>202.96</ele>
        <time>2019-12-01T10:42:22.000Z</time>
      </trkpt>
      <trkpt lat="46.57816" lon="0.16072">
        <ele>203.11</ele>
        <time>2019-12-01T10:42:25.000Z</time>
      </trkpt>
      <trkpt lat="46.57825" lon="0.16077">
        <ele>203.23</ele>
        <time>2019-12-01T10:42:28.000Z</time>
      </trkpt>
      <trkpt lat="46.57834" lon="0.1608">
        <ele>203.29</ele>
        <time>2019-12-01T10:42:31.000Z</time>
      </trkpt>
      <trkpt lat="46.57846" lon="0.16085">
        <ele>204.9</ele>
        <time>2019-12-01T10:42:36.000Z</time>
      </trkpt>
      <trkpt lat="46.57855" lon="0.16091">
        <ele>207.73</ele>
        <time>2019-12-01T10:42:38.000Z</time>
      </trkpt>
      <trkpt lat="46.57865" lon="0.16095">
        <ele>209.35</ele>
        <time>2019-12-01T10:42:40.000Z</time>
      </trkpt>
      <trkpt lat="46.57876" lon="0.16101">
        <ele>210.6</ele>
        <time>2019-12-01T10:42:42.000Z</time>
      </trkpt>
      <trkpt lat="46.57886" lon="0.16106">
        <ele>211.16</ele>
        <time>2019-12-01T10:42:44.000Z</time>
      </trkpt>
      <trkpt lat="46.579" lon="0.16111">
        <ele>214.17</ele>
        <time>2019-12-01T10:42:47.000Z</time>
      </trkpt>
      <trkpt lat="46.57913" lon="0.16117">
        <ele>216.23</ele>
        <time>2019-12-01T10:42:49.000Z</time>
      </trkpt>
      <trkpt lat="46.57926" lon="0.16123">
        <ele>217.41</ele>
        <time>2019-12-01T10:42:51.000Z</time>
      </trkpt>
      <trkpt lat="46.57934" lon="0.16131">
        <ele>217.6</ele>
        <time>2019-12-01T10:42:56.000Z</time>
      </trkpt>
      <trkpt lat="46.5794" lon="0.16121">
        <ele>217.14</ele>
        <time>2019-12-01T10:43:02.000Z</time>
      </trkpt>
      <trkpt lat="46.57941" lon="0.16104">
        <ele>216.55</ele>
        <time>2019-12-01T10:43:05.000Z</time>
      </trkpt>
      <trkpt lat="46.5794" lon="0.16091">
        <ele>216.08</ele>
        <time>2019-12-01T10:43:07.000Z</time>
      </trkpt>
      <trkpt lat="46.57934" lon="0.16078">
        <ele>215.39</ele>
        <time>2019-12-01T10:43:10.000Z</time>
      </trkpt>
      <trkpt lat="46.57925" lon="0.16069">
        <ele>214.22</ele>
        <time>2019-12-01T10:43:15.000Z</time>
      </trkpt>
      <trkpt lat="46.57921" lon="0.16056">
        <ele>213.53</ele>
        <time>2019-12-01T10:43:18.000Z</time>
      </trkpt>
      <trkpt lat="46.57917" lon="0.16038">
        <ele>212.71</ele>
        <time>2019-12-01T10:43:23.000Z</time>
      </trkpt>
      <trkpt lat="46.57914" lon="0.16025">
        <ele>212.48</ele>
        <time>2019-12-01T10:43:25.000Z</time>
      </trkpt>
      <trkpt lat="46.5791" lon="0.1601">
        <ele>212.08</ele>
        <time>2019-12-01T10:43:28.000Z</time>
      </trkpt>
      <trkpt lat="46.57905" lon="0.16">
        <ele>211.6</ele>
        <time>2019-12-01T10:43:31.000Z</time>
      </trkpt>
      <trkpt lat="46.57899" lon="0.15989">
        <ele>211.07</ele>
        <time>2019-12-01T10:43:34.000Z</time>
      </trkpt>
      <trkpt lat="46.57891" lon="0.1598">
        <ele>210.56</ele>
        <time>2019-12-01T10:43:38.000Z</time>
      </trkpt>
      <trkpt lat="46.57892" lon="0.15964">
        <ele>210.19</ele>
        <time>2019-12-01T10:43:42.000Z</time>
      </trkpt>
      <trkpt lat="46.57896" lon="0.15947">
        <ele>210.06</ele>
        <time>2019-12-01T10:43:45.000Z</time>
      </trkpt>
      <trkpt lat="46.57901" lon="0.15931">
        <ele>209.82</ele>
        <time>2019-12-01T10:43:48.000Z</time>
      </trkpt>
      <trkpt lat="46.57904" lon="0.15918">
        <ele>208.42</ele>
        <time>2019-12-01T10:43:50.000Z</time>
      </trkpt>
      <trkpt lat="46.57905" lon="0.15902">
        <ele>208.11</ele>
        <time>2019-12-01T10:43:53.000Z</time>
      </trkpt>
      <trkpt lat="46.57904" lon="0.15888">
        <ele>207.72</ele>
        <time>2019-12-01T10:43:57.000Z</time>
      </trkpt>
      <trkpt lat="46.57907" lon="0.15876">
        <ele>207.29</ele>
        <time>2019-12-01T10:44:00.000Z</time>
      </trkpt>
      <trkpt lat="46.57912" lon="0.15863">
        <ele>206.43</ele>
        <time>2019-12-01T10:44:05.000Z</time>
      </trkpt>
      <trkpt lat="46.57922" lon="0.1586">
        <ele>205.82</ele>
        <time>2019-12-01T10:44:09.000Z</time>
      </trkpt>
      <trkpt lat="46.5793" lon="0.15853">
        <ele>205.4</ele>
        <time>2019-12-01T10:44:12.000Z</time>
      </trkpt>
      <trkpt lat="46.5794" lon="0.15846">
        <ele>205.04</ele>
        <time>2019-12-01T10:44:15.000Z</time>
      </trkpt>
      <trkpt lat="46.57948" lon="0.15835">
        <ele>204.63</ele>
        <time>2019-12-01T10:44:19.000Z</time>
      </trkpt>
      <trkpt lat="46.57954" lon="0.15824">
        <ele>204.49</ele>
        <time>2019-12-01T10:44:23.000Z</time>
      </trkpt>
      <trkpt lat="46.57958" lon="0.1581">
        <ele>204.34</ele>
        <time>2019-12-01T10:44:26.000Z</time>
      </trkpt>
      <trkpt lat="46.57964" lon="0.15793">
        <ele>203.8</ele>
        <time>2019-12-01T10:44:30.000Z</time>
      </trkpt>
      <trkpt lat="46.57969" lon="0.15779">
        <ele>203.43</ele>
        <time>2019-12-01T10:44:32.000Z</time>
      </trkpt>
      <trkpt lat="46.57974" lon="0.15767">
        <ele>203</ele>
        <time>2019-12-01T10:44:34.000Z</time>
      </trkpt>
      <trkpt lat="46.57977" lon="0.15753">
        <ele>202.03</ele>
        <time>2019-12-01T10:44:37.000Z</time>
      </trkpt>
      <trkpt lat="46.57978" lon="0.15739">
        <ele>200.35</ele>
        <time>2019-12-01T10:44:42.000Z</time>
      </trkpt>
      <trkpt lat="46.57979" lon="0.15725">
        <ele>198.54</ele>
        <time>2019-12-01T10:44:50.000Z</time>
      </trkpt>
      <trkpt lat="46.57987" lon="0.15717">
        <ele>197.42</ele>
        <time>2019-12-01T10:45:01.000Z</time>
      </trkpt>
      <trkpt lat="46.57997" lon="0.15719">
        <ele>197.6</ele>
        <time>2019-12-01T10:45:05.000Z</time>
      </trkpt>
      <trkpt lat="46.58007" lon="0.15719">
        <ele>199.7</ele>
        <time>2019-12-01T10:45:07.000Z</time>
      </trkpt>
      <trkpt lat="46.58021" lon="0.15722">
        <ele>200.96</ele>
        <time>2019-12-01T10:45:10.000Z</time>
      </trkpt>
      <trkpt lat="46.58034" lon="0.15726">
        <ele>201.51</ele>
        <time>2019-12-01T10:45:12.000Z</time>
      </trkpt>
      <trkpt lat="46.58042" lon="0.15731">
        <ele>201.54</ele>
        <time>2019-12-01T10:45:14.000Z</time>
      </trkpt>
      <trkpt lat="46.58052" lon="0.15739">
        <ele>201.76</ele>
        <time>2019-12-01T10:45:19.000Z</time>
      </trkpt>
      <trkpt lat="46.58063" lon="0.15743">
        <ele>202.3</ele>
        <time>2019-12-01T10:45:25.000Z</time>
      </trkpt>
      <trkpt lat="46.5807" lon="0.15751">
        <ele>203.22</ele>
        <time>2019-12-01T10:45:31.000Z</time>
      </trkpt>
      <trkpt lat="46.5808" lon="0.15755">
        <ele>204.26</ele>
        <time>2019-12-01T10:45:39.000Z</time>
      </trkpt>
      <trkpt lat="46.58089" lon="0.15761">
        <ele>204.67</ele>
        <time>2019-12-01T10:45:46.000Z</time>
      </trkpt>
      <trkpt lat="46.58098" lon="0.15756">
        <ele>207.44</ele>
        <time>2019-12-01T10:46:03.000Z</time>
      </trkpt>
      <trkpt lat="46.58103" lon="0.15745">
        <ele>208.63</ele>
        <time>2019-12-01T10:46:08.000Z</time>
      </trkpt>
      <trkpt lat="46.5811" lon="0.15733">
        <ele>209.24</ele>
        <time>2019-12-01T10:46:12.000Z</time>
      </trkpt>
      <trkpt lat="46.58116" lon="0.15723">
        <ele>209.43</ele>
        <time>2019-12-01T10:46:15.000Z</time>
      </trkpt>
      <trkpt lat="46.58123" lon="0.15714">
        <ele>209.37</ele>
        <time>2019-12-01T10:46:19.000Z</time>
      </trkpt>
      <trkpt lat="46.5813" lon="0.15705">
        <ele>209.34</ele>
        <time>2019-12-01T10:46:23.000Z</time>
      </trkpt>
      <trkpt lat="46.58137" lon="0.15696">
        <ele>209.38</ele>
        <time>2019-12-01T10:46:26.000Z</time>
      </trkpt>
      <trkpt lat="46.58146" lon="0.15688">
        <ele>209.49</ele>
        <time>2019-12-01T10:46:30.000Z</time>
      </trkpt>
      <trkpt lat="46.58153" lon="0.15679">
        <ele>209.56</ele>
        <time>2019-12-01T10:46:34.000Z</time>
      </trkpt>
      <trkpt lat="46.58161" lon="0.15672">
        <ele>211.04</ele>
        <time>2019-12-01T10:46:41.000Z</time>
      </trkpt>
      <trkpt lat="46.58172" lon="0.15672">
        <ele>213.14</ele>
        <time>2019-12-01T10:46:46.000Z</time>
      </trkpt>
      <trkpt lat="46.58183" lon="0.15675">
        <ele>214.72</ele>
        <time>2019-12-01T10:46:49.000Z</time>
      </trkpt>
      <trkpt lat="46.58192" lon="0.15684">
        <ele>216.65</ele>
        <time>2019-12-01T10:46:52.000Z</time>
      </trkpt>
      <trkpt lat="46.58203" lon="0.1569">
        <ele>218.71</ele>
        <time>2019-12-01T10:46:55.000Z</time>
      </trkpt>
      <trkpt lat="46.58215" lon="0.15698">
        <ele>220.7</ele>
        <time>2019-12-01T10:46:58.000Z</time>
      </trkpt>
      <trkpt lat="46.58226" lon="0.15708">
        <ele>221.85</ele>
        <time>2019-12-01T10:47:00.000Z</time>
      </trkpt>
      <trkpt lat="46.58239" lon="0.15712">
        <ele>223.12</ele>
        <time>2019-12-01T10:47:03.000Z</time>
      </trkpt>
      <trkpt lat="46.58251" lon="0.15708">
        <ele>223.7</ele>
        <time>2019-12-01T10:47:05.000Z</time>
      </trkpt>
      <trkpt lat="46.58267" lon="0.15709">
        <ele>225.97</ele>
        <time>2019-12-01T10:47:07.000Z</time>
      </trkpt>
      <trkpt lat="46.58279" lon="0.15712">
        <ele>226.28</ele>
        <time>2019-12-01T10:47:09.000Z</time>
      </trkpt>
      <trkpt lat="46.5829" lon="0.15714">
        <ele>226.39</ele>
        <time>2019-12-01T10:47:11.000Z</time>
      </trkpt>
      <trkpt lat="46.58299" lon="0.15713">
        <ele>226.42</ele>
        <time>2019-12-01T10:47:13.000Z</time>
      </trkpt>
      <trkpt lat="46.58311" lon="0.15718">
        <ele>225.93</ele>
        <time>2019-12-01T10:47:15.000Z</time>
      </trkpt>
      <trkpt lat="46.58322" lon="0.15723">
        <ele>225.68</ele>
        <time>2019-12-01T10:47:18.000Z</time>
      </trkpt>
      <trkpt lat="46.58332" lon="0.15724">
        <ele>225.1</ele>
        <time>2019-12-01T10:47:20.000Z</time>
      </trkpt>
      <trkpt lat="46.58345" lon="0.15724">
        <ele>225</ele>
        <time>2019-12-01T10:47:22.000Z</time>
      </trkpt>
      <trkpt lat="46.58354" lon="0.15727">
        <ele>224.88</ele>
        <time>2019-12-01T10:47:24.000Z</time>
      </trkpt>
      <trkpt lat="46.58363" lon="0.15735">
        <ele>224.48</ele>
        <time>2019-12-01T10:47:26.000Z</time>
      </trkpt>
      <trkpt lat="46.58372" lon="0.15743">
        <ele>224.52</ele>
        <time>2019-12-01T10:47:29.000Z</time>
      </trkpt>
      <trkpt lat="46.58381" lon="0.1575">
        <ele>223.65</ele>
        <time>2019-12-01T10:47:31.000Z</time>
      </trkpt>
      <trkpt lat="46.58389" lon="0.15756">
        <ele>223.53</ele>
        <time>2019-12-01T10:47:33.000Z</time>
      </trkpt>
      <trkpt lat="46.58398" lon="0.15757">
        <ele>223.05</ele>
        <time>2019-12-01T10:47:35.000Z</time>
      </trkpt>
      <trkpt lat="46.58409" lon="0.15762">
        <ele>222.54</ele>
        <time>2019-12-01T10:47:37.000Z</time>
      </trkpt>
      <trkpt lat="46.58422" lon="0.15764">
        <ele>221.48</ele>
        <time>2019-12-01T10:47:39.000Z</time>
      </trkpt>
      <trkpt lat="46.58435" lon="0.15769">
        <ele>219.73</ele>
        <time>2019-12-01T10:47:41.000Z</time>
      </trkpt>
      <trkpt lat="46.58449" lon="0.15776">
        <ele>218.16</ele>
        <time>2019-12-01T10:47:43.000Z</time>
      </trkpt>
      <trkpt lat="46.58463" lon="0.15785">
        <ele>216.58</ele>
        <time>2019-12-01T10:47:45.000Z</time>
      </trkpt>
      <trkpt lat="46.58474" lon="0.15792">
        <ele>215.69</ele>
        <time>2019-12-01T10:47:47.000Z</time>
      </trkpt>
      <trkpt lat="46.58485" lon="0.15799">
        <ele>215.16</ele>
        <time>2019-12-01T10:47:49.000Z</time>
      </trkpt>
      <trkpt lat="46.58496" lon="0.15806">
        <ele>213.84</ele>
        <time>2019-12-01T10:47:51.000Z</time>
      </trkpt>
      <trkpt lat="46.5851" lon="0.15807">
        <ele>211.51</ele>
        <time>2019-12-01T10:47:53.000Z</time>
      </trkpt>
      <trkpt lat="46.58523" lon="0.15809">
        <ele>208.53</ele>
        <time>2019-12-01T10:47:55.000Z</time>
      </trkpt>
      <trkpt lat="46.58534" lon="0.1581">
        <ele>206.27</ele>
        <time>2019-12-01T10:47:57.000Z</time>
      </trkpt>
      <trkpt lat="46.58545" lon="0.15814">
        <ele>205.11</ele>
        <time>2019-12-01T10:47:59.000Z</time>
      </trkpt>
      <trkpt lat="46.58553" lon="0.15817">
        <ele>204.6</ele>
        <time>2019-12-01T10:48:01.000Z</time>
      </trkpt>
      <trkpt lat="46.58564" lon="0.15817">
        <ele>204.59</ele>
        <time>2019-12-01T10:48:04.000Z</time>
      </trkpt>
      <trkpt lat="46.58573" lon="0.15823">
        <ele>204.79</ele>
        <time>2019-12-01T10:48:10.000Z</time>
      </trkpt>
      <trkpt lat="46.58574" lon="0.15841">
        <ele>205.03</ele>
        <time>2019-12-01T10:48:14.000Z</time>
      </trkpt>
      <trkpt lat="46.58571" lon="0.1586">
        <ele>205.13</ele>
        <time>2019-12-01T10:48:17.000Z</time>
      </trkpt>
      <trkpt lat="46.58569" lon="0.15873">
        <ele>205.19</ele>
        <time>2019-12-01T10:48:19.000Z</time>
      </trkpt>
      <trkpt lat="46.58569" lon="0.15892">
        <ele>205.39</ele>
        <time>2019-12-01T10:48:22.000Z</time>
      </trkpt>
      <trkpt lat="46.58568" lon="0.15907">
        <ele>206.74</ele>
        <time>2019-12-01T10:48:24.000Z</time>
      </trkpt>
      <trkpt lat="46.58567" lon="0.15922">
        <ele>206.89</ele>
        <time>2019-12-01T10:48:26.000Z</time>
      </trkpt>
      <trkpt lat="46.58566" lon="0.15938">
        <ele>207.15</ele>
        <time>2019-12-01T10:48:29.000Z</time>
      </trkpt>
      <trkpt lat="46.58564" lon="0.15951">
        <ele>207.34</ele>
        <time>2019-12-01T10:48:34.000Z</time>
      </trkpt>
      <trkpt lat="46.58562" lon="0.15964">
        <ele>207.12</ele>
        <time>2019-12-01T10:48:45.000Z</time>
      </trkpt>
      <trkpt lat="46.58559" lon="0.15977">
        <ele>207.81</ele>
        <time>2019-12-01T10:49:01.000Z</time>
      </trkpt>
      <trkpt lat="46.58554" lon="0.1599">
        <ele>207.82</ele>
        <time>2019-12-01T10:49:07.000Z</time>
      </trkpt>
      <trkpt lat="46.58552" lon="0.16007">
        <ele>208.09</ele>
        <time>2019-12-01T10:49:12.000Z</time>
      </trkpt>
      <trkpt lat="46.58551" lon="0.16024">
        <ele>208.34</ele>
        <time>2019-12-01T10:49:16.000Z</time>
      </trkpt>
      <trkpt lat="46.58551" lon="0.16039">
        <ele>208.51</ele>
        <time>2019-12-01T10:49:20.000Z</time>
      </trkpt>
      <trkpt lat="46.58547" lon="0.16052">
        <ele>208.69</ele>
        <time>2019-12-01T10:49:24.000Z</time>
      </trkpt>
      <trkpt lat="46.58546" lon="0.16066">
        <ele>209.01</ele>
        <time>2019-12-01T10:49:28.000Z</time>
      </trkpt>
      <trkpt lat="46.58544" lon="0.16082">
        <ele>209.37</ele>
        <time>2019-12-01T10:49:32.000Z</time>
      </trkpt>
      <trkpt lat="46.58542" lon="0.16097">
        <ele>209.51</ele>
        <time>2019-12-01T10:49:35.000Z</time>
      </trkpt>
      <trkpt lat="46.58539" lon="0.1611">
        <ele>209.61</ele>
        <time>2019-12-01T10:49:38.000Z</time>
      </trkpt>
      <trkpt lat="46.58537" lon="0.16124">
        <ele>209.64</ele>
        <time>2019-12-01T10:49:41.000Z</time>
      </trkpt>
      <trkpt lat="46.58535" lon="0.16139">
        <ele>209.73</ele>
        <time>2019-12-01T10:49:44.000Z</time>
      </trkpt>
      <trkpt lat="46.58533" lon="0.16154">
        <ele>209.98</ele>
        <time>2019-12-01T10:49:48.000Z</time>
      </trkpt>
      <trkpt lat="46.58531" lon="0.1617">
        <ele>210.3</ele>
        <time>2019-12-01T10:49:51.000Z</time>
      </trkpt>
      <trkpt lat="46.58527" lon="0.16186">
        <ele>210.68</ele>
        <time>2019-12-01T10:49:54.000Z</time>
      </trkpt>
      <trkpt lat="46.58523" lon="0.16199">
        <ele>210.78</ele>
        <time>2019-12-01T10:49:56.000Z</time>
      </trkpt>
      <trkpt lat="46.5852" lon="0.16216">
        <ele>210.86</ele>
        <time>2019-12-01T10:49:58.000Z</time>
      </trkpt>
      <trkpt lat="46.58516" lon="0.16232">
        <ele>210.86</ele>
        <time>2019-12-01T10:50:01.000Z</time>
      </trkpt>
      <trkpt lat="46.58512" lon="0.16248">
        <ele>210.71</ele>
        <time>2019-12-01T10:50:04.000Z</time>
      </trkpt>
      <trkpt lat="46.58507" lon="0.16269">
        <ele>209.59</ele>
        <time>2019-12-01T10:50:07.000Z</time>
      </trkpt>
      <trkpt lat="46.58504" lon="0.16284">
        <ele>208.4</ele>
        <time>2019-12-01T10:50:09.000Z</time>
      </trkpt>
      <trkpt lat="46.58502" lon="0.16298">
        <ele>207.38</ele>
        <time>2019-12-01T10:50:11.000Z</time>
      </trkpt>
      <trkpt lat="46.585" lon="0.16312">
        <ele>206.21</ele>
        <time>2019-12-01T10:50:13.000Z</time>
      </trkpt>
      <trkpt lat="46.58497" lon="0.16326">
        <ele>205.11</ele>
        <time>2019-12-01T10:50:15.000Z</time>
      </trkpt>
      <trkpt lat="46.58494" lon="0.16339">
        <ele>204.97</ele>
        <time>2019-12-01T10:50:17.000Z</time>
      </trkpt>
      <trkpt lat="46.58492" lon="0.16357">
        <ele>204.72</ele>
        <time>2019-12-01T10:50:20.000Z</time>
      </trkpt>
      <trkpt lat="46.5849" lon="0.16371">
        <ele>204.85</ele>
        <time>2019-12-01T10:50:22.000Z</time>
      </trkpt>
      <trkpt lat="46.58487" lon="0.16387">
        <ele>205.39</ele>
        <time>2019-12-01T10:50:24.000Z</time>
      </trkpt>
      <trkpt lat="46.58483" lon="0.16401">
        <ele>204.76</ele>
        <time>2019-12-01T10:50:26.000Z</time>
      </trkpt>
      <trkpt lat="46.5848" lon="0.16417">
        <ele>204.57</ele>
        <time>2019-12-01T10:50:29.000Z</time>
      </trkpt>
      <trkpt lat="46.58477" lon="0.1643">
        <ele>204.47</ele>
        <time>2019-12-01T10:50:31.000Z</time>
      </trkpt>
      <trkpt lat="46.58473" lon="0.16448">
        <ele>204.09</ele>
        <time>2019-12-01T10:50:34.000Z</time>
      </trkpt>
      <trkpt lat="46.58469" lon="0.16463">
        <ele>203.73</ele>
        <time>2019-12-01T10:50:37.000Z</time>
      </trkpt>
      <trkpt lat="46.58467" lon="0.16476">
        <ele>203.64</ele>
        <time>2019-12-01T10:50:40.000Z</time>
      </trkpt>
      <trkpt lat="46.58463" lon="0.1649">
        <ele>203.71</ele>
        <time>2019-12-01T10:50:43.000Z</time>
      </trkpt>
      <trkpt lat="46.58459" lon="0.16509">
        <ele>203.95</ele>
        <time>2019-12-01T10:50:46.000Z</time>
      </trkpt>
      <trkpt lat="46.58456" lon="0.16525">
        <ele>205.68</ele>
        <time>2019-12-01T10:50:48.000Z</time>
      </trkpt>
      <trkpt lat="46.58453" lon="0.16539">
        <ele>206.87</ele>
        <time>2019-12-01T10:50:50.000Z</time>
      </trkpt>
      <trkpt lat="46.58449" lon="0.16559">
        <ele>208.62</ele>
        <time>2019-12-01T10:50:53.000Z</time>
      </trkpt>
      <trkpt lat="46.58446" lon="0.16575">
        <ele>208.68</ele>
        <time>2019-12-01T10:50:55.000Z</time>
      </trkpt>
      <trkpt lat="46.58442" lon="0.16592">
        <ele>207.97</ele>
        <time>2019-12-01T10:50:57.000Z</time>
      </trkpt>
      <trkpt lat="46.58438" lon="0.16607">
        <ele>207.1</ele>
        <time>2019-12-01T10:50:59.000Z</time>
      </trkpt>
      <trkpt lat="46.58435" lon="0.16625">
        <ele>206.59</ele>
        <time>2019-12-01T10:51:01.000Z</time>
      </trkpt>
      <trkpt lat="46.58432" lon="0.16639">
        <ele>206.95</ele>
        <time>2019-12-01T10:51:03.000Z</time>
      </trkpt>
      <trkpt lat="46.58429" lon="0.16655">
        <ele>206.2</ele>
        <time>2019-12-01T10:51:05.000Z</time>
      </trkpt>
      <trkpt lat="46.58426" lon="0.16668">
        <ele>205.92</ele>
        <time>2019-12-01T10:51:07.000Z</time>
      </trkpt>
      <trkpt lat="46.58424" lon="0.16689">
        <ele>205.39</ele>
        <time>2019-12-01T10:51:10.000Z</time>
      </trkpt>
      <trkpt lat="46.58422" lon="0.16706">
        <ele>205.75</ele>
        <time>2019-12-01T10:51:12.000Z</time>
      </trkpt>
      <trkpt lat="46.58418" lon="0.16725">
        <ele>205.99</ele>
        <time>2019-12-01T10:51:14.000Z</time>
      </trkpt>
      <trkpt lat="46.58414" lon="0.16745">
        <ele>205.15</ele>
        <time>2019-12-01T10:51:16.000Z</time>
      </trkpt>
      <trkpt lat="46.58411" lon="0.16761">
        <ele>204.25</ele>
        <time>2019-12-01T10:51:18.000Z</time>
      </trkpt>
      <trkpt lat="46.58407" lon="0.16778">
        <ele>202.98</ele>
        <time>2019-12-01T10:51:20.000Z</time>
      </trkpt>
      <trkpt lat="46.58402" lon="0.16795">
        <ele>202.35</ele>
        <time>2019-12-01T10:51:22.000Z</time>
      </trkpt>
      <trkpt lat="46.584" lon="0.16814">
        <ele>202.14</ele>
        <time>2019-12-01T10:51:24.000Z</time>
      </trkpt>
      <trkpt lat="46.58397" lon="0.16828">
        <ele>201.94</ele>
        <time>2019-12-01T10:51:26.000Z</time>
      </trkpt>
      <trkpt lat="46.58394" lon="0.16844">
        <ele>202.13</ele>
        <time>2019-12-01T10:51:29.000Z</time>
      </trkpt>
      <trkpt lat="46.5839" lon="0.16858">
        <ele>202.3</ele>
        <time>2019-12-01T10:51:33.000Z</time>
      </trkpt>
      <trkpt lat="46.58386" lon="0.16871">
        <ele>202.47</ele>
        <time>2019-12-01T10:51:39.000Z</time>
      </trkpt>
      <trkpt lat="46.58383" lon="0.16884">
        <ele>202.72</ele>
        <time>2019-12-01T10:51:44.000Z</time>
      </trkpt>
      <trkpt lat="46.58378" lon="0.16895">
        <ele>202.95</ele>
        <time>2019-12-01T10:51:48.000Z</time>
      </trkpt>
      <trkpt lat="46.58375" lon="0.16909">
        <ele>203.13</ele>
        <time>2019-12-01T10:51:54.000Z</time>
      </trkpt>
      <trkpt lat="46.58374" lon="0.16926">
        <ele>203.66</ele>
        <time>2019-12-01T10:51:59.000Z</time>
      </trkpt>
      <trkpt lat="46.58372" lon="0.1694">
        <ele>204.02</ele>
        <time>2019-12-01T10:52:03.000Z</time>
      </trkpt>
      <trkpt lat="46.58371" lon="0.16954">
        <ele>204.48</ele>
        <time>2019-12-01T10:52:07.000Z</time>
      </trkpt>
      <trkpt lat="46.58367" lon="0.1697">
        <ele>204.86</ele>
        <time>2019-12-01T10:52:11.000Z</time>
      </trkpt>
      <trkpt lat="46.58363" lon="0.16984">
        <ele>205.57</ele>
        <time>2019-12-01T10:52:16.000Z</time>
      </trkpt>
      <trkpt lat="46.58358" lon="0.16997">
        <ele>206.09</ele>
        <time>2019-12-01T10:52:20.000Z</time>
      </trkpt>
      <trkpt lat="46.58348" lon="0.17003">
        <ele>206.61</ele>
        <time>2019-12-01T10:52:25.000Z</time>
      </trkpt>
      <trkpt lat="46.58339" lon="0.17007">
        <ele>207.08</ele>
        <time>2019-12-01T10:52:28.000Z</time>
      </trkpt>
      <trkpt lat="46.58325" lon="0.17014">
        <ele>207.52</ele>
        <time>2019-12-01T10:52:31.000Z</time>
      </trkpt>
      <trkpt lat="46.58315" lon="0.17012">
        <ele>207.81</ele>
        <time>2019-12-01T10:52:33.000Z</time>
      </trkpt>
      <trkpt lat="46.58304" lon="0.1701">
        <ele>208.21</ele>
        <time>2019-12-01T10:52:36.000Z</time>
      </trkpt>
      <trkpt lat="46.58295" lon="0.17013">
        <ele>208.36</ele>
        <time>2019-12-01T10:52:38.000Z</time>
      </trkpt>
      <trkpt lat="46.58283" lon="0.17015">
        <ele>208.47</ele>
        <time>2019-12-01T10:52:43.000Z</time>
      </trkpt>
      <trkpt lat="46.58273" lon="0.17018">
        <ele>208.31</ele>
        <time>2019-12-01T10:52:47.000Z</time>
      </trkpt>
      <trkpt lat="46.58262" lon="0.17021">
        <ele>208</ele>
        <time>2019-12-01T10:52:54.000Z</time>
      </trkpt>
      <trkpt lat="46.58249" lon="0.17022">
        <ele>207.58</ele>
        <time>2019-12-01T10:52:58.000Z</time>
      </trkpt>
      <trkpt lat="46.58249" lon="0.17008">
        <ele>206.72</ele>
        <time>2019-12-01T10:53:03.000Z</time>
      </trkpt>
      <trkpt lat="46.58255" lon="0.16995">
        <ele>204.06</ele>
        <time>2019-12-01T10:53:05.000Z</time>
      </trkpt>
      <trkpt lat="46.58261" lon="0.16985">
        <ele>201.75</ele>
        <time>2019-12-01T10:53:07.000Z</time>
      </trkpt>
      <trkpt lat="46.58267" lon="0.16975">
        <ele>198.38</ele>
        <time>2019-12-01T10:53:09.000Z</time>
      </trkpt>
      <trkpt lat="46.58275" lon="0.1696">
        <ele>194.56</ele>
        <time>2019-12-01T10:53:12.000Z</time>
      </trkpt>
      <trkpt lat="46.58282" lon="0.16947">
        <ele>193.69</ele>
        <time>2019-12-01T10:53:15.000Z</time>
      </trkpt>
      <trkpt lat="46.58288" lon="0.16936">
        <ele>192.43</ele>
        <time>2019-12-01T10:53:17.000Z</time>
      </trkpt>
      <trkpt lat="46.58295" lon="0.16925">
        <ele>191.16</ele>
        <time>2019-12-01T10:53:19.000Z</time>
      </trkpt>
      <trkpt lat="46.58302" lon="0.16909">
        <ele>190.69</ele>
        <time>2019-12-01T10:53:22.000Z</time>
      </trkpt>
      <trkpt lat="46.58307" lon="0.16896">
        <ele>190.4</ele>
        <time>2019-12-01T10:53:24.000Z</time>
      </trkpt>
      <trkpt lat="46.58313" lon="0.16881">
        <ele>190.38</ele>
        <time>2019-12-01T10:53:27.000Z</time>
      </trkpt>
      <trkpt lat="46.58316" lon="0.16864">
        <ele>191.65</ele>
        <time>2019-12-01T10:53:30.000Z</time>
      </trkpt>
      <trkpt lat="46.58318" lon="0.16849">
        <ele>192.87</ele>
        <time>2019-12-01T10:53:32.000Z</time>
      </trkpt>
      <trkpt lat="46.58319" lon="0.16835">
        <ele>193.49</ele>
        <time>2019-12-01T10:53:34.000Z</time>
      </trkpt>
      <trkpt lat="46.5832" lon="0.1682">
        <ele>193.78</ele>
        <time>2019-12-01T10:53:37.000Z</time>
      </trkpt>
      <trkpt lat="46.58319" lon="0.16802">
        <ele>194.85</ele>
        <time>2019-12-01T10:53:40.000Z</time>
      </trkpt>
      <trkpt lat="46.58317" lon="0.16788">
        <ele>195.07</ele>
        <time>2019-12-01T10:53:43.000Z</time>
      </trkpt>
      <trkpt lat="46.58315" lon="0.16775">
        <ele>195.24</ele>
        <time>2019-12-01T10:53:46.000Z</time>
      </trkpt>
      <trkpt lat="46.58313" lon="0.16757">
        <ele>195.72</ele>
        <time>2019-12-01T10:53:51.000Z</time>
      </trkpt>
      <trkpt lat="46.58313" lon="0.16742">
        <ele>196.06</ele>
        <time>2019-12-01T10:53:54.000Z</time>
      </trkpt>
      <trkpt lat="46.58313" lon="0.16721">
        <ele>197.41</ele>
        <time>2019-12-01T10:53:57.000Z</time>
      </trkpt>
      <trkpt lat="46.58313" lon="0.16708">
        <ele>197.62</ele>
        <time>2019-12-01T10:53:59.000Z</time>
      </trkpt>
      <trkpt lat="46.58314" lon="0.16694">
        <ele>197.84</ele>
        <time>2019-12-01T10:54:01.000Z</time>
      </trkpt>
      <trkpt lat="46.58315" lon="0.16676">
        <ele>198.2</ele>
        <time>2019-12-01T10:54:04.000Z</time>
      </trkpt>
      <trkpt lat="46.58316" lon="0.16663">
        <ele>198.61</ele>
        <time>2019-12-01T10:54:07.000Z</time>
      </trkpt>
      <trkpt lat="46.58315" lon="0.16649">
        <ele>199.16</ele>
        <time>2019-12-01T10:54:11.000Z</time>
      </trkpt>
      <trkpt lat="46.58314" lon="0.16635">
        <ele>200.08</ele>
        <time>2019-12-01T10:54:16.000Z</time>
      </trkpt>
      <trkpt lat="46.58306" lon="0.16629">
        <ele>201.76</ele>
        <time>2019-12-01T10:54:24.000Z</time>
      </trkpt>
      <trkpt lat="46.58296" lon="0.16623">
        <ele>202.49</ele>
        <time>2019-12-01T10:54:30.000Z</time>
      </trkpt>
      <trkpt lat="46.58285" lon="0.16618">
        <ele>203.03</ele>
        <time>2019-12-01T10:54:36.000Z</time>
      </trkpt>
      <trkpt lat="46.58276" lon="0.16614">
        <ele>203.24</ele>
        <time>2019-12-01T10:54:41.000Z</time>
      </trkpt>
      <trkpt lat="46.58266" lon="0.16613">
        <ele>203.2</ele>
        <time>2019-12-01T10:54:46.000Z</time>
      </trkpt>
      <trkpt lat="46.58257" lon="0.1661">
        <ele>203.16</ele>
        <time>2019-12-01T10:54:57.000Z</time>
      </trkpt>
      <trkpt lat="46.58247" lon="0.16604">
        <ele>203.26</ele>
        <time>2019-12-01T10:55:07.000Z</time>
      </trkpt>
      <trkpt lat="46.58233" lon="0.166">
        <ele>203.46</ele>
        <time>2019-12-01T10:55:11.000Z</time>
      </trkpt>
      <trkpt lat="46.58223" lon="0.16595">
        <ele>203.48</ele>
        <time>2019-12-01T10:55:15.000Z</time>
      </trkpt>
      <trkpt lat="46.58214" lon="0.16589">
        <ele>203.53</ele>
        <time>2019-12-01T10:55:20.000Z</time>
      </trkpt>
      <trkpt lat="46.58205" lon="0.16583">
        <ele>203.73</ele>
        <time>2019-12-01T10:55:24.000Z</time>
      </trkpt>
      <trkpt lat="46.58197" lon="0.16578">
        <ele>203.75</ele>
        <time>2019-12-01T10:55:27.000Z</time>
      </trkpt>
      <trkpt lat="46.58184" lon="0.16576">
        <ele>203.7</ele>
        <time>2019-12-01T10:55:30.000Z</time>
      </trkpt>
      <trkpt lat="46.58175" lon="0.16571">
        <ele>203.75</ele>
        <time>2019-12-01T10:55:33.000Z</time>
      </trkpt>
      <trkpt lat="46.58164" lon="0.16568">
        <ele>203.91</ele>
        <time>2019-12-01T10:55:37.000Z</time>
      </trkpt>
      <trkpt lat="46.58155" lon="0.16563">
        <ele>204.18</ele>
        <time>2019-12-01T10:55:41.000Z</time>
      </trkpt>
      <trkpt lat="46.58145" lon="0.16556">
        <ele>204.44</ele>
        <time>2019-12-01T10:55:44.000Z</time>
      </trkpt>
      <trkpt lat="46.58136" lon="0.16549">
        <ele>204.66</ele>
        <time>2019-12-01T10:55:48.000Z</time>
      </trkpt>
      <trkpt lat="46.58127" lon="0.16549">
        <ele>204.54</ele>
        <time>2019-12-01T10:55:53.000Z</time>
      </trkpt>
      <trkpt lat="46.58125" lon="0.16563">
        <ele>204.94</ele>
        <time>2019-12-01T10:55:59.000Z</time>
      </trkpt>
      <trkpt lat="46.58121" lon="0.16575">
        <ele>205.4</ele>
        <time>2019-12-01T10:56:04.000Z</time>
      </trkpt>
      <trkpt lat="46.58111" lon="0.16576">
        <ele>205.38</ele>
        <time>2019-12-01T10:56:07.000Z</time>
      </trkpt>
      <trkpt lat="46.581" lon="0.16571">
        <ele>205.38</ele>
        <time>2019-12-01T10:56:09.000Z</time>
      </trkpt>
      <trkpt lat="46.5809" lon="0.16565">
        <ele>205.46</ele>
        <time>2019-12-01T10:56:11.000Z</time>
      </trkpt>
      <trkpt lat="46.58082" lon="0.16561">
        <ele>205.54</ele>
        <time>2019-12-01T10:56:13.000Z</time>
      </trkpt>
      <trkpt lat="46.5807" lon="0.16555">
        <ele>205.54</ele>
        <time>2019-12-01T10:56:16.000Z</time>
      </trkpt>
      <trkpt lat="46.5806" lon="0.16554">
        <ele>205.51</ele>
        <time>2019-12-01T10:56:19.000Z</time>
      </trkpt>
      <trkpt lat="46.58051" lon="0.16549">
        <ele>205.49</ele>
        <time>2019-12-01T10:56:21.000Z</time>
      </trkpt>
      <trkpt lat="46.5804" lon="0.16546">
        <ele>205.41</ele>
        <time>2019-12-01T10:56:23.000Z</time>
      </trkpt>
      <trkpt lat="46.58028" lon="0.16545">
        <ele>205.28</ele>
        <time>2019-12-01T10:56:26.000Z</time>
      </trkpt>
      <trkpt lat="46.58014" lon="0.1654">
        <ele>205.22</ele>
        <time>2019-12-01T10:56:28.000Z</time>
      </trkpt>
      <trkpt lat="46.58004" lon="0.16536">
        <ele>204.1</ele>
        <time>2019-12-01T10:56:30.000Z</time>
      </trkpt>
      <trkpt lat="46.57995" lon="0.16532">
        <ele>203.93</ele>
        <time>2019-12-01T10:56:32.000Z</time>
      </trkpt>
      <trkpt lat="46.57983" lon="0.16522">
        <ele>201.99</ele>
        <time>2019-12-01T10:56:34.000Z</time>
      </trkpt>
      <trkpt lat="46.57971" lon="0.16516">
        <ele>201.87</ele>
        <time>2019-12-01T10:56:37.000Z</time>
      </trkpt>
      <trkpt lat="46.5796" lon="0.16514">
        <ele>201.75</ele>
        <time>2019-12-01T10:56:39.000Z</time>
      </trkpt>
      <trkpt lat="46.57949" lon="0.16511">
        <ele>201.54</ele>
        <time>2019-12-01T10:56:42.000Z</time>
      </trkpt>
      <trkpt lat="46.57939" lon="0.16511">
        <ele>201.34</ele>
        <time>2019-12-01T10:56:44.000Z</time>
      </trkpt>
      <trkpt lat="46.5793" lon="0.16512">
        <ele>200.87</ele>
        <time>2019-12-01T10:56:47.000Z</time>
      </trkpt>
      <trkpt lat="46.57919" lon="0.16512">
        <ele>199.95</ele>
        <time>2019-12-01T10:56:52.000Z</time>
      </trkpt>
      <trkpt lat="46.57909" lon="0.1651">
        <ele>199.27</ele>
        <time>2019-12-01T10:56:55.000Z</time>
      </trkpt>
      <trkpt lat="46.57903" lon="0.1652">
        <ele>198.41</ele>
        <time>2019-12-01T10:56:59.000Z</time>
      </trkpt>
      <trkpt lat="46.57892" lon="0.16529">
        <ele>196.93</ele>
        <time>2019-12-01T10:57:02.000Z</time>
      </trkpt>
      <trkpt lat="46.57883" lon="0.16538">
        <ele>195.96</ele>
        <time>2019-12-01T10:57:05.000Z</time>
      </trkpt>
      <trkpt lat="46.57872" lon="0.16544">
        <ele>195.57</ele>
        <time>2019-12-01T10:57:07.000Z</time>
      </trkpt>
      <trkpt lat="46.57861" lon="0.16553">
        <ele>195.44</ele>
        <time>2019-12-01T10:57:09.000Z</time>
      </trkpt>
      <trkpt lat="46.57853" lon="0.16561">
        <ele>195.3</ele>
        <time>2019-12-01T10:57:11.000Z</time>
      </trkpt>
      <trkpt lat="46.57842" lon="0.16568">
        <ele>195.07</ele>
        <time>2019-12-01T10:57:13.000Z</time>
      </trkpt>
      <trkpt lat="46.57832" lon="0.16577">
        <ele>194.86</ele>
        <time>2019-12-01T10:57:16.000Z</time>
      </trkpt>
      <trkpt lat="46.57824" lon="0.16585">
        <ele>194.9</ele>
        <time>2019-12-01T10:57:18.000Z</time>
      </trkpt>
      <trkpt lat="46.57816" lon="0.16595">
        <ele>195.05</ele>
        <time>2019-12-01T10:57:21.000Z</time>
      </trkpt>
      <trkpt lat="46.57809" lon="0.1661">
        <ele>195.42</ele>
        <time>2019-12-01T10:57:25.000Z</time>
      </trkpt>
      <trkpt lat="46.578" lon="0.16625">
        <ele>195.82</ele>
        <time>2019-12-01T10:57:28.000Z</time>
      </trkpt>
      <trkpt lat="46.57796" lon="0.16639">
        <ele>196.1</ele>
        <time>2019-12-01T10:57:30.000Z</time>
      </trkpt>
      <trkpt lat="46.5779" lon="0.16653">
        <ele>196.39</ele>
        <time>2019-12-01T10:57:32.000Z</time>
      </trkpt>
      <trkpt lat="46.57786" lon="0.16665">
        <ele>196.63</ele>
        <time>2019-12-01T10:57:34.000Z</time>
      </trkpt>
      <trkpt lat="46.5778" lon="0.16681">
        <ele>196.91</ele>
        <time>2019-12-01T10:57:37.000Z</time>
      </trkpt>
      <trkpt lat="46.57777" lon="0.16693">
        <ele>196.99</ele>
        <time>2019-12-01T10:57:39.000Z</time>
      </trkpt>
      <trkpt lat="46.57773" lon="0.1671">
        <ele>197.16</ele>
        <time>2019-12-01T10:57:42.000Z</time>
      </trkpt>
      <trkpt lat="46.57768" lon="0.16728">
        <ele>197.24</ele>
        <time>2019-12-01T10:57:45.000Z</time>
      </trkpt>
      <trkpt lat="46.57764" lon="0.16742">
        <ele>197.37</ele>
        <time>2019-12-01T10:57:49.000Z</time>
      </trkpt>
      <trkpt lat="46.57758" lon="0.16754">
        <ele>197.33</ele>
        <time>2019-12-01T10:57:54.000Z</time>
      </trkpt>
      <trkpt lat="46.57762" lon="0.16766">
        <ele>195.61</ele>
        <time>2019-12-01T10:58:15.000Z</time>
      </trkpt>
      <trkpt lat="46.57772" lon="0.16768">
        <ele>195.95</ele>
        <time>2019-12-01T10:58:24.000Z</time>
      </trkpt>
      <trkpt lat="46.57782" lon="0.16772">
        <ele>196.28</ele>
        <time>2019-12-01T10:58:30.000Z</time>
      </trkpt>
      <trkpt lat="46.57791" lon="0.16775">
        <ele>196.52</ele>
        <time>2019-12-01T10:58:34.000Z</time>
      </trkpt>
      <trkpt lat="46.57801" lon="0.16778">
        <ele>196.81</ele>
        <time>2019-12-01T10:58:38.000Z</time>
      </trkpt>
      <trkpt lat="46.57811" lon="0.16783">
        <ele>197.19</ele>
        <time>2019-12-01T10:58:43.000Z</time>
      </trkpt>
      <trkpt lat="46.5782" lon="0.16787">
        <ele>197.69</ele>
        <time>2019-12-01T10:58:47.000Z</time>
      </trkpt>
      <trkpt lat="46.57831" lon="0.16792">
        <ele>198.54</ele>
        <time>2019-12-01T10:58:52.000Z</time>
      </trkpt>
      <trkpt lat="46.57843" lon="0.16798">
        <ele>199.14</ele>
        <time>2019-12-01T10:58:56.000Z</time>
      </trkpt>
      <trkpt lat="46.57854" lon="0.16804">
        <ele>199.79</ele>
        <time>2019-12-01T10:59:00.000Z</time>
      </trkpt>
      <trkpt lat="46.57865" lon="0.1681">
        <ele>200.4</ele>
        <time>2019-12-01T10:59:04.000Z</time>
      </trkpt>
      <trkpt lat="46.57874" lon="0.16814">
        <ele>200.79</ele>
        <time>2019-12-01T10:59:07.000Z</time>
      </trkpt>
      <trkpt lat="46.57884" lon="0.16822">
        <ele>201.34</ele>
        <time>2019-12-01T10:59:11.000Z</time>
      </trkpt>
      <trkpt lat="46.57894" lon="0.16828">
        <ele>201.92</ele>
        <time>2019-12-01T10:59:14.000Z</time>
      </trkpt>
      <trkpt lat="46.57903" lon="0.16832">
        <ele>202.52</ele>
        <time>2019-12-01T10:59:17.000Z</time>
      </trkpt>
      <trkpt lat="46.57913" lon="0.16834">
        <ele>202.92</ele>
        <time>2019-12-01T10:59:19.000Z</time>
      </trkpt>
      <trkpt lat="46.57922" lon="0.16839">
        <ele>203.3</ele>
        <time>2019-12-01T10:59:21.000Z</time>
      </trkpt>
      <trkpt lat="46.57931" lon="0.16844">
        <ele>203.79</ele>
        <time>2019-12-01T10:59:24.000Z</time>
      </trkpt>
      <trkpt lat="46.57944" lon="0.16851">
        <ele>204.23</ele>
        <time>2019-12-01T10:59:27.000Z</time>
      </trkpt>
      <trkpt lat="46.57953" lon="0.16857">
        <ele>204.39</ele>
        <time>2019-12-01T10:59:29.000Z</time>
      </trkpt>
      <trkpt lat="46.57964" lon="0.16861">
        <ele>204.44</ele>
        <time>2019-12-01T10:59:31.000Z</time>
      </trkpt>
      <trkpt lat="46.57974" lon="0.16864">
        <ele>204.86</ele>
        <time>2019-12-01T10:59:33.000Z</time>
      </trkpt>
      <trkpt lat="46.57983" lon="0.16866">
        <ele>205.03</ele>
        <time>2019-12-01T10:59:35.000Z</time>
      </trkpt>
      <trkpt lat="46.57992" lon="0.1687">
        <ele>205.18</ele>
        <time>2019-12-01T10:59:37.000Z</time>
      </trkpt>
      <trkpt lat="46.58003" lon="0.16874">
        <ele>206.63</ele>
        <time>2019-12-01T10:59:39.000Z</time>
      </trkpt>
      <trkpt lat="46.58013" lon="0.16877">
        <ele>206.77</ele>
        <time>2019-12-01T10:59:41.000Z</time>
      </trkpt>
      <trkpt lat="46.58025" lon="0.16882">
        <ele>207.16</ele>
        <time>2019-12-01T10:59:44.000Z</time>
      </trkpt>
      <trkpt lat="46.58033" lon="0.16892">
        <ele>207.34</ele>
        <time>2019-12-01T10:59:46.000Z</time>
      </trkpt>
      <trkpt lat="46.58034" lon="0.16908">
        <ele>207.49</ele>
        <time>2019-12-01T10:59:49.000Z</time>
      </trkpt>
      <trkpt lat="46.58037" lon="0.16925">
        <ele>207.86</ele>
        <time>2019-12-01T10:59:52.000Z</time>
      </trkpt>
      <trkpt lat="46.58044" lon="0.16934">
        <ele>208.38</ele>
        <time>2019-12-01T10:59:55.000Z</time>
      </trkpt>
      <trkpt lat="46.58055" lon="0.16936">
        <ele>208.7</ele>
        <time>2019-12-01T10:59:58.000Z</time>
      </trkpt>
      <trkpt lat="46.58067" lon="0.16939">
        <ele>209.19</ele>
        <time>2019-12-01T11:00:01.000Z</time>
      </trkpt>
      <trkpt lat="46.58075" lon="0.16945">
        <ele>209.65</ele>
        <time>2019-12-01T11:00:03.000Z</time>
      </trkpt>
      <trkpt lat="46.58088" lon="0.16951">
        <ele>210.44</ele>
        <time>2019-12-01T11:00:06.000Z</time>
      </trkpt>
      <trkpt lat="46.58097" lon="0.16957">
        <ele>210.93</ele>
        <time>2019-12-01T11:00:08.000Z</time>
      </trkpt>
      <trkpt lat="46.58107" lon="0.1696">
        <ele>211.36</ele>
        <time>2019-12-01T11:00:10.000Z</time>
      </trkpt>
      <trkpt lat="46.58116" lon="0.16963">
        <ele>211.8</ele>
        <time>2019-12-01T11:00:12.000Z</time>
      </trkpt>
      <trkpt lat="46.58127" lon="0.16966">
        <ele>214.27</ele>
        <time>2019-12-01T11:00:14.000Z</time>
      </trkpt>
      <trkpt lat="46.58138" lon="0.1697">
        <ele>214.71</ele>
        <time>2019-12-01T11:00:16.000Z</time>
      </trkpt>
      <trkpt lat="46.58147" lon="0.16974">
        <ele>215.18</ele>
        <time>2019-12-01T11:00:18.000Z</time>
      </trkpt>
      <trkpt lat="46.58158" lon="0.16979">
        <ele>216.03</ele>
        <time>2019-12-01T11:00:21.000Z</time>
      </trkpt>
      <trkpt lat="46.58168" lon="0.16981">
        <ele>216.72</ele>
        <time>2019-12-01T11:00:23.000Z</time>
      </trkpt>
      <trkpt lat="46.58179" lon="0.16983">
        <ele>217.38</ele>
        <time>2019-12-01T11:00:25.000Z</time>
      </trkpt>
      <trkpt lat="46.58188" lon="0.16988">
        <ele>217.97</ele>
        <time>2019-12-01T11:00:27.000Z</time>
      </trkpt>
      <trkpt lat="46.582" lon="0.16994">
        <ele>218.54</ele>
        <time>2019-12-01T11:00:29.000Z</time>
      </trkpt>
      <trkpt lat="46.58212" lon="0.1701">
        <ele>218.89</ele>
        <time>2019-12-01T11:00:31.000Z</time>
      </trkpt>
      <trkpt lat="46.58219" lon="0.17022">
        <ele>219.01</ele>
        <time>2019-12-01T11:00:33.000Z</time>
      </trkpt>
      <trkpt lat="46.5823" lon="0.17016">
        <ele>217.88</ele>
        <time>2019-12-01T11:00:38.000Z</time>
      </trkpt>
      <trkpt lat="46.58236" lon="0.17002">
        <ele>215.07</ele>
        <time>2019-12-01T11:00:40.000Z</time>
      </trkpt>
      <trkpt lat="46.58243" lon="0.16987">
        <ele>212.35</ele>
        <time>2019-12-01T11:00:42.000Z</time>
      </trkpt>
      <trkpt lat="46.58252" lon="0.16973">
        <ele>209.65</ele>
        <time>2019-12-01T11:00:44.000Z</time>
      </trkpt>
      <trkpt lat="46.5826" lon="0.16958">
        <ele>207</ele>
        <time>2019-12-01T11:00:46.000Z</time>
      </trkpt>
      <trkpt lat="46.58269" lon="0.16942">
        <ele>204.35</ele>
        <time>2019-12-01T11:00:48.000Z</time>
      </trkpt>
      <trkpt lat="46.58278" lon="0.16928">
        <ele>201.7</ele>
        <time>2019-12-01T11:00:50.000Z</time>
      </trkpt>
      <trkpt lat="46.58288" lon="0.16913">
        <ele>198.97</ele>
        <time>2019-12-01T11:00:52.000Z</time>
      </trkpt>
      <trkpt lat="46.58295" lon="0.16902">
        <ele>196.55</ele>
        <time>2019-12-01T11:00:54.000Z</time>
      </trkpt>
      <trkpt lat="46.58302" lon="0.16888">
        <ele>195.72</ele>
        <time>2019-12-01T11:00:57.000Z</time>
      </trkpt>
      <trkpt lat="46.58308" lon="0.16874">
        <ele>195.22</ele>
        <time>2019-12-01T11:00:59.000Z</time>
      </trkpt>
      <trkpt lat="46.58314" lon="0.16859">
        <ele>194.82</ele>
        <time>2019-12-01T11:01:01.000Z</time>
      </trkpt>
      <trkpt lat="46.58316" lon="0.16842">
        <ele>194.72</ele>
        <time>2019-12-01T11:01:03.000Z</time>
      </trkpt>
      <trkpt lat="46.58317" lon="0.16824">
        <ele>195.24</ele>
        <time>2019-12-01T11:01:05.000Z</time>
      </trkpt>
      <trkpt lat="46.58319" lon="0.16807">
        <ele>195.48</ele>
        <time>2019-12-01T11:01:07.000Z</time>
      </trkpt>
      <trkpt lat="46.58321" lon="0.16791">
        <ele>195.09</ele>
        <time>2019-12-01T11:01:09.000Z</time>
      </trkpt>
      <trkpt lat="46.58322" lon="0.16776">
        <ele>194.82</ele>
        <time>2019-12-01T11:01:11.000Z</time>
      </trkpt>
      <trkpt lat="46.58324" lon="0.1676">
        <ele>194.67</ele>
        <time>2019-12-01T11:01:14.000Z</time>
      </trkpt>
      <trkpt lat="46.58322" lon="0.16745">
        <ele>194.87</ele>
        <time>2019-12-01T11:01:18.000Z</time>
      </trkpt>
      <trkpt lat="46.58321" lon="0.16731">
        <ele>195.04</ele>
        <time>2019-12-01T11:01:21.000Z</time>
      </trkpt>
      <trkpt lat="46.58323" lon="0.16712">
        <ele>193.4</ele>
        <time>2019-12-01T11:01:24.000Z</time>
      </trkpt>
      <trkpt lat="46.58325" lon="0.16699">
        <ele>191.62</ele>
        <time>2019-12-01T11:01:26.000Z</time>
      </trkpt>
      <trkpt lat="46.58328" lon="0.16685">
        <ele>189.64</ele>
        <time>2019-12-01T11:01:28.000Z</time>
      </trkpt>
      <trkpt lat="46.58329" lon="0.16665">
        <ele>186.36</ele>
        <time>2019-12-01T11:01:31.000Z</time>
      </trkpt>
      <trkpt lat="46.58332" lon="0.16649">
        <ele>184.8</ele>
        <time>2019-12-01T11:01:34.000Z</time>
      </trkpt>
      <trkpt lat="46.58332" lon="0.16635">
        <ele>184.3</ele>
        <time>2019-12-01T11:01:39.000Z</time>
      </trkpt>
      <trkpt lat="46.58329" lon="0.16622">
        <ele>183.7</ele>
        <time>2019-12-01T11:01:48.000Z</time>
      </trkpt>
      <trkpt lat="46.58318" lon="0.16617">
        <ele>184.08</ele>
        <time>2019-12-01T11:01:54.000Z</time>
      </trkpt>
      <trkpt lat="46.58309" lon="0.16613">
        <ele>184.52</ele>
        <time>2019-12-01T11:01:59.000Z</time>
      </trkpt>
      <trkpt lat="46.58299" lon="0.16611">
        <ele>185.61</ele>
        <time>2019-12-01T11:02:05.000Z</time>
      </trkpt>
      <trkpt lat="46.58287" lon="0.16604">
        <ele>186.48</ele>
        <time>2019-12-01T11:02:09.000Z</time>
      </trkpt>
      <trkpt lat="46.58276" lon="0.16601">
        <ele>187.38</ele>
        <time>2019-12-01T11:02:13.000Z</time>
      </trkpt>
      <trkpt lat="46.58266" lon="0.16599">
        <ele>188.87</ele>
        <time>2019-12-01T11:02:19.000Z</time>
      </trkpt>
      <trkpt lat="46.58256" lon="0.16599">
        <ele>190.24</ele>
        <time>2019-12-01T11:02:27.000Z</time>
      </trkpt>
      <trkpt lat="46.58245" lon="0.16597">
        <ele>191.5</ele>
        <time>2019-12-01T11:02:33.000Z</time>
      </trkpt>
      <trkpt lat="46.58235" lon="0.16593">
        <ele>192.06</ele>
        <time>2019-12-01T11:02:36.000Z</time>
      </trkpt>
      <trkpt lat="46.58226" lon="0.1659">
        <ele>192.63</ele>
        <time>2019-12-01T11:02:39.000Z</time>
      </trkpt>
      <trkpt lat="46.58214" lon="0.16586">
        <ele>193.74</ele>
        <time>2019-12-01T11:02:44.000Z</time>
      </trkpt>
      <trkpt lat="46.58203" lon="0.16581">
        <ele>194.41</ele>
        <time>2019-12-01T11:02:47.000Z</time>
      </trkpt>
      <trkpt lat="46.58194" lon="0.16574">
        <ele>194.86</ele>
        <time>2019-12-01T11:02:51.000Z</time>
      </trkpt>
      <trkpt lat="46.58181" lon="0.16572">
        <ele>195.12</ele>
        <time>2019-12-01T11:02:55.000Z</time>
      </trkpt>
      <trkpt lat="46.5817" lon="0.16568">
        <ele>195.36</ele>
        <time>2019-12-01T11:02:58.000Z</time>
      </trkpt>
      <trkpt lat="46.5816" lon="0.16565">
        <ele>195.51</ele>
        <time>2019-12-01T11:03:01.000Z</time>
      </trkpt>
      <trkpt lat="46.58148" lon="0.16561">
        <ele>195.76</ele>
        <time>2019-12-01T11:03:05.000Z</time>
      </trkpt>
      <trkpt lat="46.58137" lon="0.16557">
        <ele>195.87</ele>
        <time>2019-12-01T11:03:07.000Z</time>
      </trkpt>
      <trkpt lat="46.58126" lon="0.16555">
        <ele>196.09</ele>
        <time>2019-12-01T11:03:10.000Z</time>
      </trkpt>
      <trkpt lat="46.58117" lon="0.16554">
        <ele>195.94</ele>
        <time>2019-12-01T11:03:13.000Z</time>
      </trkpt>
      <trkpt lat="46.58111" lon="0.16566">
        <ele>195.46</ele>
        <time>2019-12-01T11:03:23.000Z</time>
      </trkpt>
      <trkpt lat="46.58109" lon="0.1658">
        <ele>195.29</ele>
        <time>2019-12-01T11:03:28.000Z</time>
      </trkpt>
      <trkpt lat="46.58096" lon="0.16581">
        <ele>194.92</ele>
        <time>2019-12-01T11:03:34.000Z</time>
      </trkpt>
      <trkpt lat="46.58085" lon="0.16576">
        <ele>194.69</ele>
        <time>2019-12-01T11:03:37.000Z</time>
      </trkpt>
      <trkpt lat="46.58076" lon="0.16572">
        <ele>194.65</ele>
        <time>2019-12-01T11:03:39.000Z</time>
      </trkpt>
      <trkpt lat="46.58065" lon="0.16568">
        <ele>193.85</ele>
        <time>2019-12-01T11:03:41.000Z</time>
      </trkpt>
      <trkpt lat="46.58055" lon="0.16563">
        <ele>193.88</ele>
        <time>2019-12-01T11:03:43.000Z</time>
      </trkpt>
      <trkpt lat="46.58043" lon="0.16555">
        <ele>193.88</ele>
        <time>2019-12-01T11:03:46.000Z</time>
      </trkpt>
      <trkpt lat="46.58031" lon="0.16551">
        <ele>194.24</ele>
        <time>2019-12-01T11:03:48.000Z</time>
      </trkpt>
      <trkpt lat="46.5802" lon="0.16549">
        <ele>194.61</ele>
        <time>2019-12-01T11:03:50.000Z</time>
      </trkpt>
      <trkpt lat="46.58009" lon="0.16544">
        <ele>194.67</ele>
        <time>2019-12-01T11:03:52.000Z</time>
      </trkpt>
      <trkpt lat="46.57996" lon="0.16538">
        <ele>195.85</ele>
        <time>2019-12-01T11:03:55.000Z</time>
      </trkpt>
      <trkpt lat="46.57984" lon="0.16532">
        <ele>197.2</ele>
        <time>2019-12-01T11:03:57.000Z</time>
      </trkpt>
      <trkpt lat="46.57974" lon="0.16528">
        <ele>197.41</ele>
        <time>2019-12-01T11:03:59.000Z</time>
      </trkpt>
      <trkpt lat="46.57961" lon="0.16524">
        <ele>197.73</ele>
        <time>2019-12-01T11:04:02.000Z</time>
      </trkpt>
      <trkpt lat="46.57949" lon="0.1652">
        <ele>197.47</ele>
        <time>2019-12-01T11:04:04.000Z</time>
      </trkpt>
      <trkpt lat="46.57935" lon="0.16516">
        <ele>197.35</ele>
        <time>2019-12-01T11:04:07.000Z</time>
      </trkpt>
      <trkpt lat="46.57925" lon="0.16515">
        <ele>196.84</ele>
        <time>2019-12-01T11:04:11.000Z</time>
      </trkpt>
      <trkpt lat="46.57914" lon="0.1651">
        <ele>196.39</ele>
        <time>2019-12-01T11:04:14.000Z</time>
      </trkpt>
      <trkpt lat="46.57904" lon="0.16518">
        <ele>195.94</ele>
        <time>2019-12-01T11:04:18.000Z</time>
      </trkpt>
      <trkpt lat="46.57894" lon="0.16526">
        <ele>195.63</ele>
        <time>2019-12-01T11:04:21.000Z</time>
      </trkpt>
      <trkpt lat="46.57886" lon="0.16532">
        <ele>195.39</ele>
        <time>2019-12-01T11:04:23.000Z</time>
      </trkpt>
      <trkpt lat="46.57877" lon="0.16541">
        <ele>195.09</ele>
        <time>2019-12-01T11:04:25.000Z</time>
      </trkpt>
      <trkpt lat="46.57865" lon="0.1655">
        <ele>191.08</ele>
        <time>2019-12-01T11:04:27.000Z</time>
      </trkpt>
      <trkpt lat="46.57852" lon="0.16557">
        <ele>187.36</ele>
        <time>2019-12-01T11:04:29.000Z</time>
      </trkpt>
      <trkpt lat="46.5784" lon="0.16567">
        <ele>183.83</ele>
        <time>2019-12-01T11:04:31.000Z</time>
      </trkpt>
      <trkpt lat="46.57829" lon="0.16572">
        <ele>181.22</ele>
        <time>2019-12-01T11:04:33.000Z</time>
      </trkpt>
      <trkpt lat="46.5782" lon="0.1658">
        <ele>178.77</ele>
        <time>2019-12-01T11:04:35.000Z</time>
      </trkpt>
      <trkpt lat="46.57812" lon="0.16588">
        <ele>177.83</ele>
        <time>2019-12-01T11:04:37.000Z</time>
      </trkpt>
      <trkpt lat="46.57806" lon="0.16597">
        <ele>177.37</ele>
        <time>2019-12-01T11:04:39.000Z</time>
      </trkpt>
      <trkpt lat="46.57799" lon="0.16608">
        <ele>177.5</ele>
        <time>2019-12-01T11:04:41.000Z</time>
      </trkpt>
      <trkpt lat="46.57793" lon="0.16622">
        <ele>178.77</ele>
        <time>2019-12-01T11:04:44.000Z</time>
      </trkpt>
      <trkpt lat="46.57789" lon="0.16635">
        <ele>180.69</ele>
        <time>2019-12-01T11:04:46.000Z</time>
      </trkpt>
      <trkpt lat="46.57785" lon="0.16649">
        <ele>182.2</ele>
        <time>2019-12-01T11:04:48.000Z</time>
      </trkpt>
      <trkpt lat="46.57781" lon="0.16662">
        <ele>184.24</ele>
        <time>2019-12-01T11:04:50.000Z</time>
      </trkpt>
      <trkpt lat="46.57778" lon="0.16678">
        <ele>185.32</ele>
        <time>2019-12-01T11:04:52.000Z</time>
      </trkpt>
      <trkpt lat="46.57773" lon="0.16693">
        <ele>185.41</ele>
        <time>2019-12-01T11:04:54.000Z</time>
      </trkpt>
      <trkpt lat="46.57769" lon="0.16713">
        <ele>186.23</ele>
        <time>2019-12-01T11:04:57.000Z</time>
      </trkpt>
      <trkpt lat="46.57764" lon="0.16728">
        <ele>185.71</ele>
        <time>2019-12-01T11:04:59.000Z</time>
      </trkpt>
      <trkpt lat="46.57761" lon="0.16745">
        <ele>185.63</ele>
        <time>2019-12-01T11:05:02.000Z</time>
      </trkpt>
      <trkpt lat="46.57758" lon="0.16759">
        <ele>185.59</ele>
        <time>2019-12-01T11:05:04.000Z</time>
      </trkpt>
      <trkpt lat="46.57756" lon="0.16774">
        <ele>185.66</ele>
        <time>2019-12-01T11:05:07.000Z</time>
      </trkpt>
      <trkpt lat="46.57754" lon="0.1679">
        <ele>185.73</ele>
        <time>2019-12-01T11:05:10.000Z</time>
      </trkpt>
      <trkpt lat="46.5775" lon="0.16802">
        <ele>185.96</ele>
        <time>2019-12-01T11:05:15.000Z</time>
      </trkpt>
      <trkpt lat="46.57739" lon="0.16803">
        <ele>185.66</ele>
        <time>2019-12-01T11:05:24.000Z</time>
      </trkpt>
      <trkpt lat="46.57731" lon="0.16792">
        <ele>185.35</ele>
        <time>2019-12-01T11:05:28.000Z</time>
      </trkpt>
      <trkpt lat="46.57724" lon="0.16783">
        <ele>184.7</ele>
        <time>2019-12-01T11:05:34.000Z</time>
      </trkpt>
      <trkpt lat="46.57717" lon="0.16773">
        <ele>183.72</ele>
        <time>2019-12-01T11:05:49.000Z</time>
      </trkpt>
      <trkpt lat="46.57708" lon="0.16768">
        <ele>181.5</ele>
        <time>2019-12-01T11:06:27.000Z</time>
      </trkpt>
      <trkpt lat="46.57699" lon="0.16764">
        <ele>181.25</ele>
        <time>2019-12-01T11:06:42.000Z</time>
      </trkpt>
      <trkpt lat="46.57689" lon="0.1676">
        <ele>181.9</ele>
        <time>2019-12-01T11:06:49.000Z</time>
      </trkpt>
      <trkpt lat="46.57679" lon="0.16765">
        <ele>182.7</ele>
        <time>2019-12-01T11:07:00.000Z</time>
      </trkpt>
      <trkpt lat="46.57669" lon="0.16762">
        <ele>183.33</ele>
        <time>2019-12-01T11:07:05.000Z</time>
      </trkpt>
      <trkpt lat="46.5766" lon="0.16757">
        <ele>183.91</ele>
        <time>2019-12-01T11:07:09.000Z</time>
      </trkpt>
      <trkpt lat="46.5765" lon="0.16749">
        <ele>184.38</ele>
        <time>2019-12-01T11:07:13.000Z</time>
      </trkpt>
      <trkpt lat="46.57642" lon="0.16742">
        <ele>184.78</ele>
        <time>2019-12-01T11:07:17.000Z</time>
      </trkpt>
      <trkpt lat="46.57636" lon="0.16732">
        <ele>185.22</ele>
        <time>2019-12-01T11:07:21.000Z</time>
      </trkpt>
      <trkpt lat="46.57631" lon="0.16721">
        <ele>185.77</ele>
        <time>2019-12-01T11:07:25.000Z</time>
      </trkpt>
      <trkpt lat="46.57623" lon="0.16711">
        <ele>186.66</ele>
        <time>2019-12-01T11:07:31.000Z</time>
      </trkpt>
      <trkpt lat="46.57614" lon="0.16701">
        <ele>187.38</ele>
        <time>2019-12-01T11:07:35.000Z</time>
      </trkpt>
      <trkpt lat="46.57605" lon="0.16694">
        <ele>188.09</ele>
        <time>2019-12-01T11:07:39.000Z</time>
      </trkpt>
      <trkpt lat="46.57601" lon="0.16708">
        <ele>189.11</ele>
        <time>2019-12-01T11:07:50.000Z</time>
      </trkpt>
      <trkpt lat="46.57601" lon="0.16723">
        <ele>189.21</ele>
        <time>2019-12-01T11:07:56.000Z</time>
      </trkpt>
      <trkpt lat="46.57601" lon="0.16736">
        <ele>189.36</ele>
        <time>2019-12-01T11:08:02.000Z</time>
      </trkpt>
      <trkpt lat="46.57599" lon="0.1675">
        <ele>189.51</ele>
        <time>2019-12-01T11:08:07.000Z</time>
      </trkpt>
      <trkpt lat="46.57595" lon="0.16765">
        <ele>190.03</ele>
        <time>2019-12-01T11:08:14.000Z</time>
      </trkpt>
      <trkpt lat="46.57591" lon="0.1678">
        <ele>190.32</ele>
        <time>2019-12-01T11:08:19.000Z</time>
      </trkpt>
      <trkpt lat="46.57587" lon="0.16793">
        <ele>190.47</ele>
        <time>2019-12-01T11:08:23.000Z</time>
      </trkpt>
      <trkpt lat="46.57584" lon="0.16805">
        <ele>190.49</ele>
        <time>2019-12-01T11:08:27.000Z</time>
      </trkpt>
      <trkpt lat="46.5758" lon="0.16818">
        <ele>190.58</ele>
        <time>2019-12-01T11:08:32.000Z</time>
      </trkpt>
      <trkpt lat="46.57576" lon="0.16832">
        <ele>190.94</ele>
        <time>2019-12-01T11:08:37.000Z</time>
      </trkpt>
      <trkpt lat="46.57573" lon="0.16845">
        <ele>191.36</ele>
        <time>2019-12-01T11:08:41.000Z</time>
      </trkpt>
      <trkpt lat="46.57569" lon="0.16859">
        <ele>191.77</ele>
        <time>2019-12-01T11:08:45.000Z</time>
      </trkpt>
      <trkpt lat="46.57566" lon="0.16872">
        <ele>192.11</ele>
        <time>2019-12-01T11:08:49.000Z</time>
      </trkpt>
      <trkpt lat="46.57563" lon="0.16888">
        <ele>192.5</ele>
        <time>2019-12-01T11:08:53.000Z</time>
      </trkpt>
      <trkpt lat="46.5756" lon="0.16905">
        <ele>192.92</ele>
        <time>2019-12-01T11:08:57.000Z</time>
      </trkpt>
      <trkpt lat="46.57558" lon="0.16921">
        <ele>193.42</ele>
        <time>2019-12-01T11:09:01.000Z</time>
      </trkpt>
      <trkpt lat="46.57554" lon="0.16936">
        <ele>193.89</ele>
        <time>2019-12-01T11:09:05.000Z</time>
      </trkpt>
      <trkpt lat="46.57549" lon="0.16948">
        <ele>194.12</ele>
        <time>2019-12-01T11:09:08.000Z</time>
      </trkpt>
      <trkpt lat="46.57544" lon="0.16961">
        <ele>194.31</ele>
        <time>2019-12-01T11:09:11.000Z</time>
      </trkpt>
      <trkpt lat="46.57539" lon="0.16974">
        <ele>194.39</ele>
        <time>2019-12-01T11:09:14.000Z</time>
      </trkpt>
      <trkpt lat="46.57536" lon="0.16988">
        <ele>194.42</ele>
        <time>2019-12-01T11:09:17.000Z</time>
      </trkpt>
      <trkpt lat="46.57532" lon="0.17005">
        <ele>194.33</ele>
        <time>2019-12-01T11:09:20.000Z</time>
      </trkpt>
      <trkpt lat="46.57528" lon="0.1702">
        <ele>194.17</ele>
        <time>2019-12-01T11:09:23.000Z</time>
      </trkpt>
      <trkpt lat="46.57525" lon="0.17035">
        <ele>194.1</ele>
        <time>2019-12-01T11:09:26.000Z</time>
      </trkpt>
      <trkpt lat="46.57523" lon="0.17048">
        <ele>194.1</ele>
        <time>2019-12-01T11:09:29.000Z</time>
      </trkpt>
      <trkpt lat="46.57521" lon="0.17063">
        <ele>194.12</ele>
        <time>2019-12-01T11:09:33.000Z</time>
      </trkpt>
      <trkpt lat="46.5752" lon="0.17079">
        <ele>194.22</ele>
        <time>2019-12-01T11:09:38.000Z</time>
      </trkpt>
      <trkpt lat="46.57518" lon="0.17093">
        <ele>194.42</ele>
        <time>2019-12-01T11:09:43.000Z</time>
      </trkpt>
      <trkpt lat="46.57518" lon="0.17108">
        <ele>194.7</ele>
        <time>2019-12-01T11:09:47.000Z</time>
      </trkpt>
      <trkpt lat="46.57517" lon="0.17123">
        <ele>195.1</ele>
        <time>2019-12-01T11:09:52.000Z</time>
      </trkpt>
      <trkpt lat="46.57517" lon="0.17136">
        <ele>195.52</ele>
        <time>2019-12-01T11:09:56.000Z</time>
      </trkpt>
      <trkpt lat="46.57517" lon="0.1715">
        <ele>196.03</ele>
        <time>2019-12-01T11:10:00.000Z</time>
      </trkpt>
      <trkpt lat="46.57516" lon="0.17165">
        <ele>196.51</ele>
        <time>2019-12-01T11:10:04.000Z</time>
      </trkpt>
      <trkpt lat="46.57516" lon="0.1718">
        <ele>196.9</ele>
        <time>2019-12-01T11:10:08.000Z</time>
      </trkpt>
      <trkpt lat="46.57515" lon="0.17195">
        <ele>197.34</ele>
        <time>2019-12-01T11:10:13.000Z</time>
      </trkpt>
      <trkpt lat="46.57513" lon="0.17209">
        <ele>197.66</ele>
        <time>2019-12-01T11:10:17.000Z</time>
      </trkpt>
      <trkpt lat="46.57511" lon="0.17222">
        <ele>197.99</ele>
        <time>2019-12-01T11:10:21.000Z</time>
      </trkpt>
      <trkpt lat="46.57509" lon="0.17235">
        <ele>198.23</ele>
        <time>2019-12-01T11:10:25.000Z</time>
      </trkpt>
      <trkpt lat="46.57508" lon="0.17252">
        <ele>198.57</ele>
        <time>2019-12-01T11:10:30.000Z</time>
      </trkpt>
      <trkpt lat="46.57508" lon="0.17267">
        <ele>199.02</ele>
        <time>2019-12-01T11:10:35.000Z</time>
      </trkpt>
      <trkpt lat="46.57509" lon="0.1728">
        <ele>199.4</ele>
        <time>2019-12-01T11:10:39.000Z</time>
      </trkpt>
      <trkpt lat="46.5751" lon="0.17295">
        <ele>199.92</ele>
        <time>2019-12-01T11:10:44.000Z</time>
      </trkpt>
      <trkpt lat="46.5751" lon="0.17308">
        <ele>200.39</ele>
        <time>2019-12-01T11:10:48.000Z</time>
      </trkpt>
      <trkpt lat="46.57511" lon="0.17325">
        <ele>200.96</ele>
        <time>2019-12-01T11:10:53.000Z</time>
      </trkpt>
      <trkpt lat="46.57512" lon="0.17338">
        <ele>201.41</ele>
        <time>2019-12-01T11:10:57.000Z</time>
      </trkpt>
      <trkpt lat="46.57511" lon="0.17354">
        <ele>201.58</ele>
        <time>2019-12-01T11:11:01.000Z</time>
      </trkpt>
      <trkpt lat="46.57509" lon="0.17369">
        <ele>201.44</ele>
        <time>2019-12-01T11:11:05.000Z</time>
      </trkpt>
      <trkpt lat="46.5751" lon="0.17384">
        <ele>201.28</ele>
        <time>2019-12-01T11:11:10.000Z</time>
      </trkpt>
      <trkpt lat="46.57511" lon="0.17397">
        <ele>201.12</ele>
        <time>2019-12-01T11:11:13.000Z</time>
      </trkpt>
      <trkpt lat="46.57511" lon="0.17411">
        <ele>200.83</ele>
        <time>2019-12-01T11:11:17.000Z</time>
      </trkpt>
      <trkpt lat="46.57508" lon="0.17427">
        <ele>200.5</ele>
        <time>2019-12-01T11:11:22.000Z</time>
      </trkpt>
      <trkpt lat="46.57505" lon="0.17439">
        <ele>200.56</ele>
        <time>2019-12-01T11:11:27.000Z</time>
      </trkpt>
      <trkpt lat="46.575" lon="0.17452">
        <ele>200.76</ele>
        <time>2019-12-01T11:11:32.000Z</time>
      </trkpt>
      <trkpt lat="46.57501" lon="0.17466">
        <ele>201.16</ele>
        <time>2019-12-01T11:11:35.000Z</time>
      </trkpt>
      <trkpt lat="46.57495" lon="0.17482">
        <ele>201.78</ele>
        <time>2019-12-01T11:11:39.000Z</time>
      </trkpt>
      <trkpt lat="46.57487" lon="0.17492">
        <ele>202.07</ele>
        <time>2019-12-01T11:11:41.000Z</time>
      </trkpt>
      <trkpt lat="46.57481" lon="0.17502">
        <ele>202.29</ele>
        <time>2019-12-01T11:11:44.000Z</time>
      </trkpt>
      <trkpt lat="46.57477" lon="0.17519">
        <ele>202.57</ele>
        <time>2019-12-01T11:11:48.000Z</time>
      </trkpt>
      <trkpt lat="46.57474" lon="0.17537">
        <ele>202.79</ele>
        <time>2019-12-01T11:11:53.000Z</time>
      </trkpt>
      <trkpt lat="46.57471" lon="0.17551">
        <ele>202.85</ele>
        <time>2019-12-01T11:11:56.000Z</time>
      </trkpt>
      <trkpt lat="46.57467" lon="0.17565">
        <ele>202.78</ele>
        <time>2019-12-01T11:11:59.000Z</time>
      </trkpt>
      <trkpt lat="46.57463" lon="0.17581">
        <ele>202.71</ele>
        <time>2019-12-01T11:12:03.000Z</time>
      </trkpt>
      <trkpt lat="46.5746" lon="0.17595">
        <ele>202.91</ele>
        <time>2019-12-01T11:12:06.000Z</time>
      </trkpt>
      <trkpt lat="46.57457" lon="0.17608">
        <ele>203.16</ele>
        <time>2019-12-01T11:12:09.000Z</time>
      </trkpt>
      <trkpt lat="46.57454" lon="0.17625">
        <ele>203.7</ele>
        <time>2019-12-01T11:12:14.000Z</time>
      </trkpt>
      <trkpt lat="46.57452" lon="0.17639">
        <ele>204.04</ele>
        <time>2019-12-01T11:12:18.000Z</time>
      </trkpt>
      <trkpt lat="46.57448" lon="0.17654">
        <ele>204.13</ele>
        <time>2019-12-01T11:12:21.000Z</time>
      </trkpt>
      <trkpt lat="46.57446" lon="0.17667">
        <ele>204.11</ele>
        <time>2019-12-01T11:12:23.000Z</time>
      </trkpt>
      <trkpt lat="46.57439" lon="0.17683">
        <ele>203.87</ele>
        <time>2019-12-01T11:12:27.000Z</time>
      </trkpt>
      <trkpt lat="46.57433" lon="0.17695">
        <ele>203.65</ele>
        <time>2019-12-01T11:12:29.000Z</time>
      </trkpt>
      <trkpt lat="46.5743" lon="0.17711">
        <ele>202.99</ele>
        <time>2019-12-01T11:12:33.000Z</time>
      </trkpt>
      <trkpt lat="46.57426" lon="0.1773">
        <ele>202.21</ele>
        <time>2019-12-01T11:12:37.000Z</time>
      </trkpt>
      <trkpt lat="46.57424" lon="0.17746">
        <ele>201.63</ele>
        <time>2019-12-01T11:12:40.000Z</time>
      </trkpt>
      <trkpt lat="46.5742" lon="0.17758">
        <ele>201.31</ele>
        <time>2019-12-01T11:12:42.000Z</time>
      </trkpt>
      <trkpt lat="46.57413" lon="0.17775">
        <ele>200.83</ele>
        <time>2019-12-01T11:12:45.000Z</time>
      </trkpt>
      <trkpt lat="46.57407" lon="0.1779">
        <ele>200.44</ele>
        <time>2019-12-01T11:12:48.000Z</time>
      </trkpt>
      <trkpt lat="46.57404" lon="0.17808">
        <ele>199.05</ele>
        <time>2019-12-01T11:12:51.000Z</time>
      </trkpt>
      <trkpt lat="46.57397" lon="0.17821">
        <ele>199.12</ele>
        <time>2019-12-01T11:12:55.000Z</time>
      </trkpt>
      <trkpt lat="46.5739" lon="0.17837">
        <ele>199.01</ele>
        <time>2019-12-01T11:12:57.000Z</time>
      </trkpt>
      <trkpt lat="46.5738" lon="0.17854">
        <ele>198.69</ele>
        <time>2019-12-01T11:13:00.000Z</time>
      </trkpt>
      <trkpt lat="46.57372" lon="0.17868">
        <ele>198.24</ele>
        <time>2019-12-01T11:13:03.000Z</time>
      </trkpt>
      <trkpt lat="46.57365" lon="0.17883">
        <ele>197.57</ele>
        <time>2019-12-01T11:13:06.000Z</time>
      </trkpt>
      <trkpt lat="46.5736" lon="0.179">
        <ele>197</ele>
        <time>2019-12-01T11:13:09.000Z</time>
      </trkpt>
      <trkpt lat="46.57357" lon="0.17916">
        <ele>196.87</ele>
        <time>2019-12-01T11:13:12.000Z</time>
      </trkpt>
      <trkpt lat="46.57357" lon="0.17932">
        <ele>197.13</ele>
        <time>2019-12-01T11:13:16.000Z</time>
      </trkpt>
      <trkpt lat="46.57354" lon="0.17949">
        <ele>197.73</ele>
        <time>2019-12-01T11:13:20.000Z</time>
      </trkpt>
      <trkpt lat="46.5735" lon="0.17965">
        <ele>198.39</ele>
        <time>2019-12-01T11:13:24.000Z</time>
      </trkpt>
      <trkpt lat="46.57344" lon="0.17976">
        <ele>198.66</ele>
        <time>2019-12-01T11:13:27.000Z</time>
      </trkpt>
      <trkpt lat="46.57338" lon="0.17986">
        <ele>198.75</ele>
        <time>2019-12-01T11:13:31.000Z</time>
      </trkpt>
      <trkpt lat="46.57331" lon="0.17996">
        <ele>198.59</ele>
        <time>2019-12-01T11:13:34.000Z</time>
      </trkpt>
      <trkpt lat="46.57323" lon="0.18004">
        <ele>198.38</ele>
        <time>2019-12-01T11:13:37.000Z</time>
      </trkpt>
      <trkpt lat="46.57316" lon="0.18014">
        <ele>198</ele>
        <time>2019-12-01T11:13:42.000Z</time>
      </trkpt>
      <trkpt lat="46.57308" lon="0.18023">
        <ele>197.33</ele>
        <time>2019-12-01T11:13:49.000Z</time>
      </trkpt>
      <trkpt lat="46.57297" lon="0.18025">
        <ele>196.77</ele>
        <time>2019-12-01T11:13:54.000Z</time>
      </trkpt>
      <trkpt lat="46.57288" lon="0.18034">
        <ele>195.62</ele>
        <time>2019-12-01T11:14:03.000Z</time>
      </trkpt>
      <trkpt lat="46.57285" lon="0.18046">
        <ele>195.24</ele>
        <time>2019-12-01T11:14:13.000Z</time>
      </trkpt>
      <trkpt lat="46.57277" lon="0.18055">
        <ele>196.26</ele>
        <time>2019-12-01T11:14:28.000Z</time>
      </trkpt>
      <trkpt lat="46.5727" lon="0.18066">
        <ele>196.75</ele>
        <time>2019-12-01T11:14:32.000Z</time>
      </trkpt>
      <trkpt lat="46.57262" lon="0.18077">
        <ele>197.26</ele>
        <time>2019-12-01T11:14:38.000Z</time>
      </trkpt>
      <trkpt lat="46.57254" lon="0.18086">
        <ele>197.78</ele>
        <time>2019-12-01T11:14:43.000Z</time>
      </trkpt>
      <trkpt lat="46.57247" lon="0.18095">
        <ele>198.14</ele>
        <time>2019-12-01T11:14:47.000Z</time>
      </trkpt>
      <trkpt lat="46.57238" lon="0.18104">
        <ele>198.43</ele>
        <time>2019-12-01T11:14:51.000Z</time>
      </trkpt>
      <trkpt lat="46.57229" lon="0.18113">
        <ele>198.65</ele>
        <time>2019-12-01T11:14:55.000Z</time>
      </trkpt>
      <trkpt lat="46.57222" lon="0.18125">
        <ele>198.87</ele>
        <time>2019-12-01T11:14:59.000Z</time>
      </trkpt>
      <trkpt lat="46.57211" lon="0.18131">
        <ele>199.01</ele>
        <time>2019-12-01T11:15:03.000Z</time>
      </trkpt>
      <trkpt lat="46.57203" lon="0.18139">
        <ele>198.95</ele>
        <time>2019-12-01T11:15:07.000Z</time>
      </trkpt>
      <trkpt lat="46.57195" lon="0.18149">
        <ele>198.8</ele>
        <time>2019-12-01T11:15:12.000Z</time>
      </trkpt>
      <trkpt lat="46.57185" lon="0.18151">
        <ele>198.61</ele>
        <time>2019-12-01T11:15:16.000Z</time>
      </trkpt>
      <trkpt lat="46.57174" lon="0.18153">
        <ele>198.48</ele>
        <time>2019-12-01T11:15:21.000Z</time>
      </trkpt>
      <trkpt lat="46.57163" lon="0.18154">
        <ele>198.45</ele>
        <time>2019-12-01T11:15:26.000Z</time>
      </trkpt>
      <trkpt lat="46.57153" lon="0.18155">
        <ele>198.65</ele>
        <time>2019-12-01T11:15:31.000Z</time>
      </trkpt>
      <trkpt lat="46.57143" lon="0.18155">
        <ele>198.98</ele>
        <time>2019-12-01T11:15:36.000Z</time>
      </trkpt>
      <trkpt lat="46.57132" lon="0.18155">
        <ele>199.23</ele>
        <time>2019-12-01T11:15:41.000Z</time>
      </trkpt>
      <trkpt lat="46.57121" lon="0.18153">
        <ele>199.54</ele>
        <time>2019-12-01T11:15:46.000Z</time>
      </trkpt>
      <trkpt lat="46.57111" lon="0.18151">
        <ele>199.79</ele>
        <time>2019-12-01T11:15:51.000Z</time>
      </trkpt>
      <trkpt lat="46.571" lon="0.1815">
        <ele>199.9</ele>
        <time>2019-12-01T11:15:56.000Z</time>
      </trkpt>
      <trkpt lat="46.57088" lon="0.1815">
        <ele>199.93</ele>
        <time>2019-12-01T11:16:01.000Z</time>
      </trkpt>
      <trkpt lat="46.57077" lon="0.18149">
        <ele>199.94</ele>
        <time>2019-12-01T11:16:06.000Z</time>
      </trkpt>
      <trkpt lat="46.57067" lon="0.18148">
        <ele>199.88</ele>
        <time>2019-12-01T11:16:11.000Z</time>
      </trkpt>
      <trkpt lat="46.5706" lon="0.18158">
        <ele>199.54</ele>
        <time>2019-12-01T11:16:20.000Z</time>
      </trkpt>
      <trkpt lat="46.57058" lon="0.18175">
        <ele>199.44</ele>
        <time>2019-12-01T11:16:24.000Z</time>
      </trkpt>
      <trkpt lat="46.57059" lon="0.18189">
        <ele>199.39</ele>
        <time>2019-12-01T11:16:27.000Z</time>
      </trkpt>
      <trkpt lat="46.57059" lon="0.18205">
        <ele>199.63</ele>
        <time>2019-12-01T11:16:30.000Z</time>
      </trkpt>
      <trkpt lat="46.57059" lon="0.18224">
        <ele>200.8</ele>
        <time>2019-12-01T11:16:33.000Z</time>
      </trkpt>
      <trkpt lat="46.57059" lon="0.18238">
        <ele>201.36</ele>
        <time>2019-12-01T11:16:35.000Z</time>
      </trkpt>
      <trkpt lat="46.57058" lon="0.18252">
        <ele>201.65</ele>
        <time>2019-12-01T11:16:37.000Z</time>
      </trkpt>
      <trkpt lat="46.57057" lon="0.18265">
        <ele>201.68</ele>
        <time>2019-12-01T11:16:39.000Z</time>
      </trkpt>
      <trkpt lat="46.57057" lon="0.18284">
        <ele>201.4</ele>
        <time>2019-12-01T11:16:42.000Z</time>
      </trkpt>
      <trkpt lat="46.57056" lon="0.18299">
        <ele>200.49</ele>
        <time>2019-12-01T11:16:44.000Z</time>
      </trkpt>
      <trkpt lat="46.57056" lon="0.18313">
        <ele>199.69</ele>
        <time>2019-12-01T11:16:46.000Z</time>
      </trkpt>
      <trkpt lat="46.57055" lon="0.18326">
        <ele>198.75</ele>
        <time>2019-12-01T11:16:48.000Z</time>
      </trkpt>
      <trkpt lat="46.57054" lon="0.18341">
        <ele>198.31</ele>
        <time>2019-12-01T11:16:50.000Z</time>
      </trkpt>
      <trkpt lat="46.57053" lon="0.18358">
        <ele>197.61</ele>
        <time>2019-12-01T11:16:52.000Z</time>
      </trkpt>
      <trkpt lat="46.57053" lon="0.18376">
        <ele>197.87</ele>
        <time>2019-12-01T11:16:54.000Z</time>
      </trkpt>
      <trkpt lat="46.57052" lon="0.18393">
        <ele>198.11</ele>
        <time>2019-12-01T11:16:56.000Z</time>
      </trkpt>
      <trkpt lat="46.57052" lon="0.1841">
        <ele>198.18</ele>
        <time>2019-12-01T11:16:58.000Z</time>
      </trkpt>
      <trkpt lat="46.57052" lon="0.18425">
        <ele>197.74</ele>
        <time>2019-12-01T11:17:00.000Z</time>
      </trkpt>
      <trkpt lat="46.5705" lon="0.18443">
        <ele>196.9</ele>
        <time>2019-12-01T11:17:02.000Z</time>
      </trkpt>
      <trkpt lat="46.57049" lon="0.18458">
        <ele>195.91</ele>
        <time>2019-12-01T11:17:04.000Z</time>
      </trkpt>
      <trkpt lat="46.57047" lon="0.18473">
        <ele>195.1</ele>
        <time>2019-12-01T11:17:06.000Z</time>
      </trkpt>
      <trkpt lat="46.57044" lon="0.18489">
        <ele>194.65</ele>
        <time>2019-12-01T11:17:08.000Z</time>
      </trkpt>
      <trkpt lat="46.57042" lon="0.18504">
        <ele>194.61</ele>
        <time>2019-12-01T11:17:10.000Z</time>
      </trkpt>
      <trkpt lat="46.57041" lon="0.18521">
        <ele>194.95</ele>
        <time>2019-12-01T11:17:12.000Z</time>
      </trkpt>
      <trkpt lat="46.57039" lon="0.18537">
        <ele>195.46</ele>
        <time>2019-12-01T11:17:14.000Z</time>
      </trkpt>
      <trkpt lat="46.57038" lon="0.18553">
        <ele>196.31</ele>
        <time>2019-12-01T11:17:16.000Z</time>
      </trkpt>
      <trkpt lat="46.57035" lon="0.1857">
        <ele>197.19</ele>
        <time>2019-12-01T11:17:18.000Z</time>
      </trkpt>
      <trkpt lat="46.57033" lon="0.18586">
        <ele>198.09</ele>
        <time>2019-12-01T11:17:20.000Z</time>
      </trkpt>
      <trkpt lat="46.5703" lon="0.186">
        <ele>199.1</ele>
        <time>2019-12-01T11:17:22.000Z</time>
      </trkpt>
      <trkpt lat="46.57028" lon="0.18615">
        <ele>199.56</ele>
        <time>2019-12-01T11:17:24.000Z</time>
      </trkpt>
      <trkpt lat="46.57025" lon="0.18635">
        <ele>200.07</ele>
        <time>2019-12-01T11:17:27.000Z</time>
      </trkpt>
      <trkpt lat="46.57023" lon="0.18652">
        <ele>200.27</ele>
        <time>2019-12-01T11:17:29.000Z</time>
      </trkpt>
      <trkpt lat="46.57021" lon="0.1867">
        <ele>200.06</ele>
        <time>2019-12-01T11:17:31.000Z</time>
      </trkpt>
      <trkpt lat="46.5702" lon="0.18688">
        <ele>199.64</ele>
        <time>2019-12-01T11:17:33.000Z</time>
      </trkpt>
      <trkpt lat="46.57017" lon="0.18706">
        <ele>199.77</ele>
        <time>2019-12-01T11:17:35.000Z</time>
      </trkpt>
      <trkpt lat="46.57015" lon="0.18723">
        <ele>199.98</ele>
        <time>2019-12-01T11:17:37.000Z</time>
      </trkpt>
      <trkpt lat="46.57013" lon="0.1874">
        <ele>200.18</ele>
        <time>2019-12-01T11:17:39.000Z</time>
      </trkpt>
      <trkpt lat="46.5701" lon="0.18756">
        <ele>200.26</ele>
        <time>2019-12-01T11:17:41.000Z</time>
      </trkpt>
      <trkpt lat="46.57008" lon="0.18774">
        <ele>200.16</ele>
        <time>2019-12-01T11:17:43.000Z</time>
      </trkpt>
      <trkpt lat="46.57006" lon="0.1879">
        <ele>200.08</ele>
        <time>2019-12-01T11:17:45.000Z</time>
      </trkpt>
      <trkpt lat="46.57004" lon="0.18807">
        <ele>200.09</ele>
        <time>2019-12-01T11:17:47.000Z</time>
      </trkpt>
      <trkpt lat="46.57002" lon="0.18823">
        <ele>200.06</ele>
        <time>2019-12-01T11:17:49.000Z</time>
      </trkpt>
      <trkpt lat="46.57" lon="0.18839">
        <ele>199.95</ele>
        <time>2019-12-01T11:17:51.000Z</time>
      </trkpt>
      <trkpt lat="46.56999" lon="0.18856">
        <ele>199.87</ele>
        <time>2019-12-01T11:17:53.000Z</time>
      </trkpt>
      <trkpt lat="46.56998" lon="0.18873">
        <ele>199.84</ele>
        <time>2019-12-01T11:17:55.000Z</time>
      </trkpt>
      <trkpt lat="46.56996" lon="0.18888">
        <ele>199.92</ele>
        <time>2019-12-01T11:17:57.000Z</time>
      </trkpt>
      <trkpt lat="46.56994" lon="0.18904">
        <ele>199.98</ele>
        <time>2019-12-01T11:17:59.000Z</time>
      </trkpt>
      <trkpt lat="46.56992" lon="0.18921">
        <ele>200.01</ele>
        <time>2019-12-01T11:18:01.000Z</time>
      </trkpt>
      <trkpt lat="46.56991" lon="0.18937">
        <ele>200.06</ele>
        <time>2019-12-01T11:18:03.000Z</time>
      </trkpt>
      <trkpt lat="46.56989" lon="0.18951">
        <ele>200.04</ele>
        <time>2019-12-01T11:18:05.000Z</time>
      </trkpt>
      <trkpt lat="46.56988" lon="0.1897">
        <ele>200.04</ele>
        <time>2019-12-01T11:18:08.000Z</time>
      </trkpt>
      <trkpt lat="46.56987" lon="0.18985">
        <ele>200.2</ele>
        <time>2019-12-01T11:18:10.000Z</time>
      </trkpt>
      <trkpt lat="46.56985" lon="0.19">
        <ele>200.28</ele>
        <time>2019-12-01T11:18:12.000Z</time>
      </trkpt>
      <trkpt lat="46.56984" lon="0.19017">
        <ele>200.29</ele>
        <time>2019-12-01T11:18:14.000Z</time>
      </trkpt>
      <trkpt lat="46.56982" lon="0.19033">
        <ele>199.99</ele>
        <time>2019-12-01T11:18:16.000Z</time>
      </trkpt>
      <trkpt lat="46.5698" lon="0.19047">
        <ele>199.84</ele>
        <time>2019-12-01T11:18:18.000Z</time>
      </trkpt>
      <trkpt lat="46.56979" lon="0.19062">
        <ele>200.05</ele>
        <time>2019-12-01T11:18:20.000Z</time>
      </trkpt>
      <trkpt lat="46.56978" lon="0.19076">
        <ele>200.41</ele>
        <time>2019-12-01T11:18:22.000Z</time>
      </trkpt>
      <trkpt lat="46.56976" lon="0.19096">
        <ele>200.78</ele>
        <time>2019-12-01T11:18:25.000Z</time>
      </trkpt>
      <trkpt lat="46.56973" lon="0.19112">
        <ele>200.89</ele>
        <time>2019-12-01T11:18:27.000Z</time>
      </trkpt>
      <trkpt lat="46.56972" lon="0.19127">
        <ele>199.79</ele>
        <time>2019-12-01T11:18:29.000Z</time>
      </trkpt>
      <trkpt lat="46.5697" lon="0.19146">
        <ele>198.14</ele>
        <time>2019-12-01T11:18:31.000Z</time>
      </trkpt>
      <trkpt lat="46.56968" lon="0.19163">
        <ele>196.48</ele>
        <time>2019-12-01T11:18:33.000Z</time>
      </trkpt>
      <trkpt lat="46.56967" lon="0.19178">
        <ele>194.75</ele>
        <time>2019-12-01T11:18:35.000Z</time>
      </trkpt>
      <trkpt lat="46.56966" lon="0.19191">
        <ele>193.91</ele>
        <time>2019-12-01T11:18:37.000Z</time>
      </trkpt>
      <trkpt lat="46.56962" lon="0.19209">
        <ele>194.6</ele>
        <time>2019-12-01T11:18:40.000Z</time>
      </trkpt>
      <trkpt lat="46.5696" lon="0.19223">
        <ele>195.25</ele>
        <time>2019-12-01T11:18:42.000Z</time>
      </trkpt>
      <trkpt lat="46.5696" lon="0.19236">
        <ele>195.5</ele>
        <time>2019-12-01T11:18:44.000Z</time>
      </trkpt>
      <trkpt lat="46.56959" lon="0.19251">
        <ele>195.35</ele>
        <time>2019-12-01T11:18:46.000Z</time>
      </trkpt>
      <trkpt lat="46.56959" lon="0.19266">
        <ele>195.35</ele>
        <time>2019-12-01T11:18:48.000Z</time>
      </trkpt>
      <trkpt lat="46.5696" lon="0.1928">
        <ele>195.69</ele>
        <time>2019-12-01T11:18:50.000Z</time>
      </trkpt>
      <trkpt lat="46.56959" lon="0.19294">
        <ele>195.83</ele>
        <time>2019-12-01T11:18:52.000Z</time>
      </trkpt>
      <trkpt lat="46.56958" lon="0.19308">
        <ele>195.95</ele>
        <time>2019-12-01T11:18:54.000Z</time>
      </trkpt>
      <trkpt lat="46.56957" lon="0.19322">
        <ele>195.39</ele>
        <time>2019-12-01T11:18:56.000Z</time>
      </trkpt>
      <trkpt lat="46.56958" lon="0.19341">
        <ele>195.22</ele>
        <time>2019-12-01T11:18:59.000Z</time>
      </trkpt>
      <trkpt lat="46.56956" lon="0.19358">
        <ele>195.02</ele>
        <time>2019-12-01T11:19:01.000Z</time>
      </trkpt>
      <trkpt lat="46.56952" lon="0.19375">
        <ele>194.36</ele>
        <time>2019-12-01T11:19:03.000Z</time>
      </trkpt>
      <trkpt lat="46.56951" lon="0.1939">
        <ele>194.32</ele>
        <time>2019-12-01T11:19:05.000Z</time>
      </trkpt>
      <trkpt lat="46.56947" lon="0.19403">
        <ele>194.87</ele>
        <time>2019-12-01T11:19:07.000Z</time>
      </trkpt>
      <trkpt lat="46.56944" lon="0.19416">
        <ele>195.8</ele>
        <time>2019-12-01T11:19:09.000Z</time>
      </trkpt>
      <trkpt lat="46.56941" lon="0.19432">
        <ele>196.78</ele>
        <time>2019-12-01T11:19:11.000Z</time>
      </trkpt>
      <trkpt lat="46.56938" lon="0.19452">
        <ele>197.38</ele>
        <time>2019-12-01T11:19:14.000Z</time>
      </trkpt>
      <trkpt lat="46.56939" lon="0.19467">
        <ele>197.36</ele>
        <time>2019-12-01T11:19:17.000Z</time>
      </trkpt>
      <trkpt lat="46.56941" lon="0.19482">
        <ele>197.42</ele>
        <time>2019-12-01T11:19:19.000Z</time>
      </trkpt>
      <trkpt lat="46.56935" lon="0.19495">
        <ele>197.15</ele>
        <time>2019-12-01T11:19:21.000Z</time>
      </trkpt>
      <trkpt lat="46.56925" lon="0.19504">
        <ele>196.49</ele>
        <time>2019-12-01T11:19:23.000Z</time>
      </trkpt>
      <trkpt lat="46.56918" lon="0.19519">
        <ele>195.63</ele>
        <time>2019-12-01T11:19:25.000Z</time>
      </trkpt>
      <trkpt lat="46.56912" lon="0.19534">
        <ele>195.03</ele>
        <time>2019-12-01T11:19:27.000Z</time>
      </trkpt>
      <trkpt lat="46.56908" lon="0.19549">
        <ele>194.64</ele>
        <time>2019-12-01T11:19:29.000Z</time>
      </trkpt>
      <trkpt lat="46.56906" lon="0.19568">
        <ele>194.06</ele>
        <time>2019-12-01T11:19:32.000Z</time>
      </trkpt>
      <trkpt lat="46.5691" lon="0.19583">
        <ele>194.19</ele>
        <time>2019-12-01T11:19:35.000Z</time>
      </trkpt>
      <trkpt lat="46.56913" lon="0.19595">
        <ele>195.04</ele>
        <time>2019-12-01T11:19:45.000Z</time>
      </trkpt>
      <trkpt lat="46.56903" lon="0.19595">
        <ele>195.2</ele>
        <time>2019-12-01T11:19:49.000Z</time>
      </trkpt>
      <trkpt lat="46.56893" lon="0.19597">
        <ele>195.37</ele>
        <time>2019-12-01T11:19:53.000Z</time>
      </trkpt>
      <trkpt lat="46.56897" lon="0.19583">
        <ele>195.49</ele>
        <time>2019-12-01T11:20:00.000Z</time>
      </trkpt>
      <trkpt lat="46.56909" lon="0.19588">
        <ele>195.54</ele>
        <time>2019-12-01T11:20:03.000Z</time>
      </trkpt>
      <trkpt lat="46.56913" lon="0.19606">
        <ele>195.61</ele>
        <time>2019-12-01T11:20:05.000Z</time>
      </trkpt>
      <trkpt lat="46.56915" lon="0.19624">
        <ele>195.06</ele>
        <time>2019-12-01T11:20:07.000Z</time>
      </trkpt>
      <trkpt lat="46.56916" lon="0.19638">
        <ele>194.28</ele>
        <time>2019-12-01T11:20:09.000Z</time>
      </trkpt>
      <trkpt lat="46.56918" lon="0.19653">
        <ele>194.63</ele>
        <time>2019-12-01T11:20:11.000Z</time>
      </trkpt>
      <trkpt lat="46.5692" lon="0.19667">
        <ele>195.04</ele>
        <time>2019-12-01T11:20:13.000Z</time>
      </trkpt>
      <trkpt lat="46.56922" lon="0.19681">
        <ele>194.83</ele>
        <time>2019-12-01T11:20:15.000Z</time>
      </trkpt>
      <trkpt lat="46.56924" lon="0.19694">
        <ele>194.55</ele>
        <time>2019-12-01T11:20:17.000Z</time>
      </trkpt>
      <trkpt lat="46.56926" lon="0.19714">
        <ele>195.1</ele>
        <time>2019-12-01T11:20:20.000Z</time>
      </trkpt>
      <trkpt lat="46.56926" lon="0.19728">
        <ele>195.69</ele>
        <time>2019-12-01T11:20:22.000Z</time>
      </trkpt>
      <trkpt lat="46.56928" lon="0.19746">
        <ele>196.89</ele>
        <time>2019-12-01T11:20:25.000Z</time>
      </trkpt>
      <trkpt lat="46.56929" lon="0.19761">
        <ele>197.5</ele>
        <time>2019-12-01T11:20:28.000Z</time>
      </trkpt>
      <trkpt lat="46.56929" lon="0.19776">
        <ele>197.63</ele>
        <time>2019-12-01T11:20:32.000Z</time>
      </trkpt>
      <trkpt lat="46.5692" lon="0.19783">
        <ele>197.81</ele>
        <time>2019-12-01T11:20:37.000Z</time>
      </trkpt>
      <trkpt lat="46.56909" lon="0.19785">
        <ele>197.82</ele>
        <time>2019-12-01T11:20:42.000Z</time>
      </trkpt>
      <trkpt lat="46.569" lon="0.1979">
        <ele>197.54</ele>
        <time>2019-12-01T11:20:46.000Z</time>
      </trkpt>
    </trkseg>
  </trk>
</gpx>